<?xml version="1.0" encoding="UTF-8" standalone="no" ?>
<gpx xmlns="http://www.topografix.com/GPX/1/1" xmlns:xsi="http://www.w3.org/2001/XMLSchema-instance" xsi:schemaLocation="http://www.topografix.com/GPX/1/1 http://www.topografix.com/GPX/1/1/gpx.xsd" version="1.1" creator="VisuGPX - https://www.visugpx.com">
  <metadata>
    <name>tour de l'Anjou Angers à Montsoreau en 219 km et 1 630 m+</name>
    <desc><![CDATA[tour de l'Anjou Angers à Montsoreau en 219 km et 1 630 m+]]></desc>
  </metadata>
  <trk>
    <name><![CDATA[6153071-tour de l'Anjou 1]]></name>
    <trkseg>
      <trkpt lat="47.47252" lon="-0.5836">
        <ele>30</ele>
        <time>2021-03-24T19:27:26Z</time>
      </trkpt>
      <trkpt lat="47.47243" lon="-0.58421">
        <ele>32</ele>
        <time>2021-03-24T19:27:34Z</time>
      </trkpt>
      <trkpt lat="47.47223" lon="-0.58505">
        <ele>33</ele>
        <time>2021-03-24T19:27:44Z</time>
      </trkpt>
      <trkpt lat="47.47216" lon="-0.58538">
        <ele>33</ele>
        <time>2021-03-24T19:27:48Z</time>
      </trkpt>
      <trkpt lat="47.4722" lon="-0.58542">
        <ele>33</ele>
        <time>2021-03-24T19:27:49Z</time>
      </trkpt>
      <trkpt lat="47.47222" lon="-0.58552">
        <ele>34</ele>
        <time>2021-03-24T19:27:50Z</time>
      </trkpt>
      <trkpt lat="47.4722" lon="-0.58561">
        <ele>34</ele>
        <time>2021-03-24T19:27:52Z</time>
      </trkpt>
      <trkpt lat="47.47212" lon="-0.58564">
        <ele>34</ele>
        <time>2021-03-24T19:27:53Z</time>
      </trkpt>
      <trkpt lat="47.47207" lon="-0.58581">
        <ele>34</ele>
        <time>2021-03-24T19:27:55Z</time>
      </trkpt>
      <trkpt lat="47.4721" lon="-0.58591">
        <ele>34</ele>
        <time>2021-03-24T19:27:57Z</time>
      </trkpt>
      <trkpt lat="47.47208" lon="-0.58598">
        <ele>34</ele>
        <time>2021-03-24T19:27:58Z</time>
      </trkpt>
      <trkpt lat="47.47203" lon="-0.58602">
        <ele>34</ele>
        <time>2021-03-24T19:27:59Z</time>
      </trkpt>
      <trkpt lat="47.47197" lon="-0.58601">
        <ele>34</ele>
        <time>2021-03-24T19:28:00Z</time>
      </trkpt>
      <trkpt lat="47.47195" lon="-0.58598">
        <ele>34</ele>
        <time>2021-03-24T19:28:00Z</time>
      </trkpt>
      <trkpt lat="47.47188" lon="-0.58603">
        <ele>34</ele>
        <time>2021-03-24T19:28:02Z</time>
      </trkpt>
      <trkpt lat="47.47122" lon="-0.58683">
        <ele>31</ele>
        <time>2021-03-24T19:28:17Z</time>
      </trkpt>
      <trkpt lat="47.4708" lon="-0.58757">
        <ele>31</ele>
        <time>2021-03-24T19:28:28Z</time>
      </trkpt>
      <trkpt lat="47.47054" lon="-0.58807">
        <ele>29</ele>
        <time>2021-03-24T19:28:36Z</time>
      </trkpt>
      <trkpt lat="47.47053" lon="-0.5882">
        <ele>29</ele>
        <time>2021-03-24T19:28:38Z</time>
      </trkpt>
      <trkpt lat="47.47055" lon="-0.58829">
        <ele>29</ele>
        <time>2021-03-24T19:28:39Z</time>
      </trkpt>
      <trkpt lat="47.47054" lon="-0.58835">
        <ele>29</ele>
        <time>2021-03-24T19:28:39Z</time>
      </trkpt>
      <trkpt lat="47.4705" lon="-0.58839">
        <ele>29</ele>
        <time>2021-03-24T19:28:40Z</time>
      </trkpt>
      <trkpt lat="47.47047" lon="-0.58839">
        <ele>29</ele>
        <time>2021-03-24T19:28:41Z</time>
      </trkpt>
      <trkpt lat="47.47038" lon="-0.58853">
        <ele>29</ele>
        <time>2021-03-24T19:28:43Z</time>
      </trkpt>
      <trkpt lat="47.47036" lon="-0.5885">
        <ele>28</ele>
        <time>2021-03-24T19:28:44Z</time>
      </trkpt>
      <trkpt lat="47.47027" lon="-0.58862">
        <ele>28</ele>
        <time>2021-03-24T19:28:46Z</time>
      </trkpt>
      <trkpt lat="47.47011" lon="-0.58878">
        <ele>28</ele>
        <time>2021-03-24T19:28:49Z</time>
      </trkpt>
      <trkpt lat="47.47002" lon="-0.58884">
        <ele>27</ele>
        <time>2021-03-24T19:28:51Z</time>
      </trkpt>
      <trkpt lat="47.46948" lon="-0.58907">
        <ele>26</ele>
        <time>2021-03-24T19:29:01Z</time>
      </trkpt>
      <trkpt lat="47.46849" lon="-0.58956">
        <ele>25</ele>
        <time>2021-03-24T19:29:20Z</time>
      </trkpt>
      <trkpt lat="47.46814" lon="-0.58988">
        <ele>25</ele>
        <time>2021-03-24T19:29:27Z</time>
      </trkpt>
      <trkpt lat="47.46705" lon="-0.59154">
        <ele>25</ele>
        <time>2021-03-24T19:29:55Z</time>
      </trkpt>
      <trkpt lat="47.46687" lon="-0.59174">
        <ele>24</ele>
        <time>2021-03-24T19:29:59Z</time>
      </trkpt>
      <trkpt lat="47.4668" lon="-0.59181">
        <ele>24</ele>
        <time>2021-03-24T19:30:00Z</time>
      </trkpt>
      <trkpt lat="47.46676" lon="-0.59181">
        <ele>24</ele>
        <time>2021-03-24T19:30:01Z</time>
      </trkpt>
      <trkpt lat="47.46664" lon="-0.59191">
        <ele>24</ele>
        <time>2021-03-24T19:30:03Z</time>
      </trkpt>
      <trkpt lat="47.46557" lon="-0.59264">
        <ele>23</ele>
        <time>2021-03-24T19:30:24Z</time>
      </trkpt>
      <trkpt lat="47.46527" lon="-0.59294">
        <ele>24</ele>
        <time>2021-03-24T19:30:31Z</time>
      </trkpt>
      <trkpt lat="47.46498" lon="-0.59332">
        <ele>24</ele>
        <time>2021-03-24T19:30:38Z</time>
      </trkpt>
      <trkpt lat="47.46493" lon="-0.59356">
        <ele>24</ele>
        <time>2021-03-24T19:30:41Z</time>
      </trkpt>
      <trkpt lat="47.46497" lon="-0.59362">
        <ele>24</ele>
        <time>2021-03-24T19:30:42Z</time>
      </trkpt>
      <trkpt lat="47.46499" lon="-0.59369">
        <ele>24</ele>
        <time>2021-03-24T19:30:43Z</time>
      </trkpt>
      <trkpt lat="47.46499" lon="-0.59378">
        <ele>25</ele>
        <time>2021-03-24T19:30:44Z</time>
      </trkpt>
      <trkpt lat="47.46496" lon="-0.59387">
        <ele>25</ele>
        <time>2021-03-24T19:30:45Z</time>
      </trkpt>
      <trkpt lat="47.46492" lon="-0.59391">
        <ele>25</ele>
        <time>2021-03-24T19:30:46Z</time>
      </trkpt>
      <trkpt lat="47.46486" lon="-0.59393">
        <ele>25</ele>
        <time>2021-03-24T19:30:47Z</time>
      </trkpt>
      <trkpt lat="47.46474" lon="-0.59393">
        <ele>25</ele>
        <time>2021-03-24T19:30:49Z</time>
      </trkpt>
      <trkpt lat="47.46463" lon="-0.59386">
        <ele>25</ele>
        <time>2021-03-24T19:30:51Z</time>
      </trkpt>
      <trkpt lat="47.46452" lon="-0.59388">
        <ele>25</ele>
        <time>2021-03-24T19:30:53Z</time>
      </trkpt>
      <trkpt lat="47.46441" lon="-0.59393">
        <ele>25</ele>
        <time>2021-03-24T19:30:55Z</time>
      </trkpt>
      <trkpt lat="47.46317" lon="-0.595">
        <ele>22</ele>
        <time>2021-03-24T19:31:21Z</time>
      </trkpt>
      <trkpt lat="47.46245" lon="-0.59554">
        <ele>22</ele>
        <time>2021-03-24T19:31:35Z</time>
      </trkpt>
      <trkpt lat="47.46208" lon="-0.59579">
        <ele>22</ele>
        <time>2021-03-24T19:31:42Z</time>
      </trkpt>
      <trkpt lat="47.46089" lon="-0.5964">
        <ele>23</ele>
        <time>2021-03-24T19:32:05Z</time>
      </trkpt>
      <trkpt lat="47.4609" lon="-0.59651">
        <ele>23</ele>
        <time>2021-03-24T19:32:06Z</time>
      </trkpt>
      <trkpt lat="47.46089" lon="-0.5966">
        <ele>23</ele>
        <time>2021-03-24T19:32:07Z</time>
      </trkpt>
      <trkpt lat="47.46084" lon="-0.59667">
        <ele>23</ele>
        <time>2021-03-24T19:32:08Z</time>
      </trkpt>
      <trkpt lat="47.46077" lon="-0.59673">
        <ele>23</ele>
        <time>2021-03-24T19:32:10Z</time>
      </trkpt>
      <trkpt lat="47.46071" lon="-0.59673">
        <ele>23</ele>
        <time>2021-03-24T19:32:11Z</time>
      </trkpt>
      <trkpt lat="47.46062" lon="-0.59665">
        <ele>23</ele>
        <time>2021-03-24T19:32:13Z</time>
      </trkpt>
      <trkpt lat="47.46059" lon="-0.59657">
        <ele>23</ele>
        <time>2021-03-24T19:32:14Z</time>
      </trkpt>
      <trkpt lat="47.45975" lon="-0.59694">
        <ele>22</ele>
        <time>2021-03-24T19:32:29Z</time>
      </trkpt>
      <trkpt lat="47.45959" lon="-0.59698">
        <ele>22</ele>
        <time>2021-03-24T19:32:32Z</time>
      </trkpt>
      <trkpt lat="47.45771" lon="-0.59714">
        <ele>23</ele>
        <time>2021-03-24T19:33:06Z</time>
      </trkpt>
      <trkpt lat="47.45746" lon="-0.59712">
        <ele>23</ele>
        <time>2021-03-24T19:33:10Z</time>
      </trkpt>
      <trkpt lat="47.45586" lon="-0.59683">
        <ele>23</ele>
        <time>2021-03-24T19:33:39Z</time>
      </trkpt>
      <trkpt lat="47.45553" lon="-0.5968">
        <ele>22</ele>
        <time>2021-03-24T19:33:45Z</time>
      </trkpt>
      <trkpt lat="47.45521" lon="-0.59685">
        <ele>21</ele>
        <time>2021-03-24T19:33:51Z</time>
      </trkpt>
      <trkpt lat="47.455" lon="-0.59692">
        <ele>21</ele>
        <time>2021-03-24T19:33:54Z</time>
      </trkpt>
      <trkpt lat="47.45481" lon="-0.597">
        <ele>21</ele>
        <time>2021-03-24T19:33:58Z</time>
      </trkpt>
      <trkpt lat="47.45466" lon="-0.5971">
        <ele>22</ele>
        <time>2021-03-24T19:34:01Z</time>
      </trkpt>
      <trkpt lat="47.45404" lon="-0.59757">
        <ele>26</ele>
        <time>2021-03-24T19:34:13Z</time>
      </trkpt>
      <trkpt lat="47.45306" lon="-0.59843">
        <ele>39</ele>
        <time>2021-03-24T19:34:33Z</time>
      </trkpt>
      <trkpt lat="47.45205" lon="-0.59913">
        <ele>44</ele>
        <time>2021-03-24T19:34:53Z</time>
      </trkpt>
      <trkpt lat="47.45161" lon="-0.59951">
        <ele>45</ele>
        <time>2021-03-24T19:35:02Z</time>
      </trkpt>
      <trkpt lat="47.45075" lon="-0.60047">
        <ele>47</ele>
        <time>2021-03-24T19:35:22Z</time>
      </trkpt>
      <trkpt lat="47.44987" lon="-0.60149">
        <ele>51</ele>
        <time>2021-03-24T19:35:41Z</time>
      </trkpt>
      <trkpt lat="47.44974" lon="-0.60167">
        <ele>52</ele>
        <time>2021-03-24T19:35:45Z</time>
      </trkpt>
      <trkpt lat="47.44926" lon="-0.60245">
        <ele>55</ele>
        <time>2021-03-24T19:35:57Z</time>
      </trkpt>
      <trkpt lat="47.44918" lon="-0.60261">
        <ele>55</ele>
        <time>2021-03-24T19:36:00Z</time>
      </trkpt>
      <trkpt lat="47.4491" lon="-0.60283">
        <ele>56</ele>
        <time>2021-03-24T19:36:03Z</time>
      </trkpt>
      <trkpt lat="47.4488" lon="-0.60471">
        <ele>60</ele>
        <time>2021-03-24T19:36:26Z</time>
      </trkpt>
      <trkpt lat="47.44876" lon="-0.60491">
        <ele>60</ele>
        <time>2021-03-24T19:36:28Z</time>
      </trkpt>
      <trkpt lat="47.44868" lon="-0.60509">
        <ele>60</ele>
        <time>2021-03-24T19:36:31Z</time>
      </trkpt>
      <trkpt lat="47.44782" lon="-0.60626">
        <ele>55</ele>
        <time>2021-03-24T19:36:52Z</time>
      </trkpt>
      <trkpt lat="47.44766" lon="-0.60641">
        <ele>54</ele>
        <time>2021-03-24T19:36:55Z</time>
      </trkpt>
      <trkpt lat="47.44751" lon="-0.60651">
        <ele>53</ele>
        <time>2021-03-24T19:36:58Z</time>
      </trkpt>
      <trkpt lat="47.44739" lon="-0.60657">
        <ele>52</ele>
        <time>2021-03-24T19:37:00Z</time>
      </trkpt>
      <trkpt lat="47.44723" lon="-0.60659">
        <ele>51</ele>
        <time>2021-03-24T19:37:03Z</time>
      </trkpt>
      <trkpt lat="47.44711" lon="-0.60657">
        <ele>50</ele>
        <time>2021-03-24T19:37:05Z</time>
      </trkpt>
      <trkpt lat="47.44687" lon="-0.60646">
        <ele>48</ele>
        <time>2021-03-24T19:37:10Z</time>
      </trkpt>
      <trkpt lat="47.44674" lon="-0.60636">
        <ele>47</ele>
        <time>2021-03-24T19:37:13Z</time>
      </trkpt>
      <trkpt lat="47.44632" lon="-0.60591">
        <ele>44</ele>
        <time>2021-03-24T19:37:22Z</time>
      </trkpt>
      <trkpt lat="47.44614" lon="-0.60575">
        <ele>43</ele>
        <time>2021-03-24T19:37:25Z</time>
      </trkpt>
      <trkpt lat="47.44606" lon="-0.6057">
        <ele>43</ele>
        <time>2021-03-24T19:37:27Z</time>
      </trkpt>
      <trkpt lat="47.44602" lon="-0.60578">
        <ele>43</ele>
        <time>2021-03-24T19:37:28Z</time>
      </trkpt>
      <trkpt lat="47.44596" lon="-0.60582">
        <ele>43</ele>
        <time>2021-03-24T19:37:29Z</time>
      </trkpt>
      <trkpt lat="47.44586" lon="-0.60582">
        <ele>42</ele>
        <time>2021-03-24T19:37:31Z</time>
      </trkpt>
      <trkpt lat="47.4458" lon="-0.60574">
        <ele>42</ele>
        <time>2021-03-24T19:37:33Z</time>
      </trkpt>
      <trkpt lat="47.44576" lon="-0.60565">
        <ele>42</ele>
        <time>2021-03-24T19:37:34Z</time>
      </trkpt>
      <trkpt lat="47.44576" lon="-0.60553">
        <ele>41</ele>
        <time>2021-03-24T19:37:35Z</time>
      </trkpt>
      <trkpt lat="47.44556" lon="-0.60553">
        <ele>41</ele>
        <time>2021-03-24T19:37:39Z</time>
      </trkpt>
      <trkpt lat="47.44514" lon="-0.60577">
        <ele>40</ele>
        <time>2021-03-24T19:37:47Z</time>
      </trkpt>
      <trkpt lat="47.44428" lon="-0.60617">
        <ele>37</ele>
        <time>2021-03-24T19:38:03Z</time>
      </trkpt>
      <trkpt lat="47.444" lon="-0.60628">
        <ele>35</ele>
        <time>2021-03-24T19:38:08Z</time>
      </trkpt>
      <trkpt lat="47.44285" lon="-0.60657">
        <ele>29</ele>
        <time>2021-03-24T19:38:29Z</time>
      </trkpt>
      <trkpt lat="47.44253" lon="-0.60671">
        <ele>29</ele>
        <time>2021-03-24T19:38:35Z</time>
      </trkpt>
      <trkpt lat="47.43984" lon="-0.60852">
        <ele>39</ele>
        <time>2021-03-24T19:39:27Z</time>
      </trkpt>
      <trkpt lat="47.43929" lon="-0.60893">
        <ele>43</ele>
        <time>2021-03-24T19:39:38Z</time>
      </trkpt>
      <trkpt lat="47.43888" lon="-0.60916">
        <ele>46</ele>
        <time>2021-03-24T19:39:46Z</time>
      </trkpt>
      <trkpt lat="47.43771" lon="-0.60967">
        <ele>52</ele>
        <time>2021-03-24T19:40:08Z</time>
      </trkpt>
      <trkpt lat="47.43739" lon="-0.60976">
        <ele>53</ele>
        <time>2021-03-24T19:40:14Z</time>
      </trkpt>
      <trkpt lat="47.43606" lon="-0.60973">
        <ele>55</ele>
        <time>2021-03-24T19:40:37Z</time>
      </trkpt>
      <trkpt lat="47.43566" lon="-0.6098">
        <ele>55</ele>
        <time>2021-03-24T19:40:44Z</time>
      </trkpt>
      <trkpt lat="47.43537" lon="-0.60993">
        <ele>55</ele>
        <time>2021-03-24T19:40:50Z</time>
      </trkpt>
      <trkpt lat="47.43497" lon="-0.61019">
        <ele>56</ele>
        <time>2021-03-24T19:40:58Z</time>
      </trkpt>
      <trkpt lat="47.43463" lon="-0.61054">
        <ele>58</ele>
        <time>2021-03-24T19:41:05Z</time>
      </trkpt>
      <trkpt lat="47.43453" lon="-0.61058">
        <ele>58</ele>
        <time>2021-03-24T19:41:07Z</time>
      </trkpt>
      <trkpt lat="47.43437" lon="-0.6107">
        <ele>59</ele>
        <time>2021-03-24T19:41:10Z</time>
      </trkpt>
      <trkpt lat="47.43417" lon="-0.61082">
        <ele>60</ele>
        <time>2021-03-24T19:41:14Z</time>
      </trkpt>
      <trkpt lat="47.43395" lon="-0.61088">
        <ele>60</ele>
        <time>2021-03-24T19:41:18Z</time>
      </trkpt>
      <trkpt lat="47.43382" lon="-0.61105">
        <ele>61</ele>
        <time>2021-03-24T19:41:21Z</time>
      </trkpt>
      <trkpt lat="47.43358" lon="-0.61104">
        <ele>61</ele>
        <time>2021-03-24T19:41:25Z</time>
      </trkpt>
      <trkpt lat="47.43343" lon="-0.61096">
        <ele>61</ele>
        <time>2021-03-24T19:41:28Z</time>
      </trkpt>
      <trkpt lat="47.43249" lon="-0.61073">
        <ele>60</ele>
        <time>2021-03-24T19:41:45Z</time>
      </trkpt>
      <trkpt lat="47.43227" lon="-0.61062">
        <ele>60</ele>
        <time>2021-03-24T19:41:49Z</time>
      </trkpt>
      <trkpt lat="47.43177" lon="-0.61052">
        <ele>60</ele>
        <time>2021-03-24T19:41:58Z</time>
      </trkpt>
      <trkpt lat="47.43126" lon="-0.61034">
        <ele>58</ele>
        <time>2021-03-24T19:42:07Z</time>
      </trkpt>
      <trkpt lat="47.43029" lon="-0.60965">
        <ele>52</ele>
        <time>2021-03-24T19:42:27Z</time>
      </trkpt>
      <trkpt lat="47.43034" lon="-0.60951">
        <ele>53</ele>
        <time>2021-03-24T19:42:29Z</time>
      </trkpt>
      <trkpt lat="47.43027" lon="-0.60946">
        <ele>52</ele>
        <time>2021-03-24T19:42:30Z</time>
      </trkpt>
      <trkpt lat="47.42962" lon="-0.60901">
        <ele>50</ele>
        <time>2021-03-24T19:42:43Z</time>
      </trkpt>
      <trkpt lat="47.42941" lon="-0.60892">
        <ele>49</ele>
        <time>2021-03-24T19:42:47Z</time>
      </trkpt>
      <trkpt lat="47.42915" lon="-0.60888">
        <ele>49</ele>
        <time>2021-03-24T19:42:51Z</time>
      </trkpt>
      <trkpt lat="47.42894" lon="-0.60889">
        <ele>48</ele>
        <time>2021-03-24T19:42:55Z</time>
      </trkpt>
      <trkpt lat="47.42875" lon="-0.60894">
        <ele>48</ele>
        <time>2021-03-24T19:42:58Z</time>
      </trkpt>
      <trkpt lat="47.42758" lon="-0.60936">
        <ele>45</ele>
        <time>2021-03-24T19:43:20Z</time>
      </trkpt>
      <trkpt lat="47.42693" lon="-0.60947">
        <ele>43</ele>
        <time>2021-03-24T19:43:31Z</time>
      </trkpt>
      <trkpt lat="47.42531" lon="-0.60967">
        <ele>37</ele>
        <time>2021-03-24T19:44:00Z</time>
      </trkpt>
      <trkpt lat="47.42503" lon="-0.60963">
        <ele>36</ele>
        <time>2021-03-24T19:44:05Z</time>
      </trkpt>
      <trkpt lat="47.42463" lon="-0.60934">
        <ele>35</ele>
        <time>2021-03-24T19:44:13Z</time>
      </trkpt>
      <trkpt lat="47.42439" lon="-0.60926">
        <ele>35</ele>
        <time>2021-03-24T19:44:18Z</time>
      </trkpt>
      <trkpt lat="47.42385" lon="-0.60916">
        <ele>34</ele>
        <time>2021-03-24T19:44:27Z</time>
      </trkpt>
      <trkpt lat="47.42353" lon="-0.60914">
        <ele>33</ele>
        <time>2021-03-24T19:44:33Z</time>
      </trkpt>
      <trkpt lat="47.42309" lon="-0.60919">
        <ele>30</ele>
        <time>2021-03-24T19:44:41Z</time>
      </trkpt>
      <trkpt lat="47.42273" lon="-0.60924">
        <ele>28</ele>
        <time>2021-03-24T19:44:47Z</time>
      </trkpt>
      <trkpt lat="47.42251" lon="-0.60931">
        <ele>26</ele>
        <time>2021-03-24T19:44:51Z</time>
      </trkpt>
      <trkpt lat="47.42272" lon="-0.60997">
        <ele>29</ele>
        <time>2021-03-24T19:45:00Z</time>
      </trkpt>
      <trkpt lat="47.42272" lon="-0.61014">
        <ele>29</ele>
        <time>2021-03-24T19:45:02Z</time>
      </trkpt>
      <trkpt lat="47.42268" lon="-0.61026">
        <ele>28</ele>
        <time>2021-03-24T19:45:04Z</time>
      </trkpt>
      <trkpt lat="47.4226" lon="-0.61033">
        <ele>27</ele>
        <time>2021-03-24T19:45:05Z</time>
      </trkpt>
      <trkpt lat="47.42202" lon="-0.61065">
        <ele>23</ele>
        <time>2021-03-24T19:45:16Z</time>
      </trkpt>
      <trkpt lat="47.42196" lon="-0.61064">
        <ele>22</ele>
        <time>2021-03-24T19:45:18Z</time>
      </trkpt>
      <trkpt lat="47.42153" lon="-0.61042">
        <ele>21</ele>
        <time>2021-03-24T19:45:26Z</time>
      </trkpt>
      <trkpt lat="47.42148" lon="-0.61025">
        <ele>21</ele>
        <time>2021-03-24T19:45:28Z</time>
      </trkpt>
      <trkpt lat="47.42123" lon="-0.61014">
        <ele>20</ele>
        <time>2021-03-24T19:45:33Z</time>
      </trkpt>
      <trkpt lat="47.42112" lon="-0.61012">
        <ele>20</ele>
        <time>2021-03-24T19:45:34Z</time>
      </trkpt>
      <trkpt lat="47.42111" lon="-0.61019">
        <ele>20</ele>
        <time>2021-03-24T19:45:35Z</time>
      </trkpt>
      <trkpt lat="47.42106" lon="-0.61032">
        <ele>20</ele>
        <time>2021-03-24T19:45:37Z</time>
      </trkpt>
      <trkpt lat="47.42102" lon="-0.61036">
        <ele>19</ele>
        <time>2021-03-24T19:45:38Z</time>
      </trkpt>
      <trkpt lat="47.42096" lon="-0.61038">
        <ele>19</ele>
        <time>2021-03-24T19:45:39Z</time>
      </trkpt>
      <trkpt lat="47.42086" lon="-0.61035">
        <ele>19</ele>
        <time>2021-03-24T19:45:41Z</time>
      </trkpt>
      <trkpt lat="47.42082" lon="-0.61031">
        <ele>19</ele>
        <time>2021-03-24T19:45:42Z</time>
      </trkpt>
      <trkpt lat="47.42007" lon="-0.61088">
        <ele>19</ele>
        <time>2021-03-24T19:45:57Z</time>
      </trkpt>
      <trkpt lat="47.41797" lon="-0.61269">
        <ele>21</ele>
        <time>2021-03-24T19:46:40Z</time>
      </trkpt>
      <trkpt lat="47.41752" lon="-0.61333">
        <ele>20</ele>
        <time>2021-03-24T19:46:51Z</time>
      </trkpt>
      <trkpt lat="47.41711" lon="-0.61421">
        <ele>22</ele>
        <time>2021-03-24T19:47:04Z</time>
      </trkpt>
      <trkpt lat="47.41699" lon="-0.61445">
        <ele>22</ele>
        <time>2021-03-24T19:47:08Z</time>
      </trkpt>
      <trkpt lat="47.41684" lon="-0.61464">
        <ele>22</ele>
        <time>2021-03-24T19:47:11Z</time>
      </trkpt>
      <trkpt lat="47.41649" lon="-0.61494">
        <ele>22</ele>
        <time>2021-03-24T19:47:18Z</time>
      </trkpt>
      <trkpt lat="47.41585" lon="-0.61533">
        <ele>22</ele>
        <time>2021-03-24T19:47:31Z</time>
      </trkpt>
      <trkpt lat="47.41515" lon="-0.61616">
        <ele>25</ele>
        <time>2021-03-24T19:47:47Z</time>
      </trkpt>
      <trkpt lat="47.415" lon="-0.61627">
        <ele>25</ele>
        <time>2021-03-24T19:47:50Z</time>
      </trkpt>
      <trkpt lat="47.41482" lon="-0.61633">
        <ele>24</ele>
        <time>2021-03-24T19:47:53Z</time>
      </trkpt>
      <trkpt lat="47.41411" lon="-0.6165">
        <ele>23</ele>
        <time>2021-03-24T19:48:06Z</time>
      </trkpt>
      <trkpt lat="47.41379" lon="-0.61662">
        <ele>22</ele>
        <time>2021-03-24T19:48:12Z</time>
      </trkpt>
      <trkpt lat="47.4135" lon="-0.61681">
        <ele>21</ele>
        <time>2021-03-24T19:48:17Z</time>
      </trkpt>
      <trkpt lat="47.41321" lon="-0.61708">
        <ele>21</ele>
        <time>2021-03-24T19:48:23Z</time>
      </trkpt>
      <trkpt lat="47.41298" lon="-0.61735">
        <ele>21</ele>
        <time>2021-03-24T19:48:29Z</time>
      </trkpt>
      <trkpt lat="47.41257" lon="-0.61793">
        <ele>21</ele>
        <time>2021-03-24T19:48:39Z</time>
      </trkpt>
      <trkpt lat="47.41221" lon="-0.61838">
        <ele>24</ele>
        <time>2021-03-24T19:48:47Z</time>
      </trkpt>
      <trkpt lat="47.41188" lon="-0.61864">
        <ele>27</ele>
        <time>2021-03-24T19:48:54Z</time>
      </trkpt>
      <trkpt lat="47.41155" lon="-0.61879">
        <ele>29</ele>
        <time>2021-03-24T19:49:00Z</time>
      </trkpt>
      <trkpt lat="47.41133" lon="-0.61896">
        <ele>30</ele>
        <time>2021-03-24T19:49:04Z</time>
      </trkpt>
      <trkpt lat="47.41076" lon="-0.61959">
        <ele>33</ele>
        <time>2021-03-24T19:49:17Z</time>
      </trkpt>
      <trkpt lat="47.4101" lon="-0.62006">
        <ele>33</ele>
        <time>2021-03-24T19:49:30Z</time>
      </trkpt>
      <trkpt lat="47.40996" lon="-0.61989">
        <ele>32</ele>
        <time>2021-03-24T19:49:33Z</time>
      </trkpt>
      <trkpt lat="47.40939" lon="-0.61999">
        <ele>31</ele>
        <time>2021-03-24T19:49:43Z</time>
      </trkpt>
      <trkpt lat="47.40926" lon="-0.6199">
        <ele>30</ele>
        <time>2021-03-24T19:49:46Z</time>
      </trkpt>
      <trkpt lat="47.40919" lon="-0.61979">
        <ele>29</ele>
        <time>2021-03-24T19:49:48Z</time>
      </trkpt>
      <trkpt lat="47.40905" lon="-0.61969">
        <ele>27</ele>
        <time>2021-03-24T19:49:50Z</time>
      </trkpt>
      <trkpt lat="47.40894" lon="-0.61967">
        <ele>27</ele>
        <time>2021-03-24T19:49:52Z</time>
      </trkpt>
      <trkpt lat="47.40886" lon="-0.6197">
        <ele>27</ele>
        <time>2021-03-24T19:49:54Z</time>
      </trkpt>
      <trkpt lat="47.40853" lon="-0.61995">
        <ele>26</ele>
        <time>2021-03-24T19:50:01Z</time>
      </trkpt>
      <trkpt lat="47.40819" lon="-0.62006">
        <ele>25</ele>
        <time>2021-03-24T19:50:07Z</time>
      </trkpt>
      <trkpt lat="47.40783" lon="-0.62022">
        <ele>25</ele>
        <time>2021-03-24T19:50:13Z</time>
      </trkpt>
      <trkpt lat="47.40719" lon="-0.62064">
        <ele>24</ele>
        <time>2021-03-24T19:50:26Z</time>
      </trkpt>
      <trkpt lat="47.40706" lon="-0.62065">
        <ele>23</ele>
        <time>2021-03-24T19:50:28Z</time>
      </trkpt>
      <trkpt lat="47.40696" lon="-0.62068">
        <ele>23</ele>
        <time>2021-03-24T19:50:30Z</time>
      </trkpt>
      <trkpt lat="47.40679" lon="-0.62082">
        <ele>22</ele>
        <time>2021-03-24T19:50:33Z</time>
      </trkpt>
      <trkpt lat="47.40659" lon="-0.62096">
        <ele>21</ele>
        <time>2021-03-24T19:50:37Z</time>
      </trkpt>
      <trkpt lat="47.40639" lon="-0.62128">
        <ele>22</ele>
        <time>2021-03-24T19:50:43Z</time>
      </trkpt>
      <trkpt lat="47.4063" lon="-0.62146">
        <ele>22</ele>
        <time>2021-03-24T19:50:45Z</time>
      </trkpt>
      <trkpt lat="47.40626" lon="-0.62159">
        <ele>22</ele>
        <time>2021-03-24T19:50:47Z</time>
      </trkpt>
      <trkpt lat="47.40615" lon="-0.62284">
        <ele>25</ele>
        <time>2021-03-24T19:51:02Z</time>
      </trkpt>
      <trkpt lat="47.40611" lon="-0.62305">
        <ele>25</ele>
        <time>2021-03-24T19:51:05Z</time>
      </trkpt>
      <trkpt lat="47.40599" lon="-0.62334">
        <ele>24</ele>
        <time>2021-03-24T19:51:09Z</time>
      </trkpt>
      <trkpt lat="47.40596" lon="-0.62357">
        <ele>24</ele>
        <time>2021-03-24T19:51:12Z</time>
      </trkpt>
      <trkpt lat="47.40581" lon="-0.6236">
        <ele>23</ele>
        <time>2021-03-24T19:51:14Z</time>
      </trkpt>
      <trkpt lat="47.40569" lon="-0.62367">
        <ele>24</ele>
        <time>2021-03-24T19:51:17Z</time>
      </trkpt>
      <trkpt lat="47.40561" lon="-0.62374">
        <ele>25</ele>
        <time>2021-03-24T19:51:18Z</time>
      </trkpt>
      <trkpt lat="47.40555" lon="-0.62383">
        <ele>25</ele>
        <time>2021-03-24T19:51:20Z</time>
      </trkpt>
      <trkpt lat="47.40532" lon="-0.62431">
        <ele>28</ele>
        <time>2021-03-24T19:51:27Z</time>
      </trkpt>
      <trkpt lat="47.40519" lon="-0.62462">
        <ele>29</ele>
        <time>2021-03-24T19:51:31Z</time>
      </trkpt>
      <trkpt lat="47.40507" lon="-0.62496">
        <ele>29</ele>
        <time>2021-03-24T19:51:36Z</time>
      </trkpt>
      <trkpt lat="47.40486" lon="-0.62575">
        <ele>31</ele>
        <time>2021-03-24T19:51:46Z</time>
      </trkpt>
      <trkpt lat="47.40481" lon="-0.62674">
        <ele>33</ele>
        <time>2021-03-24T19:51:58Z</time>
      </trkpt>
      <trkpt lat="47.40479" lon="-0.627">
        <ele>34</ele>
        <time>2021-03-24T19:52:01Z</time>
      </trkpt>
      <trkpt lat="47.40474" lon="-0.62728">
        <ele>35</ele>
        <time>2021-03-24T19:52:05Z</time>
      </trkpt>
      <trkpt lat="47.40465" lon="-0.62767">
        <ele>36</ele>
        <time>2021-03-24T19:52:10Z</time>
      </trkpt>
      <trkpt lat="47.4046" lon="-0.62782">
        <ele>36</ele>
        <time>2021-03-24T19:52:12Z</time>
      </trkpt>
      <trkpt lat="47.40446" lon="-0.6281">
        <ele>36</ele>
        <time>2021-03-24T19:52:16Z</time>
      </trkpt>
      <trkpt lat="47.40411" lon="-0.62864">
        <ele>36</ele>
        <time>2021-03-24T19:52:25Z</time>
      </trkpt>
      <trkpt lat="47.40378" lon="-0.62924">
        <ele>41</ele>
        <time>2021-03-24T19:52:34Z</time>
      </trkpt>
      <trkpt lat="47.40301" lon="-0.63084">
        <ele>43</ele>
        <time>2021-03-24T19:52:58Z</time>
      </trkpt>
      <trkpt lat="47.40269" lon="-0.63159">
        <ele>44</ele>
        <time>2021-03-24T19:53:09Z</time>
      </trkpt>
      <trkpt lat="47.40218" lon="-0.63325">
        <ele>45</ele>
        <time>2021-03-24T19:53:31Z</time>
      </trkpt>
      <trkpt lat="47.40188" lon="-0.63434">
        <ele>46</ele>
        <time>2021-03-24T19:53:45Z</time>
      </trkpt>
      <trkpt lat="47.40168" lon="-0.63475">
        <ele>45</ele>
        <time>2021-03-24T19:53:51Z</time>
      </trkpt>
      <trkpt lat="47.40157" lon="-0.63489">
        <ele>45</ele>
        <time>2021-03-24T19:53:53Z</time>
      </trkpt>
      <trkpt lat="47.4003" lon="-0.63617">
        <ele>52</ele>
        <time>2021-03-24T19:54:21Z</time>
      </trkpt>
      <trkpt lat="47.40022" lon="-0.63621">
        <ele>53</ele>
        <time>2021-03-24T19:54:22Z</time>
      </trkpt>
      <trkpt lat="47.40001" lon="-0.63622">
        <ele>54</ele>
        <time>2021-03-24T19:54:26Z</time>
      </trkpt>
      <trkpt lat="47.39994" lon="-0.63621">
        <ele>54</ele>
        <time>2021-03-24T19:54:27Z</time>
      </trkpt>
      <trkpt lat="47.39979" lon="-0.63609">
        <ele>55</ele>
        <time>2021-03-24T19:54:30Z</time>
      </trkpt>
      <trkpt lat="47.39949" lon="-0.63576">
        <ele>56</ele>
        <time>2021-03-24T19:54:37Z</time>
      </trkpt>
      <trkpt lat="47.39882" lon="-0.63497">
        <ele>59</ele>
        <time>2021-03-24T19:54:52Z</time>
      </trkpt>
      <trkpt lat="47.39855" lon="-0.63469">
        <ele>59</ele>
        <time>2021-03-24T19:54:58Z</time>
      </trkpt>
      <trkpt lat="47.39827" lon="-0.63448">
        <ele>58</ele>
        <time>2021-03-24T19:55:04Z</time>
      </trkpt>
      <trkpt lat="47.39793" lon="-0.63435">
        <ele>57</ele>
        <time>2021-03-24T19:55:10Z</time>
      </trkpt>
      <trkpt lat="47.39779" lon="-0.63435">
        <ele>56</ele>
        <time>2021-03-24T19:55:12Z</time>
      </trkpt>
      <trkpt lat="47.39768" lon="-0.63444">
        <ele>56</ele>
        <time>2021-03-24T19:55:15Z</time>
      </trkpt>
      <trkpt lat="47.39731" lon="-0.63504">
        <ele>58</ele>
        <time>2021-03-24T19:55:24Z</time>
      </trkpt>
      <trkpt lat="47.39715" lon="-0.63538">
        <ele>58</ele>
        <time>2021-03-24T19:55:29Z</time>
      </trkpt>
      <trkpt lat="47.39696" lon="-0.63596">
        <ele>58</ele>
        <time>2021-03-24T19:55:37Z</time>
      </trkpt>
      <trkpt lat="47.39662" lon="-0.63669">
        <ele>57</ele>
        <time>2021-03-24T19:55:48Z</time>
      </trkpt>
      <trkpt lat="47.39652" lon="-0.63699">
        <ele>59</ele>
        <time>2021-03-24T19:55:52Z</time>
      </trkpt>
      <trkpt lat="47.39648" lon="-0.63723">
        <ele>60</ele>
        <time>2021-03-24T19:55:55Z</time>
      </trkpt>
      <trkpt lat="47.3964" lon="-0.63744">
        <ele>61</ele>
        <time>2021-03-24T19:55:58Z</time>
      </trkpt>
      <trkpt lat="47.39628" lon="-0.63772">
        <ele>62</ele>
        <time>2021-03-24T19:56:02Z</time>
      </trkpt>
      <trkpt lat="47.39592" lon="-0.63841">
        <ele>64</ele>
        <time>2021-03-24T19:56:12Z</time>
      </trkpt>
      <trkpt lat="47.39582" lon="-0.63863">
        <ele>64</ele>
        <time>2021-03-24T19:56:15Z</time>
      </trkpt>
      <trkpt lat="47.39575" lon="-0.63887">
        <ele>63</ele>
        <time>2021-03-24T19:56:19Z</time>
      </trkpt>
      <trkpt lat="47.39574" lon="-0.63906">
        <ele>63</ele>
        <time>2021-03-24T19:56:21Z</time>
      </trkpt>
      <trkpt lat="47.39577" lon="-0.63931">
        <ele>63</ele>
        <time>2021-03-24T19:56:24Z</time>
      </trkpt>
      <trkpt lat="47.39612" lon="-0.64063">
        <ele>63</ele>
        <time>2021-03-24T19:56:41Z</time>
      </trkpt>
      <trkpt lat="47.39615" lon="-0.64096">
        <ele>63</ele>
        <time>2021-03-24T19:56:45Z</time>
      </trkpt>
      <trkpt lat="47.39614" lon="-0.64114">
        <ele>63</ele>
        <time>2021-03-24T19:56:47Z</time>
      </trkpt>
      <trkpt lat="47.39597" lon="-0.6419">
        <ele>62</ele>
        <time>2021-03-24T19:56:57Z</time>
      </trkpt>
      <trkpt lat="47.39594" lon="-0.64224">
        <ele>62</ele>
        <time>2021-03-24T19:57:01Z</time>
      </trkpt>
      <trkpt lat="47.39594" lon="-0.6424">
        <ele>61</ele>
        <time>2021-03-24T19:57:03Z</time>
      </trkpt>
      <trkpt lat="47.39603" lon="-0.64305">
        <ele>60</ele>
        <time>2021-03-24T19:57:11Z</time>
      </trkpt>
      <trkpt lat="47.39605" lon="-0.64338">
        <ele>59</ele>
        <time>2021-03-24T19:57:15Z</time>
      </trkpt>
      <trkpt lat="47.39605" lon="-0.64354">
        <ele>59</ele>
        <time>2021-03-24T19:57:17Z</time>
      </trkpt>
      <trkpt lat="47.396" lon="-0.64386">
        <ele>59</ele>
        <time>2021-03-24T19:57:21Z</time>
      </trkpt>
      <trkpt lat="47.3959" lon="-0.64412">
        <ele>58</ele>
        <time>2021-03-24T19:57:24Z</time>
      </trkpt>
      <trkpt lat="47.39583" lon="-0.64424">
        <ele>58</ele>
        <time>2021-03-24T19:57:26Z</time>
      </trkpt>
      <trkpt lat="47.3956" lon="-0.64439">
        <ele>58</ele>
        <time>2021-03-24T19:57:31Z</time>
      </trkpt>
      <trkpt lat="47.39517" lon="-0.64453">
        <ele>58</ele>
        <time>2021-03-24T19:57:39Z</time>
      </trkpt>
      <trkpt lat="47.39488" lon="-0.64471">
        <ele>58</ele>
        <time>2021-03-24T19:57:44Z</time>
      </trkpt>
      <trkpt lat="47.39443" lon="-0.64509">
        <ele>60</ele>
        <time>2021-03-24T19:57:53Z</time>
      </trkpt>
      <trkpt lat="47.39419" lon="-0.64533">
        <ele>61</ele>
        <time>2021-03-24T19:57:59Z</time>
      </trkpt>
      <trkpt lat="47.39408" lon="-0.64547">
        <ele>62</ele>
        <time>2021-03-24T19:58:01Z</time>
      </trkpt>
      <trkpt lat="47.3934" lon="-0.64666">
        <ele>64</ele>
        <time>2021-03-24T19:58:20Z</time>
      </trkpt>
      <trkpt lat="47.39319" lon="-0.64701">
        <ele>62</ele>
        <time>2021-03-24T19:58:26Z</time>
      </trkpt>
      <trkpt lat="47.39307" lon="-0.64719">
        <ele>61</ele>
        <time>2021-03-24T19:58:29Z</time>
      </trkpt>
      <trkpt lat="47.39291" lon="-0.64732">
        <ele>59</ele>
        <time>2021-03-24T19:58:32Z</time>
      </trkpt>
      <trkpt lat="47.39282" lon="-0.64735">
        <ele>58</ele>
        <time>2021-03-24T19:58:33Z</time>
      </trkpt>
      <trkpt lat="47.3925" lon="-0.6474">
        <ele>56</ele>
        <time>2021-03-24T19:58:39Z</time>
      </trkpt>
      <trkpt lat="47.39217" lon="-0.64757">
        <ele>54</ele>
        <time>2021-03-24T19:58:45Z</time>
      </trkpt>
      <trkpt lat="47.39191" lon="-0.64765">
        <ele>52</ele>
        <time>2021-03-24T19:58:50Z</time>
      </trkpt>
      <trkpt lat="47.39143" lon="-0.6477">
        <ele>50</ele>
        <time>2021-03-24T19:58:59Z</time>
      </trkpt>
      <trkpt lat="47.39126" lon="-0.64779">
        <ele>47</ele>
        <time>2021-03-24T19:59:02Z</time>
      </trkpt>
      <trkpt lat="47.3911" lon="-0.64797">
        <ele>44</ele>
        <time>2021-03-24T19:59:06Z</time>
      </trkpt>
      <trkpt lat="47.39104" lon="-0.648">
        <ele>43</ele>
        <time>2021-03-24T19:59:07Z</time>
      </trkpt>
      <trkpt lat="47.39097" lon="-0.648">
        <ele>43</ele>
        <time>2021-03-24T19:59:08Z</time>
      </trkpt>
      <trkpt lat="47.39082" lon="-0.64793">
        <ele>43</ele>
        <time>2021-03-24T19:59:11Z</time>
      </trkpt>
      <trkpt lat="47.39038" lon="-0.64746">
        <ele>42</ele>
        <time>2021-03-24T19:59:20Z</time>
      </trkpt>
      <trkpt lat="47.39016" lon="-0.64725">
        <ele>42</ele>
        <time>2021-03-24T19:59:25Z</time>
      </trkpt>
      <trkpt lat="47.39005" lon="-0.64718">
        <ele>41</ele>
        <time>2021-03-24T19:59:27Z</time>
      </trkpt>
      <trkpt lat="47.38996" lon="-0.64714">
        <ele>41</ele>
        <time>2021-03-24T19:59:29Z</time>
      </trkpt>
      <trkpt lat="47.38984" lon="-0.64712">
        <ele>40</ele>
        <time>2021-03-24T19:59:31Z</time>
      </trkpt>
      <trkpt lat="47.38952" lon="-0.64715">
        <ele>37</ele>
        <time>2021-03-24T19:59:37Z</time>
      </trkpt>
      <trkpt lat="47.38925" lon="-0.64711">
        <ele>35</ele>
        <time>2021-03-24T19:59:41Z</time>
      </trkpt>
      <trkpt lat="47.38905" lon="-0.64703">
        <ele>35</ele>
        <time>2021-03-24T19:59:45Z</time>
      </trkpt>
      <trkpt lat="47.38883" lon="-0.64689">
        <ele>36</ele>
        <time>2021-03-24T19:59:49Z</time>
      </trkpt>
      <trkpt lat="47.38651" lon="-0.64532">
        <ele>23</ele>
        <time>2021-03-24T20:00:35Z</time>
      </trkpt>
      <trkpt lat="47.38592" lon="-0.6448">
        <ele>19</ele>
        <time>2021-03-24T20:00:47Z</time>
      </trkpt>
      <trkpt lat="47.38582" lon="-0.64477">
        <ele>19</ele>
        <time>2021-03-24T20:00:49Z</time>
      </trkpt>
      <trkpt lat="47.38574" lon="-0.64485">
        <ele>19</ele>
        <time>2021-03-24T20:00:51Z</time>
      </trkpt>
      <trkpt lat="47.38435" lon="-0.64806">
        <ele>19</ele>
        <time>2021-03-24T20:01:37Z</time>
      </trkpt>
      <trkpt lat="47.3832" lon="-0.65081">
        <ele>18</ele>
        <time>2021-03-24T20:02:15Z</time>
      </trkpt>
      <trkpt lat="47.38324" lon="-0.65088">
        <ele>19</ele>
        <time>2021-03-24T20:02:17Z</time>
      </trkpt>
      <trkpt lat="47.38314" lon="-0.65118">
        <ele>19</ele>
        <time>2021-03-24T20:02:21Z</time>
      </trkpt>
      <trkpt lat="47.38312" lon="-0.6517">
        <ele>20</ele>
        <time>2021-03-24T20:02:27Z</time>
      </trkpt>
      <trkpt lat="47.38313" lon="-0.65189">
        <ele>20</ele>
        <time>2021-03-24T20:02:29Z</time>
      </trkpt>
      <trkpt lat="47.38328" lon="-0.6524">
        <ele>20</ele>
        <time>2021-03-24T20:02:36Z</time>
      </trkpt>
      <trkpt lat="47.38332" lon="-0.65258">
        <ele>20</ele>
        <time>2021-03-24T20:02:38Z</time>
      </trkpt>
      <trkpt lat="47.38332" lon="-0.6528">
        <ele>20</ele>
        <time>2021-03-24T20:02:41Z</time>
      </trkpt>
      <trkpt lat="47.38325" lon="-0.65308">
        <ele>21</ele>
        <time>2021-03-24T20:02:44Z</time>
      </trkpt>
      <trkpt lat="47.38299" lon="-0.65377">
        <ele>21</ele>
        <time>2021-03-24T20:02:54Z</time>
      </trkpt>
      <trkpt lat="47.38292" lon="-0.65411">
        <ele>21</ele>
        <time>2021-03-24T20:02:58Z</time>
      </trkpt>
      <trkpt lat="47.38285" lon="-0.65427">
        <ele>21</ele>
        <time>2021-03-24T20:03:00Z</time>
      </trkpt>
      <trkpt lat="47.3827" lon="-0.65451">
        <ele>21</ele>
        <time>2021-03-24T20:03:04Z</time>
      </trkpt>
      <trkpt lat="47.3826" lon="-0.65472">
        <ele>20</ele>
        <time>2021-03-24T20:03:07Z</time>
      </trkpt>
      <trkpt lat="47.38203" lon="-0.65544">
        <ele>20</ele>
        <time>2021-03-24T20:03:21Z</time>
      </trkpt>
      <trkpt lat="47.38178" lon="-0.65585">
        <ele>19</ele>
        <time>2021-03-24T20:03:27Z</time>
      </trkpt>
      <trkpt lat="47.38175" lon="-0.6558">
        <ele>19</ele>
        <time>2021-03-24T20:03:28Z</time>
      </trkpt>
      <trkpt lat="47.38144" lon="-0.65553">
        <ele>19</ele>
        <time>2021-03-24T20:03:35Z</time>
      </trkpt>
      <trkpt lat="47.38075" lon="-0.65502">
        <ele>19</ele>
        <time>2021-03-24T20:03:48Z</time>
      </trkpt>
      <trkpt lat="47.38023" lon="-0.65454">
        <ele>18</ele>
        <time>2021-03-24T20:03:59Z</time>
      </trkpt>
      <trkpt lat="47.37997" lon="-0.65426">
        <ele>17</ele>
        <time>2021-03-24T20:04:05Z</time>
      </trkpt>
      <trkpt lat="47.37953" lon="-0.65384">
        <ele>17</ele>
        <time>2021-03-24T20:04:14Z</time>
      </trkpt>
      <trkpt lat="47.3791" lon="-0.65348">
        <ele>16</ele>
        <time>2021-03-24T20:04:23Z</time>
      </trkpt>
      <trkpt lat="47.37324" lon="-0.64872">
        <ele>10</ele>
        <time>2021-03-24T20:06:22Z</time>
      </trkpt>
      <trkpt lat="47.37249" lon="-0.64812">
        <ele>19</ele>
        <time>2021-03-24T20:06:37Z</time>
      </trkpt>
      <trkpt lat="47.37233" lon="-0.64803">
        <ele>18</ele>
        <time>2021-03-24T20:06:40Z</time>
      </trkpt>
      <trkpt lat="47.37214" lon="-0.64797">
        <ele>18</ele>
        <time>2021-03-24T20:06:44Z</time>
      </trkpt>
      <trkpt lat="47.37196" lon="-0.64797">
        <ele>17</ele>
        <time>2021-03-24T20:06:47Z</time>
      </trkpt>
      <trkpt lat="47.37181" lon="-0.64803">
        <ele>17</ele>
        <time>2021-03-24T20:06:50Z</time>
      </trkpt>
      <trkpt lat="47.37165" lon="-0.64814">
        <ele>17</ele>
        <time>2021-03-24T20:06:53Z</time>
      </trkpt>
      <trkpt lat="47.37148" lon="-0.64831">
        <ele>17</ele>
        <time>2021-03-24T20:06:57Z</time>
      </trkpt>
      <trkpt lat="47.37133" lon="-0.64854">
        <ele>16</ele>
        <time>2021-03-24T20:07:00Z</time>
      </trkpt>
      <trkpt lat="47.37054" lon="-0.65001">
        <ele>17</ele>
        <time>2021-03-24T20:07:23Z</time>
      </trkpt>
      <trkpt lat="47.36956" lon="-0.65177">
        <ele>16</ele>
        <time>2021-03-24T20:07:51Z</time>
      </trkpt>
      <trkpt lat="47.36924" lon="-0.65221">
        <ele>16</ele>
        <time>2021-03-24T20:07:58Z</time>
      </trkpt>
      <trkpt lat="47.36906" lon="-0.65238">
        <ele>16</ele>
        <time>2021-03-24T20:08:02Z</time>
      </trkpt>
      <trkpt lat="47.36884" lon="-0.65253">
        <ele>16</ele>
        <time>2021-03-24T20:08:06Z</time>
      </trkpt>
      <trkpt lat="47.36861" lon="-0.65264">
        <ele>17</ele>
        <time>2021-03-24T20:08:11Z</time>
      </trkpt>
      <trkpt lat="47.36836" lon="-0.65271">
        <ele>17</ele>
        <time>2021-03-24T20:08:15Z</time>
      </trkpt>
      <trkpt lat="47.36711" lon="-0.65279">
        <ele>15</ele>
        <time>2021-03-24T20:08:38Z</time>
      </trkpt>
      <trkpt lat="47.36664" lon="-0.65292">
        <ele>15</ele>
        <time>2021-03-24T20:08:46Z</time>
      </trkpt>
      <trkpt lat="47.36423" lon="-0.65392">
        <ele>15</ele>
        <time>2021-03-24T20:09:31Z</time>
      </trkpt>
      <trkpt lat="47.36044" lon="-0.65546">
        <ele>16</ele>
        <time>2021-03-24T20:10:41Z</time>
      </trkpt>
      <trkpt lat="47.36016" lon="-0.6555">
        <ele>16</ele>
        <time>2021-03-24T20:10:46Z</time>
      </trkpt>
      <trkpt lat="47.35959" lon="-0.65532">
        <ele>17</ele>
        <time>2021-03-24T20:10:56Z</time>
      </trkpt>
      <trkpt lat="47.35895" lon="-0.65504">
        <ele>18</ele>
        <time>2021-03-24T20:11:08Z</time>
      </trkpt>
      <trkpt lat="47.3588" lon="-0.65501">
        <ele>19</ele>
        <time>2021-03-24T20:11:10Z</time>
      </trkpt>
      <trkpt lat="47.35876" lon="-0.65527">
        <ele>19</ele>
        <time>2021-03-24T20:11:14Z</time>
      </trkpt>
      <trkpt lat="47.35842" lon="-0.65536">
        <ele>21</ele>
        <time>2021-03-24T20:11:20Z</time>
      </trkpt>
      <trkpt lat="47.35832" lon="-0.65543">
        <ele>22</ele>
        <time>2021-03-24T20:11:22Z</time>
      </trkpt>
      <trkpt lat="47.35812" lon="-0.65567">
        <ele>22</ele>
        <time>2021-03-24T20:11:26Z</time>
      </trkpt>
      <trkpt lat="47.3579" lon="-0.65599">
        <ele>23</ele>
        <time>2021-03-24T20:11:32Z</time>
      </trkpt>
      <trkpt lat="47.35759" lon="-0.65592">
        <ele>24</ele>
        <time>2021-03-24T20:11:37Z</time>
      </trkpt>
      <trkpt lat="47.35731" lon="-0.6558">
        <ele>26</ele>
        <time>2021-03-24T20:11:43Z</time>
      </trkpt>
      <trkpt lat="47.35693" lon="-0.65742">
        <ele>25</ele>
        <time>2021-03-24T20:12:03Z</time>
      </trkpt>
      <trkpt lat="47.35598" lon="-0.66129">
        <ele>20</ele>
        <time>2021-03-24T20:12:53Z</time>
      </trkpt>
      <trkpt lat="47.35581" lon="-0.6618">
        <ele>20</ele>
        <time>2021-03-24T20:13:00Z</time>
      </trkpt>
      <trkpt lat="47.35558" lon="-0.66225">
        <ele>20</ele>
        <time>2021-03-24T20:13:07Z</time>
      </trkpt>
      <trkpt lat="47.3551" lon="-0.66299">
        <ele>21</ele>
        <time>2021-03-24T20:13:19Z</time>
      </trkpt>
      <trkpt lat="47.35485" lon="-0.66332">
        <ele>21</ele>
        <time>2021-03-24T20:13:25Z</time>
      </trkpt>
      <trkpt lat="47.3547" lon="-0.66347">
        <ele>21</ele>
        <time>2021-03-24T20:13:28Z</time>
      </trkpt>
      <trkpt lat="47.35446" lon="-0.66366">
        <ele>21</ele>
        <time>2021-03-24T20:13:33Z</time>
      </trkpt>
      <trkpt lat="47.35379" lon="-0.66406">
        <ele>22</ele>
        <time>2021-03-24T20:13:46Z</time>
      </trkpt>
      <trkpt lat="47.35337" lon="-0.66434">
        <ele>22</ele>
        <time>2021-03-24T20:13:54Z</time>
      </trkpt>
      <trkpt lat="47.35317" lon="-0.66454">
        <ele>22</ele>
        <time>2021-03-24T20:13:58Z</time>
      </trkpt>
      <trkpt lat="47.35296" lon="-0.66478">
        <ele>21</ele>
        <time>2021-03-24T20:14:03Z</time>
      </trkpt>
      <trkpt lat="47.35132" lon="-0.66755">
        <ele>19</ele>
        <time>2021-03-24T20:14:47Z</time>
      </trkpt>
      <trkpt lat="47.34923" lon="-0.67113">
        <ele>19</ele>
        <time>2021-03-24T20:15:44Z</time>
      </trkpt>
      <trkpt lat="47.34869" lon="-0.67201">
        <ele>20</ele>
        <time>2021-03-24T20:15:59Z</time>
      </trkpt>
      <trkpt lat="47.34805" lon="-0.67296">
        <ele>23</ele>
        <time>2021-03-24T20:16:15Z</time>
      </trkpt>
      <trkpt lat="47.34791" lon="-0.67319">
        <ele>24</ele>
        <time>2021-03-24T20:16:19Z</time>
      </trkpt>
      <trkpt lat="47.34776" lon="-0.67358">
        <ele>24</ele>
        <time>2021-03-24T20:16:24Z</time>
      </trkpt>
      <trkpt lat="47.34771" lon="-0.67381">
        <ele>23</ele>
        <time>2021-03-24T20:16:27Z</time>
      </trkpt>
      <trkpt lat="47.34768" lon="-0.67403">
        <ele>22</ele>
        <time>2021-03-24T20:16:30Z</time>
      </trkpt>
      <trkpt lat="47.34767" lon="-0.67434">
        <ele>22</ele>
        <time>2021-03-24T20:16:33Z</time>
      </trkpt>
      <trkpt lat="47.34775" lon="-0.67539">
        <ele>24</ele>
        <time>2021-03-24T20:16:46Z</time>
      </trkpt>
      <trkpt lat="47.34771" lon="-0.67576">
        <ele>26</ele>
        <time>2021-03-24T20:16:51Z</time>
      </trkpt>
      <trkpt lat="47.34752" lon="-0.6765">
        <ele>26</ele>
        <time>2021-03-24T20:17:00Z</time>
      </trkpt>
      <trkpt lat="47.34731" lon="-0.67709">
        <ele>27</ele>
        <time>2021-03-24T20:17:08Z</time>
      </trkpt>
      <trkpt lat="47.34721" lon="-0.67729">
        <ele>28</ele>
        <time>2021-03-24T20:17:11Z</time>
      </trkpt>
      <trkpt lat="47.3469" lon="-0.67776">
        <ele>32</ele>
        <time>2021-03-24T20:17:19Z</time>
      </trkpt>
      <trkpt lat="47.3468" lon="-0.67799">
        <ele>34</ele>
        <time>2021-03-24T20:17:22Z</time>
      </trkpt>
      <trkpt lat="47.34672" lon="-0.67825">
        <ele>36</ele>
        <time>2021-03-24T20:17:26Z</time>
      </trkpt>
      <trkpt lat="47.34665" lon="-0.67858">
        <ele>37</ele>
        <time>2021-03-24T20:17:30Z</time>
      </trkpt>
      <trkpt lat="47.34662" lon="-0.67893">
        <ele>37</ele>
        <time>2021-03-24T20:17:34Z</time>
      </trkpt>
      <trkpt lat="47.34663" lon="-0.67927">
        <ele>36</ele>
        <time>2021-03-24T20:17:38Z</time>
      </trkpt>
      <trkpt lat="47.34662" lon="-0.67946">
        <ele>35</ele>
        <time>2021-03-24T20:17:41Z</time>
      </trkpt>
      <trkpt lat="47.34657" lon="-0.6798">
        <ele>36</ele>
        <time>2021-03-24T20:17:45Z</time>
      </trkpt>
      <trkpt lat="47.34627" lon="-0.68095">
        <ele>41</ele>
        <time>2021-03-24T20:18:00Z</time>
      </trkpt>
      <trkpt lat="47.34609" lon="-0.68175">
        <ele>42</ele>
        <time>2021-03-24T20:18:10Z</time>
      </trkpt>
      <trkpt lat="47.34574" lon="-0.68254">
        <ele>44</ele>
        <time>2021-03-24T20:18:21Z</time>
      </trkpt>
      <trkpt lat="47.34567" lon="-0.6828">
        <ele>43</ele>
        <time>2021-03-24T20:18:25Z</time>
      </trkpt>
      <trkpt lat="47.34561" lon="-0.68342">
        <ele>38</ele>
        <time>2021-03-24T20:18:32Z</time>
      </trkpt>
      <trkpt lat="47.34557" lon="-0.6836">
        <ele>37</ele>
        <time>2021-03-24T20:18:34Z</time>
      </trkpt>
      <trkpt lat="47.34551" lon="-0.68374">
        <ele>37</ele>
        <time>2021-03-24T20:18:36Z</time>
      </trkpt>
      <trkpt lat="47.34542" lon="-0.68384">
        <ele>38</ele>
        <time>2021-03-24T20:18:38Z</time>
      </trkpt>
      <trkpt lat="47.3453" lon="-0.68389">
        <ele>40</ele>
        <time>2021-03-24T20:18:41Z</time>
      </trkpt>
      <trkpt lat="47.34519" lon="-0.6839">
        <ele>42</ele>
        <time>2021-03-24T20:18:43Z</time>
      </trkpt>
      <trkpt lat="47.34473" lon="-0.68382">
        <ele>50</ele>
        <time>2021-03-24T20:18:51Z</time>
      </trkpt>
      <trkpt lat="47.34463" lon="-0.68386">
        <ele>50</ele>
        <time>2021-03-24T20:18:53Z</time>
      </trkpt>
      <trkpt lat="47.34452" lon="-0.68408">
        <ele>50</ele>
        <time>2021-03-24T20:18:56Z</time>
      </trkpt>
      <trkpt lat="47.34451" lon="-0.68417">
        <ele>49</ele>
        <time>2021-03-24T20:18:57Z</time>
      </trkpt>
      <trkpt lat="47.34453" lon="-0.68436">
        <ele>49</ele>
        <time>2021-03-24T20:18:59Z</time>
      </trkpt>
      <trkpt lat="47.34474" lon="-0.68494">
        <ele>48</ele>
        <time>2021-03-24T20:19:07Z</time>
      </trkpt>
      <trkpt lat="47.34479" lon="-0.68526">
        <ele>48</ele>
        <time>2021-03-24T20:19:11Z</time>
      </trkpt>
      <trkpt lat="47.34479" lon="-0.68551">
        <ele>49</ele>
        <time>2021-03-24T20:19:14Z</time>
      </trkpt>
      <trkpt lat="47.34478" lon="-0.68563">
        <ele>49</ele>
        <time>2021-03-24T20:19:16Z</time>
      </trkpt>
      <trkpt lat="47.34453" lon="-0.68689">
        <ele>53</ele>
        <time>2021-03-24T20:19:32Z</time>
      </trkpt>
      <trkpt lat="47.3445" lon="-0.6871">
        <ele>52</ele>
        <time>2021-03-24T20:19:34Z</time>
      </trkpt>
      <trkpt lat="47.34448" lon="-0.68749">
        <ele>52</ele>
        <time>2021-03-24T20:19:39Z</time>
      </trkpt>
      <trkpt lat="47.34449" lon="-0.68787">
        <ele>52</ele>
        <time>2021-03-24T20:19:43Z</time>
      </trkpt>
      <trkpt lat="47.34453" lon="-0.68826">
        <ele>51</ele>
        <time>2021-03-24T20:19:48Z</time>
      </trkpt>
      <trkpt lat="47.34457" lon="-0.68848">
        <ele>51</ele>
        <time>2021-03-24T20:19:51Z</time>
      </trkpt>
      <trkpt lat="47.34468" lon="-0.68892">
        <ele>50</ele>
        <time>2021-03-24T20:19:57Z</time>
      </trkpt>
      <trkpt lat="47.34471" lon="-0.68917">
        <ele>51</ele>
        <time>2021-03-24T20:20:00Z</time>
      </trkpt>
      <trkpt lat="47.3447" lon="-0.68939">
        <ele>51</ele>
        <time>2021-03-24T20:20:02Z</time>
      </trkpt>
      <trkpt lat="47.34466" lon="-0.68961">
        <ele>51</ele>
        <time>2021-03-24T20:20:05Z</time>
      </trkpt>
      <trkpt lat="47.34421" lon="-0.69101">
        <ele>54</ele>
        <time>2021-03-24T20:20:24Z</time>
      </trkpt>
      <trkpt lat="47.34406" lon="-0.69138">
        <ele>52</ele>
        <time>2021-03-24T20:20:29Z</time>
      </trkpt>
      <trkpt lat="47.34398" lon="-0.69152">
        <ele>52</ele>
        <time>2021-03-24T20:20:31Z</time>
      </trkpt>
      <trkpt lat="47.34387" lon="-0.69161">
        <ele>52</ele>
        <time>2021-03-24T20:20:33Z</time>
      </trkpt>
      <trkpt lat="47.34381" lon="-0.69163">
        <ele>52</ele>
        <time>2021-03-24T20:20:34Z</time>
      </trkpt>
      <trkpt lat="47.34369" lon="-0.69163">
        <ele>53</ele>
        <time>2021-03-24T20:20:37Z</time>
      </trkpt>
      <trkpt lat="47.34344" lon="-0.69156">
        <ele>55</ele>
        <time>2021-03-24T20:20:41Z</time>
      </trkpt>
      <trkpt lat="47.34337" lon="-0.69156">
        <ele>56</ele>
        <time>2021-03-24T20:20:42Z</time>
      </trkpt>
      <trkpt lat="47.34329" lon="-0.69157">
        <ele>57</ele>
        <time>2021-03-24T20:20:44Z</time>
      </trkpt>
      <trkpt lat="47.34314" lon="-0.69166">
        <ele>57</ele>
        <time>2021-03-24T20:20:47Z</time>
      </trkpt>
      <trkpt lat="47.34238" lon="-0.6925">
        <ele>58</ele>
        <time>2021-03-24T20:21:04Z</time>
      </trkpt>
      <trkpt lat="47.34162" lon="-0.6933">
        <ele>62</ele>
        <time>2021-03-24T20:21:20Z</time>
      </trkpt>
      <trkpt lat="47.34148" lon="-0.69356">
        <ele>62</ele>
        <time>2021-03-24T20:21:24Z</time>
      </trkpt>
      <trkpt lat="47.34143" lon="-0.69368">
        <ele>63</ele>
        <time>2021-03-24T20:21:26Z</time>
      </trkpt>
      <trkpt lat="47.3414" lon="-0.69383">
        <ele>63</ele>
        <time>2021-03-24T20:21:28Z</time>
      </trkpt>
      <trkpt lat="47.34135" lon="-0.69416">
        <ele>63</ele>
        <time>2021-03-24T20:21:32Z</time>
      </trkpt>
      <trkpt lat="47.34105" lon="-0.70012">
        <ele>60</ele>
        <time>2021-03-24T20:22:44Z</time>
      </trkpt>
      <trkpt lat="47.34104" lon="-0.70046">
        <ele>59</ele>
        <time>2021-03-24T20:22:48Z</time>
      </trkpt>
      <trkpt lat="47.34107" lon="-0.70078">
        <ele>59</ele>
        <time>2021-03-24T20:22:52Z</time>
      </trkpt>
      <trkpt lat="47.34121" lon="-0.70179">
        <ele>61</ele>
        <time>2021-03-24T20:23:04Z</time>
      </trkpt>
      <trkpt lat="47.34123" lon="-0.70198">
        <ele>61</ele>
        <time>2021-03-24T20:23:07Z</time>
      </trkpt>
      <trkpt lat="47.34123" lon="-0.70221">
        <ele>62</ele>
        <time>2021-03-24T20:23:09Z</time>
      </trkpt>
      <trkpt lat="47.34121" lon="-0.70244">
        <ele>62</ele>
        <time>2021-03-24T20:23:12Z</time>
      </trkpt>
      <trkpt lat="47.34045" lon="-0.70728">
        <ele>60</ele>
        <time>2021-03-24T20:24:12Z</time>
      </trkpt>
      <trkpt lat="47.3403" lon="-0.70868">
        <ele>61</ele>
        <time>2021-03-24T20:24:29Z</time>
      </trkpt>
      <trkpt lat="47.34019" lon="-0.70922">
        <ele>62</ele>
        <time>2021-03-24T20:24:36Z</time>
      </trkpt>
      <trkpt lat="47.33992" lon="-0.71028">
        <ele>60</ele>
        <time>2021-03-24T20:24:50Z</time>
      </trkpt>
      <trkpt lat="47.33994" lon="-0.71049">
        <ele>60</ele>
        <time>2021-03-24T20:24:52Z</time>
      </trkpt>
      <trkpt lat="47.33997" lon="-0.71059">
        <ele>60</ele>
        <time>2021-03-24T20:24:54Z</time>
      </trkpt>
      <trkpt lat="47.34035" lon="-0.71183">
        <ele>57</ele>
        <time>2021-03-24T20:25:10Z</time>
      </trkpt>
      <trkpt lat="47.34042" lon="-0.71196">
        <ele>57</ele>
        <time>2021-03-24T20:25:12Z</time>
      </trkpt>
      <trkpt lat="47.34054" lon="-0.71207">
        <ele>57</ele>
        <time>2021-03-24T20:25:14Z</time>
      </trkpt>
      <trkpt lat="47.34061" lon="-0.71211">
        <ele>57</ele>
        <time>2021-03-24T20:25:16Z</time>
      </trkpt>
      <trkpt lat="47.34078" lon="-0.71209">
        <ele>55</ele>
        <time>2021-03-24T20:25:19Z</time>
      </trkpt>
      <trkpt lat="47.3409" lon="-0.71203">
        <ele>54</ele>
        <time>2021-03-24T20:25:21Z</time>
      </trkpt>
      <trkpt lat="47.34114" lon="-0.71183">
        <ele>51</ele>
        <time>2021-03-24T20:25:26Z</time>
      </trkpt>
      <trkpt lat="47.34123" lon="-0.71178">
        <ele>50</ele>
        <time>2021-03-24T20:25:28Z</time>
      </trkpt>
      <trkpt lat="47.34131" lon="-0.71176">
        <ele>50</ele>
        <time>2021-03-24T20:25:29Z</time>
      </trkpt>
      <trkpt lat="47.34144" lon="-0.71179">
        <ele>50</ele>
        <time>2021-03-24T20:25:32Z</time>
      </trkpt>
      <trkpt lat="47.34177" lon="-0.71195">
        <ele>51</ele>
        <time>2021-03-24T20:25:38Z</time>
      </trkpt>
      <trkpt lat="47.3419" lon="-0.71197">
        <ele>52</ele>
        <time>2021-03-24T20:25:40Z</time>
      </trkpt>
      <trkpt lat="47.342" lon="-0.71195">
        <ele>53</ele>
        <time>2021-03-24T20:25:42Z</time>
      </trkpt>
      <trkpt lat="47.34214" lon="-0.71185">
        <ele>53</ele>
        <time>2021-03-24T20:25:45Z</time>
      </trkpt>
      <trkpt lat="47.34224" lon="-0.71165">
        <ele>53</ele>
        <time>2021-03-24T20:25:48Z</time>
      </trkpt>
      <trkpt lat="47.34238" lon="-0.71104">
        <ele>49</ele>
        <time>2021-03-24T20:25:55Z</time>
      </trkpt>
      <trkpt lat="47.34249" lon="-0.71076">
        <ele>47</ele>
        <time>2021-03-24T20:25:59Z</time>
      </trkpt>
      <trkpt lat="47.34262" lon="-0.7106">
        <ele>46</ele>
        <time>2021-03-24T20:26:02Z</time>
      </trkpt>
      <trkpt lat="47.3429" lon="-0.71035">
        <ele>42</ele>
        <time>2021-03-24T20:26:08Z</time>
      </trkpt>
      <trkpt lat="47.34312" lon="-0.71025">
        <ele>41</ele>
        <time>2021-03-24T20:26:12Z</time>
      </trkpt>
      <trkpt lat="47.34337" lon="-0.71024">
        <ele>40</ele>
        <time>2021-03-24T20:26:17Z</time>
      </trkpt>
      <trkpt lat="47.34345" lon="-0.71026">
        <ele>38</ele>
        <time>2021-03-24T20:26:18Z</time>
      </trkpt>
      <trkpt lat="47.34359" lon="-0.71037">
        <ele>37</ele>
        <time>2021-03-24T20:26:21Z</time>
      </trkpt>
      <trkpt lat="47.3437" lon="-0.71058">
        <ele>37</ele>
        <time>2021-03-24T20:26:24Z</time>
      </trkpt>
      <trkpt lat="47.34373" lon="-0.71069">
        <ele>38</ele>
        <time>2021-03-24T20:26:26Z</time>
      </trkpt>
      <trkpt lat="47.34382" lon="-0.71139">
        <ele>41</ele>
        <time>2021-03-24T20:26:34Z</time>
      </trkpt>
      <trkpt lat="47.34391" lon="-0.71181">
        <ele>41</ele>
        <time>2021-03-24T20:26:39Z</time>
      </trkpt>
      <trkpt lat="47.34411" lon="-0.7125">
        <ele>40</ele>
        <time>2021-03-24T20:26:48Z</time>
      </trkpt>
      <trkpt lat="47.345" lon="-0.71528">
        <ele>36</ele>
        <time>2021-03-24T20:27:26Z</time>
      </trkpt>
      <trkpt lat="47.34513" lon="-0.71573">
        <ele>37</ele>
        <time>2021-03-24T20:27:31Z</time>
      </trkpt>
      <trkpt lat="47.34525" lon="-0.71624">
        <ele>40</ele>
        <time>2021-03-24T20:27:38Z</time>
      </trkpt>
      <trkpt lat="47.3453" lon="-0.71641">
        <ele>40</ele>
        <time>2021-03-24T20:27:40Z</time>
      </trkpt>
      <trkpt lat="47.34539" lon="-0.71663">
        <ele>39</ele>
        <time>2021-03-24T20:27:43Z</time>
      </trkpt>
      <trkpt lat="47.34551" lon="-0.71684">
        <ele>37</ele>
        <time>2021-03-24T20:27:47Z</time>
      </trkpt>
      <trkpt lat="47.3461" lon="-0.71741">
        <ele>29</ele>
        <time>2021-03-24T20:27:59Z</time>
      </trkpt>
      <trkpt lat="47.34618" lon="-0.71753">
        <ele>28</ele>
        <time>2021-03-24T20:28:01Z</time>
      </trkpt>
      <trkpt lat="47.34623" lon="-0.71764">
        <ele>28</ele>
        <time>2021-03-24T20:28:03Z</time>
      </trkpt>
      <trkpt lat="47.34638" lon="-0.71812">
        <ele>28</ele>
        <time>2021-03-24T20:28:09Z</time>
      </trkpt>
      <trkpt lat="47.34663" lon="-0.71872">
        <ele>23</ele>
        <time>2021-03-24T20:28:18Z</time>
      </trkpt>
      <trkpt lat="47.34669" lon="-0.71895">
        <ele>22</ele>
        <time>2021-03-24T20:28:21Z</time>
      </trkpt>
      <trkpt lat="47.34673" lon="-0.71919">
        <ele>24</ele>
        <time>2021-03-24T20:28:24Z</time>
      </trkpt>
      <trkpt lat="47.34679" lon="-0.72041">
        <ele>33</ele>
        <time>2021-03-24T20:28:38Z</time>
      </trkpt>
      <trkpt lat="47.34682" lon="-0.72069">
        <ele>35</ele>
        <time>2021-03-24T20:28:42Z</time>
      </trkpt>
      <trkpt lat="47.34687" lon="-0.72101">
        <ele>36</ele>
        <time>2021-03-24T20:28:46Z</time>
      </trkpt>
      <trkpt lat="47.34708" lon="-0.72189">
        <ele>32</ele>
        <time>2021-03-24T20:28:57Z</time>
      </trkpt>
      <trkpt lat="47.34718" lon="-0.7222">
        <ele>29</ele>
        <time>2021-03-24T20:29:01Z</time>
      </trkpt>
      <trkpt lat="47.34735" lon="-0.72259">
        <ele>24</ele>
        <time>2021-03-24T20:29:07Z</time>
      </trkpt>
      <trkpt lat="47.34746" lon="-0.72294">
        <ele>22</ele>
        <time>2021-03-24T20:29:11Z</time>
      </trkpt>
      <trkpt lat="47.34748" lon="-0.72316">
        <ele>22</ele>
        <time>2021-03-24T20:29:14Z</time>
      </trkpt>
      <trkpt lat="47.34749" lon="-0.72342">
        <ele>23</ele>
        <time>2021-03-24T20:29:17Z</time>
      </trkpt>
      <trkpt lat="47.34748" lon="-0.72416">
        <ele>25</ele>
        <time>2021-03-24T20:29:26Z</time>
      </trkpt>
      <trkpt lat="47.34753" lon="-0.72519">
        <ele>28</ele>
        <time>2021-03-24T20:29:39Z</time>
      </trkpt>
      <trkpt lat="47.34756" lon="-0.72546">
        <ele>29</ele>
        <time>2021-03-24T20:29:42Z</time>
      </trkpt>
      <trkpt lat="47.34761" lon="-0.72573">
        <ele>29</ele>
        <time>2021-03-24T20:29:45Z</time>
      </trkpt>
      <trkpt lat="47.34781" lon="-0.72636">
        <ele>28</ele>
        <time>2021-03-24T20:29:54Z</time>
      </trkpt>
      <trkpt lat="47.34791" lon="-0.72726">
        <ele>29</ele>
        <time>2021-03-24T20:30:05Z</time>
      </trkpt>
      <trkpt lat="47.34802" lon="-0.72779">
        <ele>28</ele>
        <time>2021-03-24T20:30:11Z</time>
      </trkpt>
      <trkpt lat="47.34811" lon="-0.72816">
        <ele>26</ele>
        <time>2021-03-24T20:30:16Z</time>
      </trkpt>
      <trkpt lat="47.34823" lon="-0.7285">
        <ele>26</ele>
        <time>2021-03-24T20:30:21Z</time>
      </trkpt>
      <trkpt lat="47.34856" lon="-0.72914">
        <ele>26</ele>
        <time>2021-03-24T20:30:30Z</time>
      </trkpt>
      <trkpt lat="47.34866" lon="-0.72941">
        <ele>25</ele>
        <time>2021-03-24T20:30:34Z</time>
      </trkpt>
      <trkpt lat="47.34868" lon="-0.72955">
        <ele>25</ele>
        <time>2021-03-24T20:30:36Z</time>
      </trkpt>
      <trkpt lat="47.34869" lon="-0.72972">
        <ele>26</ele>
        <time>2021-03-24T20:30:38Z</time>
      </trkpt>
      <trkpt lat="47.3486" lon="-0.73064">
        <ele>26</ele>
        <time>2021-03-24T20:30:49Z</time>
      </trkpt>
      <trkpt lat="47.34861" lon="-0.73104">
        <ele>26</ele>
        <time>2021-03-24T20:30:54Z</time>
      </trkpt>
      <trkpt lat="47.34864" lon="-0.73144">
        <ele>26</ele>
        <time>2021-03-24T20:30:59Z</time>
      </trkpt>
      <trkpt lat="47.34886" lon="-0.73272">
        <ele>27</ele>
        <time>2021-03-24T20:31:15Z</time>
      </trkpt>
      <trkpt lat="47.34897" lon="-0.73362">
        <ele>25</ele>
        <time>2021-03-24T20:31:26Z</time>
      </trkpt>
      <trkpt lat="47.34901" lon="-0.73445">
        <ele>22</ele>
        <time>2021-03-24T20:31:36Z</time>
      </trkpt>
      <trkpt lat="47.34897" lon="-0.7351">
        <ele>22</ele>
        <time>2021-03-24T20:31:44Z</time>
      </trkpt>
      <trkpt lat="47.34898" lon="-0.73524">
        <ele>23</ele>
        <time>2021-03-24T20:31:45Z</time>
      </trkpt>
      <trkpt lat="47.34904" lon="-0.73545">
        <ele>23</ele>
        <time>2021-03-24T20:31:48Z</time>
      </trkpt>
      <trkpt lat="47.34911" lon="-0.73557">
        <ele>22</ele>
        <time>2021-03-24T20:31:50Z</time>
      </trkpt>
      <trkpt lat="47.3494" lon="-0.73586">
        <ele>19</ele>
        <time>2021-03-24T20:31:56Z</time>
      </trkpt>
      <trkpt lat="47.34944" lon="-0.73592">
        <ele>19</ele>
        <time>2021-03-24T20:31:57Z</time>
      </trkpt>
      <trkpt lat="47.34948" lon="-0.73608">
        <ele>19</ele>
        <time>2021-03-24T20:31:59Z</time>
      </trkpt>
      <trkpt lat="47.34949" lon="-0.73616">
        <ele>19</ele>
        <time>2021-03-24T20:32:00Z</time>
      </trkpt>
      <trkpt lat="47.34947" lon="-0.73635">
        <ele>20</ele>
        <time>2021-03-24T20:32:02Z</time>
      </trkpt>
      <trkpt lat="47.34937" lon="-0.73678">
        <ele>23</ele>
        <time>2021-03-24T20:32:08Z</time>
      </trkpt>
      <trkpt lat="47.34935" lon="-0.73694">
        <ele>24</ele>
        <time>2021-03-24T20:32:10Z</time>
      </trkpt>
      <trkpt lat="47.34934" lon="-0.73724">
        <ele>25</ele>
        <time>2021-03-24T20:32:14Z</time>
      </trkpt>
      <trkpt lat="47.34939" lon="-0.73755">
        <ele>25</ele>
        <time>2021-03-24T20:32:17Z</time>
      </trkpt>
      <trkpt lat="47.34971" lon="-0.73834">
        <ele>26</ele>
        <time>2021-03-24T20:32:28Z</time>
      </trkpt>
      <trkpt lat="47.35023" lon="-0.7401">
        <ele>26</ele>
        <time>2021-03-24T20:32:52Z</time>
      </trkpt>
      <trkpt lat="47.35032" lon="-0.74056">
        <ele>28</ele>
        <time>2021-03-24T20:32:57Z</time>
      </trkpt>
      <trkpt lat="47.35048" lon="-0.7422">
        <ele>30</ele>
        <time>2021-03-24T20:33:17Z</time>
      </trkpt>
      <trkpt lat="47.35059" lon="-0.74292">
        <ele>27</ele>
        <time>2021-03-24T20:33:26Z</time>
      </trkpt>
      <trkpt lat="47.35077" lon="-0.74386">
        <ele>24</ele>
        <time>2021-03-24T20:33:38Z</time>
      </trkpt>
      <trkpt lat="47.35078" lon="-0.74406">
        <ele>25</ele>
        <time>2021-03-24T20:33:40Z</time>
      </trkpt>
      <trkpt lat="47.35075" lon="-0.74452">
        <ele>25</ele>
        <time>2021-03-24T20:33:46Z</time>
      </trkpt>
      <trkpt lat="47.35045" lon="-0.74836">
        <ele>17</ele>
        <time>2021-03-24T20:34:33Z</time>
      </trkpt>
      <trkpt lat="47.35042" lon="-0.7486">
        <ele>17</ele>
        <time>2021-03-24T20:34:36Z</time>
      </trkpt>
      <trkpt lat="47.35038" lon="-0.74878">
        <ele>16</ele>
        <time>2021-03-24T20:34:38Z</time>
      </trkpt>
      <trkpt lat="47.35017" lon="-0.7494">
        <ele>15</ele>
        <time>2021-03-24T20:34:46Z</time>
      </trkpt>
      <trkpt lat="47.35003" lon="-0.74994">
        <ele>15</ele>
        <time>2021-03-24T20:34:53Z</time>
      </trkpt>
      <trkpt lat="47.34995" lon="-0.75063">
        <ele>13</ele>
        <time>2021-03-24T20:35:02Z</time>
      </trkpt>
      <trkpt lat="47.34995" lon="-0.75112">
        <ele>12</ele>
        <time>2021-03-24T20:35:08Z</time>
      </trkpt>
      <trkpt lat="47.35054" lon="-0.75613">
        <ele>19</ele>
        <time>2021-03-24T20:36:09Z</time>
      </trkpt>
      <trkpt lat="47.35054" lon="-0.75631">
        <ele>19</ele>
        <time>2021-03-24T20:36:11Z</time>
      </trkpt>
      <trkpt lat="47.35057" lon="-0.75637">
        <ele>20</ele>
        <time>2021-03-24T20:36:12Z</time>
      </trkpt>
      <trkpt lat="47.35058" lon="-0.75641">
        <ele>20</ele>
        <time>2021-03-24T20:36:12Z</time>
      </trkpt>
      <trkpt lat="47.35056" lon="-0.75646">
        <ele>20</ele>
        <time>2021-03-24T20:36:13Z</time>
      </trkpt>
      <trkpt lat="47.35058" lon="-0.75656">
        <ele>20</ele>
        <time>2021-03-24T20:36:14Z</time>
      </trkpt>
      <trkpt lat="47.35066" lon="-0.75714">
        <ele>21</ele>
        <time>2021-03-24T20:36:22Z</time>
      </trkpt>
      <trkpt lat="47.35079" lon="-0.75707">
        <ele>21</ele>
        <time>2021-03-24T20:36:24Z</time>
      </trkpt>
      <trkpt lat="47.35094" lon="-0.75705">
        <ele>21</ele>
        <time>2021-03-24T20:36:27Z</time>
      </trkpt>
      <trkpt lat="47.3515" lon="-0.75717">
        <ele>20</ele>
        <time>2021-03-24T20:36:37Z</time>
      </trkpt>
      <trkpt lat="47.35155" lon="-0.75724">
        <ele>20</ele>
        <time>2021-03-24T20:36:38Z</time>
      </trkpt>
      <trkpt lat="47.35158" lon="-0.75735">
        <ele>19</ele>
        <time>2021-03-24T20:36:39Z</time>
      </trkpt>
      <trkpt lat="47.35157" lon="-0.75747">
        <ele>19</ele>
        <time>2021-03-24T20:36:41Z</time>
      </trkpt>
      <trkpt lat="47.35138" lon="-0.7577">
        <ele>19</ele>
        <time>2021-03-24T20:36:45Z</time>
      </trkpt>
      <trkpt lat="47.35162" lon="-0.75872">
        <ele>18</ele>
        <time>2021-03-24T20:36:58Z</time>
      </trkpt>
      <trkpt lat="47.35216" lon="-0.75828">
        <ele>17</ele>
        <time>2021-03-24T20:37:09Z</time>
      </trkpt>
      <trkpt lat="47.35222" lon="-0.75827">
        <ele>17</ele>
        <time>2021-03-24T20:37:10Z</time>
      </trkpt>
      <trkpt lat="47.35236" lon="-0.75832">
        <ele>17</ele>
        <time>2021-03-24T20:37:13Z</time>
      </trkpt>
      <trkpt lat="47.35244" lon="-0.7584">
        <ele>17</ele>
        <time>2021-03-24T20:37:15Z</time>
      </trkpt>
      <trkpt lat="47.35258" lon="-0.75863">
        <ele>18</ele>
        <time>2021-03-24T20:37:18Z</time>
      </trkpt>
      <trkpt lat="47.35262" lon="-0.75872">
        <ele>18</ele>
        <time>2021-03-24T20:37:20Z</time>
      </trkpt>
      <trkpt lat="47.35355" lon="-0.76227">
        <ele>17</ele>
        <time>2021-03-24T20:38:05Z</time>
      </trkpt>
      <trkpt lat="47.35489" lon="-0.76156">
        <ele>13</ele>
        <time>2021-03-24T20:38:31Z</time>
      </trkpt>
      <trkpt lat="47.35727" lon="-0.76018">
        <ele>14</ele>
        <time>2021-03-24T20:39:16Z</time>
      </trkpt>
      <trkpt lat="47.35794" lon="-0.75984">
        <ele>14</ele>
        <time>2021-03-24T20:39:29Z</time>
      </trkpt>
      <trkpt lat="47.36224" lon="-0.75749">
        <ele>14</ele>
        <time>2021-03-24T20:40:50Z</time>
      </trkpt>
      <trkpt lat="47.3632" lon="-0.75703">
        <ele>15</ele>
        <time>2021-03-24T20:41:08Z</time>
      </trkpt>
      <trkpt lat="47.36329" lon="-0.75687">
        <ele>16</ele>
        <time>2021-03-24T20:41:11Z</time>
      </trkpt>
      <trkpt lat="47.36406" lon="-0.75647">
        <ele>14</ele>
        <time>2021-03-24T20:41:25Z</time>
      </trkpt>
      <trkpt lat="47.36417" lon="-0.75649">
        <ele>13</ele>
        <time>2021-03-24T20:41:27Z</time>
      </trkpt>
      <trkpt lat="47.3671" lon="-0.75489">
        <ele>12</ele>
        <time>2021-03-24T20:42:23Z</time>
      </trkpt>
      <trkpt lat="47.36715" lon="-0.75478">
        <ele>12</ele>
        <time>2021-03-24T20:42:25Z</time>
      </trkpt>
      <trkpt lat="47.36894" lon="-0.75381">
        <ele>13</ele>
        <time>2021-03-24T20:42:59Z</time>
      </trkpt>
      <trkpt lat="47.36904" lon="-0.75384">
        <ele>13</ele>
        <time>2021-03-24T20:43:00Z</time>
      </trkpt>
      <trkpt lat="47.37042" lon="-0.7531">
        <ele>16</ele>
        <time>2021-03-24T20:43:26Z</time>
      </trkpt>
      <trkpt lat="47.37042" lon="-0.7532">
        <ele>16</ele>
        <time>2021-03-24T20:43:28Z</time>
      </trkpt>
      <trkpt lat="47.37037" lon="-0.75339">
        <ele>16</ele>
        <time>2021-03-24T20:43:30Z</time>
      </trkpt>
      <trkpt lat="47.37037" lon="-0.75349">
        <ele>16</ele>
        <time>2021-03-24T20:43:31Z</time>
      </trkpt>
      <trkpt lat="47.37116" lon="-0.75713">
        <ele>14</ele>
        <time>2021-03-24T20:44:17Z</time>
      </trkpt>
      <trkpt lat="47.37352" lon="-0.7682">
        <ele>16</ele>
        <time>2021-03-24T20:46:37Z</time>
      </trkpt>
      <trkpt lat="47.37364" lon="-0.76864">
        <ele>16</ele>
        <time>2021-03-24T20:46:43Z</time>
      </trkpt>
      <trkpt lat="47.37426" lon="-0.76974">
        <ele>15</ele>
        <time>2021-03-24T20:47:00Z</time>
      </trkpt>
      <trkpt lat="47.37473" lon="-0.77104">
        <ele>15</ele>
        <time>2021-03-24T20:47:18Z</time>
      </trkpt>
      <trkpt lat="47.37617" lon="-0.77366">
        <ele>13</ele>
        <time>2021-03-24T20:47:59Z</time>
      </trkpt>
      <trkpt lat="47.37664" lon="-0.77457">
        <ele>13</ele>
        <time>2021-03-24T20:48:12Z</time>
      </trkpt>
      <trkpt lat="47.37697" lon="-0.77557">
        <ele>13</ele>
        <time>2021-03-24T20:48:26Z</time>
      </trkpt>
      <trkpt lat="47.37807" lon="-0.77991">
        <ele>14</ele>
        <time>2021-03-24T20:49:22Z</time>
      </trkpt>
      <trkpt lat="47.3795" lon="-0.78447">
        <ele>13</ele>
        <time>2021-03-24T20:50:22Z</time>
      </trkpt>
      <trkpt lat="47.38064" lon="-0.78857">
        <ele>14</ele>
        <time>2021-03-24T20:51:16Z</time>
      </trkpt>
      <trkpt lat="47.38152" lon="-0.79257">
        <ele>12</ele>
        <time>2021-03-24T20:52:06Z</time>
      </trkpt>
      <trkpt lat="47.3817" lon="-0.79344">
        <ele>12</ele>
        <time>2021-03-24T20:52:17Z</time>
      </trkpt>
      <trkpt lat="47.38188" lon="-0.79408">
        <ele>14</ele>
        <time>2021-03-24T20:52:26Z</time>
      </trkpt>
      <trkpt lat="47.38272" lon="-0.79681">
        <ele>14</ele>
        <time>2021-03-24T20:53:02Z</time>
      </trkpt>
      <trkpt lat="47.38316" lon="-0.79868">
        <ele>14</ele>
        <time>2021-03-24T20:53:26Z</time>
      </trkpt>
      <trkpt lat="47.38326" lon="-0.7993">
        <ele>13</ele>
        <time>2021-03-24T20:53:33Z</time>
      </trkpt>
      <trkpt lat="47.38328" lon="-0.79976">
        <ele>12</ele>
        <time>2021-03-24T20:53:39Z</time>
      </trkpt>
      <trkpt lat="47.38319" lon="-0.80103">
        <ele>13</ele>
        <time>2021-03-24T20:53:54Z</time>
      </trkpt>
      <trkpt lat="47.38317" lon="-0.80161">
        <ele>13</ele>
        <time>2021-03-24T20:54:01Z</time>
      </trkpt>
      <trkpt lat="47.38322" lon="-0.80251">
        <ele>12</ele>
        <time>2021-03-24T20:54:12Z</time>
      </trkpt>
      <trkpt lat="47.38331" lon="-0.80339">
        <ele>13</ele>
        <time>2021-03-24T20:54:23Z</time>
      </trkpt>
      <trkpt lat="47.38337" lon="-0.80376">
        <ele>13</ele>
        <time>2021-03-24T20:54:27Z</time>
      </trkpt>
      <trkpt lat="47.38348" lon="-0.80416">
        <ele>13</ele>
        <time>2021-03-24T20:54:33Z</time>
      </trkpt>
      <trkpt lat="47.38515" lon="-0.8078">
        <ele>14</ele>
        <time>2021-03-24T20:55:26Z</time>
      </trkpt>
      <trkpt lat="47.38528" lon="-0.80811">
        <ele>14</ele>
        <time>2021-03-24T20:55:30Z</time>
      </trkpt>
      <trkpt lat="47.38608" lon="-0.8108">
        <ele>14</ele>
        <time>2021-03-24T20:56:05Z</time>
      </trkpt>
      <trkpt lat="47.38614" lon="-0.81116">
        <ele>14</ele>
        <time>2021-03-24T20:56:10Z</time>
      </trkpt>
      <trkpt lat="47.38619" lon="-0.8116">
        <ele>15</ele>
        <time>2021-03-24T20:56:15Z</time>
      </trkpt>
      <trkpt lat="47.3862" lon="-0.81227">
        <ele>15</ele>
        <time>2021-03-24T20:56:23Z</time>
      </trkpt>
      <trkpt lat="47.38622" lon="-0.81244">
        <ele>15</ele>
        <time>2021-03-24T20:56:25Z</time>
      </trkpt>
      <trkpt lat="47.38628" lon="-0.81271">
        <ele>15</ele>
        <time>2021-03-24T20:56:29Z</time>
      </trkpt>
      <trkpt lat="47.38724" lon="-0.81507">
        <ele>12</ele>
        <time>2021-03-24T20:57:02Z</time>
      </trkpt>
      <trkpt lat="47.38747" lon="-0.81579">
        <ele>13</ele>
        <time>2021-03-24T20:57:11Z</time>
      </trkpt>
      <trkpt lat="47.38821" lon="-0.8183">
        <ele>13</ele>
        <time>2021-03-24T20:57:44Z</time>
      </trkpt>
      <trkpt lat="47.38838" lon="-0.81928">
        <ele>13</ele>
        <time>2021-03-24T20:57:57Z</time>
      </trkpt>
      <trkpt lat="47.38849" lon="-0.82051">
        <ele>14</ele>
        <time>2021-03-24T20:58:12Z</time>
      </trkpt>
      <trkpt lat="47.38861" lon="-0.82109">
        <ele>13</ele>
        <time>2021-03-24T20:58:19Z</time>
      </trkpt>
      <trkpt lat="47.38873" lon="-0.82155">
        <ele>13</ele>
        <time>2021-03-24T20:58:25Z</time>
      </trkpt>
      <trkpt lat="47.3889" lon="-0.82294">
        <ele>13</ele>
        <time>2021-03-24T20:58:42Z</time>
      </trkpt>
      <trkpt lat="47.38907" lon="-0.82371">
        <ele>13</ele>
        <time>2021-03-24T20:58:52Z</time>
      </trkpt>
      <trkpt lat="47.38925" lon="-0.82479">
        <ele>13</ele>
        <time>2021-03-24T20:59:05Z</time>
      </trkpt>
      <trkpt lat="47.38932" lon="-0.82598">
        <ele>13</ele>
        <time>2021-03-24T20:59:19Z</time>
      </trkpt>
      <trkpt lat="47.38945" lon="-0.82681">
        <ele>13</ele>
        <time>2021-03-24T20:59:30Z</time>
      </trkpt>
      <trkpt lat="47.38949" lon="-0.82727">
        <ele>13</ele>
        <time>2021-03-24T20:59:35Z</time>
      </trkpt>
      <trkpt lat="47.38969" lon="-0.82816">
        <ele>13</ele>
        <time>2021-03-24T20:59:47Z</time>
      </trkpt>
      <trkpt lat="47.38997" lon="-0.82933">
        <ele>13</ele>
        <time>2021-03-24T21:00:02Z</time>
      </trkpt>
      <trkpt lat="47.39016" lon="-0.82985">
        <ele>14</ele>
        <time>2021-03-24T21:00:09Z</time>
      </trkpt>
      <trkpt lat="47.39037" lon="-0.83029">
        <ele>14</ele>
        <time>2021-03-24T21:00:15Z</time>
      </trkpt>
      <trkpt lat="47.39047" lon="-0.8306">
        <ele>14</ele>
        <time>2021-03-24T21:00:19Z</time>
      </trkpt>
      <trkpt lat="47.3905" lon="-0.83073">
        <ele>14</ele>
        <time>2021-03-24T21:00:21Z</time>
      </trkpt>
      <trkpt lat="47.39052" lon="-0.83094">
        <ele>14</ele>
        <time>2021-03-24T21:00:23Z</time>
      </trkpt>
      <trkpt lat="47.39104" lon="-0.83319">
        <ele>13</ele>
        <time>2021-03-24T21:00:52Z</time>
      </trkpt>
      <trkpt lat="47.39114" lon="-0.83371">
        <ele>12</ele>
        <time>2021-03-24T21:00:59Z</time>
      </trkpt>
      <trkpt lat="47.39184" lon="-0.83565">
        <ele>13</ele>
        <time>2021-03-24T21:01:25Z</time>
      </trkpt>
      <trkpt lat="47.39259" lon="-0.83744">
        <ele>15</ele>
        <time>2021-03-24T21:01:50Z</time>
      </trkpt>
      <trkpt lat="47.39274" lon="-0.83777">
        <ele>14</ele>
        <time>2021-03-24T21:01:55Z</time>
      </trkpt>
      <trkpt lat="47.39338" lon="-0.83867">
        <ele>11</ele>
        <time>2021-03-24T21:02:11Z</time>
      </trkpt>
      <trkpt lat="47.39361" lon="-0.83902">
        <ele>11</ele>
        <time>2021-03-24T21:02:17Z</time>
      </trkpt>
      <trkpt lat="47.39375" lon="-0.83928">
        <ele>11</ele>
        <time>2021-03-24T21:02:21Z</time>
      </trkpt>
      <trkpt lat="47.39496" lon="-0.84191">
        <ele>12</ele>
        <time>2021-03-24T21:02:59Z</time>
      </trkpt>
      <trkpt lat="47.3951" lon="-0.84233">
        <ele>12</ele>
        <time>2021-03-24T21:03:05Z</time>
      </trkpt>
      <trkpt lat="47.3952" lon="-0.84298">
        <ele>11</ele>
        <time>2021-03-24T21:03:13Z</time>
      </trkpt>
      <trkpt lat="47.39521" lon="-0.84345">
        <ele>11</ele>
        <time>2021-03-24T21:03:18Z</time>
      </trkpt>
      <trkpt lat="47.39501" lon="-0.84447">
        <ele>13</ele>
        <time>2021-03-24T21:03:31Z</time>
      </trkpt>
      <trkpt lat="47.39499" lon="-0.84483">
        <ele>14</ele>
        <time>2021-03-24T21:03:36Z</time>
      </trkpt>
      <trkpt lat="47.39514" lon="-0.84814">
        <ele>14</ele>
        <time>2021-03-24T21:04:16Z</time>
      </trkpt>
      <trkpt lat="47.39517" lon="-0.84843">
        <ele>14</ele>
        <time>2021-03-24T21:04:19Z</time>
      </trkpt>
      <trkpt lat="47.39522" lon="-0.84872">
        <ele>13</ele>
        <time>2021-03-24T21:04:23Z</time>
      </trkpt>
      <trkpt lat="47.39586" lon="-0.85116">
        <ele>14</ele>
        <time>2021-03-24T21:04:54Z</time>
      </trkpt>
      <trkpt lat="47.39589" lon="-0.85131">
        <ele>15</ele>
        <time>2021-03-24T21:04:56Z</time>
      </trkpt>
      <trkpt lat="47.39593" lon="-0.85161">
        <ele>16</ele>
        <time>2021-03-24T21:05:00Z</time>
      </trkpt>
      <trkpt lat="47.39615" lon="-0.857">
        <ele>11</ele>
        <time>2021-03-24T21:06:05Z</time>
      </trkpt>
      <trkpt lat="47.39618" lon="-0.85714">
        <ele>11</ele>
        <time>2021-03-24T21:06:07Z</time>
      </trkpt>
      <trkpt lat="47.39623" lon="-0.85725">
        <ele>12</ele>
        <time>2021-03-24T21:06:08Z</time>
      </trkpt>
      <trkpt lat="47.39629" lon="-0.85731">
        <ele>12</ele>
        <time>2021-03-24T21:06:09Z</time>
      </trkpt>
      <trkpt lat="47.3966" lon="-0.85741">
        <ele>13</ele>
        <time>2021-03-24T21:06:15Z</time>
      </trkpt>
      <trkpt lat="47.39667" lon="-0.85742">
        <ele>13</ele>
        <time>2021-03-24T21:06:16Z</time>
      </trkpt>
      <trkpt lat="47.39674" lon="-0.85746">
        <ele>13</ele>
        <time>2021-03-24T21:06:18Z</time>
      </trkpt>
      <trkpt lat="47.39686" lon="-0.85764">
        <ele>13</ele>
        <time>2021-03-24T21:06:21Z</time>
      </trkpt>
      <trkpt lat="47.39688" lon="-0.85771">
        <ele>13</ele>
        <time>2021-03-24T21:06:22Z</time>
      </trkpt>
      <trkpt lat="47.39195" lon="-0.86113">
        <ele>14</ele>
        <time>2021-03-24T21:07:59Z</time>
      </trkpt>
      <trkpt lat="47.39224" lon="-0.86192">
        <ele>13</ele>
        <time>2021-03-24T21:08:09Z</time>
      </trkpt>
      <trkpt lat="47.3923" lon="-0.8622">
        <ele>13</ele>
        <time>2021-03-24T21:08:13Z</time>
      </trkpt>
      <trkpt lat="47.39231" lon="-0.86246">
        <ele>13</ele>
        <time>2021-03-24T21:08:16Z</time>
      </trkpt>
      <trkpt lat="47.39209" lon="-0.86665">
        <ele>11</ele>
        <time>2021-03-24T21:09:07Z</time>
      </trkpt>
      <trkpt lat="47.39207" lon="-0.86739">
        <ele>10</ele>
        <time>2021-03-24T21:09:16Z</time>
      </trkpt>
      <trkpt lat="47.3923" lon="-0.87407">
        <ele>13</ele>
        <time>2021-03-24T21:10:36Z</time>
      </trkpt>
      <trkpt lat="47.39236" lon="-0.87465">
        <ele>12</ele>
        <time>2021-03-24T21:10:43Z</time>
      </trkpt>
      <trkpt lat="47.39243" lon="-0.87503">
        <ele>12</ele>
        <time>2021-03-24T21:10:48Z</time>
      </trkpt>
      <trkpt lat="47.39254" lon="-0.87552">
        <ele>12</ele>
        <time>2021-03-24T21:10:54Z</time>
      </trkpt>
      <trkpt lat="47.39414" lon="-0.8815">
        <ele>11</ele>
        <time>2021-03-24T21:12:12Z</time>
      </trkpt>
      <trkpt lat="47.39419" lon="-0.8818">
        <ele>11</ele>
        <time>2021-03-24T21:12:15Z</time>
      </trkpt>
      <trkpt lat="47.39426" lon="-0.88236">
        <ele>11</ele>
        <time>2021-03-24T21:12:22Z</time>
      </trkpt>
      <trkpt lat="47.39448" lon="-0.88397">
        <ele>12</ele>
        <time>2021-03-24T21:12:42Z</time>
      </trkpt>
      <trkpt lat="47.39455" lon="-0.88435">
        <ele>12</ele>
        <time>2021-03-24T21:12:47Z</time>
      </trkpt>
      <trkpt lat="47.39485" lon="-0.88531">
        <ele>12</ele>
        <time>2021-03-24T21:12:59Z</time>
      </trkpt>
      <trkpt lat="47.39566" lon="-0.8875">
        <ele>11</ele>
        <time>2021-03-24T21:13:30Z</time>
      </trkpt>
      <trkpt lat="47.39587" lon="-0.88811">
        <ele>11</ele>
        <time>2021-03-24T21:13:38Z</time>
      </trkpt>
      <trkpt lat="47.396" lon="-0.88862">
        <ele>11</ele>
        <time>2021-03-24T21:13:44Z</time>
      </trkpt>
      <trkpt lat="47.39604" lon="-0.88889">
        <ele>11</ele>
        <time>2021-03-24T21:13:48Z</time>
      </trkpt>
      <trkpt lat="47.39614" lon="-0.88991">
        <ele>11</ele>
        <time>2021-03-24T21:14:00Z</time>
      </trkpt>
      <trkpt lat="47.39628" lon="-0.8921">
        <ele>12</ele>
        <time>2021-03-24T21:14:27Z</time>
      </trkpt>
      <trkpt lat="47.39636" lon="-0.89283">
        <ele>13</ele>
        <time>2021-03-24T21:14:36Z</time>
      </trkpt>
      <trkpt lat="47.39645" lon="-0.89337">
        <ele>13</ele>
        <time>2021-03-24T21:14:42Z</time>
      </trkpt>
      <trkpt lat="47.39653" lon="-0.8937">
        <ele>13</ele>
        <time>2021-03-24T21:14:46Z</time>
      </trkpt>
      <trkpt lat="47.39661" lon="-0.89399">
        <ele>14</ele>
        <time>2021-03-24T21:14:50Z</time>
      </trkpt>
      <trkpt lat="47.3971" lon="-0.89547">
        <ele>13</ele>
        <time>2021-03-24T21:15:10Z</time>
      </trkpt>
      <trkpt lat="47.39932" lon="-0.90195">
        <ele>13</ele>
        <time>2021-03-24T21:16:38Z</time>
      </trkpt>
      <trkpt lat="47.39984" lon="-0.90356">
        <ele>13</ele>
        <time>2021-03-24T21:16:59Z</time>
      </trkpt>
      <trkpt lat="47.39997" lon="-0.90411">
        <ele>13</ele>
        <time>2021-03-24T21:17:06Z</time>
      </trkpt>
      <trkpt lat="47.40013" lon="-0.90495">
        <ele>12</ele>
        <time>2021-03-24T21:17:17Z</time>
      </trkpt>
      <trkpt lat="47.4002" lon="-0.90563">
        <ele>12</ele>
        <time>2021-03-24T21:17:25Z</time>
      </trkpt>
      <trkpt lat="47.40022" lon="-0.90619">
        <ele>13</ele>
        <time>2021-03-24T21:17:32Z</time>
      </trkpt>
      <trkpt lat="47.4002" lon="-0.90739">
        <ele>13</ele>
        <time>2021-03-24T21:17:46Z</time>
      </trkpt>
      <trkpt lat="47.40012" lon="-0.90913">
        <ele>13</ele>
        <time>2021-03-24T21:18:07Z</time>
      </trkpt>
      <trkpt lat="47.40003" lon="-0.91189">
        <ele>13</ele>
        <time>2021-03-24T21:18:40Z</time>
      </trkpt>
      <trkpt lat="47.39998" lon="-0.91238">
        <ele>12</ele>
        <time>2021-03-24T21:18:46Z</time>
      </trkpt>
      <trkpt lat="47.39984" lon="-0.91316">
        <ele>13</ele>
        <time>2021-03-24T21:18:56Z</time>
      </trkpt>
      <trkpt lat="47.39966" lon="-0.91394">
        <ele>12</ele>
        <time>2021-03-24T21:19:06Z</time>
      </trkpt>
      <trkpt lat="47.39954" lon="-0.9143">
        <ele>13</ele>
        <time>2021-03-24T21:19:11Z</time>
      </trkpt>
      <trkpt lat="47.3992" lon="-0.9152">
        <ele>15</ele>
        <time>2021-03-24T21:19:23Z</time>
      </trkpt>
      <trkpt lat="47.3985" lon="-0.91689">
        <ele>13</ele>
        <time>2021-03-24T21:19:47Z</time>
      </trkpt>
      <trkpt lat="47.39695" lon="-0.92079">
        <ele>12</ele>
        <time>2021-03-24T21:20:41Z</time>
      </trkpt>
      <trkpt lat="47.39651" lon="-0.92183">
        <ele>13</ele>
        <time>2021-03-24T21:20:56Z</time>
      </trkpt>
      <trkpt lat="47.3961" lon="-0.92268">
        <ele>12</ele>
        <time>2021-03-24T21:21:09Z</time>
      </trkpt>
      <trkpt lat="47.39567" lon="-0.92336">
        <ele>13</ele>
        <time>2021-03-24T21:21:20Z</time>
      </trkpt>
      <trkpt lat="47.39517" lon="-0.92401">
        <ele>13</ele>
        <time>2021-03-24T21:21:32Z</time>
      </trkpt>
      <trkpt lat="47.38866" lon="-0.93187">
        <ele>11</ele>
        <time>2021-03-24T21:24:01Z</time>
      </trkpt>
      <trkpt lat="47.38801" lon="-0.93253">
        <ele>10</ele>
        <time>2021-03-24T21:24:16Z</time>
      </trkpt>
      <trkpt lat="47.38741" lon="-0.933">
        <ele>11</ele>
        <time>2021-03-24T21:24:28Z</time>
      </trkpt>
      <trkpt lat="47.3869" lon="-0.93335">
        <ele>11</ele>
        <time>2021-03-24T21:24:38Z</time>
      </trkpt>
      <trkpt lat="47.3857" lon="-0.9341">
        <ele>12</ele>
        <time>2021-03-24T21:25:01Z</time>
      </trkpt>
      <trkpt lat="47.38528" lon="-0.93443">
        <ele>12</ele>
        <time>2021-03-24T21:25:09Z</time>
      </trkpt>
      <trkpt lat="47.38488" lon="-0.93485">
        <ele>11</ele>
        <time>2021-03-24T21:25:18Z</time>
      </trkpt>
      <trkpt lat="47.38449" lon="-0.93535">
        <ele>10</ele>
        <time>2021-03-24T21:25:27Z</time>
      </trkpt>
      <trkpt lat="47.38411" lon="-0.93602">
        <ele>10</ele>
        <time>2021-03-24T21:25:38Z</time>
      </trkpt>
      <trkpt lat="47.37632" lon="-0.95213">
        <ele>11</ele>
        <time>2021-03-24T21:29:36Z</time>
      </trkpt>
      <trkpt lat="47.37599" lon="-0.95283">
        <ele>12</ele>
        <time>2021-03-24T21:29:47Z</time>
      </trkpt>
      <trkpt lat="47.3757" lon="-0.95352">
        <ele>13</ele>
        <time>2021-03-24T21:29:56Z</time>
      </trkpt>
      <trkpt lat="47.3732" lon="-0.9603">
        <ele>12</ele>
        <time>2021-03-24T21:31:29Z</time>
      </trkpt>
      <trkpt lat="47.37292" lon="-0.96113">
        <ele>12</ele>
        <time>2021-03-24T21:31:40Z</time>
      </trkpt>
      <trkpt lat="47.37266" lon="-0.96222">
        <ele>11</ele>
        <time>2021-03-24T21:31:54Z</time>
      </trkpt>
      <trkpt lat="47.37098" lon="-0.97321">
        <ele>11</ele>
        <time>2021-03-24T21:34:10Z</time>
      </trkpt>
      <trkpt lat="47.37062" lon="-0.97572">
        <ele>11</ele>
        <time>2021-03-24T21:34:41Z</time>
      </trkpt>
      <trkpt lat="47.3703" lon="-0.97768">
        <ele>11</ele>
        <time>2021-03-24T21:35:05Z</time>
      </trkpt>
      <trkpt lat="47.36948" lon="-0.98311">
        <ele>9</ele>
        <time>2021-03-24T21:36:12Z</time>
      </trkpt>
      <trkpt lat="47.3693" lon="-0.98421">
        <ele>9</ele>
        <time>2021-03-24T21:36:26Z</time>
      </trkpt>
      <trkpt lat="47.36907" lon="-0.98523">
        <ele>10</ele>
        <time>2021-03-24T21:36:39Z</time>
      </trkpt>
      <trkpt lat="47.36872" lon="-0.98657">
        <ele>9</ele>
        <time>2021-03-24T21:36:56Z</time>
      </trkpt>
      <trkpt lat="47.36637" lon="-0.99473">
        <ele>10</ele>
        <time>2021-03-24T21:38:43Z</time>
      </trkpt>
      <trkpt lat="47.36622" lon="-0.9952">
        <ele>10</ele>
        <time>2021-03-24T21:38:49Z</time>
      </trkpt>
      <trkpt lat="47.36604" lon="-0.99588">
        <ele>10</ele>
        <time>2021-03-24T21:38:58Z</time>
      </trkpt>
      <trkpt lat="47.36542" lon="-0.99804">
        <ele>8</ele>
        <time>2021-03-24T21:39:27Z</time>
      </trkpt>
      <trkpt lat="47.3651" lon="-0.99902">
        <ele>9</ele>
        <time>2021-03-24T21:39:40Z</time>
      </trkpt>
      <trkpt lat="47.36494" lon="-0.99946">
        <ele>10</ele>
        <time>2021-03-24T21:39:46Z</time>
      </trkpt>
      <trkpt lat="47.3645" lon="-1.00055">
        <ele>10</ele>
        <time>2021-03-24T21:40:01Z</time>
      </trkpt>
      <trkpt lat="47.36355" lon="-1.00276">
        <ele>11</ele>
        <time>2021-03-24T21:40:32Z</time>
      </trkpt>
      <trkpt lat="47.36305" lon="-1.00396">
        <ele>14</ele>
        <time>2021-03-24T21:40:49Z</time>
      </trkpt>
      <trkpt lat="47.3629" lon="-1.00436">
        <ele>15</ele>
        <time>2021-03-24T21:40:55Z</time>
      </trkpt>
      <trkpt lat="47.36284" lon="-1.00468">
        <ele>15</ele>
        <time>2021-03-24T21:40:59Z</time>
      </trkpt>
      <trkpt lat="47.36272" lon="-1.00511">
        <ele>16</ele>
        <time>2021-03-24T21:41:05Z</time>
      </trkpt>
      <trkpt lat="47.3626" lon="-1.00537">
        <ele>17</ele>
        <time>2021-03-24T21:41:08Z</time>
      </trkpt>
      <trkpt lat="47.36245" lon="-1.00558">
        <ele>19</ele>
        <time>2021-03-24T21:41:12Z</time>
      </trkpt>
      <trkpt lat="47.3622" lon="-1.00582">
        <ele>20</ele>
        <time>2021-03-24T21:41:17Z</time>
      </trkpt>
      <trkpt lat="47.36186" lon="-1.00606">
        <ele>22</ele>
        <time>2021-03-24T21:41:24Z</time>
      </trkpt>
      <trkpt lat="47.36112" lon="-1.00641">
        <ele>22</ele>
        <time>2021-03-24T21:41:38Z</time>
      </trkpt>
      <trkpt lat="47.36075" lon="-1.00656">
        <ele>21</ele>
        <time>2021-03-24T21:41:45Z</time>
      </trkpt>
      <trkpt lat="47.36057" lon="-1.00669">
        <ele>20</ele>
        <time>2021-03-24T21:41:48Z</time>
      </trkpt>
      <trkpt lat="47.36061" lon="-1.00701">
        <ele>21</ele>
        <time>2021-03-24T21:41:52Z</time>
      </trkpt>
      <trkpt lat="47.36063" lon="-1.00753">
        <ele>21</ele>
        <time>2021-03-24T21:41:58Z</time>
      </trkpt>
      <trkpt lat="47.36062" lon="-1.00786">
        <ele>21</ele>
        <time>2021-03-24T21:42:02Z</time>
      </trkpt>
      <trkpt lat="47.36054" lon="-1.00869">
        <ele>21</ele>
        <time>2021-03-24T21:42:13Z</time>
      </trkpt>
      <trkpt lat="47.36053" lon="-1.00893">
        <ele>21</ele>
        <time>2021-03-24T21:42:15Z</time>
      </trkpt>
      <trkpt lat="47.36055" lon="-1.00917">
        <ele>21</ele>
        <time>2021-03-24T21:42:18Z</time>
      </trkpt>
      <trkpt lat="47.3606" lon="-1.00957">
        <ele>22</ele>
        <time>2021-03-24T21:42:23Z</time>
      </trkpt>
      <trkpt lat="47.36116" lon="-1.01243">
        <ele>22</ele>
        <time>2021-03-24T21:42:59Z</time>
      </trkpt>
      <trkpt lat="47.36121" lon="-1.01275">
        <ele>22</ele>
        <time>2021-03-24T21:43:03Z</time>
      </trkpt>
      <trkpt lat="47.36125" lon="-1.01319">
        <ele>22</ele>
        <time>2021-03-24T21:43:08Z</time>
      </trkpt>
      <trkpt lat="47.3614" lon="-1.01439">
        <ele>24</ele>
        <time>2021-03-24T21:43:23Z</time>
      </trkpt>
      <trkpt lat="47.36151" lon="-1.01549">
        <ele>25</ele>
        <time>2021-03-24T21:43:37Z</time>
      </trkpt>
      <trkpt lat="47.36153" lon="-1.01582">
        <ele>25</ele>
        <time>2021-03-24T21:43:41Z</time>
      </trkpt>
      <trkpt lat="47.36115" lon="-1.01604">
        <ele>25</ele>
        <time>2021-03-24T21:43:48Z</time>
      </trkpt>
      <trkpt lat="47.36106" lon="-1.01617">
        <ele>25</ele>
        <time>2021-03-24T21:43:50Z</time>
      </trkpt>
      <trkpt lat="47.36101" lon="-1.01631">
        <ele>26</ele>
        <time>2021-03-24T21:43:52Z</time>
      </trkpt>
      <trkpt lat="47.36017" lon="-1.01998">
        <ele>27</ele>
        <time>2021-03-24T21:44:39Z</time>
      </trkpt>
      <trkpt lat="47.36014" lon="-1.02042">
        <ele>28</ele>
        <time>2021-03-24T21:44:44Z</time>
      </trkpt>
      <trkpt lat="47.36051" lon="-1.02421">
        <ele>32</ele>
        <time>2021-03-24T21:45:30Z</time>
      </trkpt>
      <trkpt lat="47.36057" lon="-1.0245">
        <ele>31</ele>
        <time>2021-03-24T21:45:34Z</time>
      </trkpt>
      <trkpt lat="47.36061" lon="-1.02508">
        <ele>30</ele>
        <time>2021-03-24T21:45:41Z</time>
      </trkpt>
      <trkpt lat="47.36135" lon="-1.03246">
        <ele>12</ele>
        <time>2021-03-24T21:47:11Z</time>
      </trkpt>
      <trkpt lat="47.36139" lon="-1.03301">
        <ele>12</ele>
        <time>2021-03-24T21:47:17Z</time>
      </trkpt>
      <trkpt lat="47.3614" lon="-1.03353">
        <ele>12</ele>
        <time>2021-03-24T21:47:24Z</time>
      </trkpt>
      <trkpt lat="47.36138" lon="-1.03396">
        <ele>12</ele>
        <time>2021-03-24T21:47:29Z</time>
      </trkpt>
      <trkpt lat="47.36135" lon="-1.03414">
        <ele>12</ele>
        <time>2021-03-24T21:47:31Z</time>
      </trkpt>
      <trkpt lat="47.36131" lon="-1.03437">
        <ele>12</ele>
        <time>2021-03-24T21:47:34Z</time>
      </trkpt>
      <trkpt lat="47.36114" lon="-1.03509">
        <ele>12</ele>
        <time>2021-03-24T21:47:43Z</time>
      </trkpt>
      <trkpt lat="47.36114" lon="-1.03528">
        <ele>12</ele>
        <time>2021-03-24T21:47:45Z</time>
      </trkpt>
      <trkpt lat="47.36107" lon="-1.0354">
        <ele>12</ele>
        <time>2021-03-24T21:47:47Z</time>
      </trkpt>
      <trkpt lat="47.36098" lon="-1.03572">
        <ele>13</ele>
        <time>2021-03-24T21:47:52Z</time>
      </trkpt>
      <trkpt lat="47.36057" lon="-1.03731">
        <ele>10</ele>
        <time>2021-03-24T21:48:12Z</time>
      </trkpt>
      <trkpt lat="47.36061" lon="-1.03735">
        <ele>10</ele>
        <time>2021-03-24T21:48:13Z</time>
      </trkpt>
      <trkpt lat="47.36061" lon="-1.0374">
        <ele>10</ele>
        <time>2021-03-24T21:48:14Z</time>
      </trkpt>
      <trkpt lat="47.36033" lon="-1.03857">
        <ele>12</ele>
        <time>2021-03-24T21:48:28Z</time>
      </trkpt>
      <trkpt lat="47.36026" lon="-1.03894">
        <ele>12</ele>
        <time>2021-03-24T21:48:33Z</time>
      </trkpt>
      <trkpt lat="47.36029" lon="-1.03902">
        <ele>12</ele>
        <time>2021-03-24T21:48:34Z</time>
      </trkpt>
      <trkpt lat="47.36047" lon="-1.03923">
        <ele>11</ele>
        <time>2021-03-24T21:48:38Z</time>
      </trkpt>
      <trkpt lat="47.36071" lon="-1.03889">
        <ele>10</ele>
        <time>2021-03-24T21:48:44Z</time>
      </trkpt>
      <trkpt lat="47.36079" lon="-1.03881">
        <ele>10</ele>
        <time>2021-03-24T21:48:46Z</time>
      </trkpt>
      <trkpt lat="47.36093" lon="-1.03874">
        <ele>10</ele>
        <time>2021-03-24T21:48:49Z</time>
      </trkpt>
      <trkpt lat="47.36096" lon="-1.03878">
        <ele>10</ele>
        <time>2021-03-24T21:48:49Z</time>
      </trkpt>
      <trkpt lat="47.36122" lon="-1.04085">
        <ele>9</ele>
        <time>2021-03-24T21:49:15Z</time>
      </trkpt>
      <trkpt lat="47.36138" lon="-1.04175">
        <ele>8</ele>
        <time>2021-03-24T21:49:26Z</time>
      </trkpt>
      <trkpt lat="47.36146" lon="-1.04265">
        <ele>9</ele>
        <time>2021-03-24T21:49:37Z</time>
      </trkpt>
      <trkpt lat="47.36152" lon="-1.04309">
        <ele>9</ele>
        <time>2021-03-24T21:49:42Z</time>
      </trkpt>
      <trkpt lat="47.3616" lon="-1.04514">
        <ele>9</ele>
        <time>2021-03-24T21:50:07Z</time>
      </trkpt>
      <trkpt lat="47.3616" lon="-1.04565">
        <ele>9</ele>
        <time>2021-03-24T21:50:13Z</time>
      </trkpt>
      <trkpt lat="47.3615" lon="-1.04792">
        <ele>9</ele>
        <time>2021-03-24T21:50:41Z</time>
      </trkpt>
      <trkpt lat="47.36147" lon="-1.04807">
        <ele>9</ele>
        <time>2021-03-24T21:50:42Z</time>
      </trkpt>
      <trkpt lat="47.36143" lon="-1.04813">
        <ele>9</ele>
        <time>2021-03-24T21:50:43Z</time>
      </trkpt>
      <trkpt lat="47.36137" lon="-1.04817">
        <ele>10</ele>
        <time>2021-03-24T21:50:45Z</time>
      </trkpt>
      <trkpt lat="47.36107" lon="-1.04825">
        <ele>10</ele>
        <time>2021-03-24T21:50:50Z</time>
      </trkpt>
      <trkpt lat="47.36101" lon="-1.0483">
        <ele>10</ele>
        <time>2021-03-24T21:50:51Z</time>
      </trkpt>
      <trkpt lat="47.36097" lon="-1.04838">
        <ele>11</ele>
        <time>2021-03-24T21:50:52Z</time>
      </trkpt>
      <trkpt lat="47.36094" lon="-1.0485">
        <ele>11</ele>
        <time>2021-03-24T21:50:54Z</time>
      </trkpt>
      <trkpt lat="47.36089" lon="-1.05051">
        <ele>10</ele>
        <time>2021-03-24T21:51:18Z</time>
      </trkpt>
      <trkpt lat="47.36091" lon="-1.05128">
        <ele>10</ele>
        <time>2021-03-24T21:51:27Z</time>
      </trkpt>
      <trkpt lat="47.3609" lon="-1.0523">
        <ele>11</ele>
        <time>2021-03-24T21:51:40Z</time>
      </trkpt>
      <trkpt lat="47.36086" lon="-1.0539">
        <ele>10</ele>
        <time>2021-03-24T21:51:59Z</time>
      </trkpt>
      <trkpt lat="47.36089" lon="-1.05472">
        <ele>9</ele>
        <time>2021-03-24T21:52:09Z</time>
      </trkpt>
      <trkpt lat="47.36087" lon="-1.05595">
        <ele>8</ele>
        <time>2021-03-24T21:52:24Z</time>
      </trkpt>
      <trkpt lat="47.361" lon="-1.05899">
        <ele>10</ele>
        <time>2021-03-24T21:53:01Z</time>
      </trkpt>
      <trkpt lat="47.36101" lon="-1.06081">
        <ele>11</ele>
        <time>2021-03-24T21:53:22Z</time>
      </trkpt>
      <trkpt lat="47.36096" lon="-1.06279">
        <ele>10</ele>
        <time>2021-03-24T21:53:46Z</time>
      </trkpt>
      <trkpt lat="47.36099" lon="-1.06316">
        <ele>10</ele>
        <time>2021-03-24T21:53:51Z</time>
      </trkpt>
      <trkpt lat="47.36105" lon="-1.06349">
        <ele>10</ele>
        <time>2021-03-24T21:53:55Z</time>
      </trkpt>
      <trkpt lat="47.36119" lon="-1.06396">
        <ele>10</ele>
        <time>2021-03-24T21:54:01Z</time>
      </trkpt>
      <trkpt lat="47.36124" lon="-1.06423">
        <ele>11</ele>
        <time>2021-03-24T21:54:05Z</time>
      </trkpt>
      <trkpt lat="47.36128" lon="-1.06476">
        <ele>10</ele>
        <time>2021-03-24T21:54:11Z</time>
      </trkpt>
      <trkpt lat="47.36275" lon="-1.0648">
        <ele>8</ele>
        <time>2021-03-24T21:54:37Z</time>
      </trkpt>
      <trkpt lat="47.36294" lon="-1.06485">
        <ele>8</ele>
        <time>2021-03-24T21:54:41Z</time>
      </trkpt>
      <trkpt lat="47.36358" lon="-1.06547">
        <ele>8</ele>
        <time>2021-03-24T21:54:54Z</time>
      </trkpt>
      <trkpt lat="47.36457" lon="-1.0661">
        <ele>9</ele>
        <time>2021-03-24T21:55:13Z</time>
      </trkpt>
      <trkpt lat="47.36462" lon="-1.06616">
        <ele>8</ele>
        <time>2021-03-24T21:55:14Z</time>
      </trkpt>
      <trkpt lat="47.3646" lon="-1.06629">
        <ele>8</ele>
        <time>2021-03-24T21:55:16Z</time>
      </trkpt>
      <trkpt lat="47.36439" lon="-1.067">
        <ele>8</ele>
        <time>2021-03-24T21:55:25Z</time>
      </trkpt>
      <trkpt lat="47.36434" lon="-1.06726">
        <ele>8</ele>
        <time>2021-03-24T21:55:29Z</time>
      </trkpt>
      <trkpt lat="47.3642" lon="-1.06855">
        <ele>8</ele>
        <time>2021-03-24T21:55:44Z</time>
      </trkpt>
      <trkpt lat="47.36418" lon="-1.06881">
        <ele>9</ele>
        <time>2021-03-24T21:55:48Z</time>
      </trkpt>
      <trkpt lat="47.3642" lon="-1.06935">
        <ele>9</ele>
        <time>2021-03-24T21:55:54Z</time>
      </trkpt>
      <trkpt lat="47.36426" lon="-1.07007">
        <ele>9</ele>
        <time>2021-03-24T21:56:03Z</time>
      </trkpt>
      <trkpt lat="47.36434" lon="-1.07049">
        <ele>10</ele>
        <time>2021-03-24T21:56:08Z</time>
      </trkpt>
      <trkpt lat="47.36436" lon="-1.07069">
        <ele>11</ele>
        <time>2021-03-24T21:56:11Z</time>
      </trkpt>
      <trkpt lat="47.36436" lon="-1.0709">
        <ele>11</ele>
        <time>2021-03-24T21:56:13Z</time>
      </trkpt>
      <trkpt lat="47.36431" lon="-1.07135">
        <ele>10</ele>
        <time>2021-03-24T21:56:19Z</time>
      </trkpt>
      <trkpt lat="47.36424" lon="-1.07161">
        <ele>9</ele>
        <time>2021-03-24T21:56:22Z</time>
      </trkpt>
      <trkpt lat="47.36408" lon="-1.07201">
        <ele>9</ele>
        <time>2021-03-24T21:56:28Z</time>
      </trkpt>
      <trkpt lat="47.36364" lon="-1.07266">
        <ele>10</ele>
        <time>2021-03-24T21:56:39Z</time>
      </trkpt>
      <trkpt lat="47.36335" lon="-1.07313">
        <ele>9</ele>
        <time>2021-03-24T21:56:46Z</time>
      </trkpt>
      <trkpt lat="47.36306" lon="-1.07372">
        <ele>10</ele>
        <time>2021-03-24T21:56:55Z</time>
      </trkpt>
      <trkpt lat="47.36298" lon="-1.07393">
        <ele>10</ele>
        <time>2021-03-24T21:56:58Z</time>
      </trkpt>
      <trkpt lat="47.36293" lon="-1.07412">
        <ele>10</ele>
        <time>2021-03-24T21:57:00Z</time>
      </trkpt>
      <trkpt lat="47.36277" lon="-1.07503">
        <ele>10</ele>
        <time>2021-03-24T21:57:12Z</time>
      </trkpt>
      <trkpt lat="47.36267" lon="-1.07579">
        <ele>10</ele>
        <time>2021-03-24T21:57:21Z</time>
      </trkpt>
      <trkpt lat="47.36256" lon="-1.07642">
        <ele>9</ele>
        <time>2021-03-24T21:57:29Z</time>
      </trkpt>
      <trkpt lat="47.36255" lon="-1.0766">
        <ele>9</ele>
        <time>2021-03-24T21:57:31Z</time>
      </trkpt>
      <trkpt lat="47.36257" lon="-1.07783">
        <ele>9</ele>
        <time>2021-03-24T21:57:46Z</time>
      </trkpt>
      <trkpt lat="47.36261" lon="-1.07806">
        <ele>9</ele>
        <time>2021-03-24T21:57:49Z</time>
      </trkpt>
      <trkpt lat="47.36265" lon="-1.07823">
        <ele>9</ele>
        <time>2021-03-24T21:57:51Z</time>
      </trkpt>
      <trkpt lat="47.36275" lon="-1.07846">
        <ele>9</ele>
        <time>2021-03-24T21:57:54Z</time>
      </trkpt>
      <trkpt lat="47.36287" lon="-1.07884">
        <ele>9</ele>
        <time>2021-03-24T21:57:59Z</time>
      </trkpt>
      <trkpt lat="47.36295" lon="-1.07925">
        <ele>9</ele>
        <time>2021-03-24T21:58:04Z</time>
      </trkpt>
      <trkpt lat="47.36302" lon="-1.07968">
        <ele>9</ele>
        <time>2021-03-24T21:58:10Z</time>
      </trkpt>
      <trkpt lat="47.36306" lon="-1.08015">
        <ele>9</ele>
        <time>2021-03-24T21:58:15Z</time>
      </trkpt>
      <trkpt lat="47.36305" lon="-1.08059">
        <ele>8</ele>
        <time>2021-03-24T21:58:21Z</time>
      </trkpt>
      <trkpt lat="47.36299" lon="-1.08094">
        <ele>8</ele>
        <time>2021-03-24T21:58:25Z</time>
      </trkpt>
      <trkpt lat="47.36313" lon="-1.08123">
        <ele>8</ele>
        <time>2021-03-24T21:58:29Z</time>
      </trkpt>
      <trkpt lat="47.36352" lon="-1.08169">
        <ele>9</ele>
        <time>2021-03-24T21:58:38Z</time>
      </trkpt>
      <trkpt lat="47.36394" lon="-1.08235">
        <ele>9</ele>
        <time>2021-03-24T21:58:49Z</time>
      </trkpt>
      <trkpt lat="47.36414" lon="-1.08261">
        <ele>10</ele>
        <time>2021-03-24T21:58:54Z</time>
      </trkpt>
      <trkpt lat="47.36442" lon="-1.0831">
        <ele>10</ele>
        <time>2021-03-24T21:59:02Z</time>
      </trkpt>
      <trkpt lat="47.36448" lon="-1.08317">
        <ele>10</ele>
        <time>2021-03-24T21:59:03Z</time>
      </trkpt>
      <trkpt lat="47.36454" lon="-1.08323">
        <ele>10</ele>
        <time>2021-03-24T21:59:04Z</time>
      </trkpt>
      <trkpt lat="47.3646" lon="-1.08326">
        <ele>10</ele>
        <time>2021-03-24T21:59:05Z</time>
      </trkpt>
      <trkpt lat="47.365" lon="-1.08331">
        <ele>9</ele>
        <time>2021-03-24T21:59:13Z</time>
      </trkpt>
      <trkpt lat="47.36504" lon="-1.08336">
        <ele>9</ele>
        <time>2021-03-24T21:59:14Z</time>
      </trkpt>
      <trkpt lat="47.36507" lon="-1.08343">
        <ele>9</ele>
        <time>2021-03-24T21:59:15Z</time>
      </trkpt>
      <trkpt lat="47.36514" lon="-1.08395">
        <ele>8</ele>
        <time>2021-03-24T21:59:21Z</time>
      </trkpt>
      <trkpt lat="47.36527" lon="-1.08452">
        <ele>9</ele>
        <time>2021-03-24T21:59:28Z</time>
      </trkpt>
      <trkpt lat="47.36531" lon="-1.08475">
        <ele>9</ele>
        <time>2021-03-24T21:59:31Z</time>
      </trkpt>
      <trkpt lat="47.36534" lon="-1.08549">
        <ele>10</ele>
        <time>2021-03-24T21:59:40Z</time>
      </trkpt>
      <trkpt lat="47.36569" lon="-1.0871">
        <ele>8</ele>
        <time>2021-03-24T22:00:00Z</time>
      </trkpt>
      <trkpt lat="47.36573" lon="-1.08735">
        <ele>8</ele>
        <time>2021-03-24T22:00:03Z</time>
      </trkpt>
      <trkpt lat="47.36575" lon="-1.08759">
        <ele>8</ele>
        <time>2021-03-24T22:00:06Z</time>
      </trkpt>
      <trkpt lat="47.36573" lon="-1.08889">
        <ele>8</ele>
        <time>2021-03-24T22:00:22Z</time>
      </trkpt>
      <trkpt lat="47.36569" lon="-1.08959">
        <ele>9</ele>
        <time>2021-03-24T22:00:31Z</time>
      </trkpt>
      <trkpt lat="47.36572" lon="-1.08985">
        <ele>9</ele>
        <time>2021-03-24T22:00:34Z</time>
      </trkpt>
      <trkpt lat="47.36572" lon="-1.08997">
        <ele>9</ele>
        <time>2021-03-24T22:00:35Z</time>
      </trkpt>
      <trkpt lat="47.36571" lon="-1.09001">
        <ele>9</ele>
        <time>2021-03-24T22:00:36Z</time>
      </trkpt>
      <trkpt lat="47.36568" lon="-1.09004">
        <ele>9</ele>
        <time>2021-03-24T22:00:36Z</time>
      </trkpt>
      <trkpt lat="47.36527" lon="-1.08997">
        <ele>10</ele>
        <time>2021-03-24T22:00:44Z</time>
      </trkpt>
      <trkpt lat="47.3652" lon="-1.08999">
        <ele>10</ele>
        <time>2021-03-24T22:00:45Z</time>
      </trkpt>
      <trkpt lat="47.36513" lon="-1.09005">
        <ele>10</ele>
        <time>2021-03-24T22:00:46Z</time>
      </trkpt>
      <trkpt lat="47.36409" lon="-1.09119">
        <ele>7</ele>
        <time>2021-03-24T22:01:09Z</time>
      </trkpt>
      <trkpt lat="47.36394" lon="-1.09122">
        <ele>7</ele>
        <time>2021-03-24T22:01:12Z</time>
      </trkpt>
      <trkpt lat="47.36348" lon="-1.0911">
        <ele>8</ele>
        <time>2021-03-24T22:01:20Z</time>
      </trkpt>
      <trkpt lat="47.36342" lon="-1.09112">
        <ele>8</ele>
        <time>2021-03-24T22:01:21Z</time>
      </trkpt>
      <trkpt lat="47.3634" lon="-1.0912">
        <ele>8</ele>
        <time>2021-03-24T22:01:23Z</time>
      </trkpt>
      <trkpt lat="47.36355" lon="-1.0917">
        <ele>8</ele>
        <time>2021-03-24T22:01:29Z</time>
      </trkpt>
      <trkpt lat="47.3637" lon="-1.09251">
        <ele>9</ele>
        <time>2021-03-24T22:01:39Z</time>
      </trkpt>
      <trkpt lat="47.36381" lon="-1.09323">
        <ele>9</ele>
        <time>2021-03-24T22:01:48Z</time>
      </trkpt>
      <trkpt lat="47.36389" lon="-1.0939">
        <ele>9</ele>
        <time>2021-03-24T22:01:56Z</time>
      </trkpt>
      <trkpt lat="47.36399" lon="-1.0952">
        <ele>10</ele>
        <time>2021-03-24T22:02:12Z</time>
      </trkpt>
      <trkpt lat="47.36403" lon="-1.09555">
        <ele>10</ele>
        <time>2021-03-24T22:02:16Z</time>
      </trkpt>
      <trkpt lat="47.36409" lon="-1.0959">
        <ele>11</ele>
        <time>2021-03-24T22:02:21Z</time>
      </trkpt>
      <trkpt lat="47.36424" lon="-1.09662">
        <ele>11</ele>
        <time>2021-03-24T22:02:30Z</time>
      </trkpt>
      <trkpt lat="47.36431" lon="-1.09711">
        <ele>12</ele>
        <time>2021-03-24T22:02:36Z</time>
      </trkpt>
      <trkpt lat="47.36439" lon="-1.09784">
        <ele>11</ele>
        <time>2021-03-24T22:02:45Z</time>
      </trkpt>
      <trkpt lat="47.36445" lon="-1.09831">
        <ele>9</ele>
        <time>2021-03-24T22:02:51Z</time>
      </trkpt>
      <trkpt lat="47.36464" lon="-1.09921">
        <ele>9</ele>
        <time>2021-03-24T22:03:02Z</time>
      </trkpt>
      <trkpt lat="47.36475" lon="-1.0996">
        <ele>9</ele>
        <time>2021-03-24T22:03:07Z</time>
      </trkpt>
      <trkpt lat="47.3649" lon="-1.10027">
        <ele>8</ele>
        <time>2021-03-24T22:03:15Z</time>
      </trkpt>
      <trkpt lat="47.36506" lon="-1.10121">
        <ele>9</ele>
        <time>2021-03-24T22:03:27Z</time>
      </trkpt>
      <trkpt lat="47.36508" lon="-1.10145">
        <ele>9</ele>
        <time>2021-03-24T22:03:30Z</time>
      </trkpt>
      <trkpt lat="47.36508" lon="-1.10158">
        <ele>9</ele>
        <time>2021-03-24T22:03:32Z</time>
      </trkpt>
      <trkpt lat="47.365" lon="-1.10222">
        <ele>10</ele>
        <time>2021-03-24T22:03:39Z</time>
      </trkpt>
      <trkpt lat="47.36503" lon="-1.10225">
        <ele>10</ele>
        <time>2021-03-24T22:03:40Z</time>
      </trkpt>
      <trkpt lat="47.36511" lon="-1.10241">
        <ele>10</ele>
        <time>2021-03-24T22:03:43Z</time>
      </trkpt>
      <trkpt lat="47.36514" lon="-1.10264">
        <ele>10</ele>
        <time>2021-03-24T22:03:45Z</time>
      </trkpt>
      <trkpt lat="47.36516" lon="-1.10284">
        <ele>9</ele>
        <time>2021-03-24T22:03:48Z</time>
      </trkpt>
      <trkpt lat="47.36523" lon="-1.1043">
        <ele>9</ele>
        <time>2021-03-24T22:04:05Z</time>
      </trkpt>
      <trkpt lat="47.36523" lon="-1.10556">
        <ele>10</ele>
        <time>2021-03-24T22:04:21Z</time>
      </trkpt>
      <trkpt lat="47.36532" lon="-1.10679">
        <ele>10</ele>
        <time>2021-03-24T22:04:36Z</time>
      </trkpt>
      <trkpt lat="47.36538" lon="-1.10839">
        <ele>11</ele>
        <time>2021-03-24T22:04:55Z</time>
      </trkpt>
      <trkpt lat="47.3654" lon="-1.10883">
        <ele>11</ele>
        <time>2021-03-24T22:05:00Z</time>
      </trkpt>
      <trkpt lat="47.36559" lon="-1.11048">
        <ele>11</ele>
        <time>2021-03-24T22:05:20Z</time>
      </trkpt>
      <trkpt lat="47.3656" lon="-1.11138">
        <ele>11</ele>
        <time>2021-03-24T22:05:31Z</time>
      </trkpt>
      <trkpt lat="47.36572" lon="-1.11323">
        <ele>10</ele>
        <time>2021-03-24T22:05:54Z</time>
      </trkpt>
      <trkpt lat="47.36569" lon="-1.11418">
        <ele>11</ele>
        <time>2021-03-24T22:06:05Z</time>
      </trkpt>
      <trkpt lat="47.3657" lon="-1.11487">
        <ele>10</ele>
        <time>2021-03-24T22:06:13Z</time>
      </trkpt>
      <trkpt lat="47.36583" lon="-1.11649">
        <ele>10</ele>
        <time>2021-03-24T22:06:33Z</time>
      </trkpt>
      <trkpt lat="47.36593" lon="-1.11806">
        <ele>11</ele>
        <time>2021-03-24T22:06:52Z</time>
      </trkpt>
      <trkpt lat="47.36599" lon="-1.11867">
        <ele>10</ele>
        <time>2021-03-24T22:06:59Z</time>
      </trkpt>
      <trkpt lat="47.36597" lon="-1.11909">
        <ele>10</ele>
        <time>2021-03-24T22:07:04Z</time>
      </trkpt>
      <trkpt lat="47.36594" lon="-1.11918">
        <ele>10</ele>
        <time>2021-03-24T22:07:06Z</time>
      </trkpt>
      <trkpt lat="47.36583" lon="-1.11904">
        <ele>10</ele>
        <time>2021-03-24T22:07:08Z</time>
      </trkpt>
      <trkpt lat="47.36566" lon="-1.11893">
        <ele>10</ele>
        <time>2021-03-24T22:07:12Z</time>
      </trkpt>
      <trkpt lat="47.36539" lon="-1.1188">
        <ele>10</ele>
        <time>2021-03-24T22:07:17Z</time>
      </trkpt>
      <trkpt lat="47.36476" lon="-1.11873">
        <ele>10</ele>
        <time>2021-03-24T22:07:28Z</time>
      </trkpt>
      <trkpt lat="47.36403" lon="-1.11844">
        <ele>11</ele>
        <time>2021-03-24T22:07:41Z</time>
      </trkpt>
      <trkpt lat="47.36364" lon="-1.11833">
        <ele>10</ele>
        <time>2021-03-24T22:07:48Z</time>
      </trkpt>
      <trkpt lat="47.36248" lon="-1.1182">
        <ele>9</ele>
        <time>2021-03-24T22:08:09Z</time>
      </trkpt>
      <trkpt lat="47.362" lon="-1.11818">
        <ele>11</ele>
        <time>2021-03-24T22:08:18Z</time>
      </trkpt>
      <trkpt lat="47.36157" lon="-1.11832">
        <ele>12</ele>
        <time>2021-03-24T22:08:25Z</time>
      </trkpt>
      <trkpt lat="47.36093" lon="-1.11834">
        <ele>8</ele>
        <time>2021-03-24T22:08:37Z</time>
      </trkpt>
      <trkpt lat="47.36082" lon="-1.11836">
        <ele>8</ele>
        <time>2021-03-24T22:08:39Z</time>
      </trkpt>
      <trkpt lat="47.36061" lon="-1.11843">
        <ele>8</ele>
        <time>2021-03-24T22:08:43Z</time>
      </trkpt>
      <trkpt lat="47.36009" lon="-1.11848">
        <ele>8</ele>
        <time>2021-03-24T22:08:52Z</time>
      </trkpt>
      <trkpt lat="47.35941" lon="-1.11847">
        <ele>10</ele>
        <time>2021-03-24T22:09:04Z</time>
      </trkpt>
      <trkpt lat="47.35864" lon="-1.11844">
        <ele>9</ele>
        <time>2021-03-24T22:09:18Z</time>
      </trkpt>
      <trkpt lat="47.35801" lon="-1.11836">
        <ele>9</ele>
        <time>2021-03-24T22:09:29Z</time>
      </trkpt>
      <trkpt lat="47.35793" lon="-1.11889">
        <ele>10</ele>
        <time>2021-03-24T22:09:36Z</time>
      </trkpt>
      <trkpt lat="47.35762" lon="-1.12115">
        <ele>7</ele>
        <time>2021-03-24T22:10:03Z</time>
      </trkpt>
      <trkpt lat="47.35761" lon="-1.12131">
        <ele>7</ele>
        <time>2021-03-24T22:10:05Z</time>
      </trkpt>
      <trkpt lat="47.35762" lon="-1.1216">
        <ele>7</ele>
        <time>2021-03-24T22:10:09Z</time>
      </trkpt>
      <trkpt lat="47.35798" lon="-1.12255">
        <ele>9</ele>
        <time>2021-03-24T22:10:22Z</time>
      </trkpt>
      <trkpt lat="47.35802" lon="-1.12277">
        <ele>9</ele>
        <time>2021-03-24T22:10:25Z</time>
      </trkpt>
      <trkpt lat="47.35797" lon="-1.12293">
        <ele>9</ele>
        <time>2021-03-24T22:10:27Z</time>
      </trkpt>
      <trkpt lat="47.35737" lon="-1.12377">
        <ele>9</ele>
        <time>2021-03-24T22:10:41Z</time>
      </trkpt>
      <trkpt lat="47.35726" lon="-1.12405">
        <ele>10</ele>
        <time>2021-03-24T22:10:45Z</time>
      </trkpt>
      <trkpt lat="47.35715" lon="-1.12441">
        <ele>9</ele>
        <time>2021-03-24T22:10:50Z</time>
      </trkpt>
      <trkpt lat="47.357" lon="-1.12436">
        <ele>10</ele>
        <time>2021-03-24T22:10:53Z</time>
      </trkpt>
      <trkpt lat="47.35696" lon="-1.12439">
        <ele>10</ele>
        <time>2021-03-24T22:10:54Z</time>
      </trkpt>
      <trkpt lat="47.35688" lon="-1.12452">
        <ele>10</ele>
        <time>2021-03-24T22:10:56Z</time>
      </trkpt>
      <trkpt lat="47.35665" lon="-1.12509">
        <ele>9</ele>
        <time>2021-03-24T22:11:04Z</time>
      </trkpt>
      <trkpt lat="47.35655" lon="-1.12539">
        <ele>9</ele>
        <time>2021-03-24T22:11:08Z</time>
      </trkpt>
      <trkpt lat="47.35642" lon="-1.12583">
        <ele>10</ele>
        <time>2021-03-24T22:11:14Z</time>
      </trkpt>
      <trkpt lat="47.35627" lon="-1.12657">
        <ele>8</ele>
        <time>2021-03-24T22:11:23Z</time>
      </trkpt>
      <trkpt lat="47.35611" lon="-1.12754">
        <ele>8</ele>
        <time>2021-03-24T22:11:35Z</time>
      </trkpt>
      <trkpt lat="47.35611" lon="-1.12762">
        <ele>9</ele>
        <time>2021-03-24T22:11:36Z</time>
      </trkpt>
      <trkpt lat="47.35614" lon="-1.12778">
        <ele>9</ele>
        <time>2021-03-24T22:11:38Z</time>
      </trkpt>
      <trkpt lat="47.3563" lon="-1.12813">
        <ele>9</ele>
        <time>2021-03-24T22:11:43Z</time>
      </trkpt>
      <trkpt lat="47.3563" lon="-1.12824">
        <ele>9</ele>
        <time>2021-03-24T22:11:44Z</time>
      </trkpt>
      <trkpt lat="47.35613" lon="-1.12881">
        <ele>9</ele>
        <time>2021-03-24T22:11:52Z</time>
      </trkpt>
      <trkpt lat="47.356" lon="-1.12946">
        <ele>9</ele>
        <time>2021-03-24T22:12:00Z</time>
      </trkpt>
      <trkpt lat="47.35587" lon="-1.12981">
        <ele>9</ele>
        <time>2021-03-24T22:12:05Z</time>
      </trkpt>
      <trkpt lat="47.35572" lon="-1.13053">
        <ele>9</ele>
        <time>2021-03-24T22:12:14Z</time>
      </trkpt>
      <trkpt lat="47.35559" lon="-1.13096">
        <ele>9</ele>
        <time>2021-03-24T22:12:20Z</time>
      </trkpt>
      <trkpt lat="47.3555" lon="-1.13138">
        <ele>10</ele>
        <time>2021-03-24T22:12:25Z</time>
      </trkpt>
      <trkpt lat="47.35536" lon="-1.13185">
        <ele>10</ele>
        <time>2021-03-24T22:12:31Z</time>
      </trkpt>
      <trkpt lat="47.35509" lon="-1.13307">
        <ele>9</ele>
        <time>2021-03-24T22:12:47Z</time>
      </trkpt>
      <trkpt lat="47.35489" lon="-1.13362">
        <ele>9</ele>
        <time>2021-03-24T22:12:54Z</time>
      </trkpt>
      <trkpt lat="47.35461" lon="-1.13426">
        <ele>9</ele>
        <time>2021-03-24T22:13:03Z</time>
      </trkpt>
      <trkpt lat="47.35439" lon="-1.13492">
        <ele>9</ele>
        <time>2021-03-24T22:13:12Z</time>
      </trkpt>
      <trkpt lat="47.35431" lon="-1.13506">
        <ele>9</ele>
        <time>2021-03-24T22:13:14Z</time>
      </trkpt>
      <trkpt lat="47.35425" lon="-1.13508">
        <ele>9</ele>
        <time>2021-03-24T22:13:15Z</time>
      </trkpt>
      <trkpt lat="47.35418" lon="-1.13514">
        <ele>9</ele>
        <time>2021-03-24T22:13:17Z</time>
      </trkpt>
      <trkpt lat="47.3539" lon="-1.13557">
        <ele>8</ele>
        <time>2021-03-24T22:13:24Z</time>
      </trkpt>
      <trkpt lat="47.35374" lon="-1.13592">
        <ele>7</ele>
        <time>2021-03-24T22:13:29Z</time>
      </trkpt>
      <trkpt lat="47.35362" lon="-1.13632">
        <ele>7</ele>
        <time>2021-03-24T22:13:34Z</time>
      </trkpt>
      <trkpt lat="47.35354" lon="-1.13674">
        <ele>7</ele>
        <time>2021-03-24T22:13:40Z</time>
      </trkpt>
      <trkpt lat="47.3534" lon="-1.13773">
        <ele>7</ele>
        <time>2021-03-24T22:13:52Z</time>
      </trkpt>
      <trkpt lat="47.35335" lon="-1.13844">
        <ele>8</ele>
        <time>2021-03-24T22:14:00Z</time>
      </trkpt>
      <trkpt lat="47.3533" lon="-1.13871">
        <ele>8</ele>
        <time>2021-03-24T22:14:04Z</time>
      </trkpt>
      <trkpt lat="47.35312" lon="-1.13951">
        <ele>8</ele>
        <time>2021-03-24T22:14:14Z</time>
      </trkpt>
      <trkpt lat="47.35287" lon="-1.14029">
        <ele>8</ele>
        <time>2021-03-24T22:14:24Z</time>
      </trkpt>
      <trkpt lat="47.35255" lon="-1.14148">
        <ele>8</ele>
        <time>2021-03-24T22:14:40Z</time>
      </trkpt>
      <trkpt lat="47.35251" lon="-1.1419">
        <ele>8</ele>
        <time>2021-03-24T22:14:45Z</time>
      </trkpt>
      <trkpt lat="47.35248" lon="-1.1427">
        <ele>7</ele>
        <time>2021-03-24T22:14:55Z</time>
      </trkpt>
      <trkpt lat="47.35241" lon="-1.14347">
        <ele>7</ele>
        <time>2021-03-24T22:15:04Z</time>
      </trkpt>
      <trkpt lat="47.35243" lon="-1.14362">
        <ele>7</ele>
        <time>2021-03-24T22:15:06Z</time>
      </trkpt>
      <trkpt lat="47.35253" lon="-1.14381">
        <ele>8</ele>
        <time>2021-03-24T22:15:09Z</time>
      </trkpt>
      <trkpt lat="47.35261" lon="-1.14411">
        <ele>8</ele>
        <time>2021-03-24T22:15:13Z</time>
      </trkpt>
      <trkpt lat="47.35266" lon="-1.14445">
        <ele>8</ele>
        <time>2021-03-24T22:15:17Z</time>
      </trkpt>
      <trkpt lat="47.35266" lon="-1.1447">
        <ele>7</ele>
        <time>2021-03-24T22:15:20Z</time>
      </trkpt>
      <trkpt lat="47.35256" lon="-1.14551">
        <ele>8</ele>
        <time>2021-03-24T22:15:30Z</time>
      </trkpt>
      <trkpt lat="47.35251" lon="-1.14573">
        <ele>9</ele>
        <time>2021-03-24T22:15:33Z</time>
      </trkpt>
      <trkpt lat="47.35246" lon="-1.14588">
        <ele>9</ele>
        <time>2021-03-24T22:15:35Z</time>
      </trkpt>
      <trkpt lat="47.35222" lon="-1.14631">
        <ele>8</ele>
        <time>2021-03-24T22:15:41Z</time>
      </trkpt>
      <trkpt lat="47.35212" lon="-1.14653">
        <ele>8</ele>
        <time>2021-03-24T22:15:44Z</time>
      </trkpt>
      <trkpt lat="47.35194" lon="-1.14745">
        <ele>8</ele>
        <time>2021-03-24T22:15:56Z</time>
      </trkpt>
      <trkpt lat="47.35133" lon="-1.14715">
        <ele>8</ele>
        <time>2021-03-24T22:16:07Z</time>
      </trkpt>
      <trkpt lat="47.35061" lon="-1.1469">
        <ele>9</ele>
        <time>2021-03-24T22:16:21Z</time>
      </trkpt>
      <trkpt lat="47.35056" lon="-1.14701">
        <ele>10</ele>
        <time>2021-03-24T22:16:22Z</time>
      </trkpt>
      <trkpt lat="47.35041" lon="-1.14833">
        <ele>12</ele>
        <time>2021-03-24T22:16:38Z</time>
      </trkpt>
      <trkpt lat="47.35038" lon="-1.14849">
        <ele>12</ele>
        <time>2021-03-24T22:16:40Z</time>
      </trkpt>
      <trkpt lat="47.35033" lon="-1.14859">
        <ele>12</ele>
        <time>2021-03-24T22:16:42Z</time>
      </trkpt>
      <trkpt lat="47.35025" lon="-1.14866">
        <ele>12</ele>
        <time>2021-03-24T22:16:43Z</time>
      </trkpt>
      <trkpt lat="47.34929" lon="-1.14904">
        <ele>16</ele>
        <time>2021-03-24T22:17:01Z</time>
      </trkpt>
      <trkpt lat="47.3489" lon="-1.1491">
        <ele>17</ele>
        <time>2021-03-24T22:17:08Z</time>
      </trkpt>
      <trkpt lat="47.34853" lon="-1.1491">
        <ele>18</ele>
        <time>2021-03-24T22:17:15Z</time>
      </trkpt>
      <trkpt lat="47.34731" lon="-1.14887">
        <ele>20</ele>
        <time>2021-03-24T22:17:37Z</time>
      </trkpt>
      <trkpt lat="47.34715" lon="-1.14887">
        <ele>20</ele>
        <time>2021-03-24T22:17:39Z</time>
      </trkpt>
      <trkpt lat="47.34701" lon="-1.14891">
        <ele>20</ele>
        <time>2021-03-24T22:17:42Z</time>
      </trkpt>
      <trkpt lat="47.34637" lon="-1.14919">
        <ele>22</ele>
        <time>2021-03-24T22:17:54Z</time>
      </trkpt>
      <trkpt lat="47.34616" lon="-1.14925">
        <ele>22</ele>
        <time>2021-03-24T22:17:58Z</time>
      </trkpt>
      <trkpt lat="47.34574" lon="-1.14927">
        <ele>23</ele>
        <time>2021-03-24T22:18:05Z</time>
      </trkpt>
      <trkpt lat="47.34559" lon="-1.14925">
        <ele>23</ele>
        <time>2021-03-24T22:18:08Z</time>
      </trkpt>
      <trkpt lat="47.3456" lon="-1.14969">
        <ele>24</ele>
        <time>2021-03-24T22:18:13Z</time>
      </trkpt>
      <trkpt lat="47.34552" lon="-1.151">
        <ele>22</ele>
        <time>2021-03-24T22:18:29Z</time>
      </trkpt>
      <trkpt lat="47.34547" lon="-1.15131">
        <ele>22</ele>
        <time>2021-03-24T22:18:33Z</time>
      </trkpt>
      <trkpt lat="47.34538" lon="-1.15174">
        <ele>22</ele>
        <time>2021-03-24T22:18:38Z</time>
      </trkpt>
      <trkpt lat="47.3453" lon="-1.15198">
        <ele>22</ele>
        <time>2021-03-24T22:18:41Z</time>
      </trkpt>
      <trkpt lat="47.34505" lon="-1.1526">
        <ele>23</ele>
        <time>2021-03-24T22:18:50Z</time>
      </trkpt>
      <trkpt lat="47.34476" lon="-1.15348">
        <ele>25</ele>
        <time>2021-03-24T22:19:02Z</time>
      </trkpt>
      <trkpt lat="47.34474" lon="-1.1536">
        <ele>25</ele>
        <time>2021-03-24T22:19:03Z</time>
      </trkpt>
      <trkpt lat="47.34475" lon="-1.15374">
        <ele>24</ele>
        <time>2021-03-24T22:19:05Z</time>
      </trkpt>
      <trkpt lat="47.34477" lon="-1.1539">
        <ele>24</ele>
        <time>2021-03-24T22:19:07Z</time>
      </trkpt>
      <trkpt lat="47.34481" lon="-1.15406">
        <ele>24</ele>
        <time>2021-03-24T22:19:09Z</time>
      </trkpt>
      <trkpt lat="47.34527" lon="-1.15546">
        <ele>23</ele>
        <time>2021-03-24T22:19:28Z</time>
      </trkpt>
      <trkpt lat="47.34531" lon="-1.1557">
        <ele>22</ele>
        <time>2021-03-24T22:19:31Z</time>
      </trkpt>
      <trkpt lat="47.3453" lon="-1.15602">
        <ele>22</ele>
        <time>2021-03-24T22:19:35Z</time>
      </trkpt>
      <trkpt lat="47.34526" lon="-1.15639">
        <ele>21</ele>
        <time>2021-03-24T22:19:39Z</time>
      </trkpt>
      <trkpt lat="47.34526" lon="-1.15659">
        <ele>21</ele>
        <time>2021-03-24T22:19:42Z</time>
      </trkpt>
      <trkpt lat="47.34532" lon="-1.15711">
        <ele>20</ele>
        <time>2021-03-24T22:19:48Z</time>
      </trkpt>
      <trkpt lat="47.34528" lon="-1.15743">
        <ele>20</ele>
        <time>2021-03-24T22:19:52Z</time>
      </trkpt>
      <trkpt lat="47.34525" lon="-1.15749">
        <ele>20</ele>
        <time>2021-03-24T22:19:53Z</time>
      </trkpt>
      <trkpt lat="47.34518" lon="-1.15752">
        <ele>20</ele>
        <time>2021-03-24T22:19:54Z</time>
      </trkpt>
      <trkpt lat="47.34497" lon="-1.15773">
        <ele>20</ele>
        <time>2021-03-24T22:19:59Z</time>
      </trkpt>
      <trkpt lat="47.34511" lon="-1.15808">
        <ele>19</ele>
        <time>2021-03-24T22:20:04Z</time>
      </trkpt>
      <trkpt lat="47.34523" lon="-1.15855">
        <ele>18</ele>
        <time>2021-03-24T22:20:10Z</time>
      </trkpt>
      <trkpt lat="47.3453" lon="-1.15904">
        <ele>17</ele>
        <time>2021-03-24T22:20:16Z</time>
      </trkpt>
      <trkpt lat="47.34532" lon="-1.15949">
        <ele>15</ele>
        <time>2021-03-24T22:20:21Z</time>
      </trkpt>
      <trkpt lat="47.3453" lon="-1.15988">
        <ele>14</ele>
        <time>2021-03-24T22:20:26Z</time>
      </trkpt>
      <trkpt lat="47.34527" lon="-1.16018">
        <ele>12</ele>
        <time>2021-03-24T22:20:30Z</time>
      </trkpt>
      <trkpt lat="47.34507" lon="-1.16109">
        <ele>10</ele>
        <time>2021-03-24T22:20:41Z</time>
      </trkpt>
      <trkpt lat="47.34503" lon="-1.16123">
        <ele>10</ele>
        <time>2021-03-24T22:20:43Z</time>
      </trkpt>
      <trkpt lat="47.34473" lon="-1.16183">
        <ele>13</ele>
        <time>2021-03-24T22:20:52Z</time>
      </trkpt>
      <trkpt lat="47.34466" lon="-1.1621">
        <ele>15</ele>
        <time>2021-03-24T22:20:55Z</time>
      </trkpt>
      <trkpt lat="47.34464" lon="-1.1623">
        <ele>16</ele>
        <time>2021-03-24T22:20:58Z</time>
      </trkpt>
      <trkpt lat="47.34465" lon="-1.1628">
        <ele>19</ele>
        <time>2021-03-24T22:21:04Z</time>
      </trkpt>
      <trkpt lat="47.34468" lon="-1.16282">
        <ele>18</ele>
        <time>2021-03-24T22:21:04Z</time>
      </trkpt>
      <trkpt lat="47.3447" lon="-1.16287">
        <ele>18</ele>
        <time>2021-03-24T22:21:05Z</time>
      </trkpt>
      <trkpt lat="47.34469" lon="-1.16289">
        <ele>19</ele>
        <time>2021-03-24T22:21:05Z</time>
      </trkpt>
      <trkpt lat="47.34465" lon="-1.16296">
        <ele>19</ele>
        <time>2021-03-24T22:21:07Z</time>
      </trkpt>
      <trkpt lat="47.34468" lon="-1.16434">
        <ele>21</ele>
        <time>2021-03-24T22:21:23Z</time>
      </trkpt>
      <trkpt lat="47.34471" lon="-1.16476">
        <ele>20</ele>
        <time>2021-03-24T22:21:28Z</time>
      </trkpt>
      <trkpt lat="47.34512" lon="-1.1679">
        <ele>15</ele>
        <time>2021-03-24T22:22:07Z</time>
      </trkpt>
      <trkpt lat="47.34515" lon="-1.16835">
        <ele>14</ele>
        <time>2021-03-24T22:22:12Z</time>
      </trkpt>
      <trkpt lat="47.34516" lon="-1.16873">
        <ele>14</ele>
        <time>2021-03-24T22:22:17Z</time>
      </trkpt>
      <trkpt lat="47.34504" lon="-1.17502">
        <ele>14</ele>
        <time>2021-03-24T22:23:33Z</time>
      </trkpt>
      <trkpt lat="47.34481" lon="-1.18128">
        <ele>16</ele>
        <time>2021-03-24T22:24:48Z</time>
      </trkpt>
      <trkpt lat="47.34471" lon="-1.18356">
        <ele>13</ele>
        <time>2021-03-24T22:25:16Z</time>
      </trkpt>
      <trkpt lat="47.34474" lon="-1.18434">
        <ele>14</ele>
        <time>2021-03-24T22:25:25Z</time>
      </trkpt>
      <trkpt lat="47.34489" lon="-1.186">
        <ele>18</ele>
        <time>2021-03-24T22:25:45Z</time>
      </trkpt>
      <trkpt lat="47.34516" lon="-1.18931">
        <ele>15</ele>
        <time>2021-03-24T22:26:26Z</time>
      </trkpt>
      <trkpt lat="47.34518" lon="-1.19006">
        <ele>14</ele>
        <time>2021-03-24T22:26:35Z</time>
      </trkpt>
      <trkpt lat="47.34516" lon="-1.19061">
        <ele>13</ele>
        <time>2021-03-24T22:26:41Z</time>
      </trkpt>
      <trkpt lat="47.34495" lon="-1.19272">
        <ele>13</ele>
        <time>2021-03-24T22:27:07Z</time>
      </trkpt>
      <trkpt lat="47.34485" lon="-1.19403">
        <ele>16</ele>
        <time>2021-03-24T22:27:23Z</time>
      </trkpt>
      <trkpt lat="47.3447" lon="-1.19668">
        <ele>17</ele>
        <time>2021-03-24T22:27:55Z</time>
      </trkpt>
      <trkpt lat="47.3446" lon="-1.19841">
        <ele>15</ele>
        <time>2021-03-24T22:28:16Z</time>
      </trkpt>
      <trkpt lat="47.34451" lon="-1.19891">
        <ele>15</ele>
        <time>2021-03-24T22:28:22Z</time>
      </trkpt>
      <trkpt lat="47.3442" lon="-1.20024">
        <ele>14</ele>
        <time>2021-03-24T22:28:39Z</time>
      </trkpt>
      <trkpt lat="47.34417" lon="-1.2004">
        <ele>14</ele>
        <time>2021-03-24T22:28:41Z</time>
      </trkpt>
      <trkpt lat="47.34415" lon="-1.20075">
        <ele>14</ele>
        <time>2021-03-24T22:28:45Z</time>
      </trkpt>
      <trkpt lat="47.34415" lon="-1.20094">
        <ele>15</ele>
        <time>2021-03-24T22:28:48Z</time>
      </trkpt>
      <trkpt lat="47.34422" lon="-1.20187">
        <ele>16</ele>
        <time>2021-03-24T22:28:59Z</time>
      </trkpt>
      <trkpt lat="47.34423" lon="-1.20232">
        <ele>14</ele>
        <time>2021-03-24T22:29:04Z</time>
      </trkpt>
      <trkpt lat="47.3442" lon="-1.20276">
        <ele>13</ele>
        <time>2021-03-24T22:29:10Z</time>
      </trkpt>
      <trkpt lat="47.34403" lon="-1.20387">
        <ele>14</ele>
        <time>2021-03-24T22:29:23Z</time>
      </trkpt>
      <trkpt lat="47.34396" lon="-1.20419">
        <ele>15</ele>
        <time>2021-03-24T22:29:27Z</time>
      </trkpt>
      <trkpt lat="47.34389" lon="-1.20439">
        <ele>15</ele>
        <time>2021-03-24T22:29:30Z</time>
      </trkpt>
      <trkpt lat="47.34373" lon="-1.20473">
        <ele>16</ele>
        <time>2021-03-24T22:29:35Z</time>
      </trkpt>
      <trkpt lat="47.34322" lon="-1.20553">
        <ele>19</ele>
        <time>2021-03-24T22:29:48Z</time>
      </trkpt>
      <trkpt lat="47.34308" lon="-1.2058">
        <ele>20</ele>
        <time>2021-03-24T22:29:53Z</time>
      </trkpt>
      <trkpt lat="47.34298" lon="-1.20606">
        <ele>21</ele>
        <time>2021-03-24T22:29:56Z</time>
      </trkpt>
      <trkpt lat="47.34292" lon="-1.20627">
        <ele>23</ele>
        <time>2021-03-24T22:29:59Z</time>
      </trkpt>
      <trkpt lat="47.34272" lon="-1.20734">
        <ele>26</ele>
        <time>2021-03-24T22:30:12Z</time>
      </trkpt>
      <trkpt lat="47.34222" lon="-1.21035">
        <ele>22</ele>
        <time>2021-03-24T22:30:50Z</time>
      </trkpt>
      <trkpt lat="47.34207" lon="-1.211">
        <ele>21</ele>
        <time>2021-03-24T22:30:58Z</time>
      </trkpt>
      <trkpt lat="47.34179" lon="-1.21197">
        <ele>18</ele>
        <time>2021-03-24T22:31:11Z</time>
      </trkpt>
      <trkpt lat="47.34168" lon="-1.21251">
        <ele>19</ele>
        <time>2021-03-24T22:31:17Z</time>
      </trkpt>
      <trkpt lat="47.34163" lon="-1.21284">
        <ele>20</ele>
        <time>2021-03-24T22:31:21Z</time>
      </trkpt>
      <trkpt lat="47.34161" lon="-1.2132">
        <ele>21</ele>
        <time>2021-03-24T22:31:26Z</time>
      </trkpt>
      <trkpt lat="47.34159" lon="-1.21476">
        <ele>22</ele>
        <time>2021-03-24T22:31:45Z</time>
      </trkpt>
      <trkpt lat="47.34161" lon="-1.21724">
        <ele>21</ele>
        <time>2021-03-24T22:32:15Z</time>
      </trkpt>
      <trkpt lat="47.34171" lon="-1.21797">
        <ele>17</ele>
        <time>2021-03-24T22:32:24Z</time>
      </trkpt>
      <trkpt lat="47.34173" lon="-1.21828">
        <ele>16</ele>
        <time>2021-03-24T22:32:27Z</time>
      </trkpt>
      <trkpt lat="47.34172" lon="-1.21862">
        <ele>16</ele>
        <time>2021-03-24T22:32:31Z</time>
      </trkpt>
      <trkpt lat="47.34153" lon="-1.22131">
        <ele>19</ele>
        <time>2021-03-24T22:33:04Z</time>
      </trkpt>
      <trkpt lat="47.34143" lon="-1.22208">
        <ele>20</ele>
        <time>2021-03-24T22:33:13Z</time>
      </trkpt>
      <trkpt lat="47.34122" lon="-1.22308">
        <ele>20</ele>
        <time>2021-03-24T22:33:26Z</time>
      </trkpt>
      <trkpt lat="47.34104" lon="-1.22405">
        <ele>19</ele>
        <time>2021-03-24T22:33:38Z</time>
      </trkpt>
      <trkpt lat="47.34061" lon="-1.22728">
        <ele>14</ele>
        <time>2021-03-24T22:34:18Z</time>
      </trkpt>
      <trkpt lat="47.34055" lon="-1.22751">
        <ele>14</ele>
        <time>2021-03-24T22:34:21Z</time>
      </trkpt>
      <trkpt lat="47.34034" lon="-1.2281">
        <ele>16</ele>
        <time>2021-03-24T22:34:29Z</time>
      </trkpt>
      <trkpt lat="47.34027" lon="-1.22844">
        <ele>17</ele>
        <time>2021-03-24T22:34:33Z</time>
      </trkpt>
      <trkpt lat="47.33997" lon="-1.23097">
        <ele>11</ele>
        <time>2021-03-24T22:35:04Z</time>
      </trkpt>
      <trkpt lat="47.33994" lon="-1.23267">
        <ele>15</ele>
        <time>2021-03-24T22:35:25Z</time>
      </trkpt>
      <trkpt lat="47.33992" lon="-1.23316">
        <ele>14</ele>
        <time>2021-03-24T22:35:31Z</time>
      </trkpt>
      <trkpt lat="47.33952" lon="-1.23581">
        <ele>13</ele>
        <time>2021-03-24T22:36:03Z</time>
      </trkpt>
      <trkpt lat="47.33946" lon="-1.23609">
        <ele>13</ele>
        <time>2021-03-24T22:36:07Z</time>
      </trkpt>
      <trkpt lat="47.33936" lon="-1.23644">
        <ele>13</ele>
        <time>2021-03-24T22:36:11Z</time>
      </trkpt>
      <trkpt lat="47.33881" lon="-1.23804">
        <ele>13</ele>
        <time>2021-03-24T22:36:33Z</time>
      </trkpt>
      <trkpt lat="47.33872" lon="-1.23835">
        <ele>13</ele>
        <time>2021-03-24T22:36:37Z</time>
      </trkpt>
      <trkpt lat="47.33861" lon="-1.2388">
        <ele>13</ele>
        <time>2021-03-24T22:36:43Z</time>
      </trkpt>
      <trkpt lat="47.33812" lon="-1.24118">
        <ele>16</ele>
        <time>2021-03-24T22:37:13Z</time>
      </trkpt>
      <trkpt lat="47.33808" lon="-1.24158">
        <ele>16</ele>
        <time>2021-03-24T22:37:18Z</time>
      </trkpt>
      <trkpt lat="47.33804" lon="-1.24272">
        <ele>14</ele>
        <time>2021-03-24T22:37:32Z</time>
      </trkpt>
      <trkpt lat="47.33799" lon="-1.24317">
        <ele>15</ele>
        <time>2021-03-24T22:37:37Z</time>
      </trkpt>
      <trkpt lat="47.3377" lon="-1.24491">
        <ele>16</ele>
        <time>2021-03-24T22:37:59Z</time>
      </trkpt>
      <trkpt lat="47.33768" lon="-1.24528">
        <ele>17</ele>
        <time>2021-03-24T22:38:03Z</time>
      </trkpt>
      <trkpt lat="47.33771" lon="-1.24552">
        <ele>18</ele>
        <time>2021-03-24T22:38:06Z</time>
      </trkpt>
      <trkpt lat="47.33777" lon="-1.24573">
        <ele>18</ele>
        <time>2021-03-24T22:38:09Z</time>
      </trkpt>
      <trkpt lat="47.33809" lon="-1.2463">
        <ele>17</ele>
        <time>2021-03-24T22:38:18Z</time>
      </trkpt>
      <trkpt lat="47.3382" lon="-1.24655">
        <ele>16</ele>
        <time>2021-03-24T22:38:21Z</time>
      </trkpt>
      <trkpt lat="47.3386" lon="-1.24774">
        <ele>14</ele>
        <time>2021-03-24T22:38:37Z</time>
      </trkpt>
      <trkpt lat="47.33864" lon="-1.24802">
        <ele>14</ele>
        <time>2021-03-24T22:38:41Z</time>
      </trkpt>
      <trkpt lat="47.33863" lon="-1.24816">
        <ele>14</ele>
        <time>2021-03-24T22:38:42Z</time>
      </trkpt>
      <trkpt lat="47.33858" lon="-1.24831">
        <ele>15</ele>
        <time>2021-03-24T22:38:44Z</time>
      </trkpt>
      <trkpt lat="47.33851" lon="-1.24843">
        <ele>15</ele>
        <time>2021-03-24T22:38:46Z</time>
      </trkpt>
      <trkpt lat="47.338" lon="-1.24892">
        <ele>24</ele>
        <time>2021-03-24T22:38:57Z</time>
      </trkpt>
      <trkpt lat="47.33791" lon="-1.24903">
        <ele>26</ele>
        <time>2021-03-24T22:38:59Z</time>
      </trkpt>
      <trkpt lat="47.33788" lon="-1.24914">
        <ele>26</ele>
        <time>2021-03-24T22:39:01Z</time>
      </trkpt>
      <trkpt lat="47.33788" lon="-1.24928">
        <ele>27</ele>
        <time>2021-03-24T22:39:02Z</time>
      </trkpt>
      <trkpt lat="47.33789" lon="-1.2494">
        <ele>28</ele>
        <time>2021-03-24T22:39:04Z</time>
      </trkpt>
      <trkpt lat="47.33795" lon="-1.24952">
        <ele>28</ele>
        <time>2021-03-24T22:39:06Z</time>
      </trkpt>
      <trkpt lat="47.33805" lon="-1.24959">
        <ele>26</ele>
        <time>2021-03-24T22:39:08Z</time>
      </trkpt>
      <trkpt lat="47.33838" lon="-1.24975">
        <ele>23</ele>
        <time>2021-03-24T22:39:14Z</time>
      </trkpt>
      <trkpt lat="47.33852" lon="-1.24986">
        <ele>22</ele>
        <time>2021-03-24T22:39:17Z</time>
      </trkpt>
      <trkpt lat="47.33863" lon="-1.24999">
        <ele>21</ele>
        <time>2021-03-24T22:39:19Z</time>
      </trkpt>
      <trkpt lat="47.33875" lon="-1.25019">
        <ele>21</ele>
        <time>2021-03-24T22:39:22Z</time>
      </trkpt>
      <trkpt lat="47.33928" lon="-1.25145">
        <ele>23</ele>
        <time>2021-03-24T22:39:40Z</time>
      </trkpt>
      <trkpt lat="47.33935" lon="-1.25185">
        <ele>24</ele>
        <time>2021-03-24T22:39:45Z</time>
      </trkpt>
      <trkpt lat="47.33936" lon="-1.25207">
        <ele>24</ele>
        <time>2021-03-24T22:39:48Z</time>
      </trkpt>
      <trkpt lat="47.33935" lon="-1.2523">
        <ele>25</ele>
        <time>2021-03-24T22:39:51Z</time>
      </trkpt>
      <trkpt lat="47.33931" lon="-1.25265">
        <ele>27</ele>
        <time>2021-03-24T22:39:55Z</time>
      </trkpt>
      <trkpt lat="47.33893" lon="-1.2551">
        <ele>34</ele>
        <time>2021-03-24T22:40:25Z</time>
      </trkpt>
      <trkpt lat="47.33886" lon="-1.25552">
        <ele>34</ele>
        <time>2021-03-24T22:40:30Z</time>
      </trkpt>
      <trkpt lat="47.33879" lon="-1.25578">
        <ele>34</ele>
        <time>2021-03-24T22:40:34Z</time>
      </trkpt>
      <trkpt lat="47.33865" lon="-1.25599">
        <ele>36</ele>
        <time>2021-03-24T22:40:37Z</time>
      </trkpt>
      <trkpt lat="47.33857" lon="-1.25609">
        <ele>37</ele>
        <time>2021-03-24T22:40:39Z</time>
      </trkpt>
      <trkpt lat="47.33841" lon="-1.25622">
        <ele>39</ele>
        <time>2021-03-24T22:40:43Z</time>
      </trkpt>
      <trkpt lat="47.33825" lon="-1.25626">
        <ele>41</ele>
        <time>2021-03-24T22:40:45Z</time>
      </trkpt>
      <trkpt lat="47.33817" lon="-1.25624">
        <ele>42</ele>
        <time>2021-03-24T22:40:47Z</time>
      </trkpt>
      <trkpt lat="47.3381" lon="-1.25619">
        <ele>43</ele>
        <time>2021-03-24T22:40:48Z</time>
      </trkpt>
      <trkpt lat="47.33796" lon="-1.25604">
        <ele>46</ele>
        <time>2021-03-24T22:40:51Z</time>
      </trkpt>
      <trkpt lat="47.33787" lon="-1.25597">
        <ele>47</ele>
        <time>2021-03-24T22:40:53Z</time>
      </trkpt>
      <trkpt lat="47.33775" lon="-1.25594">
        <ele>49</ele>
        <time>2021-03-24T22:40:55Z</time>
      </trkpt>
      <trkpt lat="47.33769" lon="-1.25596">
        <ele>50</ele>
        <time>2021-03-24T22:40:56Z</time>
      </trkpt>
      <trkpt lat="47.33765" lon="-1.25599">
        <ele>50</ele>
        <time>2021-03-24T22:40:57Z</time>
      </trkpt>
      <trkpt lat="47.33759" lon="-1.25613">
        <ele>50</ele>
        <time>2021-03-24T22:40:59Z</time>
      </trkpt>
      <trkpt lat="47.33758" lon="-1.25633">
        <ele>50</ele>
        <time>2021-03-24T22:41:02Z</time>
      </trkpt>
      <trkpt lat="47.3376" lon="-1.25667">
        <ele>48</ele>
        <time>2021-03-24T22:41:06Z</time>
      </trkpt>
      <trkpt lat="47.33757" lon="-1.25685">
        <ele>49</ele>
        <time>2021-03-24T22:41:08Z</time>
      </trkpt>
      <trkpt lat="47.33739" lon="-1.25714">
        <ele>52</ele>
        <time>2021-03-24T22:41:13Z</time>
      </trkpt>
      <trkpt lat="47.33734" lon="-1.2573">
        <ele>52</ele>
        <time>2021-03-24T22:41:15Z</time>
      </trkpt>
      <trkpt lat="47.33733" lon="-1.25758">
        <ele>53</ele>
        <time>2021-03-24T22:41:18Z</time>
      </trkpt>
      <trkpt lat="47.33736" lon="-1.25773">
        <ele>53</ele>
        <time>2021-03-24T22:41:20Z</time>
      </trkpt>
      <trkpt lat="47.33741" lon="-1.25786">
        <ele>53</ele>
        <time>2021-03-24T22:41:22Z</time>
      </trkpt>
      <trkpt lat="47.33754" lon="-1.25799">
        <ele>51</ele>
        <time>2021-03-24T22:41:25Z</time>
      </trkpt>
      <trkpt lat="47.3378" lon="-1.25811">
        <ele>49</ele>
        <time>2021-03-24T22:41:30Z</time>
      </trkpt>
      <trkpt lat="47.33788" lon="-1.25825">
        <ele>48</ele>
        <time>2021-03-24T22:41:32Z</time>
      </trkpt>
      <trkpt lat="47.33791" lon="-1.25844">
        <ele>49</ele>
        <time>2021-03-24T22:41:34Z</time>
      </trkpt>
      <trkpt lat="47.3377" lon="-1.26138">
        <ele>62</ele>
        <time>2021-03-24T22:42:10Z</time>
      </trkpt>
      <trkpt lat="47.33766" lon="-1.26163">
        <ele>63</ele>
        <time>2021-03-24T22:42:13Z</time>
      </trkpt>
      <trkpt lat="47.3376" lon="-1.26184">
        <ele>64</ele>
        <time>2021-03-24T22:42:16Z</time>
      </trkpt>
      <trkpt lat="47.33739" lon="-1.26223">
        <ele>67</ele>
        <time>2021-03-24T22:42:22Z</time>
      </trkpt>
      <trkpt lat="47.33735" lon="-1.26233">
        <ele>68</ele>
        <time>2021-03-24T22:42:23Z</time>
      </trkpt>
      <trkpt lat="47.33736" lon="-1.26239">
        <ele>68</ele>
        <time>2021-03-24T22:42:24Z</time>
      </trkpt>
      <trkpt lat="47.33734" lon="-1.26245">
        <ele>68</ele>
        <time>2021-03-24T22:42:25Z</time>
      </trkpt>
      <trkpt lat="47.33732" lon="-1.26245">
        <ele>68</ele>
        <time>2021-03-24T22:42:25Z</time>
      </trkpt>
      <trkpt lat="47.33731" lon="-1.26265">
        <ele>68</ele>
        <time>2021-03-24T22:42:27Z</time>
      </trkpt>
      <trkpt lat="47.33739" lon="-1.26349">
        <ele>69</ele>
        <time>2021-03-24T22:42:38Z</time>
      </trkpt>
      <trkpt lat="47.3374" lon="-1.26352">
        <ele>69</ele>
        <time>2021-03-24T22:42:38Z</time>
      </trkpt>
      <trkpt lat="47.33736" lon="-1.26366">
        <ele>70</ele>
        <time>2021-03-24T22:42:40Z</time>
      </trkpt>
      <trkpt lat="47.33736" lon="-1.26468">
        <ele>72</ele>
        <time>2021-03-24T22:42:52Z</time>
      </trkpt>
      <trkpt lat="47.33739" lon="-1.26579">
        <ele>73</ele>
        <time>2021-03-24T22:43:05Z</time>
      </trkpt>
      <trkpt lat="47.3373" lon="-1.26657">
        <ele>73</ele>
        <time>2021-03-24T22:43:15Z</time>
      </trkpt>
      <trkpt lat="47.3371" lon="-1.26735">
        <ele>70</ele>
        <time>2021-03-24T22:43:25Z</time>
      </trkpt>
      <trkpt lat="47.33708" lon="-1.26749">
        <ele>70</ele>
        <time>2021-03-24T22:43:27Z</time>
      </trkpt>
      <trkpt lat="47.337" lon="-1.26747">
        <ele>70</ele>
        <time>2021-03-24T22:43:28Z</time>
      </trkpt>
      <trkpt lat="47.33694" lon="-1.26743">
        <ele>70</ele>
        <time>2021-03-24T22:43:29Z</time>
      </trkpt>
      <trkpt lat="47.33563" lon="-1.26617">
        <ele>71</ele>
        <time>2021-03-24T22:43:57Z</time>
      </trkpt>
      <trkpt lat="47.33553" lon="-1.26606">
        <ele>71</ele>
        <time>2021-03-24T22:43:59Z</time>
      </trkpt>
      <trkpt lat="47.3352" lon="-1.26559">
        <ele>72</ele>
        <time>2021-03-24T22:44:08Z</time>
      </trkpt>
      <trkpt lat="47.33485" lon="-1.26496">
        <ele>73</ele>
        <time>2021-03-24T22:44:17Z</time>
      </trkpt>
      <trkpt lat="47.33435" lon="-1.26413">
        <ele>76</ele>
        <time>2021-03-24T22:44:31Z</time>
      </trkpt>
      <trkpt lat="47.33429" lon="-1.26396">
        <ele>75</ele>
        <time>2021-03-24T22:44:33Z</time>
      </trkpt>
      <trkpt lat="47.33425" lon="-1.26396">
        <ele>76</ele>
        <time>2021-03-24T22:44:34Z</time>
      </trkpt>
      <trkpt lat="47.33422" lon="-1.26393">
        <ele>76</ele>
        <time>2021-03-24T22:44:34Z</time>
      </trkpt>
      <trkpt lat="47.33422" lon="-1.26384">
        <ele>76</ele>
        <time>2021-03-24T22:44:36Z</time>
      </trkpt>
      <trkpt lat="47.33407" lon="-1.26365">
        <ele>75</ele>
        <time>2021-03-24T22:44:39Z</time>
      </trkpt>
      <trkpt lat="47.33208" lon="-1.26033">
        <ele>76</ele>
        <time>2021-03-24T22:45:33Z</time>
      </trkpt>
      <trkpt lat="47.31237" lon="-1.2273">
        <ele>76</ele>
        <time>2021-03-24T22:54:23Z</time>
      </trkpt>
      <trkpt lat="47.3" lon="-1.20668">
        <ele>89</ele>
        <time>2021-03-24T22:59:55Z</time>
      </trkpt>
      <trkpt lat="47.29764" lon="-1.20271">
        <ele>87</ele>
        <time>2021-03-24T23:00:59Z</time>
      </trkpt>
      <trkpt lat="47.29525" lon="-1.19875">
        <ele>80</ele>
        <time>2021-03-24T23:02:03Z</time>
      </trkpt>
      <trkpt lat="47.2914" lon="-1.19232">
        <ele>82</ele>
        <time>2021-03-24T23:03:47Z</time>
      </trkpt>
      <trkpt lat="47.29116" lon="-1.19199">
        <ele>82</ele>
        <time>2021-03-24T23:03:52Z</time>
      </trkpt>
      <trkpt lat="47.29099" lon="-1.19182">
        <ele>82</ele>
        <time>2021-03-24T23:03:56Z</time>
      </trkpt>
      <trkpt lat="47.29071" lon="-1.19162">
        <ele>82</ele>
        <time>2021-03-24T23:04:02Z</time>
      </trkpt>
      <trkpt lat="47.29057" lon="-1.19155">
        <ele>82</ele>
        <time>2021-03-24T23:04:04Z</time>
      </trkpt>
      <trkpt lat="47.28979" lon="-1.19129">
        <ele>84</ele>
        <time>2021-03-24T23:04:19Z</time>
      </trkpt>
      <trkpt lat="47.28933" lon="-1.19111">
        <ele>86</ele>
        <time>2021-03-24T23:04:27Z</time>
      </trkpt>
      <trkpt lat="47.2868" lon="-1.1903">
        <ele>92</ele>
        <time>2021-03-24T23:05:13Z</time>
      </trkpt>
      <trkpt lat="47.2867" lon="-1.19025">
        <ele>92</ele>
        <time>2021-03-24T23:05:15Z</time>
      </trkpt>
      <trkpt lat="47.28664" lon="-1.1903">
        <ele>92</ele>
        <time>2021-03-24T23:05:16Z</time>
      </trkpt>
      <trkpt lat="47.28657" lon="-1.19027">
        <ele>92</ele>
        <time>2021-03-24T23:05:17Z</time>
      </trkpt>
      <trkpt lat="47.28654" lon="-1.19015">
        <ele>92</ele>
        <time>2021-03-24T23:05:19Z</time>
      </trkpt>
      <trkpt lat="47.28655" lon="-1.1901">
        <ele>92</ele>
        <time>2021-03-24T23:05:20Z</time>
      </trkpt>
      <trkpt lat="47.28649" lon="-1.19003">
        <ele>92</ele>
        <time>2021-03-24T23:05:21Z</time>
      </trkpt>
      <trkpt lat="47.28598" lon="-1.18919">
        <ele>93</ele>
        <time>2021-03-24T23:05:35Z</time>
      </trkpt>
      <trkpt lat="47.28559" lon="-1.18889">
        <ele>93</ele>
        <time>2021-03-24T23:05:42Z</time>
      </trkpt>
      <trkpt lat="47.2854" lon="-1.18861">
        <ele>92</ele>
        <time>2021-03-24T23:05:47Z</time>
      </trkpt>
      <trkpt lat="47.28532" lon="-1.18846">
        <ele>92</ele>
        <time>2021-03-24T23:05:50Z</time>
      </trkpt>
      <trkpt lat="47.28519" lon="-1.18815">
        <ele>92</ele>
        <time>2021-03-24T23:05:54Z</time>
      </trkpt>
      <trkpt lat="47.28517" lon="-1.18803">
        <ele>92</ele>
        <time>2021-03-24T23:05:55Z</time>
      </trkpt>
      <trkpt lat="47.28512" lon="-1.18804">
        <ele>92</ele>
        <time>2021-03-24T23:05:56Z</time>
      </trkpt>
      <trkpt lat="47.28504" lon="-1.18802">
        <ele>92</ele>
        <time>2021-03-24T23:05:58Z</time>
      </trkpt>
      <trkpt lat="47.28396" lon="-1.18661">
        <ele>94</ele>
        <time>2021-03-24T23:06:23Z</time>
      </trkpt>
      <trkpt lat="47.28385" lon="-1.18643">
        <ele>94</ele>
        <time>2021-03-24T23:06:26Z</time>
      </trkpt>
      <trkpt lat="47.28376" lon="-1.18623">
        <ele>94</ele>
        <time>2021-03-24T23:06:29Z</time>
      </trkpt>
      <trkpt lat="47.28354" lon="-1.18543">
        <ele>94</ele>
        <time>2021-03-24T23:06:40Z</time>
      </trkpt>
      <trkpt lat="47.28348" lon="-1.18503">
        <ele>94</ele>
        <time>2021-03-24T23:06:45Z</time>
      </trkpt>
      <trkpt lat="47.28337" lon="-1.18398">
        <ele>93</ele>
        <time>2021-03-24T23:06:57Z</time>
      </trkpt>
      <trkpt lat="47.28335" lon="-1.18296">
        <ele>94</ele>
        <time>2021-03-24T23:07:10Z</time>
      </trkpt>
      <trkpt lat="47.28333" lon="-1.18274">
        <ele>94</ele>
        <time>2021-03-24T23:07:12Z</time>
      </trkpt>
      <trkpt lat="47.28322" lon="-1.18151">
        <ele>96</ele>
        <time>2021-03-24T23:07:27Z</time>
      </trkpt>
      <trkpt lat="47.28317" lon="-1.1812">
        <ele>96</ele>
        <time>2021-03-24T23:07:31Z</time>
      </trkpt>
      <trkpt lat="47.28264" lon="-1.17884">
        <ele>95</ele>
        <time>2021-03-24T23:08:01Z</time>
      </trkpt>
      <trkpt lat="47.28227" lon="-1.17714">
        <ele>98</ele>
        <time>2021-03-24T23:08:23Z</time>
      </trkpt>
      <trkpt lat="47.28188" lon="-1.177">
        <ele>98</ele>
        <time>2021-03-24T23:08:30Z</time>
      </trkpt>
      <trkpt lat="47.28171" lon="-1.1769">
        <ele>98</ele>
        <time>2021-03-24T23:08:33Z</time>
      </trkpt>
      <trkpt lat="47.28154" lon="-1.17674">
        <ele>98</ele>
        <time>2021-03-24T23:08:37Z</time>
      </trkpt>
      <trkpt lat="47.28034" lon="-1.1755">
        <ele>99</ele>
        <time>2021-03-24T23:09:03Z</time>
      </trkpt>
      <trkpt lat="47.28017" lon="-1.17536">
        <ele>99</ele>
        <time>2021-03-24T23:09:06Z</time>
      </trkpt>
      <trkpt lat="47.27948" lon="-1.17491">
        <ele>101</ele>
        <time>2021-03-24T23:09:20Z</time>
      </trkpt>
      <trkpt lat="47.27828" lon="-1.17421">
        <ele>104</ele>
        <time>2021-03-24T23:09:43Z</time>
      </trkpt>
      <trkpt lat="47.27796" lon="-1.17404">
        <ele>104</ele>
        <time>2021-03-24T23:09:49Z</time>
      </trkpt>
      <trkpt lat="47.27723" lon="-1.17379">
        <ele>103</ele>
        <time>2021-03-24T23:10:02Z</time>
      </trkpt>
      <trkpt lat="47.27656" lon="-1.17365">
        <ele>103</ele>
        <time>2021-03-24T23:10:14Z</time>
      </trkpt>
      <trkpt lat="47.27644" lon="-1.1736">
        <ele>103</ele>
        <time>2021-03-24T23:10:16Z</time>
      </trkpt>
      <trkpt lat="47.27625" lon="-1.17344">
        <ele>103</ele>
        <time>2021-03-24T23:10:20Z</time>
      </trkpt>
      <trkpt lat="47.27615" lon="-1.17332">
        <ele>103</ele>
        <time>2021-03-24T23:10:23Z</time>
      </trkpt>
      <trkpt lat="47.27597" lon="-1.17298">
        <ele>102</ele>
        <time>2021-03-24T23:10:28Z</time>
      </trkpt>
      <trkpt lat="47.27556" lon="-1.17179">
        <ele>103</ele>
        <time>2021-03-24T23:10:44Z</time>
      </trkpt>
      <trkpt lat="47.27531" lon="-1.17117">
        <ele>103</ele>
        <time>2021-03-24T23:10:53Z</time>
      </trkpt>
      <trkpt lat="47.27146" lon="-1.16324">
        <ele>104</ele>
        <time>2021-03-24T23:12:50Z</time>
      </trkpt>
      <trkpt lat="47.27114" lon="-1.16263">
        <ele>105</ele>
        <time>2021-03-24T23:13:00Z</time>
      </trkpt>
      <trkpt lat="47.27101" lon="-1.16248">
        <ele>106</ele>
        <time>2021-03-24T23:13:03Z</time>
      </trkpt>
      <trkpt lat="47.27051" lon="-1.16228">
        <ele>106</ele>
        <time>2021-03-24T23:13:12Z</time>
      </trkpt>
      <trkpt lat="47.26957" lon="-1.16184">
        <ele>101</ele>
        <time>2021-03-24T23:13:29Z</time>
      </trkpt>
      <trkpt lat="47.26666" lon="-1.16058">
        <ele>104</ele>
        <time>2021-03-24T23:14:23Z</time>
      </trkpt>
      <trkpt lat="47.26465" lon="-1.15968">
        <ele>105</ele>
        <time>2021-03-24T23:15:01Z</time>
      </trkpt>
      <trkpt lat="47.26426" lon="-1.15945">
        <ele>103</ele>
        <time>2021-03-24T23:15:08Z</time>
      </trkpt>
      <trkpt lat="47.26297" lon="-1.15848">
        <ele>99</ele>
        <time>2021-03-24T23:15:34Z</time>
      </trkpt>
      <trkpt lat="47.2628" lon="-1.15833">
        <ele>99</ele>
        <time>2021-03-24T23:15:37Z</time>
      </trkpt>
      <trkpt lat="47.26266" lon="-1.15818">
        <ele>99</ele>
        <time>2021-03-24T23:15:40Z</time>
      </trkpt>
      <trkpt lat="47.26245" lon="-1.15787">
        <ele>98</ele>
        <time>2021-03-24T23:15:46Z</time>
      </trkpt>
      <trkpt lat="47.26207" lon="-1.15706">
        <ele>95</ele>
        <time>2021-03-24T23:15:58Z</time>
      </trkpt>
      <trkpt lat="47.26195" lon="-1.15686">
        <ele>94</ele>
        <time>2021-03-24T23:16:01Z</time>
      </trkpt>
      <trkpt lat="47.26179" lon="-1.15664">
        <ele>94</ele>
        <time>2021-03-24T23:16:05Z</time>
      </trkpt>
      <trkpt lat="47.26147" lon="-1.15643">
        <ele>93</ele>
        <time>2021-03-24T23:16:11Z</time>
      </trkpt>
      <trkpt lat="47.26109" lon="-1.15627">
        <ele>92</ele>
        <time>2021-03-24T23:16:18Z</time>
      </trkpt>
      <trkpt lat="47.26096" lon="-1.15624">
        <ele>92</ele>
        <time>2021-03-24T23:16:20Z</time>
      </trkpt>
      <trkpt lat="47.26084" lon="-1.15623">
        <ele>92</ele>
        <time>2021-03-24T23:16:23Z</time>
      </trkpt>
      <trkpt lat="47.2607" lon="-1.15627">
        <ele>92</ele>
        <time>2021-03-24T23:16:25Z</time>
      </trkpt>
      <trkpt lat="47.26049" lon="-1.15639">
        <ele>91</ele>
        <time>2021-03-24T23:16:29Z</time>
      </trkpt>
      <trkpt lat="47.26039" lon="-1.15642">
        <ele>91</ele>
        <time>2021-03-24T23:16:31Z</time>
      </trkpt>
      <trkpt lat="47.26019" lon="-1.1564">
        <ele>90</ele>
        <time>2021-03-24T23:16:34Z</time>
      </trkpt>
      <trkpt lat="47.2601" lon="-1.15635">
        <ele>90</ele>
        <time>2021-03-24T23:16:36Z</time>
      </trkpt>
      <trkpt lat="47.25992" lon="-1.1562">
        <ele>89</ele>
        <time>2021-03-24T23:16:40Z</time>
      </trkpt>
      <trkpt lat="47.25975" lon="-1.15603">
        <ele>89</ele>
        <time>2021-03-24T23:16:43Z</time>
      </trkpt>
      <trkpt lat="47.25956" lon="-1.1559">
        <ele>88</ele>
        <time>2021-03-24T23:16:47Z</time>
      </trkpt>
      <trkpt lat="47.25814" lon="-1.15537">
        <ele>93</ele>
        <time>2021-03-24T23:17:13Z</time>
      </trkpt>
      <trkpt lat="47.25792" lon="-1.15524">
        <ele>93</ele>
        <time>2021-03-24T23:17:18Z</time>
      </trkpt>
      <trkpt lat="47.2578" lon="-1.15513">
        <ele>94</ele>
        <time>2021-03-24T23:17:20Z</time>
      </trkpt>
      <trkpt lat="47.25686" lon="-1.15401">
        <ele>97</ele>
        <time>2021-03-24T23:17:42Z</time>
      </trkpt>
      <trkpt lat="47.25661" lon="-1.15366">
        <ele>98</ele>
        <time>2021-03-24T23:17:48Z</time>
      </trkpt>
      <trkpt lat="47.25653" lon="-1.15347">
        <ele>98</ele>
        <time>2021-03-24T23:17:50Z</time>
      </trkpt>
      <trkpt lat="47.25633" lon="-1.15272">
        <ele>99</ele>
        <time>2021-03-24T23:18:00Z</time>
      </trkpt>
      <trkpt lat="47.25621" lon="-1.1524">
        <ele>100</ele>
        <time>2021-03-24T23:18:05Z</time>
      </trkpt>
      <trkpt lat="47.2561" lon="-1.15218">
        <ele>100</ele>
        <time>2021-03-24T23:18:08Z</time>
      </trkpt>
      <trkpt lat="47.25596" lon="-1.15201">
        <ele>100</ele>
        <time>2021-03-24T23:18:11Z</time>
      </trkpt>
      <trkpt lat="47.25578" lon="-1.15185">
        <ele>100</ele>
        <time>2021-03-24T23:18:15Z</time>
      </trkpt>
      <trkpt lat="47.2551" lon="-1.1513">
        <ele>100</ele>
        <time>2021-03-24T23:18:29Z</time>
      </trkpt>
      <trkpt lat="47.25498" lon="-1.15124">
        <ele>100</ele>
        <time>2021-03-24T23:18:31Z</time>
      </trkpt>
      <trkpt lat="47.25488" lon="-1.15123">
        <ele>100</ele>
        <time>2021-03-24T23:18:33Z</time>
      </trkpt>
      <trkpt lat="47.25438" lon="-1.15121">
        <ele>99</ele>
        <time>2021-03-24T23:18:42Z</time>
      </trkpt>
      <trkpt lat="47.25425" lon="-1.15118">
        <ele>99</ele>
        <time>2021-03-24T23:18:44Z</time>
      </trkpt>
      <trkpt lat="47.25416" lon="-1.15112">
        <ele>99</ele>
        <time>2021-03-24T23:18:46Z</time>
      </trkpt>
      <trkpt lat="47.25406" lon="-1.15101">
        <ele>99</ele>
        <time>2021-03-24T23:18:48Z</time>
      </trkpt>
      <trkpt lat="47.25345" lon="-1.15013">
        <ele>100</ele>
        <time>2021-03-24T23:19:03Z</time>
      </trkpt>
      <trkpt lat="47.2534" lon="-1.15001">
        <ele>100</ele>
        <time>2021-03-24T23:19:05Z</time>
      </trkpt>
      <trkpt lat="47.25335" lon="-1.14984">
        <ele>100</ele>
        <time>2021-03-24T23:19:07Z</time>
      </trkpt>
      <trkpt lat="47.25324" lon="-1.14922">
        <ele>99</ele>
        <time>2021-03-24T23:19:15Z</time>
      </trkpt>
      <trkpt lat="47.2532" lon="-1.14907">
        <ele>99</ele>
        <time>2021-03-24T23:19:17Z</time>
      </trkpt>
      <trkpt lat="47.25308" lon="-1.14869">
        <ele>98</ele>
        <time>2021-03-24T23:19:22Z</time>
      </trkpt>
      <trkpt lat="47.25297" lon="-1.14845">
        <ele>98</ele>
        <time>2021-03-24T23:19:25Z</time>
      </trkpt>
      <trkpt lat="47.25204" lon="-1.14706">
        <ele>101</ele>
        <time>2021-03-24T23:19:49Z</time>
      </trkpt>
      <trkpt lat="47.25135" lon="-1.14608">
        <ele>105</ele>
        <time>2021-03-24T23:20:06Z</time>
      </trkpt>
      <trkpt lat="47.25069" lon="-1.14508">
        <ele>103</ele>
        <time>2021-03-24T23:20:23Z</time>
      </trkpt>
      <trkpt lat="47.25" lon="-1.14407">
        <ele>104</ele>
        <time>2021-03-24T23:20:40Z</time>
      </trkpt>
      <trkpt lat="47.24377" lon="-1.13488">
        <ele>106</ele>
        <time>2021-03-24T23:23:17Z</time>
      </trkpt>
      <trkpt lat="47.24322" lon="-1.13411">
        <ele>108</ele>
        <time>2021-03-24T23:23:30Z</time>
      </trkpt>
      <trkpt lat="47.24209" lon="-1.13265">
        <ele>107</ele>
        <time>2021-03-24T23:23:57Z</time>
      </trkpt>
      <trkpt lat="47.24162" lon="-1.13206">
        <ele>107</ele>
        <time>2021-03-24T23:24:08Z</time>
      </trkpt>
      <trkpt lat="47.23904" lon="-1.12879">
        <ele>106</ele>
        <time>2021-03-24T23:25:09Z</time>
      </trkpt>
      <trkpt lat="47.23889" lon="-1.12864">
        <ele>106</ele>
        <time>2021-03-24T23:25:12Z</time>
      </trkpt>
      <trkpt lat="47.23873" lon="-1.12852">
        <ele>106</ele>
        <time>2021-03-24T23:25:15Z</time>
      </trkpt>
      <trkpt lat="47.23717" lon="-1.12754">
        <ele>105</ele>
        <time>2021-03-24T23:25:45Z</time>
      </trkpt>
      <trkpt lat="47.23665" lon="-1.12727">
        <ele>105</ele>
        <time>2021-03-24T23:25:55Z</time>
      </trkpt>
      <trkpt lat="47.2352" lon="-1.12661">
        <ele>105</ele>
        <time>2021-03-24T23:26:22Z</time>
      </trkpt>
      <trkpt lat="47.2351" lon="-1.12654">
        <ele>105</ele>
        <time>2021-03-24T23:26:24Z</time>
      </trkpt>
      <trkpt lat="47.23495" lon="-1.12638">
        <ele>105</ele>
        <time>2021-03-24T23:26:27Z</time>
      </trkpt>
      <trkpt lat="47.23488" lon="-1.12627">
        <ele>105</ele>
        <time>2021-03-24T23:26:29Z</time>
      </trkpt>
      <trkpt lat="47.23479" lon="-1.12605">
        <ele>105</ele>
        <time>2021-03-24T23:26:32Z</time>
      </trkpt>
      <trkpt lat="47.23438" lon="-1.12467">
        <ele>105</ele>
        <time>2021-03-24T23:26:50Z</time>
      </trkpt>
      <trkpt lat="47.23367" lon="-1.12197">
        <ele>99</ele>
        <time>2021-03-24T23:27:25Z</time>
      </trkpt>
      <trkpt lat="47.23341" lon="-1.12129">
        <ele>98</ele>
        <time>2021-03-24T23:27:35Z</time>
      </trkpt>
      <trkpt lat="47.23315" lon="-1.12073">
        <ele>98</ele>
        <time>2021-03-24T23:27:43Z</time>
      </trkpt>
      <trkpt lat="47.23257" lon="-1.11955">
        <ele>98</ele>
        <time>2021-03-24T23:28:01Z</time>
      </trkpt>
      <trkpt lat="47.23246" lon="-1.11923">
        <ele>98</ele>
        <time>2021-03-24T23:28:05Z</time>
      </trkpt>
      <trkpt lat="47.23242" lon="-1.11907">
        <ele>98</ele>
        <time>2021-03-24T23:28:07Z</time>
      </trkpt>
      <trkpt lat="47.23233" lon="-1.11854">
        <ele>97</ele>
        <time>2021-03-24T23:28:14Z</time>
      </trkpt>
      <trkpt lat="47.23201" lon="-1.11599">
        <ele>93</ele>
        <time>2021-03-24T23:28:45Z</time>
      </trkpt>
      <trkpt lat="47.23179" lon="-1.11538">
        <ele>93</ele>
        <time>2021-03-24T23:28:53Z</time>
      </trkpt>
      <trkpt lat="47.23147" lon="-1.1156">
        <ele>93</ele>
        <time>2021-03-24T23:29:00Z</time>
      </trkpt>
      <trkpt lat="47.23023" lon="-1.11565">
        <ele>91</ele>
        <time>2021-03-24T23:29:22Z</time>
      </trkpt>
      <trkpt lat="47.22957" lon="-1.11563">
        <ele>90</ele>
        <time>2021-03-24T23:29:33Z</time>
      </trkpt>
      <trkpt lat="47.22926" lon="-1.11557">
        <ele>89</ele>
        <time>2021-03-24T23:29:39Z</time>
      </trkpt>
      <trkpt lat="47.22868" lon="-1.11536">
        <ele>89</ele>
        <time>2021-03-24T23:29:50Z</time>
      </trkpt>
      <trkpt lat="47.22849" lon="-1.11526">
        <ele>89</ele>
        <time>2021-03-24T23:29:53Z</time>
      </trkpt>
      <trkpt lat="47.22822" lon="-1.11506">
        <ele>88</ele>
        <time>2021-03-24T23:29:59Z</time>
      </trkpt>
      <trkpt lat="47.22795" lon="-1.11477">
        <ele>87</ele>
        <time>2021-03-24T23:30:05Z</time>
      </trkpt>
      <trkpt lat="47.22774" lon="-1.11452">
        <ele>87</ele>
        <time>2021-03-24T23:30:09Z</time>
      </trkpt>
      <trkpt lat="47.22725" lon="-1.11399">
        <ele>87</ele>
        <time>2021-03-24T23:30:20Z</time>
      </trkpt>
      <trkpt lat="47.22682" lon="-1.11359">
        <ele>87</ele>
        <time>2021-03-24T23:30:29Z</time>
      </trkpt>
      <trkpt lat="47.2259" lon="-1.1128">
        <ele>82</ele>
        <time>2021-03-24T23:30:48Z</time>
      </trkpt>
      <trkpt lat="47.22542" lon="-1.11249">
        <ele>81</ele>
        <time>2021-03-24T23:30:57Z</time>
      </trkpt>
      <trkpt lat="47.22525" lon="-1.11236">
        <ele>81</ele>
        <time>2021-03-24T23:31:01Z</time>
      </trkpt>
      <trkpt lat="47.22506" lon="-1.11215">
        <ele>82</ele>
        <time>2021-03-24T23:31:05Z</time>
      </trkpt>
      <trkpt lat="47.22476" lon="-1.11171">
        <ele>84</ele>
        <time>2021-03-24T23:31:13Z</time>
      </trkpt>
      <trkpt lat="47.2234" lon="-1.10895">
        <ele>92</ele>
        <time>2021-03-24T23:31:54Z</time>
      </trkpt>
      <trkpt lat="47.22317" lon="-1.10863">
        <ele>93</ele>
        <time>2021-03-24T23:31:59Z</time>
      </trkpt>
      <trkpt lat="47.22296" lon="-1.10845">
        <ele>94</ele>
        <time>2021-03-24T23:32:04Z</time>
      </trkpt>
      <trkpt lat="47.22264" lon="-1.1083">
        <ele>95</ele>
        <time>2021-03-24T23:32:10Z</time>
      </trkpt>
      <trkpt lat="47.22246" lon="-1.10825">
        <ele>95</ele>
        <time>2021-03-24T23:32:13Z</time>
      </trkpt>
      <trkpt lat="47.22229" lon="-1.10823">
        <ele>95</ele>
        <time>2021-03-24T23:32:16Z</time>
      </trkpt>
      <trkpt lat="47.22206" lon="-1.10825">
        <ele>96</ele>
        <time>2021-03-24T23:32:20Z</time>
      </trkpt>
      <trkpt lat="47.22151" lon="-1.10838">
        <ele>96</ele>
        <time>2021-03-24T23:32:30Z</time>
      </trkpt>
      <trkpt lat="47.2199" lon="-1.10882">
        <ele>96</ele>
        <time>2021-03-24T23:32:59Z</time>
      </trkpt>
      <trkpt lat="47.21949" lon="-1.10898">
        <ele>96</ele>
        <time>2021-03-24T23:33:07Z</time>
      </trkpt>
      <trkpt lat="47.21824" lon="-1.10959">
        <ele>99</ele>
        <time>2021-03-24T23:33:30Z</time>
      </trkpt>
      <trkpt lat="47.2168" lon="-1.11025">
        <ele>100</ele>
        <time>2021-03-24T23:33:57Z</time>
      </trkpt>
      <trkpt lat="47.21642" lon="-1.11049">
        <ele>100</ele>
        <time>2021-03-24T23:34:04Z</time>
      </trkpt>
      <trkpt lat="47.21627" lon="-1.11062">
        <ele>100</ele>
        <time>2021-03-24T23:34:07Z</time>
      </trkpt>
      <trkpt lat="47.21447" lon="-1.11258">
        <ele>103</ele>
        <time>2021-03-24T23:34:47Z</time>
      </trkpt>
      <trkpt lat="47.21401" lon="-1.11316">
        <ele>104</ele>
        <time>2021-03-24T23:34:58Z</time>
      </trkpt>
      <trkpt lat="47.21308" lon="-1.11444">
        <ele>103</ele>
        <time>2021-03-24T23:35:21Z</time>
      </trkpt>
      <trkpt lat="47.21169" lon="-1.11631">
        <ele>103</ele>
        <time>2021-03-24T23:35:54Z</time>
      </trkpt>
      <trkpt lat="47.21129" lon="-1.11681">
        <ele>101</ele>
        <time>2021-03-24T23:36:04Z</time>
      </trkpt>
      <trkpt lat="47.21028" lon="-1.11779">
        <ele>100</ele>
        <time>2021-03-24T23:36:25Z</time>
      </trkpt>
      <trkpt lat="47.21001" lon="-1.11797">
        <ele>100</ele>
        <time>2021-03-24T23:36:30Z</time>
      </trkpt>
      <trkpt lat="47.20968" lon="-1.11816">
        <ele>101</ele>
        <time>2021-03-24T23:36:37Z</time>
      </trkpt>
      <trkpt lat="47.20916" lon="-1.11838">
        <ele>101</ele>
        <time>2021-03-24T23:36:46Z</time>
      </trkpt>
      <trkpt lat="47.20775" lon="-1.11884">
        <ele>103</ele>
        <time>2021-03-24T23:37:12Z</time>
      </trkpt>
      <trkpt lat="47.20639" lon="-1.11936">
        <ele>104</ele>
        <time>2021-03-24T23:37:37Z</time>
      </trkpt>
      <trkpt lat="47.20604" lon="-1.11959">
        <ele>104</ele>
        <time>2021-03-24T23:37:44Z</time>
      </trkpt>
      <trkpt lat="47.20455" lon="-1.12101">
        <ele>101</ele>
        <time>2021-03-24T23:38:15Z</time>
      </trkpt>
      <trkpt lat="47.20304" lon="-1.12214">
        <ele>99</ele>
        <time>2021-03-24T23:38:46Z</time>
      </trkpt>
      <trkpt lat="47.2017" lon="-1.12298">
        <ele>93</ele>
        <time>2021-03-24T23:39:11Z</time>
      </trkpt>
      <trkpt lat="47.19962" lon="-1.12418">
        <ele>89</ele>
        <time>2021-03-24T23:39:51Z</time>
      </trkpt>
      <trkpt lat="47.19929" lon="-1.12431">
        <ele>88</ele>
        <time>2021-03-24T23:39:57Z</time>
      </trkpt>
      <trkpt lat="47.19881" lon="-1.12445">
        <ele>87</ele>
        <time>2021-03-24T23:40:06Z</time>
      </trkpt>
      <trkpt lat="47.19861" lon="-1.12452">
        <ele>87</ele>
        <time>2021-03-24T23:40:10Z</time>
      </trkpt>
      <trkpt lat="47.19839" lon="-1.12464">
        <ele>87</ele>
        <time>2021-03-24T23:40:14Z</time>
      </trkpt>
      <trkpt lat="47.19769" lon="-1.12516">
        <ele>84</ele>
        <time>2021-03-24T23:40:28Z</time>
      </trkpt>
      <trkpt lat="47.19708" lon="-1.12574">
        <ele>81</ele>
        <time>2021-03-24T23:40:41Z</time>
      </trkpt>
      <trkpt lat="47.19684" lon="-1.1259">
        <ele>80</ele>
        <time>2021-03-24T23:40:45Z</time>
      </trkpt>
      <trkpt lat="47.19656" lon="-1.12597">
        <ele>79</ele>
        <time>2021-03-24T23:40:50Z</time>
      </trkpt>
      <trkpt lat="47.19642" lon="-1.12596">
        <ele>79</ele>
        <time>2021-03-24T23:40:53Z</time>
      </trkpt>
      <trkpt lat="47.19624" lon="-1.12591">
        <ele>78</ele>
        <time>2021-03-24T23:40:56Z</time>
      </trkpt>
      <trkpt lat="47.19367" lon="-1.12491">
        <ele>65</ele>
        <time>2021-03-24T23:41:44Z</time>
      </trkpt>
      <trkpt lat="47.19255" lon="-1.12445">
        <ele>69</ele>
        <time>2021-03-24T23:42:04Z</time>
      </trkpt>
      <trkpt lat="47.19223" lon="-1.12435">
        <ele>71</ele>
        <time>2021-03-24T23:42:10Z</time>
      </trkpt>
      <trkpt lat="47.1904" lon="-1.12406">
        <ele>80</ele>
        <time>2021-03-24T23:42:43Z</time>
      </trkpt>
      <trkpt lat="47.19009" lon="-1.12397">
        <ele>81</ele>
        <time>2021-03-24T23:42:48Z</time>
      </trkpt>
      <trkpt lat="47.18982" lon="-1.1238">
        <ele>82</ele>
        <time>2021-03-24T23:42:54Z</time>
      </trkpt>
      <trkpt lat="47.18932" lon="-1.12333">
        <ele>82</ele>
        <time>2021-03-24T23:43:04Z</time>
      </trkpt>
      <trkpt lat="47.18911" lon="-1.12304">
        <ele>81</ele>
        <time>2021-03-24T23:43:09Z</time>
      </trkpt>
      <trkpt lat="47.18903" lon="-1.12286">
        <ele>81</ele>
        <time>2021-03-24T23:43:12Z</time>
      </trkpt>
      <trkpt lat="47.18895" lon="-1.12257">
        <ele>81</ele>
        <time>2021-03-24T23:43:16Z</time>
      </trkpt>
      <trkpt lat="47.18865" lon="-1.12085">
        <ele>80</ele>
        <time>2021-03-24T23:43:37Z</time>
      </trkpt>
      <trkpt lat="47.18859" lon="-1.12058">
        <ele>80</ele>
        <time>2021-03-24T23:43:41Z</time>
      </trkpt>
      <trkpt lat="47.18851" lon="-1.12032">
        <ele>80</ele>
        <time>2021-03-24T23:43:44Z</time>
      </trkpt>
      <trkpt lat="47.18802" lon="-1.11904">
        <ele>80</ele>
        <time>2021-03-24T23:44:02Z</time>
      </trkpt>
      <trkpt lat="47.18791" lon="-1.11883">
        <ele>80</ele>
        <time>2021-03-24T23:44:05Z</time>
      </trkpt>
      <trkpt lat="47.1877" lon="-1.11858">
        <ele>81</ele>
        <time>2021-03-24T23:44:10Z</time>
      </trkpt>
      <trkpt lat="47.18582" lon="-1.11662">
        <ele>77</ele>
        <time>2021-03-24T23:44:51Z</time>
      </trkpt>
      <trkpt lat="47.18321" lon="-1.11382">
        <ele>77</ele>
        <time>2021-03-24T23:45:48Z</time>
      </trkpt>
      <trkpt lat="47.18301" lon="-1.1142">
        <ele>79</ele>
        <time>2021-03-24T23:45:54Z</time>
      </trkpt>
      <trkpt lat="47.18194" lon="-1.1161">
        <ele>79</ele>
        <time>2021-03-24T23:46:24Z</time>
      </trkpt>
      <trkpt lat="47.18185" lon="-1.11615">
        <ele>79</ele>
        <time>2021-03-24T23:46:26Z</time>
      </trkpt>
      <trkpt lat="47.18166" lon="-1.11614">
        <ele>79</ele>
        <time>2021-03-24T23:46:29Z</time>
      </trkpt>
      <trkpt lat="47.18194" lon="-1.11321">
        <ele>79</ele>
        <time>2021-03-24T23:47:05Z</time>
      </trkpt>
      <trkpt lat="47.18193" lon="-1.11302">
        <ele>78</ele>
        <time>2021-03-24T23:47:07Z</time>
      </trkpt>
      <trkpt lat="47.18188" lon="-1.11286">
        <ele>78</ele>
        <time>2021-03-24T23:47:09Z</time>
      </trkpt>
      <trkpt lat="47.18173" lon="-1.11259">
        <ele>78</ele>
        <time>2021-03-24T23:47:13Z</time>
      </trkpt>
      <trkpt lat="47.18152" lon="-1.11224">
        <ele>78</ele>
        <time>2021-03-24T23:47:19Z</time>
      </trkpt>
      <trkpt lat="47.1813" lon="-1.11202">
        <ele>78</ele>
        <time>2021-03-24T23:47:24Z</time>
      </trkpt>
      <trkpt lat="47.18122" lon="-1.11188">
        <ele>78</ele>
        <time>2021-03-24T23:47:26Z</time>
      </trkpt>
      <trkpt lat="47.18115" lon="-1.11169">
        <ele>78</ele>
        <time>2021-03-24T23:47:29Z</time>
      </trkpt>
      <trkpt lat="47.18101" lon="-1.11147">
        <ele>77</ele>
        <time>2021-03-24T23:47:32Z</time>
      </trkpt>
      <trkpt lat="47.18092" lon="-1.11138">
        <ele>77</ele>
        <time>2021-03-24T23:47:34Z</time>
      </trkpt>
      <trkpt lat="47.18053" lon="-1.11111">
        <ele>75</ele>
        <time>2021-03-24T23:47:42Z</time>
      </trkpt>
      <trkpt lat="47.18031" lon="-1.11093">
        <ele>74</ele>
        <time>2021-03-24T23:47:46Z</time>
      </trkpt>
      <trkpt lat="47.18025" lon="-1.11103">
        <ele>75</ele>
        <time>2021-03-24T23:47:48Z</time>
      </trkpt>
      <trkpt lat="47.17987" lon="-1.11123">
        <ele>76</ele>
        <time>2021-03-24T23:47:55Z</time>
      </trkpt>
      <trkpt lat="47.17974" lon="-1.11127">
        <ele>77</ele>
        <time>2021-03-24T23:47:58Z</time>
      </trkpt>
      <trkpt lat="47.17949" lon="-1.11132">
        <ele>78</ele>
        <time>2021-03-24T23:48:02Z</time>
      </trkpt>
      <trkpt lat="47.17938" lon="-1.1113">
        <ele>78</ele>
        <time>2021-03-24T23:48:04Z</time>
      </trkpt>
      <trkpt lat="47.1793" lon="-1.11124">
        <ele>78</ele>
        <time>2021-03-24T23:48:06Z</time>
      </trkpt>
      <trkpt lat="47.17855" lon="-1.111">
        <ele>81</ele>
        <time>2021-03-24T23:48:19Z</time>
      </trkpt>
      <trkpt lat="47.17844" lon="-1.11094">
        <ele>81</ele>
        <time>2021-03-24T23:48:21Z</time>
      </trkpt>
      <trkpt lat="47.17705" lon="-1.11001">
        <ele>82</ele>
        <time>2021-03-24T23:48:49Z</time>
      </trkpt>
      <trkpt lat="47.17659" lon="-1.10975">
        <ele>82</ele>
        <time>2021-03-24T23:48:57Z</time>
      </trkpt>
      <trkpt lat="47.1764" lon="-1.10967">
        <ele>81</ele>
        <time>2021-03-24T23:49:01Z</time>
      </trkpt>
      <trkpt lat="47.17495" lon="-1.10929">
        <ele>78</ele>
        <time>2021-03-24T23:49:27Z</time>
      </trkpt>
      <trkpt lat="47.17481" lon="-1.10922">
        <ele>78</ele>
        <time>2021-03-24T23:49:30Z</time>
      </trkpt>
      <trkpt lat="47.17469" lon="-1.10912">
        <ele>78</ele>
        <time>2021-03-24T23:49:32Z</time>
      </trkpt>
      <trkpt lat="47.17448" lon="-1.1089">
        <ele>77</ele>
        <time>2021-03-24T23:49:37Z</time>
      </trkpt>
      <trkpt lat="47.17439" lon="-1.10875">
        <ele>77</ele>
        <time>2021-03-24T23:49:39Z</time>
      </trkpt>
      <trkpt lat="47.17431" lon="-1.10857">
        <ele>77</ele>
        <time>2021-03-24T23:49:42Z</time>
      </trkpt>
      <trkpt lat="47.17406" lon="-1.10787">
        <ele>75</ele>
        <time>2021-03-24T23:49:51Z</time>
      </trkpt>
      <trkpt lat="47.17398" lon="-1.10769">
        <ele>75</ele>
        <time>2021-03-24T23:49:54Z</time>
      </trkpt>
      <trkpt lat="47.1738" lon="-1.10735">
        <ele>74</ele>
        <time>2021-03-24T23:49:59Z</time>
      </trkpt>
      <trkpt lat="47.17364" lon="-1.1071">
        <ele>74</ele>
        <time>2021-03-24T23:50:03Z</time>
      </trkpt>
      <trkpt lat="47.17344" lon="-1.10685">
        <ele>74</ele>
        <time>2021-03-24T23:50:08Z</time>
      </trkpt>
      <trkpt lat="47.17332" lon="-1.10673">
        <ele>74</ele>
        <time>2021-03-24T23:50:11Z</time>
      </trkpt>
      <trkpt lat="47.17176" lon="-1.10537">
        <ele>78</ele>
        <time>2021-03-24T23:50:43Z</time>
      </trkpt>
      <trkpt lat="47.17062" lon="-1.10415">
        <ele>74</ele>
        <time>2021-03-24T23:51:08Z</time>
      </trkpt>
      <trkpt lat="47.17048" lon="-1.10398">
        <ele>74</ele>
        <time>2021-03-24T23:51:11Z</time>
      </trkpt>
      <trkpt lat="47.17037" lon="-1.1038">
        <ele>74</ele>
        <time>2021-03-24T23:51:14Z</time>
      </trkpt>
      <trkpt lat="47.17008" lon="-1.10332">
        <ele>73</ele>
        <time>2021-03-24T23:51:22Z</time>
      </trkpt>
      <trkpt lat="47.16886" lon="-1.10118">
        <ele>82</ele>
        <time>2021-03-24T23:51:56Z</time>
      </trkpt>
      <trkpt lat="47.16807" lon="-1.09986">
        <ele>87</ele>
        <time>2021-03-24T23:52:17Z</time>
      </trkpt>
      <trkpt lat="47.16785" lon="-1.09955">
        <ele>87</ele>
        <time>2021-03-24T23:52:22Z</time>
      </trkpt>
      <trkpt lat="47.16662" lon="-1.09808">
        <ele>90</ele>
        <time>2021-03-24T23:52:50Z</time>
      </trkpt>
      <trkpt lat="47.16645" lon="-1.09792">
        <ele>91</ele>
        <time>2021-03-24T23:52:54Z</time>
      </trkpt>
      <trkpt lat="47.16633" lon="-1.09783">
        <ele>92</ele>
        <time>2021-03-24T23:52:56Z</time>
      </trkpt>
      <trkpt lat="47.16607" lon="-1.09771">
        <ele>93</ele>
        <time>2021-03-24T23:53:01Z</time>
      </trkpt>
      <trkpt lat="47.16596" lon="-1.0977">
        <ele>93</ele>
        <time>2021-03-24T23:53:03Z</time>
      </trkpt>
      <trkpt lat="47.16575" lon="-1.0977">
        <ele>93</ele>
        <time>2021-03-24T23:53:07Z</time>
      </trkpt>
      <trkpt lat="47.16468" lon="-1.0979">
        <ele>92</ele>
        <time>2021-03-24T23:53:26Z</time>
      </trkpt>
      <trkpt lat="47.15709" lon="-1.09967">
        <ele>90</ele>
        <time>2021-03-24T23:55:43Z</time>
      </trkpt>
      <trkpt lat="47.15649" lon="-1.09987">
        <ele>91</ele>
        <time>2021-03-24T23:55:54Z</time>
      </trkpt>
      <trkpt lat="47.15544" lon="-1.10045">
        <ele>93</ele>
        <time>2021-03-24T23:56:14Z</time>
      </trkpt>
      <trkpt lat="47.15514" lon="-1.10059">
        <ele>93</ele>
        <time>2021-03-24T23:56:19Z</time>
      </trkpt>
      <trkpt lat="47.15495" lon="-1.10065">
        <ele>94</ele>
        <time>2021-03-24T23:56:23Z</time>
      </trkpt>
      <trkpt lat="47.15434" lon="-1.10071">
        <ele>96</ele>
        <time>2021-03-24T23:56:34Z</time>
      </trkpt>
      <trkpt lat="47.15422" lon="-1.10074">
        <ele>96</ele>
        <time>2021-03-24T23:56:36Z</time>
      </trkpt>
      <trkpt lat="47.15409" lon="-1.1008">
        <ele>96</ele>
        <time>2021-03-24T23:56:38Z</time>
      </trkpt>
      <trkpt lat="47.15381" lon="-1.10101">
        <ele>97</ele>
        <time>2021-03-24T23:56:44Z</time>
      </trkpt>
      <trkpt lat="47.14969" lon="-1.10541">
        <ele>98</ele>
        <time>2021-03-24T23:58:15Z</time>
      </trkpt>
      <trkpt lat="47.14898" lon="-1.10624">
        <ele>98</ele>
        <time>2021-03-24T23:58:31Z</time>
      </trkpt>
      <trkpt lat="47.14865" lon="-1.10668">
        <ele>98</ele>
        <time>2021-03-24T23:58:39Z</time>
      </trkpt>
      <trkpt lat="47.14816" lon="-1.10748">
        <ele>99</ele>
        <time>2021-03-24T23:58:52Z</time>
      </trkpt>
      <trkpt lat="47.14754" lon="-1.10866">
        <ele>98</ele>
        <time>2021-03-24T23:59:10Z</time>
      </trkpt>
      <trkpt lat="47.14699" lon="-1.10965">
        <ele>97</ele>
        <time>2021-03-24T23:59:25Z</time>
      </trkpt>
      <trkpt lat="47.14612" lon="-1.11104">
        <ele>94</ele>
        <time>2021-03-24T23:59:48Z</time>
      </trkpt>
      <trkpt lat="47.14353" lon="-1.11606">
        <ele>101</ele>
        <time>2021-03-25T00:01:04Z</time>
      </trkpt>
      <trkpt lat="47.14343" lon="-1.11619">
        <ele>101</ele>
        <time>2021-03-25T00:01:07Z</time>
      </trkpt>
      <trkpt lat="47.14337" lon="-1.11622">
        <ele>101</ele>
        <time>2021-03-25T00:01:08Z</time>
      </trkpt>
      <trkpt lat="47.14334" lon="-1.11657">
        <ele>102</ele>
        <time>2021-03-25T00:01:12Z</time>
      </trkpt>
      <trkpt lat="47.1433" lon="-1.11658">
        <ele>102</ele>
        <time>2021-03-25T00:01:13Z</time>
      </trkpt>
      <trkpt lat="47.14324" lon="-1.11665">
        <ele>102</ele>
        <time>2021-03-25T00:01:14Z</time>
      </trkpt>
      <trkpt lat="47.14297" lon="-1.11717">
        <ele>102</ele>
        <time>2021-03-25T00:01:22Z</time>
      </trkpt>
      <trkpt lat="47.14277" lon="-1.11747">
        <ele>102</ele>
        <time>2021-03-25T00:01:27Z</time>
      </trkpt>
      <trkpt lat="47.14263" lon="-1.11762">
        <ele>102</ele>
        <time>2021-03-25T00:01:30Z</time>
      </trkpt>
      <trkpt lat="47.14247" lon="-1.11773">
        <ele>102</ele>
        <time>2021-03-25T00:01:33Z</time>
      </trkpt>
      <trkpt lat="47.14223" lon="-1.11785">
        <ele>103</ele>
        <time>2021-03-25T00:01:38Z</time>
      </trkpt>
      <trkpt lat="47.14192" lon="-1.11793">
        <ele>103</ele>
        <time>2021-03-25T00:01:43Z</time>
      </trkpt>
      <trkpt lat="47.13352" lon="-1.11928">
        <ele>91</ele>
        <time>2021-03-25T00:04:14Z</time>
      </trkpt>
      <trkpt lat="47.1333" lon="-1.1194">
        <ele>90</ele>
        <time>2021-03-25T00:04:18Z</time>
      </trkpt>
      <trkpt lat="47.13267" lon="-1.12004">
        <ele>89</ele>
        <time>2021-03-25T00:04:32Z</time>
      </trkpt>
      <trkpt lat="47.13253" lon="-1.12016">
        <ele>89</ele>
        <time>2021-03-25T00:04:34Z</time>
      </trkpt>
      <trkpt lat="47.13206" lon="-1.1204">
        <ele>88</ele>
        <time>2021-03-25T00:04:43Z</time>
      </trkpt>
      <trkpt lat="47.13182" lon="-1.12046">
        <ele>88</ele>
        <time>2021-03-25T00:04:48Z</time>
      </trkpt>
      <trkpt lat="47.13167" lon="-1.12048">
        <ele>88</ele>
        <time>2021-03-25T00:04:50Z</time>
      </trkpt>
      <trkpt lat="47.13146" lon="-1.12046">
        <ele>88</ele>
        <time>2021-03-25T00:04:54Z</time>
      </trkpt>
      <trkpt lat="47.13119" lon="-1.12038">
        <ele>87</ele>
        <time>2021-03-25T00:04:59Z</time>
      </trkpt>
      <trkpt lat="47.12928" lon="-1.11959">
        <ele>81</ele>
        <time>2021-03-25T00:05:34Z</time>
      </trkpt>
      <trkpt lat="47.12893" lon="-1.1195">
        <ele>81</ele>
        <time>2021-03-25T00:05:41Z</time>
      </trkpt>
      <trkpt lat="47.12861" lon="-1.1195">
        <ele>82</ele>
        <time>2021-03-25T00:05:46Z</time>
      </trkpt>
      <trkpt lat="47.12839" lon="-1.11955">
        <ele>82</ele>
        <time>2021-03-25T00:05:50Z</time>
      </trkpt>
      <trkpt lat="47.12814" lon="-1.11963">
        <ele>82</ele>
        <time>2021-03-25T00:05:55Z</time>
      </trkpt>
      <trkpt lat="47.12791" lon="-1.11974">
        <ele>82</ele>
        <time>2021-03-25T00:05:59Z</time>
      </trkpt>
      <trkpt lat="47.12713" lon="-1.12018">
        <ele>83</ele>
        <time>2021-03-25T00:06:14Z</time>
      </trkpt>
      <trkpt lat="47.1257" lon="-1.12108">
        <ele>85</ele>
        <time>2021-03-25T00:06:42Z</time>
      </trkpt>
      <trkpt lat="47.12512" lon="-1.1215">
        <ele>85</ele>
        <time>2021-03-25T00:06:53Z</time>
      </trkpt>
      <trkpt lat="47.12489" lon="-1.1216">
        <ele>85</ele>
        <time>2021-03-25T00:06:57Z</time>
      </trkpt>
      <trkpt lat="47.12477" lon="-1.1216">
        <ele>84</ele>
        <time>2021-03-25T00:07:00Z</time>
      </trkpt>
      <trkpt lat="47.12459" lon="-1.12157">
        <ele>84</ele>
        <time>2021-03-25T00:07:03Z</time>
      </trkpt>
      <trkpt lat="47.12293" lon="-1.1212">
        <ele>81</ele>
        <time>2021-03-25T00:07:33Z</time>
      </trkpt>
      <trkpt lat="47.12258" lon="-1.12118">
        <ele>83</ele>
        <time>2021-03-25T00:07:39Z</time>
      </trkpt>
      <trkpt lat="47.12245" lon="-1.1212">
        <ele>84</ele>
        <time>2021-03-25T00:07:41Z</time>
      </trkpt>
      <trkpt lat="47.12227" lon="-1.12128">
        <ele>84</ele>
        <time>2021-03-25T00:07:45Z</time>
      </trkpt>
      <trkpt lat="47.12202" lon="-1.12143">
        <ele>84</ele>
        <time>2021-03-25T00:07:49Z</time>
      </trkpt>
      <trkpt lat="47.12088" lon="-1.12251">
        <ele>80</ele>
        <time>2021-03-25T00:08:14Z</time>
      </trkpt>
      <trkpt lat="47.12054" lon="-1.12278">
        <ele>79</ele>
        <time>2021-03-25T00:08:20Z</time>
      </trkpt>
      <trkpt lat="47.11918" lon="-1.1237">
        <ele>77</ele>
        <time>2021-03-25T00:08:47Z</time>
      </trkpt>
      <trkpt lat="47.11899" lon="-1.12381">
        <ele>76</ele>
        <time>2021-03-25T00:08:51Z</time>
      </trkpt>
      <trkpt lat="47.11868" lon="-1.12394">
        <ele>75</ele>
        <time>2021-03-25T00:08:56Z</time>
      </trkpt>
      <trkpt lat="47.11856" lon="-1.1239">
        <ele>74</ele>
        <time>2021-03-25T00:08:59Z</time>
      </trkpt>
      <trkpt lat="47.11834" lon="-1.12378">
        <ele>74</ele>
        <time>2021-03-25T00:09:03Z</time>
      </trkpt>
      <trkpt lat="47.11792" lon="-1.12351">
        <ele>73</ele>
        <time>2021-03-25T00:09:11Z</time>
      </trkpt>
      <trkpt lat="47.11745" lon="-1.12313">
        <ele>72</ele>
        <time>2021-03-25T00:09:20Z</time>
      </trkpt>
      <trkpt lat="47.1173" lon="-1.12289">
        <ele>73</ele>
        <time>2021-03-25T00:09:24Z</time>
      </trkpt>
      <trkpt lat="47.11722" lon="-1.12284">
        <ele>73</ele>
        <time>2021-03-25T00:09:26Z</time>
      </trkpt>
      <trkpt lat="47.11718" lon="-1.12264">
        <ele>73</ele>
        <time>2021-03-25T00:09:28Z</time>
      </trkpt>
      <trkpt lat="47.11706" lon="-1.12242">
        <ele>73</ele>
        <time>2021-03-25T00:09:32Z</time>
      </trkpt>
      <trkpt lat="47.11647" lon="-1.1218">
        <ele>73</ele>
        <time>2021-03-25T00:09:45Z</time>
      </trkpt>
      <trkpt lat="47.11635" lon="-1.12172">
        <ele>74</ele>
        <time>2021-03-25T00:09:47Z</time>
      </trkpt>
      <trkpt lat="47.11618" lon="-1.12164">
        <ele>74</ele>
        <time>2021-03-25T00:09:50Z</time>
      </trkpt>
      <trkpt lat="47.11597" lon="-1.12159">
        <ele>75</ele>
        <time>2021-03-25T00:09:54Z</time>
      </trkpt>
      <trkpt lat="47.11577" lon="-1.12158">
        <ele>75</ele>
        <time>2021-03-25T00:09:58Z</time>
      </trkpt>
      <trkpt lat="47.11542" lon="-1.12163">
        <ele>76</ele>
        <time>2021-03-25T00:10:04Z</time>
      </trkpt>
      <trkpt lat="47.11522" lon="-1.12168">
        <ele>77</ele>
        <time>2021-03-25T00:10:08Z</time>
      </trkpt>
      <trkpt lat="47.11489" lon="-1.12184">
        <ele>78</ele>
        <time>2021-03-25T00:10:14Z</time>
      </trkpt>
      <trkpt lat="47.11445" lon="-1.12215">
        <ele>79</ele>
        <time>2021-03-25T00:10:22Z</time>
      </trkpt>
      <trkpt lat="47.11421" lon="-1.12237">
        <ele>79</ele>
        <time>2021-03-25T00:10:27Z</time>
      </trkpt>
      <trkpt lat="47.11388" lon="-1.12278">
        <ele>78</ele>
        <time>2021-03-25T00:10:35Z</time>
      </trkpt>
      <trkpt lat="47.11351" lon="-1.12333">
        <ele>76</ele>
        <time>2021-03-25T00:10:44Z</time>
      </trkpt>
      <trkpt lat="47.11319" lon="-1.12365">
        <ele>75</ele>
        <time>2021-03-25T00:10:51Z</time>
      </trkpt>
      <trkpt lat="47.11271" lon="-1.12398">
        <ele>75</ele>
        <time>2021-03-25T00:11:01Z</time>
      </trkpt>
      <trkpt lat="47.11247" lon="-1.1241">
        <ele>75</ele>
        <time>2021-03-25T00:11:05Z</time>
      </trkpt>
      <trkpt lat="47.11231" lon="-1.12414">
        <ele>73</ele>
        <time>2021-03-25T00:11:08Z</time>
      </trkpt>
      <trkpt lat="47.112" lon="-1.12413">
        <ele>70</ele>
        <time>2021-03-25T00:11:14Z</time>
      </trkpt>
      <trkpt lat="47.11168" lon="-1.12402">
        <ele>68</ele>
        <time>2021-03-25T00:11:20Z</time>
      </trkpt>
      <trkpt lat="47.11114" lon="-1.12374">
        <ele>66</ele>
        <time>2021-03-25T00:11:30Z</time>
      </trkpt>
      <trkpt lat="47.10884" lon="-1.1224">
        <ele>64</ele>
        <time>2021-03-25T00:12:14Z</time>
      </trkpt>
      <trkpt lat="47.10847" lon="-1.12225">
        <ele>68</ele>
        <time>2021-03-25T00:12:21Z</time>
      </trkpt>
      <trkpt lat="47.10832" lon="-1.1222">
        <ele>70</ele>
        <time>2021-03-25T00:12:23Z</time>
      </trkpt>
      <trkpt lat="47.10805" lon="-1.12216">
        <ele>72</ele>
        <time>2021-03-25T00:12:28Z</time>
      </trkpt>
      <trkpt lat="47.10765" lon="-1.12217">
        <ele>74</ele>
        <time>2021-03-25T00:12:35Z</time>
      </trkpt>
      <trkpt lat="47.10741" lon="-1.12222">
        <ele>75</ele>
        <time>2021-03-25T00:12:40Z</time>
      </trkpt>
      <trkpt lat="47.10716" lon="-1.1223">
        <ele>77</ele>
        <time>2021-03-25T00:12:44Z</time>
      </trkpt>
      <trkpt lat="47.10684" lon="-1.12248">
        <ele>78</ele>
        <time>2021-03-25T00:12:50Z</time>
      </trkpt>
      <trkpt lat="47.10562" lon="-1.12333">
        <ele>77</ele>
        <time>2021-03-25T00:13:14Z</time>
      </trkpt>
      <trkpt lat="47.10503" lon="-1.12369">
        <ele>73</ele>
        <time>2021-03-25T00:13:26Z</time>
      </trkpt>
      <trkpt lat="47.1044" lon="-1.12396">
        <ele>72</ele>
        <time>2021-03-25T00:13:37Z</time>
      </trkpt>
      <trkpt lat="47.10286" lon="-1.12448">
        <ele>68</ele>
        <time>2021-03-25T00:14:05Z</time>
      </trkpt>
      <trkpt lat="47.10194" lon="-1.12473">
        <ele>65</ele>
        <time>2021-03-25T00:14:22Z</time>
      </trkpt>
      <trkpt lat="47.10114" lon="-1.12492">
        <ele>60</ele>
        <time>2021-03-25T00:14:37Z</time>
      </trkpt>
      <trkpt lat="47.10105" lon="-1.12493">
        <ele>60</ele>
        <time>2021-03-25T00:14:38Z</time>
      </trkpt>
      <trkpt lat="47.10085" lon="-1.1249">
        <ele>58</ele>
        <time>2021-03-25T00:14:42Z</time>
      </trkpt>
      <trkpt lat="47.10051" lon="-1.12478">
        <ele>56</ele>
        <time>2021-03-25T00:14:48Z</time>
      </trkpt>
      <trkpt lat="47.10022" lon="-1.12462">
        <ele>53</ele>
        <time>2021-03-25T00:14:53Z</time>
      </trkpt>
      <trkpt lat="47.0996" lon="-1.12591">
        <ele>50</ele>
        <time>2021-03-25T00:15:13Z</time>
      </trkpt>
      <trkpt lat="47.09917" lon="-1.12672">
        <ele>46</ele>
        <time>2021-03-25T00:15:25Z</time>
      </trkpt>
      <trkpt lat="47.09858" lon="-1.12723">
        <ele>41</ele>
        <time>2021-03-25T00:15:37Z</time>
      </trkpt>
      <trkpt lat="47.09854" lon="-1.12725">
        <ele>41</ele>
        <time>2021-03-25T00:15:38Z</time>
      </trkpt>
      <trkpt lat="47.09844" lon="-1.12723">
        <ele>40</ele>
        <time>2021-03-25T00:15:40Z</time>
      </trkpt>
      <trkpt lat="47.09837" lon="-1.12715">
        <ele>38</ele>
        <time>2021-03-25T00:15:41Z</time>
      </trkpt>
      <trkpt lat="47.09805" lon="-1.1266">
        <ele>34</ele>
        <time>2021-03-25T00:15:50Z</time>
      </trkpt>
      <trkpt lat="47.09792" lon="-1.12644">
        <ele>34</ele>
        <time>2021-03-25T00:15:53Z</time>
      </trkpt>
      <trkpt lat="47.09758" lon="-1.12611">
        <ele>34</ele>
        <time>2021-03-25T00:16:00Z</time>
      </trkpt>
      <trkpt lat="47.0975" lon="-1.12604">
        <ele>34</ele>
        <time>2021-03-25T00:16:02Z</time>
      </trkpt>
      <trkpt lat="47.09718" lon="-1.1259">
        <ele>35</ele>
        <time>2021-03-25T00:16:08Z</time>
      </trkpt>
      <trkpt lat="47.09717" lon="-1.12594">
        <ele>35</ele>
        <time>2021-03-25T00:16:08Z</time>
      </trkpt>
      <trkpt lat="47.09712" lon="-1.126">
        <ele>35</ele>
        <time>2021-03-25T00:16:10Z</time>
      </trkpt>
      <trkpt lat="47.09706" lon="-1.126">
        <ele>35</ele>
        <time>2021-03-25T00:16:11Z</time>
      </trkpt>
      <trkpt lat="47.09701" lon="-1.12596">
        <ele>35</ele>
        <time>2021-03-25T00:16:12Z</time>
      </trkpt>
      <trkpt lat="47.09699" lon="-1.12584">
        <ele>35</ele>
        <time>2021-03-25T00:16:13Z</time>
      </trkpt>
      <trkpt lat="47.09666" lon="-1.12576">
        <ele>36</ele>
        <time>2021-03-25T00:16:19Z</time>
      </trkpt>
      <trkpt lat="47.09626" lon="-1.12533">
        <ele>38</ele>
        <time>2021-03-25T00:16:28Z</time>
      </trkpt>
      <trkpt lat="47.096" lon="-1.1249">
        <ele>39</ele>
        <time>2021-03-25T00:16:35Z</time>
      </trkpt>
      <trkpt lat="47.09588" lon="-1.12452">
        <ele>41</ele>
        <time>2021-03-25T00:16:40Z</time>
      </trkpt>
      <trkpt lat="47.09488" lon="-1.12067">
        <ele>57</ele>
        <time>2021-03-25T00:17:30Z</time>
      </trkpt>
      <trkpt lat="47.09479" lon="-1.12039">
        <ele>58</ele>
        <time>2021-03-25T00:17:34Z</time>
      </trkpt>
      <trkpt lat="47.09435" lon="-1.11897">
        <ele>56</ele>
        <time>2021-03-25T00:17:53Z</time>
      </trkpt>
      <trkpt lat="47.0936" lon="-1.11669">
        <ele>64</ele>
        <time>2021-03-25T00:18:23Z</time>
      </trkpt>
      <trkpt lat="47.09345" lon="-1.11627">
        <ele>66</ele>
        <time>2021-03-25T00:18:29Z</time>
      </trkpt>
      <trkpt lat="47.09308" lon="-1.11547">
        <ele>68</ele>
        <time>2021-03-25T00:18:41Z</time>
      </trkpt>
      <trkpt lat="47.09289" lon="-1.11494">
        <ele>69</ele>
        <time>2021-03-25T00:18:48Z</time>
      </trkpt>
      <trkpt lat="47.09193" lon="-1.11125">
        <ele>75</ele>
        <time>2021-03-25T00:19:36Z</time>
      </trkpt>
      <trkpt lat="47.09111" lon="-1.10907">
        <ele>76</ele>
        <time>2021-03-25T00:20:06Z</time>
      </trkpt>
      <trkpt lat="47.09096" lon="-1.10862">
        <ele>75</ele>
        <time>2021-03-25T00:20:12Z</time>
      </trkpt>
      <trkpt lat="47.09092" lon="-1.10836">
        <ele>75</ele>
        <time>2021-03-25T00:20:15Z</time>
      </trkpt>
      <trkpt lat="47.09053" lon="-1.10504">
        <ele>79</ele>
        <time>2021-03-25T00:20:56Z</time>
      </trkpt>
      <trkpt lat="47.09042" lon="-1.10434">
        <ele>79</ele>
        <time>2021-03-25T00:21:05Z</time>
      </trkpt>
      <trkpt lat="47.09034" lon="-1.10404">
        <ele>80</ele>
        <time>2021-03-25T00:21:09Z</time>
      </trkpt>
      <trkpt lat="47.09023" lon="-1.10377">
        <ele>79</ele>
        <time>2021-03-25T00:21:12Z</time>
      </trkpt>
      <trkpt lat="47.09011" lon="-1.10351">
        <ele>79</ele>
        <time>2021-03-25T00:21:16Z</time>
      </trkpt>
      <trkpt lat="47.08983" lon="-1.10308">
        <ele>80</ele>
        <time>2021-03-25T00:21:23Z</time>
      </trkpt>
      <trkpt lat="47.08946" lon="-1.10263">
        <ele>81</ele>
        <time>2021-03-25T00:21:32Z</time>
      </trkpt>
      <trkpt lat="47.08917" lon="-1.10234">
        <ele>82</ele>
        <time>2021-03-25T00:21:38Z</time>
      </trkpt>
      <trkpt lat="47.089" lon="-1.10213">
        <ele>81</ele>
        <time>2021-03-25T00:21:42Z</time>
      </trkpt>
      <trkpt lat="47.08885" lon="-1.10187">
        <ele>81</ele>
        <time>2021-03-25T00:21:46Z</time>
      </trkpt>
      <trkpt lat="47.08879" lon="-1.10174">
        <ele>81</ele>
        <time>2021-03-25T00:21:48Z</time>
      </trkpt>
      <trkpt lat="47.08872" lon="-1.10152">
        <ele>81</ele>
        <time>2021-03-25T00:21:51Z</time>
      </trkpt>
      <trkpt lat="47.08742" lon="-1.09597">
        <ele>85</ele>
        <time>2021-03-25T00:23:02Z</time>
      </trkpt>
      <trkpt lat="47.0873" lon="-1.09556">
        <ele>85</ele>
        <time>2021-03-25T00:23:08Z</time>
      </trkpt>
      <trkpt lat="47.08706" lon="-1.09488">
        <ele>86</ele>
        <time>2021-03-25T00:23:17Z</time>
      </trkpt>
      <trkpt lat="47.08681" lon="-1.09434">
        <ele>85</ele>
        <time>2021-03-25T00:23:25Z</time>
      </trkpt>
      <trkpt lat="47.08636" lon="-1.09355">
        <ele>86</ele>
        <time>2021-03-25T00:23:37Z</time>
      </trkpt>
      <trkpt lat="47.08577" lon="-1.09262">
        <ele>86</ele>
        <time>2021-03-25T00:23:53Z</time>
      </trkpt>
      <trkpt lat="47.08529" lon="-1.09173">
        <ele>88</ele>
        <time>2021-03-25T00:24:07Z</time>
      </trkpt>
      <trkpt lat="47.08489" lon="-1.09077">
        <ele>88</ele>
        <time>2021-03-25T00:24:20Z</time>
      </trkpt>
      <trkpt lat="47.08472" lon="-1.09029">
        <ele>88</ele>
        <time>2021-03-25T00:24:27Z</time>
      </trkpt>
      <trkpt lat="47.08447" lon="-1.08941">
        <ele>88</ele>
        <time>2021-03-25T00:24:38Z</time>
      </trkpt>
      <trkpt lat="47.08423" lon="-1.08837">
        <ele>89</ele>
        <time>2021-03-25T00:24:52Z</time>
      </trkpt>
      <trkpt lat="47.08214" lon="-1.07799">
        <ele>89</ele>
        <time>2021-03-25T00:27:03Z</time>
      </trkpt>
      <trkpt lat="47.08205" lon="-1.07762">
        <ele>89</ele>
        <time>2021-03-25T00:27:08Z</time>
      </trkpt>
      <trkpt lat="47.08193" lon="-1.07724">
        <ele>90</ele>
        <time>2021-03-25T00:27:13Z</time>
      </trkpt>
      <trkpt lat="47.08161" lon="-1.07641">
        <ele>92</ele>
        <time>2021-03-25T00:27:24Z</time>
      </trkpt>
      <trkpt lat="47.08061" lon="-1.07437">
        <ele>96</ele>
        <time>2021-03-25T00:27:55Z</time>
      </trkpt>
      <trkpt lat="47.08048" lon="-1.07415">
        <ele>96</ele>
        <time>2021-03-25T00:27:58Z</time>
      </trkpt>
      <trkpt lat="47.08038" lon="-1.07401">
        <ele>97</ele>
        <time>2021-03-25T00:28:01Z</time>
      </trkpt>
      <trkpt lat="47.08011" lon="-1.07376">
        <ele>97</ele>
        <time>2021-03-25T00:28:06Z</time>
      </trkpt>
      <trkpt lat="47.07938" lon="-1.07322">
        <ele>98</ele>
        <time>2021-03-25T00:28:21Z</time>
      </trkpt>
      <trkpt lat="47.07921" lon="-1.07308">
        <ele>98</ele>
        <time>2021-03-25T00:28:24Z</time>
      </trkpt>
      <trkpt lat="47.07906" lon="-1.07291">
        <ele>99</ele>
        <time>2021-03-25T00:28:28Z</time>
      </trkpt>
      <trkpt lat="47.07896" lon="-1.07275">
        <ele>99</ele>
        <time>2021-03-25T00:28:30Z</time>
      </trkpt>
      <trkpt lat="47.07879" lon="-1.07241">
        <ele>100</ele>
        <time>2021-03-25T00:28:35Z</time>
      </trkpt>
      <trkpt lat="47.07836" lon="-1.0714">
        <ele>103</ele>
        <time>2021-03-25T00:28:50Z</time>
      </trkpt>
      <trkpt lat="47.07806" lon="-1.07076">
        <ele>106</ele>
        <time>2021-03-25T00:28:59Z</time>
      </trkpt>
      <trkpt lat="47.07776" lon="-1.07019">
        <ele>108</ele>
        <time>2021-03-25T00:29:08Z</time>
      </trkpt>
      <trkpt lat="47.07743" lon="-1.06972">
        <ele>110</ele>
        <time>2021-03-25T00:29:16Z</time>
      </trkpt>
      <trkpt lat="47.07704" lon="-1.06928">
        <ele>112</ele>
        <time>2021-03-25T00:29:25Z</time>
      </trkpt>
      <trkpt lat="47.07597" lon="-1.0682">
        <ele>112</ele>
        <time>2021-03-25T00:29:48Z</time>
      </trkpt>
      <trkpt lat="47.07581" lon="-1.068">
        <ele>112</ele>
        <time>2021-03-25T00:29:52Z</time>
      </trkpt>
      <trkpt lat="47.07539" lon="-1.06734">
        <ele>111</ele>
        <time>2021-03-25T00:30:03Z</time>
      </trkpt>
      <trkpt lat="47.07527" lon="-1.06711">
        <ele>110</ele>
        <time>2021-03-25T00:30:06Z</time>
      </trkpt>
      <trkpt lat="47.07519" lon="-1.0669">
        <ele>110</ele>
        <time>2021-03-25T00:30:09Z</time>
      </trkpt>
      <trkpt lat="47.07512" lon="-1.06666">
        <ele>109</ele>
        <time>2021-03-25T00:30:12Z</time>
      </trkpt>
      <trkpt lat="47.07486" lon="-1.06527">
        <ele>111</ele>
        <time>2021-03-25T00:30:30Z</time>
      </trkpt>
      <trkpt lat="47.07467" lon="-1.06447">
        <ele>112</ele>
        <time>2021-03-25T00:30:40Z</time>
      </trkpt>
      <trkpt lat="47.07428" lon="-1.06344">
        <ele>113</ele>
        <time>2021-03-25T00:30:54Z</time>
      </trkpt>
      <trkpt lat="47.07418" lon="-1.06315">
        <ele>113</ele>
        <time>2021-03-25T00:30:58Z</time>
      </trkpt>
      <trkpt lat="47.07352" lon="-1.06058">
        <ele>115</ele>
        <time>2021-03-25T00:31:32Z</time>
      </trkpt>
      <trkpt lat="47.07329" lon="-1.06001">
        <ele>115</ele>
        <time>2021-03-25T00:31:40Z</time>
      </trkpt>
      <trkpt lat="47.07276" lon="-1.05886">
        <ele>116</ele>
        <time>2021-03-25T00:31:56Z</time>
      </trkpt>
      <trkpt lat="47.07261" lon="-1.05847">
        <ele>115</ele>
        <time>2021-03-25T00:32:02Z</time>
      </trkpt>
      <trkpt lat="47.07255" lon="-1.05824">
        <ele>115</ele>
        <time>2021-03-25T00:32:05Z</time>
      </trkpt>
      <trkpt lat="47.07192" lon="-1.05472">
        <ele>104</ele>
        <time>2021-03-25T00:32:49Z</time>
      </trkpt>
      <trkpt lat="47.07189" lon="-1.05423">
        <ele>103</ele>
        <time>2021-03-25T00:32:55Z</time>
      </trkpt>
      <trkpt lat="47.0719" lon="-1.0536">
        <ele>101</ele>
        <time>2021-03-25T00:33:02Z</time>
      </trkpt>
      <trkpt lat="47.07208" lon="-1.05121">
        <ele>102</ele>
        <time>2021-03-25T00:33:32Z</time>
      </trkpt>
      <trkpt lat="47.07208" lon="-1.05077">
        <ele>105</ele>
        <time>2021-03-25T00:33:37Z</time>
      </trkpt>
      <trkpt lat="47.07202" lon="-1.05032">
        <ele>106</ele>
        <time>2021-03-25T00:33:42Z</time>
      </trkpt>
      <trkpt lat="47.07192" lon="-1.04992">
        <ele>107</ele>
        <time>2021-03-25T00:33:48Z</time>
      </trkpt>
      <trkpt lat="47.07168" lon="-1.04925">
        <ele>109</ele>
        <time>2021-03-25T00:33:57Z</time>
      </trkpt>
      <trkpt lat="47.07144" lon="-1.04872">
        <ele>110</ele>
        <time>2021-03-25T00:34:05Z</time>
      </trkpt>
      <trkpt lat="47.07122" lon="-1.04832">
        <ele>111</ele>
        <time>2021-03-25T00:34:11Z</time>
      </trkpt>
      <trkpt lat="47.07111" lon="-1.04815">
        <ele>112</ele>
        <time>2021-03-25T00:34:14Z</time>
      </trkpt>
      <trkpt lat="47.07081" lon="-1.04779">
        <ele>112</ele>
        <time>2021-03-25T00:34:21Z</time>
      </trkpt>
      <trkpt lat="47.07045" lon="-1.04747">
        <ele>113</ele>
        <time>2021-03-25T00:34:28Z</time>
      </trkpt>
      <trkpt lat="47.06946" lon="-1.04686">
        <ele>115</ele>
        <time>2021-03-25T00:34:47Z</time>
      </trkpt>
      <trkpt lat="47.06891" lon="-1.04646">
        <ele>115</ele>
        <time>2021-03-25T00:34:58Z</time>
      </trkpt>
      <trkpt lat="47.06583" lon="-1.04409">
        <ele>124</ele>
        <time>2021-03-25T00:36:00Z</time>
      </trkpt>
      <trkpt lat="47.06564" lon="-1.04387">
        <ele>125</ele>
        <time>2021-03-25T00:36:04Z</time>
      </trkpt>
      <trkpt lat="47.06536" lon="-1.04352">
        <ele>126</ele>
        <time>2021-03-25T00:36:11Z</time>
      </trkpt>
      <trkpt lat="47.06491" lon="-1.04281">
        <ele>127</ele>
        <time>2021-03-25T00:36:23Z</time>
      </trkpt>
      <trkpt lat="47.06469" lon="-1.04233">
        <ele>127</ele>
        <time>2021-03-25T00:36:30Z</time>
      </trkpt>
      <trkpt lat="47.06457" lon="-1.04191">
        <ele>126</ele>
        <time>2021-03-25T00:36:35Z</time>
      </trkpt>
      <trkpt lat="47.06451" lon="-1.04166">
        <ele>125</ele>
        <time>2021-03-25T00:36:38Z</time>
      </trkpt>
      <trkpt lat="47.06445" lon="-1.04128">
        <ele>125</ele>
        <time>2021-03-25T00:36:43Z</time>
      </trkpt>
      <trkpt lat="47.06437" lon="-1.04044">
        <ele>124</ele>
        <time>2021-03-25T00:36:53Z</time>
      </trkpt>
      <trkpt lat="47.06435" lon="-1.03997">
        <ele>125</ele>
        <time>2021-03-25T00:36:59Z</time>
      </trkpt>
      <trkpt lat="47.06434" lon="-1.03938">
        <ele>123</ele>
        <time>2021-03-25T00:37:06Z</time>
      </trkpt>
      <trkpt lat="47.06439" lon="-1.03893">
        <ele>123</ele>
        <time>2021-03-25T00:37:12Z</time>
      </trkpt>
      <trkpt lat="47.06445" lon="-1.03859">
        <ele>123</ele>
        <time>2021-03-25T00:37:16Z</time>
      </trkpt>
      <trkpt lat="47.0646" lon="-1.03801">
        <ele>122</ele>
        <time>2021-03-25T00:37:23Z</time>
      </trkpt>
      <trkpt lat="47.06468" lon="-1.03759">
        <ele>121</ele>
        <time>2021-03-25T00:37:29Z</time>
      </trkpt>
      <trkpt lat="47.06472" lon="-1.03721">
        <ele>121</ele>
        <time>2021-03-25T00:37:33Z</time>
      </trkpt>
      <trkpt lat="47.06472" lon="-1.03658">
        <ele>121</ele>
        <time>2021-03-25T00:37:41Z</time>
      </trkpt>
      <trkpt lat="47.0647" lon="-1.03635">
        <ele>121</ele>
        <time>2021-03-25T00:37:44Z</time>
      </trkpt>
      <trkpt lat="47.06445" lon="-1.03283">
        <ele>117</ele>
        <time>2021-03-25T00:38:27Z</time>
      </trkpt>
      <trkpt lat="47.06439" lon="-1.03244">
        <ele>117</ele>
        <time>2021-03-25T00:38:32Z</time>
      </trkpt>
      <trkpt lat="47.06425" lon="-1.03173">
        <ele>116</ele>
        <time>2021-03-25T00:38:41Z</time>
      </trkpt>
      <trkpt lat="47.06417" lon="-1.03124">
        <ele>114</ele>
        <time>2021-03-25T00:38:47Z</time>
      </trkpt>
      <trkpt lat="47.06413" lon="-1.03125">
        <ele>115</ele>
        <time>2021-03-25T00:38:47Z</time>
      </trkpt>
      <trkpt lat="47.06405" lon="-1.03121">
        <ele>115</ele>
        <time>2021-03-25T00:38:49Z</time>
      </trkpt>
      <trkpt lat="47.06401" lon="-1.03111">
        <ele>114</ele>
        <time>2021-03-25T00:38:50Z</time>
      </trkpt>
      <trkpt lat="47.06401" lon="-1.03099">
        <ele>114</ele>
        <time>2021-03-25T00:38:52Z</time>
      </trkpt>
      <trkpt lat="47.06407" lon="-1.03089">
        <ele>113</ele>
        <time>2021-03-25T00:38:53Z</time>
      </trkpt>
      <trkpt lat="47.06411" lon="-1.03087">
        <ele>113</ele>
        <time>2021-03-25T00:38:54Z</time>
      </trkpt>
      <trkpt lat="47.06371" lon="-1.02887">
        <ele>112</ele>
        <time>2021-03-25T00:39:19Z</time>
      </trkpt>
      <trkpt lat="47.06356" lon="-1.0284">
        <ele>112</ele>
        <time>2021-03-25T00:39:26Z</time>
      </trkpt>
      <trkpt lat="47.06302" lon="-1.02694">
        <ele>109</ele>
        <time>2021-03-25T00:39:46Z</time>
      </trkpt>
      <trkpt lat="47.06288" lon="-1.0266">
        <ele>108</ele>
        <time>2021-03-25T00:39:51Z</time>
      </trkpt>
      <trkpt lat="47.06278" lon="-1.02641">
        <ele>107</ele>
        <time>2021-03-25T00:39:53Z</time>
      </trkpt>
      <trkpt lat="47.06211" lon="-1.0253">
        <ele>105</ele>
        <time>2021-03-25T00:40:11Z</time>
      </trkpt>
      <trkpt lat="47.06094" lon="-1.02348">
        <ele>105</ele>
        <time>2021-03-25T00:40:42Z</time>
      </trkpt>
      <trkpt lat="47.06085" lon="-1.0234">
        <ele>105</ele>
        <time>2021-03-25T00:40:44Z</time>
      </trkpt>
      <trkpt lat="47.06077" lon="-1.02337">
        <ele>105</ele>
        <time>2021-03-25T00:40:45Z</time>
      </trkpt>
      <trkpt lat="47.0608" lon="-1.02318">
        <ele>105</ele>
        <time>2021-03-25T00:40:47Z</time>
      </trkpt>
      <trkpt lat="47.06079" lon="-1.02268">
        <ele>104</ele>
        <time>2021-03-25T00:40:54Z</time>
      </trkpt>
      <trkpt lat="47.0604" lon="-1.02013">
        <ele>97</ele>
        <time>2021-03-25T00:41:25Z</time>
      </trkpt>
      <trkpt lat="47.06029" lon="-1.01911">
        <ele>94</ele>
        <time>2021-03-25T00:41:38Z</time>
      </trkpt>
      <trkpt lat="47.05986" lon="-1.01449">
        <ele>94</ele>
        <time>2021-03-25T00:42:34Z</time>
      </trkpt>
      <trkpt lat="47.05958" lon="-1.01231">
        <ele>91</ele>
        <time>2021-03-25T00:43:01Z</time>
      </trkpt>
      <trkpt lat="47.05942" lon="-1.01159">
        <ele>90</ele>
        <time>2021-03-25T00:43:10Z</time>
      </trkpt>
      <trkpt lat="47.05937" lon="-1.01115">
        <ele>90</ele>
        <time>2021-03-25T00:43:16Z</time>
      </trkpt>
      <trkpt lat="47.05931" lon="-1.01099">
        <ele>91</ele>
        <time>2021-03-25T00:43:18Z</time>
      </trkpt>
      <trkpt lat="47.05903" lon="-1.01089">
        <ele>91</ele>
        <time>2021-03-25T00:43:23Z</time>
      </trkpt>
      <trkpt lat="47.05886" lon="-1.01105">
        <ele>91</ele>
        <time>2021-03-25T00:43:27Z</time>
      </trkpt>
      <trkpt lat="47.05868" lon="-1.01118">
        <ele>90</ele>
        <time>2021-03-25T00:43:30Z</time>
      </trkpt>
      <trkpt lat="47.05843" lon="-1.01142">
        <ele>91</ele>
        <time>2021-03-25T00:43:36Z</time>
      </trkpt>
      <trkpt lat="47.05827" lon="-1.0116">
        <ele>91</ele>
        <time>2021-03-25T00:43:39Z</time>
      </trkpt>
      <trkpt lat="47.05814" lon="-1.01177">
        <ele>91</ele>
        <time>2021-03-25T00:43:42Z</time>
      </trkpt>
      <trkpt lat="47.05795" lon="-1.01209">
        <ele>92</ele>
        <time>2021-03-25T00:43:47Z</time>
      </trkpt>
      <trkpt lat="47.05661" lon="-1.01447">
        <ele>98</ele>
        <time>2021-03-25T00:44:25Z</time>
      </trkpt>
      <trkpt lat="47.0561" lon="-1.01388">
        <ele>100</ele>
        <time>2021-03-25T00:44:36Z</time>
      </trkpt>
      <trkpt lat="47.0558" lon="-1.0134">
        <ele>102</ele>
        <time>2021-03-25T00:44:44Z</time>
      </trkpt>
      <trkpt lat="47.05554" lon="-1.01291">
        <ele>101</ele>
        <time>2021-03-25T00:44:52Z</time>
      </trkpt>
      <trkpt lat="47.05538" lon="-1.01255">
        <ele>101</ele>
        <time>2021-03-25T00:44:57Z</time>
      </trkpt>
      <trkpt lat="47.05531" lon="-1.01235">
        <ele>100</ele>
        <time>2021-03-25T00:45:00Z</time>
      </trkpt>
      <trkpt lat="47.05523" lon="-1.01203">
        <ele>99</ele>
        <time>2021-03-25T00:45:04Z</time>
      </trkpt>
      <trkpt lat="47.05515" lon="-1.0114">
        <ele>97</ele>
        <time>2021-03-25T00:45:12Z</time>
      </trkpt>
      <trkpt lat="47.05507" lon="-1.01099">
        <ele>97</ele>
        <time>2021-03-25T00:45:17Z</time>
      </trkpt>
      <trkpt lat="47.05495" lon="-1.01072">
        <ele>98</ele>
        <time>2021-03-25T00:45:21Z</time>
      </trkpt>
      <trkpt lat="47.0538" lon="-1.009">
        <ele>103</ele>
        <time>2021-03-25T00:45:50Z</time>
      </trkpt>
      <trkpt lat="47.0537" lon="-1.00889">
        <ele>103</ele>
        <time>2021-03-25T00:45:52Z</time>
      </trkpt>
      <trkpt lat="47.05311" lon="-1.00843">
        <ele>104</ele>
        <time>2021-03-25T00:46:04Z</time>
      </trkpt>
      <trkpt lat="47.05298" lon="-1.0083">
        <ele>104</ele>
        <time>2021-03-25T00:46:07Z</time>
      </trkpt>
      <trkpt lat="47.05286" lon="-1.00812">
        <ele>104</ele>
        <time>2021-03-25T00:46:10Z</time>
      </trkpt>
      <trkpt lat="47.05271" lon="-1.00787">
        <ele>104</ele>
        <time>2021-03-25T00:46:14Z</time>
      </trkpt>
      <trkpt lat="47.05141" lon="-1.00505">
        <ele>106</ele>
        <time>2021-03-25T00:46:55Z</time>
      </trkpt>
      <trkpt lat="47.05121" lon="-1.00456">
        <ele>106</ele>
        <time>2021-03-25T00:47:02Z</time>
      </trkpt>
      <trkpt lat="47.05107" lon="-1.00406">
        <ele>106</ele>
        <time>2021-03-25T00:47:09Z</time>
      </trkpt>
      <trkpt lat="47.05064" lon="-1.00212">
        <ele>104</ele>
        <time>2021-03-25T00:47:33Z</time>
      </trkpt>
      <trkpt lat="47.0494" lon="-0.99725">
        <ele>95</ele>
        <time>2021-03-25T00:48:36Z</time>
      </trkpt>
      <trkpt lat="47.0492" lon="-0.9968">
        <ele>95</ele>
        <time>2021-03-25T00:48:43Z</time>
      </trkpt>
      <trkpt lat="47.0484" lon="-0.99581">
        <ele>96</ele>
        <time>2021-03-25T00:49:02Z</time>
      </trkpt>
      <trkpt lat="47.0482" lon="-0.99553">
        <ele>95</ele>
        <time>2021-03-25T00:49:06Z</time>
      </trkpt>
      <trkpt lat="47.04798" lon="-0.99518">
        <ele>94</ele>
        <time>2021-03-25T00:49:12Z</time>
      </trkpt>
      <trkpt lat="47.04641" lon="-0.99216">
        <ele>94</ele>
        <time>2021-03-25T00:49:58Z</time>
      </trkpt>
      <trkpt lat="47.04628" lon="-0.99184">
        <ele>94</ele>
        <time>2021-03-25T00:50:03Z</time>
      </trkpt>
      <trkpt lat="47.04613" lon="-0.99137">
        <ele>94</ele>
        <time>2021-03-25T00:50:09Z</time>
      </trkpt>
      <trkpt lat="47.04601" lon="-0.99089">
        <ele>93</ele>
        <time>2021-03-25T00:50:15Z</time>
      </trkpt>
      <trkpt lat="47.04586" lon="-0.98962">
        <ele>91</ele>
        <time>2021-03-25T00:50:31Z</time>
      </trkpt>
      <trkpt lat="47.04577" lon="-0.98909">
        <ele>91</ele>
        <time>2021-03-25T00:50:38Z</time>
      </trkpt>
      <trkpt lat="47.04555" lon="-0.9882">
        <ele>90</ele>
        <time>2021-03-25T00:50:49Z</time>
      </trkpt>
      <trkpt lat="47.04528" lon="-0.98652">
        <ele>88</ele>
        <time>2021-03-25T00:51:10Z</time>
      </trkpt>
      <trkpt lat="47.04525" lon="-0.9861">
        <ele>88</ele>
        <time>2021-03-25T00:51:15Z</time>
      </trkpt>
      <trkpt lat="47.04532" lon="-0.98534">
        <ele>88</ele>
        <time>2021-03-25T00:51:24Z</time>
      </trkpt>
      <trkpt lat="47.04531" lon="-0.98517">
        <ele>88</ele>
        <time>2021-03-25T00:51:26Z</time>
      </trkpt>
      <trkpt lat="47.04528" lon="-0.98498">
        <ele>88</ele>
        <time>2021-03-25T00:51:29Z</time>
      </trkpt>
      <trkpt lat="47.04521" lon="-0.98476">
        <ele>88</ele>
        <time>2021-03-25T00:51:32Z</time>
      </trkpt>
      <trkpt lat="47.0446" lon="-0.98338">
        <ele>85</ele>
        <time>2021-03-25T00:51:52Z</time>
      </trkpt>
      <trkpt lat="47.04427" lon="-0.98255">
        <ele>85</ele>
        <time>2021-03-25T00:52:03Z</time>
      </trkpt>
      <trkpt lat="47.04367" lon="-0.98082">
        <ele>84</ele>
        <time>2021-03-25T00:52:27Z</time>
      </trkpt>
      <trkpt lat="47.04351" lon="-0.98042">
        <ele>84</ele>
        <time>2021-03-25T00:52:33Z</time>
      </trkpt>
      <trkpt lat="47.04284" lon="-0.97903">
        <ele>82</ele>
        <time>2021-03-25T00:52:53Z</time>
      </trkpt>
      <trkpt lat="47.0427" lon="-0.97862">
        <ele>82</ele>
        <time>2021-03-25T00:52:59Z</time>
      </trkpt>
      <trkpt lat="47.04245" lon="-0.97766">
        <ele>81</ele>
        <time>2021-03-25T00:53:11Z</time>
      </trkpt>
      <trkpt lat="47.04236" lon="-0.9771">
        <ele>80</ele>
        <time>2021-03-25T00:53:18Z</time>
      </trkpt>
      <trkpt lat="47.04235" lon="-0.97686">
        <ele>79</ele>
        <time>2021-03-25T00:53:21Z</time>
      </trkpt>
      <trkpt lat="47.04243" lon="-0.97599">
        <ele>78</ele>
        <time>2021-03-25T00:53:32Z</time>
      </trkpt>
      <trkpt lat="47.04241" lon="-0.97575">
        <ele>78</ele>
        <time>2021-03-25T00:53:35Z</time>
      </trkpt>
      <trkpt lat="47.04238" lon="-0.97564">
        <ele>78</ele>
        <time>2021-03-25T00:53:36Z</time>
      </trkpt>
      <trkpt lat="47.04219" lon="-0.97533">
        <ele>77</ele>
        <time>2021-03-25T00:53:41Z</time>
      </trkpt>
      <trkpt lat="47.04159" lon="-0.97454">
        <ele>79</ele>
        <time>2021-03-25T00:53:56Z</time>
      </trkpt>
      <trkpt lat="47.0412" lon="-0.97394">
        <ele>81</ele>
        <time>2021-03-25T00:54:06Z</time>
      </trkpt>
      <trkpt lat="47.04096" lon="-0.97348">
        <ele>81</ele>
        <time>2021-03-25T00:54:13Z</time>
      </trkpt>
      <trkpt lat="47.04043" lon="-0.97231">
        <ele>79</ele>
        <time>2021-03-25T00:54:30Z</time>
      </trkpt>
      <trkpt lat="47.04013" lon="-0.97169">
        <ele>79</ele>
        <time>2021-03-25T00:54:39Z</time>
      </trkpt>
      <trkpt lat="47.03963" lon="-0.97082">
        <ele>79</ele>
        <time>2021-03-25T00:54:53Z</time>
      </trkpt>
      <trkpt lat="47.03929" lon="-0.97005">
        <ele>82</ele>
        <time>2021-03-25T00:55:04Z</time>
      </trkpt>
      <trkpt lat="47.03918" lon="-0.96985">
        <ele>83</ele>
        <time>2021-03-25T00:55:07Z</time>
      </trkpt>
      <trkpt lat="47.03891" lon="-0.96946">
        <ele>85</ele>
        <time>2021-03-25T00:55:14Z</time>
      </trkpt>
      <trkpt lat="47.03883" lon="-0.96931">
        <ele>85</ele>
        <time>2021-03-25T00:55:16Z</time>
      </trkpt>
      <trkpt lat="47.03872" lon="-0.96908">
        <ele>85</ele>
        <time>2021-03-25T00:55:19Z</time>
      </trkpt>
      <trkpt lat="47.0386" lon="-0.96856">
        <ele>86</ele>
        <time>2021-03-25T00:55:26Z</time>
      </trkpt>
      <trkpt lat="47.03848" lon="-0.96832">
        <ele>87</ele>
        <time>2021-03-25T00:55:30Z</time>
      </trkpt>
      <trkpt lat="47.03773" lon="-0.96742">
        <ele>90</ele>
        <time>2021-03-25T00:55:47Z</time>
      </trkpt>
      <trkpt lat="47.03632" lon="-0.96528">
        <ele>94</ele>
        <time>2021-03-25T00:56:23Z</time>
      </trkpt>
      <trkpt lat="47.03623" lon="-0.96509">
        <ele>94</ele>
        <time>2021-03-25T00:56:26Z</time>
      </trkpt>
      <trkpt lat="47.03603" lon="-0.96453">
        <ele>95</ele>
        <time>2021-03-25T00:56:33Z</time>
      </trkpt>
      <trkpt lat="47.03588" lon="-0.96414">
        <ele>96</ele>
        <time>2021-03-25T00:56:39Z</time>
      </trkpt>
      <trkpt lat="47.03459" lon="-0.9612">
        <ele>96</ele>
        <time>2021-03-25T00:57:21Z</time>
      </trkpt>
      <trkpt lat="47.03432" lon="-0.96065">
        <ele>96</ele>
        <time>2021-03-25T00:57:29Z</time>
      </trkpt>
      <trkpt lat="47.0341" lon="-0.96031">
        <ele>96</ele>
        <time>2021-03-25T00:57:35Z</time>
      </trkpt>
      <trkpt lat="47.03241" lon="-0.95799">
        <ele>100</ele>
        <time>2021-03-25T00:58:16Z</time>
      </trkpt>
      <trkpt lat="47.03219" lon="-0.95778">
        <ele>100</ele>
        <time>2021-03-25T00:58:21Z</time>
      </trkpt>
      <trkpt lat="47.03197" lon="-0.95763">
        <ele>101</ele>
        <time>2021-03-25T00:58:25Z</time>
      </trkpt>
      <trkpt lat="47.03146" lon="-0.95737">
        <ele>101</ele>
        <time>2021-03-25T00:58:35Z</time>
      </trkpt>
      <trkpt lat="47.03124" lon="-0.9572">
        <ele>101</ele>
        <time>2021-03-25T00:58:39Z</time>
      </trkpt>
      <trkpt lat="47.03103" lon="-0.95697">
        <ele>101</ele>
        <time>2021-03-25T00:58:44Z</time>
      </trkpt>
      <trkpt lat="47.03078" lon="-0.95663">
        <ele>101</ele>
        <time>2021-03-25T00:58:50Z</time>
      </trkpt>
      <trkpt lat="47.0306" lon="-0.95635">
        <ele>101</ele>
        <time>2021-03-25T00:58:55Z</time>
      </trkpt>
      <trkpt lat="47.03046" lon="-0.95607">
        <ele>101</ele>
        <time>2021-03-25T00:58:59Z</time>
      </trkpt>
      <trkpt lat="47.02961" lon="-0.95376">
        <ele>99</ele>
        <time>2021-03-25T00:59:31Z</time>
      </trkpt>
      <trkpt lat="47.02924" lon="-0.95292">
        <ele>98</ele>
        <time>2021-03-25T00:59:43Z</time>
      </trkpt>
      <trkpt lat="47.02834" lon="-0.95068">
        <ele>98</ele>
        <time>2021-03-25T01:00:14Z</time>
      </trkpt>
      <trkpt lat="47.02815" lon="-0.95027">
        <ele>98</ele>
        <time>2021-03-25T01:00:20Z</time>
      </trkpt>
      <trkpt lat="47.02757" lon="-0.94932">
        <ele>97</ele>
        <time>2021-03-25T01:00:36Z</time>
      </trkpt>
      <trkpt lat="47.02733" lon="-0.9488">
        <ele>96</ele>
        <time>2021-03-25T01:00:44Z</time>
      </trkpt>
      <trkpt lat="47.02663" lon="-0.94705">
        <ele>99</ele>
        <time>2021-03-25T01:01:08Z</time>
      </trkpt>
      <trkpt lat="47.02752" lon="-0.94615">
        <ele>99</ele>
        <time>2021-03-25T01:01:27Z</time>
      </trkpt>
      <trkpt lat="47.02761" lon="-0.94601">
        <ele>98</ele>
        <time>2021-03-25T01:01:30Z</time>
      </trkpt>
      <trkpt lat="47.02748" lon="-0.94581">
        <ele>99</ele>
        <time>2021-03-25T01:01:33Z</time>
      </trkpt>
      <trkpt lat="47.02744" lon="-0.94547">
        <ele>99</ele>
        <time>2021-03-25T01:01:37Z</time>
      </trkpt>
      <trkpt lat="47.02743" lon="-0.94485">
        <ele>99</ele>
        <time>2021-03-25T01:01:45Z</time>
      </trkpt>
      <trkpt lat="47.0274" lon="-0.94466">
        <ele>98</ele>
        <time>2021-03-25T01:01:47Z</time>
      </trkpt>
      <trkpt lat="47.02731" lon="-0.94425">
        <ele>98</ele>
        <time>2021-03-25T01:01:52Z</time>
      </trkpt>
      <trkpt lat="47.02723" lon="-0.94401">
        <ele>97</ele>
        <time>2021-03-25T01:01:56Z</time>
      </trkpt>
      <trkpt lat="47.02717" lon="-0.9439">
        <ele>97</ele>
        <time>2021-03-25T01:01:57Z</time>
      </trkpt>
      <trkpt lat="47.02709" lon="-0.94378">
        <ele>97</ele>
        <time>2021-03-25T01:01:59Z</time>
      </trkpt>
      <trkpt lat="47.02688" lon="-0.94358">
        <ele>97</ele>
        <time>2021-03-25T01:02:04Z</time>
      </trkpt>
      <trkpt lat="47.02678" lon="-0.94352">
        <ele>97</ele>
        <time>2021-03-25T01:02:06Z</time>
      </trkpt>
      <trkpt lat="47.02671" lon="-0.94355">
        <ele>97</ele>
        <time>2021-03-25T01:02:07Z</time>
      </trkpt>
      <trkpt lat="47.02669" lon="-0.94352">
        <ele>97</ele>
        <time>2021-03-25T01:02:08Z</time>
      </trkpt>
      <trkpt lat="47.02669" lon="-0.94346">
        <ele>97</ele>
        <time>2021-03-25T01:02:08Z</time>
      </trkpt>
      <trkpt lat="47.02625" lon="-0.94308">
        <ele>98</ele>
        <time>2021-03-25T01:02:17Z</time>
      </trkpt>
      <trkpt lat="47.02591" lon="-0.9428">
        <ele>98</ele>
        <time>2021-03-25T01:02:24Z</time>
      </trkpt>
      <trkpt lat="47.02578" lon="-0.94265">
        <ele>98</ele>
        <time>2021-03-25T01:02:27Z</time>
      </trkpt>
      <trkpt lat="47.02516" lon="-0.94149">
        <ele>97</ele>
        <time>2021-03-25T01:02:45Z</time>
      </trkpt>
      <trkpt lat="47.02494" lon="-0.94114">
        <ele>98</ele>
        <time>2021-03-25T01:02:51Z</time>
      </trkpt>
      <trkpt lat="47.02276" lon="-0.93863">
        <ele>89</ele>
        <time>2021-03-25T01:03:40Z</time>
      </trkpt>
      <trkpt lat="47.02248" lon="-0.93828">
        <ele>88</ele>
        <time>2021-03-25T01:03:47Z</time>
      </trkpt>
      <trkpt lat="47.02233" lon="-0.93794">
        <ele>87</ele>
        <time>2021-03-25T01:03:52Z</time>
      </trkpt>
      <trkpt lat="47.02225" lon="-0.93755">
        <ele>86</ele>
        <time>2021-03-25T01:03:57Z</time>
      </trkpt>
      <trkpt lat="47.0222" lon="-0.93698">
        <ele>87</ele>
        <time>2021-03-25T01:04:04Z</time>
      </trkpt>
      <trkpt lat="47.02216" lon="-0.93674">
        <ele>88</ele>
        <time>2021-03-25T01:04:07Z</time>
      </trkpt>
      <trkpt lat="47.02211" lon="-0.93656">
        <ele>88</ele>
        <time>2021-03-25T01:04:09Z</time>
      </trkpt>
      <trkpt lat="47.02094" lon="-0.93424">
        <ele>98</ele>
        <time>2021-03-25T01:04:44Z</time>
      </trkpt>
      <trkpt lat="47.02061" lon="-0.9337">
        <ele>98</ele>
        <time>2021-03-25T01:04:53Z</time>
      </trkpt>
      <trkpt lat="47.01996" lon="-0.93249">
        <ele>99</ele>
        <time>2021-03-25T01:05:11Z</time>
      </trkpt>
      <trkpt lat="47.01955" lon="-0.93186">
        <ele>99</ele>
        <time>2021-03-25T01:05:22Z</time>
      </trkpt>
      <trkpt lat="47.01915" lon="-0.93129">
        <ele>100</ele>
        <time>2021-03-25T01:05:32Z</time>
      </trkpt>
      <trkpt lat="47.01798" lon="-0.92972">
        <ele>100</ele>
        <time>2021-03-25T01:06:00Z</time>
      </trkpt>
      <trkpt lat="47.01721" lon="-0.92872">
        <ele>103</ele>
        <time>2021-03-25T01:06:18Z</time>
      </trkpt>
      <trkpt lat="47.01684" lon="-0.9283">
        <ele>104</ele>
        <time>2021-03-25T01:06:27Z</time>
      </trkpt>
      <trkpt lat="47.01665" lon="-0.92814">
        <ele>105</ele>
        <time>2021-03-25T01:06:31Z</time>
      </trkpt>
      <trkpt lat="47.01659" lon="-0.9281">
        <ele>104</ele>
        <time>2021-03-25T01:06:32Z</time>
      </trkpt>
      <trkpt lat="47.01652" lon="-0.92809">
        <ele>104</ele>
        <time>2021-03-25T01:06:33Z</time>
      </trkpt>
      <trkpt lat="47.01647" lon="-0.92812">
        <ele>104</ele>
        <time>2021-03-25T01:06:34Z</time>
      </trkpt>
      <trkpt lat="47.01636" lon="-0.92812">
        <ele>104</ele>
        <time>2021-03-25T01:06:36Z</time>
      </trkpt>
      <trkpt lat="47.01631" lon="-0.92809">
        <ele>104</ele>
        <time>2021-03-25T01:06:37Z</time>
      </trkpt>
      <trkpt lat="47.01627" lon="-0.92804">
        <ele>104</ele>
        <time>2021-03-25T01:06:38Z</time>
      </trkpt>
      <trkpt lat="47.01622" lon="-0.92788">
        <ele>104</ele>
        <time>2021-03-25T01:06:40Z</time>
      </trkpt>
      <trkpt lat="47.01623" lon="-0.92779">
        <ele>104</ele>
        <time>2021-03-25T01:06:41Z</time>
      </trkpt>
      <trkpt lat="47.01611" lon="-0.92753">
        <ele>104</ele>
        <time>2021-03-25T01:06:45Z</time>
      </trkpt>
      <trkpt lat="47.01592" lon="-0.92738">
        <ele>105</ele>
        <time>2021-03-25T01:06:49Z</time>
      </trkpt>
      <trkpt lat="47.01526" lon="-0.92671">
        <ele>105</ele>
        <time>2021-03-25T01:07:03Z</time>
      </trkpt>
      <trkpt lat="47.01513" lon="-0.92666">
        <ele>105</ele>
        <time>2021-03-25T01:07:05Z</time>
      </trkpt>
      <trkpt lat="47.01493" lon="-0.92665">
        <ele>105</ele>
        <time>2021-03-25T01:07:09Z</time>
      </trkpt>
      <trkpt lat="47.01487" lon="-0.92658">
        <ele>105</ele>
        <time>2021-03-25T01:07:10Z</time>
      </trkpt>
      <trkpt lat="47.01484" lon="-0.92652">
        <ele>105</ele>
        <time>2021-03-25T01:07:11Z</time>
      </trkpt>
      <trkpt lat="47.01484" lon="-0.92642">
        <ele>105</ele>
        <time>2021-03-25T01:07:12Z</time>
      </trkpt>
      <trkpt lat="47.0148" lon="-0.92635">
        <ele>105</ele>
        <time>2021-03-25T01:07:14Z</time>
      </trkpt>
      <trkpt lat="47.01474" lon="-0.92626">
        <ele>106</ele>
        <time>2021-03-25T01:07:15Z</time>
      </trkpt>
      <trkpt lat="47.01462" lon="-0.92613">
        <ele>106</ele>
        <time>2021-03-25T01:07:18Z</time>
      </trkpt>
      <trkpt lat="47.01401" lon="-0.92564">
        <ele>108</ele>
        <time>2021-03-25T01:07:30Z</time>
      </trkpt>
      <trkpt lat="47.01363" lon="-0.92538">
        <ele>109</ele>
        <time>2021-03-25T01:07:38Z</time>
      </trkpt>
      <trkpt lat="47.01352" lon="-0.92535">
        <ele>109</ele>
        <time>2021-03-25T01:07:40Z</time>
      </trkpt>
      <trkpt lat="47.01287" lon="-0.92532">
        <ele>108</ele>
        <time>2021-03-25T01:07:51Z</time>
      </trkpt>
      <trkpt lat="47.01265" lon="-0.92525">
        <ele>108</ele>
        <time>2021-03-25T01:07:55Z</time>
      </trkpt>
      <trkpt lat="47.01231" lon="-0.92506">
        <ele>108</ele>
        <time>2021-03-25T01:08:02Z</time>
      </trkpt>
      <trkpt lat="47.01211" lon="-0.9249">
        <ele>109</ele>
        <time>2021-03-25T01:08:06Z</time>
      </trkpt>
      <trkpt lat="47.01145" lon="-0.92419">
        <ele>111</ele>
        <time>2021-03-25T01:08:20Z</time>
      </trkpt>
      <trkpt lat="47.0105" lon="-0.9233">
        <ele>110</ele>
        <time>2021-03-25T01:08:40Z</time>
      </trkpt>
      <trkpt lat="47.01041" lon="-0.92317">
        <ele>110</ele>
        <time>2021-03-25T01:08:43Z</time>
      </trkpt>
      <trkpt lat="47.01034" lon="-0.92304">
        <ele>110</ele>
        <time>2021-03-25T01:08:45Z</time>
      </trkpt>
      <trkpt lat="47.01027" lon="-0.92285">
        <ele>110</ele>
        <time>2021-03-25T01:08:47Z</time>
      </trkpt>
      <trkpt lat="47.01008" lon="-0.9222">
        <ele>111</ele>
        <time>2021-03-25T01:08:56Z</time>
      </trkpt>
      <trkpt lat="47.01002" lon="-0.92188">
        <ele>111</ele>
        <time>2021-03-25T01:09:00Z</time>
      </trkpt>
      <trkpt lat="47.00997" lon="-0.92147">
        <ele>111</ele>
        <time>2021-03-25T01:09:05Z</time>
      </trkpt>
      <trkpt lat="47.00989" lon="-0.92012">
        <ele>113</ele>
        <time>2021-03-25T01:09:21Z</time>
      </trkpt>
      <trkpt lat="47.00986" lon="-0.9199">
        <ele>113</ele>
        <time>2021-03-25T01:09:24Z</time>
      </trkpt>
      <trkpt lat="47.00979" lon="-0.91959">
        <ele>113</ele>
        <time>2021-03-25T01:09:28Z</time>
      </trkpt>
      <trkpt lat="47.00956" lon="-0.91888">
        <ele>112</ele>
        <time>2021-03-25T01:09:38Z</time>
      </trkpt>
      <trkpt lat="47.00933" lon="-0.91832">
        <ele>111</ele>
        <time>2021-03-25T01:09:45Z</time>
      </trkpt>
      <trkpt lat="47.00899" lon="-0.91763">
        <ele>111</ele>
        <time>2021-03-25T01:09:56Z</time>
      </trkpt>
      <trkpt lat="47.00854" lon="-0.91682">
        <ele>111</ele>
        <time>2021-03-25T01:10:08Z</time>
      </trkpt>
      <trkpt lat="47.00836" lon="-0.91643">
        <ele>111</ele>
        <time>2021-03-25T01:10:14Z</time>
      </trkpt>
      <trkpt lat="47.00813" lon="-0.91581">
        <ele>113</ele>
        <time>2021-03-25T01:10:23Z</time>
      </trkpt>
      <trkpt lat="47.00789" lon="-0.91511">
        <ele>114</ele>
        <time>2021-03-25T01:10:32Z</time>
      </trkpt>
      <trkpt lat="47.0078" lon="-0.91465">
        <ele>115</ele>
        <time>2021-03-25T01:10:38Z</time>
      </trkpt>
      <trkpt lat="47.00778" lon="-0.91438">
        <ele>115</ele>
        <time>2021-03-25T01:10:41Z</time>
      </trkpt>
      <trkpt lat="47.00778" lon="-0.91382">
        <ele>116</ele>
        <time>2021-03-25T01:10:48Z</time>
      </trkpt>
      <trkpt lat="47.00777" lon="-0.91351">
        <ele>117</ele>
        <time>2021-03-25T01:10:52Z</time>
      </trkpt>
      <trkpt lat="47.00764" lon="-0.91245">
        <ele>119</ele>
        <time>2021-03-25T01:11:05Z</time>
      </trkpt>
      <trkpt lat="47.00754" lon="-0.91176">
        <ele>120</ele>
        <time>2021-03-25T01:11:14Z</time>
      </trkpt>
      <trkpt lat="47.00746" lon="-0.91143">
        <ele>120</ele>
        <time>2021-03-25T01:11:18Z</time>
      </trkpt>
      <trkpt lat="47.00719" lon="-0.91065">
        <ele>120</ele>
        <time>2021-03-25T01:11:28Z</time>
      </trkpt>
      <trkpt lat="47.00701" lon="-0.9099">
        <ele>121</ele>
        <time>2021-03-25T01:11:38Z</time>
      </trkpt>
      <trkpt lat="47.00646" lon="-0.90809">
        <ele>124</ele>
        <time>2021-03-25T01:12:02Z</time>
      </trkpt>
      <trkpt lat="47.0063" lon="-0.90741">
        <ele>124</ele>
        <time>2021-03-25T01:12:11Z</time>
      </trkpt>
      <trkpt lat="47.00616" lon="-0.90693">
        <ele>124</ele>
        <time>2021-03-25T01:12:17Z</time>
      </trkpt>
      <trkpt lat="47.006" lon="-0.90657">
        <ele>125</ele>
        <time>2021-03-25T01:12:22Z</time>
      </trkpt>
      <trkpt lat="47.00571" lon="-0.90612">
        <ele>126</ele>
        <time>2021-03-25T01:12:30Z</time>
      </trkpt>
      <trkpt lat="47.00566" lon="-0.90601">
        <ele>126</ele>
        <time>2021-03-25T01:12:31Z</time>
      </trkpt>
      <trkpt lat="47.00562" lon="-0.9059">
        <ele>126</ele>
        <time>2021-03-25T01:12:33Z</time>
      </trkpt>
      <trkpt lat="47.00553" lon="-0.90553">
        <ele>127</ele>
        <time>2021-03-25T01:12:38Z</time>
      </trkpt>
      <trkpt lat="47.00552" lon="-0.90527">
        <ele>127</ele>
        <time>2021-03-25T01:12:41Z</time>
      </trkpt>
      <trkpt lat="47.00554" lon="-0.90501">
        <ele>127</ele>
        <time>2021-03-25T01:12:44Z</time>
      </trkpt>
      <trkpt lat="47.00562" lon="-0.90436">
        <ele>126</ele>
        <time>2021-03-25T01:12:52Z</time>
      </trkpt>
      <trkpt lat="47.00563" lon="-0.9041">
        <ele>126</ele>
        <time>2021-03-25T01:12:55Z</time>
      </trkpt>
      <trkpt lat="47.00559" lon="-0.9038">
        <ele>126</ele>
        <time>2021-03-25T01:12:59Z</time>
      </trkpt>
      <trkpt lat="47.00553" lon="-0.90361">
        <ele>126</ele>
        <time>2021-03-25T01:13:02Z</time>
      </trkpt>
      <trkpt lat="47.00544" lon="-0.90338">
        <ele>126</ele>
        <time>2021-03-25T01:13:05Z</time>
      </trkpt>
      <trkpt lat="47.00448" lon="-0.9019">
        <ele>130</ele>
        <time>2021-03-25T01:13:30Z</time>
      </trkpt>
      <trkpt lat="47.00425" lon="-0.90149">
        <ele>129</ele>
        <time>2021-03-25T01:13:36Z</time>
      </trkpt>
      <trkpt lat="47.00312" lon="-0.89879">
        <ele>135</ele>
        <time>2021-03-25T01:14:14Z</time>
      </trkpt>
      <trkpt lat="47.003" lon="-0.89837">
        <ele>135</ele>
        <time>2021-03-25T01:14:20Z</time>
      </trkpt>
      <trkpt lat="47.0029" lon="-0.89794">
        <ele>136</ele>
        <time>2021-03-25T01:14:25Z</time>
      </trkpt>
      <trkpt lat="47.00272" lon="-0.89751">
        <ele>138</ele>
        <time>2021-03-25T01:14:32Z</time>
      </trkpt>
      <trkpt lat="47.00256" lon="-0.89705">
        <ele>140</ele>
        <time>2021-03-25T01:14:38Z</time>
      </trkpt>
      <trkpt lat="47.00235" lon="-0.89613">
        <ele>143</ele>
        <time>2021-03-25T01:14:50Z</time>
      </trkpt>
      <trkpt lat="47.00227" lon="-0.89534">
        <ele>144</ele>
        <time>2021-03-25T01:14:59Z</time>
      </trkpt>
      <trkpt lat="47.00211" lon="-0.89458">
        <ele>144</ele>
        <time>2021-03-25T01:15:09Z</time>
      </trkpt>
      <trkpt lat="47.00209" lon="-0.89443">
        <ele>144</ele>
        <time>2021-03-25T01:15:11Z</time>
      </trkpt>
      <trkpt lat="47.00209" lon="-0.89432">
        <ele>144</ele>
        <time>2021-03-25T01:15:12Z</time>
      </trkpt>
      <trkpt lat="47.00204" lon="-0.89428">
        <ele>145</ele>
        <time>2021-03-25T01:15:13Z</time>
      </trkpt>
      <trkpt lat="47.00204" lon="-0.89424">
        <ele>145</ele>
        <time>2021-03-25T01:15:14Z</time>
      </trkpt>
      <trkpt lat="47.00208" lon="-0.8942">
        <ele>145</ele>
        <time>2021-03-25T01:15:14Z</time>
      </trkpt>
      <trkpt lat="47.00208" lon="-0.89416">
        <ele>145</ele>
        <time>2021-03-25T01:15:15Z</time>
      </trkpt>
      <trkpt lat="47.00197" lon="-0.89337">
        <ele>145</ele>
        <time>2021-03-25T01:15:25Z</time>
      </trkpt>
      <trkpt lat="47.0018" lon="-0.89251">
        <ele>146</ele>
        <time>2021-03-25T01:15:36Z</time>
      </trkpt>
      <trkpt lat="47.00164" lon="-0.89204">
        <ele>146</ele>
        <time>2021-03-25T01:15:42Z</time>
      </trkpt>
      <trkpt lat="47.00156" lon="-0.89203">
        <ele>146</ele>
        <time>2021-03-25T01:15:43Z</time>
      </trkpt>
      <trkpt lat="47.00153" lon="-0.89199">
        <ele>146</ele>
        <time>2021-03-25T01:15:44Z</time>
      </trkpt>
      <trkpt lat="47.00152" lon="-0.89188">
        <ele>146</ele>
        <time>2021-03-25T01:15:45Z</time>
      </trkpt>
      <trkpt lat="47.00155" lon="-0.89181">
        <ele>146</ele>
        <time>2021-03-25T01:15:46Z</time>
      </trkpt>
      <trkpt lat="47.00122" lon="-0.89097">
        <ele>145</ele>
        <time>2021-03-25T01:15:58Z</time>
      </trkpt>
      <trkpt lat="46.99972" lon="-0.89119">
        <ele>145</ele>
        <time>2021-03-25T01:16:25Z</time>
      </trkpt>
      <trkpt lat="46.99958" lon="-0.8902">
        <ele>148</ele>
        <time>2021-03-25T01:16:37Z</time>
      </trkpt>
      <trkpt lat="46.99934" lon="-0.88869">
        <ele>151</ele>
        <time>2021-03-25T01:16:56Z</time>
      </trkpt>
      <trkpt lat="46.99927" lon="-0.88866">
        <ele>152</ele>
        <time>2021-03-25T01:16:57Z</time>
      </trkpt>
      <trkpt lat="46.99924" lon="-0.88856">
        <ele>152</ele>
        <time>2021-03-25T01:16:59Z</time>
      </trkpt>
      <trkpt lat="46.99832" lon="-0.88842">
        <ele>152</ele>
        <time>2021-03-25T01:17:15Z</time>
      </trkpt>
      <trkpt lat="46.99832" lon="-0.88846">
        <ele>151</ele>
        <time>2021-03-25T01:17:16Z</time>
      </trkpt>
      <trkpt lat="46.99826" lon="-0.88854">
        <ele>151</ele>
        <time>2021-03-25T01:17:17Z</time>
      </trkpt>
      <trkpt lat="46.99823" lon="-0.88854">
        <ele>151</ele>
        <time>2021-03-25T01:17:18Z</time>
      </trkpt>
      <trkpt lat="46.9982" lon="-0.88853">
        <ele>151</ele>
        <time>2021-03-25T01:17:18Z</time>
      </trkpt>
      <trkpt lat="46.99815" lon="-0.88844">
        <ele>151</ele>
        <time>2021-03-25T01:17:20Z</time>
      </trkpt>
      <trkpt lat="46.99815" lon="-0.8884">
        <ele>152</ele>
        <time>2021-03-25T01:17:20Z</time>
      </trkpt>
      <trkpt lat="46.99727" lon="-0.88828">
        <ele>151</ele>
        <time>2021-03-25T01:17:36Z</time>
      </trkpt>
      <trkpt lat="46.99737" lon="-0.88694">
        <ele>160</ele>
        <time>2021-03-25T01:17:52Z</time>
      </trkpt>
      <trkpt lat="46.99747" lon="-0.88614">
        <ele>164</ele>
        <time>2021-03-25T01:18:02Z</time>
      </trkpt>
      <trkpt lat="46.99757" lon="-0.88448">
        <ele>167</ele>
        <time>2021-03-25T01:18:22Z</time>
      </trkpt>
      <trkpt lat="46.99755" lon="-0.8843">
        <ele>167</ele>
        <time>2021-03-25T01:18:25Z</time>
      </trkpt>
      <trkpt lat="46.9975" lon="-0.8841">
        <ele>167</ele>
        <time>2021-03-25T01:18:27Z</time>
      </trkpt>
      <trkpt lat="46.99728" lon="-0.88369">
        <ele>165</ele>
        <time>2021-03-25T01:18:33Z</time>
      </trkpt>
      <trkpt lat="46.9967" lon="-0.88215">
        <ele>163</ele>
        <time>2021-03-25T01:18:55Z</time>
      </trkpt>
      <trkpt lat="46.99666" lon="-0.88196">
        <ele>164</ele>
        <time>2021-03-25T01:18:57Z</time>
      </trkpt>
      <trkpt lat="46.99668" lon="-0.88183">
        <ele>164</ele>
        <time>2021-03-25T01:18:59Z</time>
      </trkpt>
      <trkpt lat="46.99708" lon="-0.88126">
        <ele>163</ele>
        <time>2021-03-25T01:19:09Z</time>
      </trkpt>
      <trkpt lat="46.99769" lon="-0.88006">
        <ele>158</ele>
        <time>2021-03-25T01:19:27Z</time>
      </trkpt>
      <trkpt lat="46.99779" lon="-0.87991">
        <ele>158</ele>
        <time>2021-03-25T01:19:29Z</time>
      </trkpt>
      <trkpt lat="46.9979" lon="-0.87974">
        <ele>157</ele>
        <time>2021-03-25T01:19:32Z</time>
      </trkpt>
      <trkpt lat="46.99883" lon="-0.87861">
        <ele>150</ele>
        <time>2021-03-25T01:19:54Z</time>
      </trkpt>
      <trkpt lat="46.99897" lon="-0.87842">
        <ele>149</ele>
        <time>2021-03-25T01:19:57Z</time>
      </trkpt>
      <trkpt lat="46.99909" lon="-0.8782">
        <ele>148</ele>
        <time>2021-03-25T01:20:01Z</time>
      </trkpt>
      <trkpt lat="46.99955" lon="-0.87706">
        <ele>148</ele>
        <time>2021-03-25T01:20:17Z</time>
      </trkpt>
      <trkpt lat="47.00081" lon="-0.87302">
        <ele>145</ele>
        <time>2021-03-25T01:21:11Z</time>
      </trkpt>
      <trkpt lat="47.00132" lon="-0.87168">
        <ele>144</ele>
        <time>2021-03-25T01:21:29Z</time>
      </trkpt>
      <trkpt lat="47.00167" lon="-0.87092">
        <ele>143</ele>
        <time>2021-03-25T01:21:40Z</time>
      </trkpt>
      <trkpt lat="47.00291" lon="-0.86885">
        <ele>143</ele>
        <time>2021-03-25T01:22:14Z</time>
      </trkpt>
      <trkpt lat="47.00311" lon="-0.86847">
        <ele>143</ele>
        <time>2021-03-25T01:22:20Z</time>
      </trkpt>
      <trkpt lat="47.00333" lon="-0.86799">
        <ele>143</ele>
        <time>2021-03-25T01:22:27Z</time>
      </trkpt>
      <trkpt lat="47.00348" lon="-0.86761">
        <ele>144</ele>
        <time>2021-03-25T01:22:32Z</time>
      </trkpt>
      <trkpt lat="47.00372" lon="-0.86686">
        <ele>143</ele>
        <time>2021-03-25T01:22:42Z</time>
      </trkpt>
      <trkpt lat="47.0039" lon="-0.86616">
        <ele>142</ele>
        <time>2021-03-25T01:22:51Z</time>
      </trkpt>
      <trkpt lat="47.00405" lon="-0.86515">
        <ele>141</ele>
        <time>2021-03-25T01:23:04Z</time>
      </trkpt>
      <trkpt lat="47.00409" lon="-0.86478">
        <ele>141</ele>
        <time>2021-03-25T01:23:08Z</time>
      </trkpt>
      <trkpt lat="47.00413" lon="-0.86382">
        <ele>139</ele>
        <time>2021-03-25T01:23:20Z</time>
      </trkpt>
      <trkpt lat="47.0041" lon="-0.86259">
        <ele>137</ele>
        <time>2021-03-25T01:23:35Z</time>
      </trkpt>
      <trkpt lat="47.0041" lon="-0.86003">
        <ele>136</ele>
        <time>2021-03-25T01:24:06Z</time>
      </trkpt>
      <trkpt lat="47.00421" lon="-0.85878">
        <ele>134</ele>
        <time>2021-03-25T01:24:21Z</time>
      </trkpt>
      <trkpt lat="47.00423" lon="-0.85775">
        <ele>132</ele>
        <time>2021-03-25T01:24:34Z</time>
      </trkpt>
      <trkpt lat="47.00453" lon="-0.85644">
        <ele>132</ele>
        <time>2021-03-25T01:24:50Z</time>
      </trkpt>
      <trkpt lat="47.00457" lon="-0.85601">
        <ele>132</ele>
        <time>2021-03-25T01:24:56Z</time>
      </trkpt>
      <trkpt lat="47.00456" lon="-0.85582">
        <ele>132</ele>
        <time>2021-03-25T01:24:58Z</time>
      </trkpt>
      <trkpt lat="47.00454" lon="-0.85571">
        <ele>131</ele>
        <time>2021-03-25T01:24:59Z</time>
      </trkpt>
      <trkpt lat="47.00448" lon="-0.85568">
        <ele>132</ele>
        <time>2021-03-25T01:25:00Z</time>
      </trkpt>
      <trkpt lat="47.00447" lon="-0.8556">
        <ele>131</ele>
        <time>2021-03-25T01:25:01Z</time>
      </trkpt>
      <trkpt lat="47.00449" lon="-0.85556">
        <ele>131</ele>
        <time>2021-03-25T01:25:02Z</time>
      </trkpt>
      <trkpt lat="47.00454" lon="-0.85554">
        <ele>131</ele>
        <time>2021-03-25T01:25:03Z</time>
      </trkpt>
      <trkpt lat="47.00458" lon="-0.85545">
        <ele>131</ele>
        <time>2021-03-25T01:25:04Z</time>
      </trkpt>
      <trkpt lat="47.0046" lon="-0.85528">
        <ele>131</ele>
        <time>2021-03-25T01:25:06Z</time>
      </trkpt>
      <trkpt lat="47.00461" lon="-0.85472">
        <ele>131</ele>
        <time>2021-03-25T01:25:13Z</time>
      </trkpt>
      <trkpt lat="47.00467" lon="-0.85406">
        <ele>130</ele>
        <time>2021-03-25T01:25:21Z</time>
      </trkpt>
      <trkpt lat="47.00481" lon="-0.85314">
        <ele>128</ele>
        <time>2021-03-25T01:25:33Z</time>
      </trkpt>
      <trkpt lat="47.00486" lon="-0.8527">
        <ele>127</ele>
        <time>2021-03-25T01:25:38Z</time>
      </trkpt>
      <trkpt lat="47.00488" lon="-0.85229">
        <ele>125</ele>
        <time>2021-03-25T01:25:43Z</time>
      </trkpt>
      <trkpt lat="47.00499" lon="-0.85191">
        <ele>125</ele>
        <time>2021-03-25T01:25:48Z</time>
      </trkpt>
      <trkpt lat="47.00488" lon="-0.8518">
        <ele>124</ele>
        <time>2021-03-25T01:25:50Z</time>
      </trkpt>
      <trkpt lat="47.00474" lon="-0.85152">
        <ele>123</ele>
        <time>2021-03-25T01:25:55Z</time>
      </trkpt>
      <trkpt lat="47.0047" lon="-0.85134">
        <ele>123</ele>
        <time>2021-03-25T01:25:57Z</time>
      </trkpt>
      <trkpt lat="47.00461" lon="-0.85084">
        <ele>122</ele>
        <time>2021-03-25T01:26:03Z</time>
      </trkpt>
      <trkpt lat="47.0047" lon="-0.85076">
        <ele>122</ele>
        <time>2021-03-25T01:26:05Z</time>
      </trkpt>
      <trkpt lat="47.00484" lon="-0.85057">
        <ele>121</ele>
        <time>2021-03-25T01:26:09Z</time>
      </trkpt>
      <trkpt lat="47.00491" lon="-0.85051">
        <ele>120</ele>
        <time>2021-03-25T01:26:10Z</time>
      </trkpt>
      <trkpt lat="47.00521" lon="-0.84995">
        <ele>117</ele>
        <time>2021-03-25T01:26:19Z</time>
      </trkpt>
      <trkpt lat="47.00527" lon="-0.84987">
        <ele>116</ele>
        <time>2021-03-25T01:26:20Z</time>
      </trkpt>
      <trkpt lat="47.00533" lon="-0.84984">
        <ele>116</ele>
        <time>2021-03-25T01:26:21Z</time>
      </trkpt>
      <trkpt lat="47.00533" lon="-0.84949">
        <ele>115</ele>
        <time>2021-03-25T01:26:25Z</time>
      </trkpt>
      <trkpt lat="47.00536" lon="-0.84912">
        <ele>113</ele>
        <time>2021-03-25T01:26:30Z</time>
      </trkpt>
      <trkpt lat="47.00541" lon="-0.84883">
        <ele>113</ele>
        <time>2021-03-25T01:26:34Z</time>
      </trkpt>
      <trkpt lat="47.00536" lon="-0.84877">
        <ele>113</ele>
        <time>2021-03-25T01:26:35Z</time>
      </trkpt>
      <trkpt lat="47.00533" lon="-0.84866">
        <ele>113</ele>
        <time>2021-03-25T01:26:36Z</time>
      </trkpt>
      <trkpt lat="47.00532" lon="-0.84843">
        <ele>112</ele>
        <time>2021-03-25T01:26:39Z</time>
      </trkpt>
      <trkpt lat="47.00528" lon="-0.84404">
        <ele>129</ele>
        <time>2021-03-25T01:27:32Z</time>
      </trkpt>
      <trkpt lat="47.00524" lon="-0.84379">
        <ele>129</ele>
        <time>2021-03-25T01:27:35Z</time>
      </trkpt>
      <trkpt lat="47.00511" lon="-0.84335">
        <ele>130</ele>
        <time>2021-03-25T01:27:41Z</time>
      </trkpt>
      <trkpt lat="47.00509" lon="-0.84335">
        <ele>130</ele>
        <time>2021-03-25T01:27:42Z</time>
      </trkpt>
      <trkpt lat="47.00503" lon="-0.84331">
        <ele>130</ele>
        <time>2021-03-25T01:27:43Z</time>
      </trkpt>
      <trkpt lat="47.00502" lon="-0.84329">
        <ele>130</ele>
        <time>2021-03-25T01:27:43Z</time>
      </trkpt>
      <trkpt lat="47.00502" lon="-0.84323">
        <ele>130</ele>
        <time>2021-03-25T01:27:44Z</time>
      </trkpt>
      <trkpt lat="47.00506" lon="-0.84316">
        <ele>130</ele>
        <time>2021-03-25T01:27:45Z</time>
      </trkpt>
      <trkpt lat="47.00473" lon="-0.8421">
        <ele>132</ele>
        <time>2021-03-25T01:27:59Z</time>
      </trkpt>
      <trkpt lat="47.0036" lon="-0.83922">
        <ele>135</ele>
        <time>2021-03-25T01:28:39Z</time>
      </trkpt>
      <trkpt lat="47.00263" lon="-0.83628">
        <ele>129</ele>
        <time>2021-03-25T01:29:19Z</time>
      </trkpt>
      <trkpt lat="47.00143" lon="-0.83253">
        <ele>123</ele>
        <time>2021-03-25T01:30:09Z</time>
      </trkpt>
      <trkpt lat="47.00123" lon="-0.83186">
        <ele>124</ele>
        <time>2021-03-25T01:30:18Z</time>
      </trkpt>
      <trkpt lat="47.00117" lon="-0.83146">
        <ele>124</ele>
        <time>2021-03-25T01:30:23Z</time>
      </trkpt>
      <trkpt lat="47.00116" lon="-0.83105">
        <ele>124</ele>
        <time>2021-03-25T01:30:28Z</time>
      </trkpt>
      <trkpt lat="47.00118" lon="-0.83041">
        <ele>123</ele>
        <time>2021-03-25T01:30:36Z</time>
      </trkpt>
      <trkpt lat="47.00155" lon="-0.8281">
        <ele>123</ele>
        <time>2021-03-25T01:31:05Z</time>
      </trkpt>
      <trkpt lat="47.0016" lon="-0.82772">
        <ele>122</ele>
        <time>2021-03-25T01:31:09Z</time>
      </trkpt>
      <trkpt lat="47.0016" lon="-0.82735">
        <ele>122</ele>
        <time>2021-03-25T01:31:14Z</time>
      </trkpt>
      <trkpt lat="47.00109" lon="-0.82223">
        <ele>132</ele>
        <time>2021-03-25T01:32:17Z</time>
      </trkpt>
      <trkpt lat="47.00107" lon="-0.82195">
        <ele>132</ele>
        <time>2021-03-25T01:32:20Z</time>
      </trkpt>
      <trkpt lat="47.00111" lon="-0.82137">
        <ele>131</ele>
        <time>2021-03-25T01:32:27Z</time>
      </trkpt>
      <trkpt lat="47.00208" lon="-0.81568">
        <ele>124</ele>
        <time>2021-03-25T01:33:38Z</time>
      </trkpt>
      <trkpt lat="47.00222" lon="-0.81467">
        <ele>122</ele>
        <time>2021-03-25T01:33:51Z</time>
      </trkpt>
      <trkpt lat="47.00243" lon="-0.81172">
        <ele>118</ele>
        <time>2021-03-25T01:34:27Z</time>
      </trkpt>
      <trkpt lat="47.00246" lon="-0.81104">
        <ele>115</ele>
        <time>2021-03-25T01:34:35Z</time>
      </trkpt>
      <trkpt lat="47.00247" lon="-0.80972">
        <ele>112</ele>
        <time>2021-03-25T01:34:51Z</time>
      </trkpt>
      <trkpt lat="47.00275" lon="-0.80605">
        <ele>103</ele>
        <time>2021-03-25T01:35:36Z</time>
      </trkpt>
      <trkpt lat="47.0028" lon="-0.80568">
        <ele>103</ele>
        <time>2021-03-25T01:35:40Z</time>
      </trkpt>
      <trkpt lat="47.00286" lon="-0.80538">
        <ele>103</ele>
        <time>2021-03-25T01:35:44Z</time>
      </trkpt>
      <trkpt lat="47.00302" lon="-0.80492">
        <ele>105</ele>
        <time>2021-03-25T01:35:50Z</time>
      </trkpt>
      <trkpt lat="47.00346" lon="-0.80376">
        <ele>113</ele>
        <time>2021-03-25T01:36:07Z</time>
      </trkpt>
      <trkpt lat="47.00529" lon="-0.79877">
        <ele>116</ele>
        <time>2021-03-25T01:37:15Z</time>
      </trkpt>
      <trkpt lat="47.00537" lon="-0.79848">
        <ele>116</ele>
        <time>2021-03-25T01:37:19Z</time>
      </trkpt>
      <trkpt lat="47.0054" lon="-0.7983">
        <ele>115</ele>
        <time>2021-03-25T01:37:21Z</time>
      </trkpt>
      <trkpt lat="47.0054" lon="-0.79811">
        <ele>115</ele>
        <time>2021-03-25T01:37:24Z</time>
      </trkpt>
      <trkpt lat="47.00533" lon="-0.79758">
        <ele>114</ele>
        <time>2021-03-25T01:37:30Z</time>
      </trkpt>
      <trkpt lat="47.00508" lon="-0.79615">
        <ele>111</ele>
        <time>2021-03-25T01:37:48Z</time>
      </trkpt>
      <trkpt lat="47.00447" lon="-0.79419">
        <ele>112</ele>
        <time>2021-03-25T01:38:14Z</time>
      </trkpt>
      <trkpt lat="47.00429" lon="-0.79376">
        <ele>113</ele>
        <time>2021-03-25T01:38:20Z</time>
      </trkpt>
      <trkpt lat="47.00415" lon="-0.79349">
        <ele>114</ele>
        <time>2021-03-25T01:38:24Z</time>
      </trkpt>
      <trkpt lat="47.00371" lon="-0.79277">
        <ele>113</ele>
        <time>2021-03-25T01:38:36Z</time>
      </trkpt>
      <trkpt lat="47.00351" lon="-0.7924">
        <ele>111</ele>
        <time>2021-03-25T01:38:42Z</time>
      </trkpt>
      <trkpt lat="47.00306" lon="-0.79122">
        <ele>108</ele>
        <time>2021-03-25T01:38:58Z</time>
      </trkpt>
      <trkpt lat="47.00289" lon="-0.79067">
        <ele>108</ele>
        <time>2021-03-25T01:39:06Z</time>
      </trkpt>
      <trkpt lat="47.00251" lon="-0.78957">
        <ele>107</ele>
        <time>2021-03-25T01:39:21Z</time>
      </trkpt>
      <trkpt lat="47.00219" lon="-0.78887">
        <ele>110</ele>
        <time>2021-03-25T01:39:31Z</time>
      </trkpt>
      <trkpt lat="47.00178" lon="-0.78809">
        <ele>112</ele>
        <time>2021-03-25T01:39:43Z</time>
      </trkpt>
      <trkpt lat="47.00133" lon="-0.78734">
        <ele>114</ele>
        <time>2021-03-25T01:39:55Z</time>
      </trkpt>
      <trkpt lat="47.00105" lon="-0.78683">
        <ele>116</ele>
        <time>2021-03-25T01:40:03Z</time>
      </trkpt>
      <trkpt lat="47.00094" lon="-0.78653">
        <ele>117</ele>
        <time>2021-03-25T01:40:07Z</time>
      </trkpt>
      <trkpt lat="47.00078" lon="-0.78583">
        <ele>119</ele>
        <time>2021-03-25T01:40:16Z</time>
      </trkpt>
      <trkpt lat="47.00072" lon="-0.78546">
        <ele>119</ele>
        <time>2021-03-25T01:40:21Z</time>
      </trkpt>
      <trkpt lat="47.0006" lon="-0.78315">
        <ele>116</ele>
        <time>2021-03-25T01:40:49Z</time>
      </trkpt>
      <trkpt lat="47.0006" lon="-0.7829">
        <ele>116</ele>
        <time>2021-03-25T01:40:52Z</time>
      </trkpt>
      <trkpt lat="47.00062" lon="-0.78273">
        <ele>115</ele>
        <time>2021-03-25T01:40:54Z</time>
      </trkpt>
      <trkpt lat="47.00066" lon="-0.78257">
        <ele>115</ele>
        <time>2021-03-25T01:40:56Z</time>
      </trkpt>
      <trkpt lat="47.00079" lon="-0.78227">
        <ele>112</ele>
        <time>2021-03-25T01:41:00Z</time>
      </trkpt>
      <trkpt lat="47.00092" lon="-0.78187">
        <ele>109</ele>
        <time>2021-03-25T01:41:06Z</time>
      </trkpt>
      <trkpt lat="47.00097" lon="-0.78159">
        <ele>108</ele>
        <time>2021-03-25T01:41:09Z</time>
      </trkpt>
      <trkpt lat="47.00103" lon="-0.78109">
        <ele>110</ele>
        <time>2021-03-25T01:41:15Z</time>
      </trkpt>
      <trkpt lat="47.00107" lon="-0.78086">
        <ele>110</ele>
        <time>2021-03-25T01:41:18Z</time>
      </trkpt>
      <trkpt lat="47.00113" lon="-0.78066">
        <ele>109</ele>
        <time>2021-03-25T01:41:21Z</time>
      </trkpt>
      <trkpt lat="47.00184" lon="-0.779">
        <ele>107</ele>
        <time>2021-03-25T01:41:45Z</time>
      </trkpt>
      <trkpt lat="47.0019" lon="-0.77878">
        <ele>107</ele>
        <time>2021-03-25T01:41:47Z</time>
      </trkpt>
      <trkpt lat="47.00194" lon="-0.77857">
        <ele>107</ele>
        <time>2021-03-25T01:41:50Z</time>
      </trkpt>
      <trkpt lat="47.00195" lon="-0.77829">
        <ele>107</ele>
        <time>2021-03-25T01:41:53Z</time>
      </trkpt>
      <trkpt lat="47.00194" lon="-0.77803">
        <ele>108</ele>
        <time>2021-03-25T01:41:57Z</time>
      </trkpt>
      <trkpt lat="47.00171" lon="-0.77603">
        <ele>112</ele>
        <time>2021-03-25T01:42:21Z</time>
      </trkpt>
      <trkpt lat="47.00169" lon="-0.77574">
        <ele>112</ele>
        <time>2021-03-25T01:42:25Z</time>
      </trkpt>
      <trkpt lat="47.00166" lon="-0.77439">
        <ele>113</ele>
        <time>2021-03-25T01:42:41Z</time>
      </trkpt>
      <trkpt lat="47.00167" lon="-0.77163">
        <ele>111</ele>
        <time>2021-03-25T01:43:15Z</time>
      </trkpt>
      <trkpt lat="47.00171" lon="-0.77107">
        <ele>110</ele>
        <time>2021-03-25T01:43:21Z</time>
      </trkpt>
      <trkpt lat="47.0018" lon="-0.77059">
        <ele>109</ele>
        <time>2021-03-25T01:43:28Z</time>
      </trkpt>
      <trkpt lat="47.002" lon="-0.76996">
        <ele>108</ele>
        <time>2021-03-25T01:43:36Z</time>
      </trkpt>
      <trkpt lat="47.0022" lon="-0.76957">
        <ele>108</ele>
        <time>2021-03-25T01:43:42Z</time>
      </trkpt>
      <trkpt lat="47.00247" lon="-0.76916">
        <ele>107</ele>
        <time>2021-03-25T01:43:49Z</time>
      </trkpt>
      <trkpt lat="47.00289" lon="-0.76856">
        <ele>110</ele>
        <time>2021-03-25T01:43:59Z</time>
      </trkpt>
      <trkpt lat="47.00305" lon="-0.76825">
        <ele>111</ele>
        <time>2021-03-25T01:44:04Z</time>
      </trkpt>
      <trkpt lat="47.00493" lon="-0.76368">
        <ele>129</ele>
        <time>2021-03-25T01:45:09Z</time>
      </trkpt>
      <trkpt lat="47.00529" lon="-0.76287">
        <ele>132</ele>
        <time>2021-03-25T01:45:20Z</time>
      </trkpt>
      <trkpt lat="47.00605" lon="-0.76135">
        <ele>136</ele>
        <time>2021-03-25T01:45:43Z</time>
      </trkpt>
      <trkpt lat="47.0062" lon="-0.76089">
        <ele>137</ele>
        <time>2021-03-25T01:45:50Z</time>
      </trkpt>
      <trkpt lat="47.0063" lon="-0.76042">
        <ele>137</ele>
        <time>2021-03-25T01:45:55Z</time>
      </trkpt>
      <trkpt lat="47.00639" lon="-0.75977">
        <ele>137</ele>
        <time>2021-03-25T01:46:04Z</time>
      </trkpt>
      <trkpt lat="47.00678" lon="-0.75734">
        <ele>134</ele>
        <time>2021-03-25T01:46:34Z</time>
      </trkpt>
      <trkpt lat="47.00695" lon="-0.75639">
        <ele>136</ele>
        <time>2021-03-25T01:46:46Z</time>
      </trkpt>
      <trkpt lat="47.00706" lon="-0.75583">
        <ele>137</ele>
        <time>2021-03-25T01:46:53Z</time>
      </trkpt>
      <trkpt lat="47.00732" lon="-0.75489">
        <ele>139</ele>
        <time>2021-03-25T01:47:05Z</time>
      </trkpt>
      <trkpt lat="47.00737" lon="-0.75466">
        <ele>139</ele>
        <time>2021-03-25T01:47:08Z</time>
      </trkpt>
      <trkpt lat="47.00756" lon="-0.75326">
        <ele>138</ele>
        <time>2021-03-25T01:47:25Z</time>
      </trkpt>
      <trkpt lat="47.00758" lon="-0.75293">
        <ele>138</ele>
        <time>2021-03-25T01:47:29Z</time>
      </trkpt>
      <trkpt lat="47.0076" lon="-0.75096">
        <ele>141</ele>
        <time>2021-03-25T01:47:53Z</time>
      </trkpt>
      <trkpt lat="47.00764" lon="-0.75047">
        <ele>141</ele>
        <time>2021-03-25T01:47:59Z</time>
      </trkpt>
      <trkpt lat="47.00768" lon="-0.75032">
        <ele>140</ele>
        <time>2021-03-25T01:48:01Z</time>
      </trkpt>
      <trkpt lat="47.00773" lon="-0.75027">
        <ele>140</ele>
        <time>2021-03-25T01:48:02Z</time>
      </trkpt>
      <trkpt lat="47.0077" lon="-0.75008">
        <ele>140</ele>
        <time>2021-03-25T01:48:05Z</time>
      </trkpt>
      <trkpt lat="47.00759" lon="-0.74669">
        <ele>133</ele>
        <time>2021-03-25T01:48:46Z</time>
      </trkpt>
      <trkpt lat="47.00753" lon="-0.74629">
        <ele>132</ele>
        <time>2021-03-25T01:48:51Z</time>
      </trkpt>
      <trkpt lat="47.00753" lon="-0.74615">
        <ele>132</ele>
        <time>2021-03-25T01:48:53Z</time>
      </trkpt>
      <trkpt lat="47.0076" lon="-0.74609">
        <ele>132</ele>
        <time>2021-03-25T01:48:54Z</time>
      </trkpt>
      <trkpt lat="47.00781" lon="-0.74565">
        <ele>132</ele>
        <time>2021-03-25T01:49:00Z</time>
      </trkpt>
      <trkpt lat="47.00791" lon="-0.74552">
        <ele>132</ele>
        <time>2021-03-25T01:49:03Z</time>
      </trkpt>
      <trkpt lat="47.00828" lon="-0.74526">
        <ele>134</ele>
        <time>2021-03-25T01:49:10Z</time>
      </trkpt>
      <trkpt lat="47.00835" lon="-0.74518">
        <ele>134</ele>
        <time>2021-03-25T01:49:12Z</time>
      </trkpt>
      <trkpt lat="47.00835" lon="-0.74512">
        <ele>134</ele>
        <time>2021-03-25T01:49:12Z</time>
      </trkpt>
      <trkpt lat="47.0084" lon="-0.74496">
        <ele>134</ele>
        <time>2021-03-25T01:49:15Z</time>
      </trkpt>
      <trkpt lat="47.00871" lon="-0.74413">
        <ele>132</ele>
        <time>2021-03-25T01:49:26Z</time>
      </trkpt>
      <trkpt lat="47.00897" lon="-0.74336">
        <ele>130</ele>
        <time>2021-03-25T01:49:36Z</time>
      </trkpt>
      <trkpt lat="47.00939" lon="-0.74186">
        <ele>133</ele>
        <time>2021-03-25T01:49:56Z</time>
      </trkpt>
      <trkpt lat="47.01037" lon="-0.73855">
        <ele>139</ele>
        <time>2021-03-25T01:50:40Z</time>
      </trkpt>
      <trkpt lat="47.01032" lon="-0.7385">
        <ele>139</ele>
        <time>2021-03-25T01:50:41Z</time>
      </trkpt>
      <trkpt lat="47.01029" lon="-0.73843">
        <ele>139</ele>
        <time>2021-03-25T01:50:42Z</time>
      </trkpt>
      <trkpt lat="47.01028" lon="-0.73835">
        <ele>139</ele>
        <time>2021-03-25T01:50:43Z</time>
      </trkpt>
      <trkpt lat="47.01029" lon="-0.73827">
        <ele>139</ele>
        <time>2021-03-25T01:50:44Z</time>
      </trkpt>
      <trkpt lat="47.01031" lon="-0.7382">
        <ele>139</ele>
        <time>2021-03-25T01:50:45Z</time>
      </trkpt>
      <trkpt lat="47.01035" lon="-0.73814">
        <ele>140</ele>
        <time>2021-03-25T01:50:46Z</time>
      </trkpt>
      <trkpt lat="47.0104" lon="-0.7381">
        <ele>140</ele>
        <time>2021-03-25T01:50:47Z</time>
      </trkpt>
      <trkpt lat="47.01046" lon="-0.73809">
        <ele>140</ele>
        <time>2021-03-25T01:50:48Z</time>
      </trkpt>
      <trkpt lat="47.01051" lon="-0.73811">
        <ele>141</ele>
        <time>2021-03-25T01:50:49Z</time>
      </trkpt>
      <trkpt lat="47.01181" lon="-0.73355">
        <ele>143</ele>
        <time>2021-03-25T01:51:49Z</time>
      </trkpt>
      <trkpt lat="47.01193" lon="-0.7329">
        <ele>142</ele>
        <time>2021-03-25T01:51:57Z</time>
      </trkpt>
      <trkpt lat="47.012" lon="-0.73264">
        <ele>141</ele>
        <time>2021-03-25T01:52:00Z</time>
      </trkpt>
      <trkpt lat="47.01219" lon="-0.73225">
        <ele>140</ele>
        <time>2021-03-25T01:52:06Z</time>
      </trkpt>
      <trkpt lat="47.01216" lon="-0.73219">
        <ele>140</ele>
        <time>2021-03-25T01:52:07Z</time>
      </trkpt>
      <trkpt lat="47.01214" lon="-0.73211">
        <ele>139</ele>
        <time>2021-03-25T01:52:08Z</time>
      </trkpt>
      <trkpt lat="47.01214" lon="-0.73202">
        <ele>139</ele>
        <time>2021-03-25T01:52:09Z</time>
      </trkpt>
      <trkpt lat="47.01216" lon="-0.73194">
        <ele>139</ele>
        <time>2021-03-25T01:52:10Z</time>
      </trkpt>
      <trkpt lat="47.01219" lon="-0.73188">
        <ele>139</ele>
        <time>2021-03-25T01:52:11Z</time>
      </trkpt>
      <trkpt lat="47.01224" lon="-0.73183">
        <ele>138</ele>
        <time>2021-03-25T01:52:12Z</time>
      </trkpt>
      <trkpt lat="47.0123" lon="-0.73182">
        <ele>138</ele>
        <time>2021-03-25T01:52:13Z</time>
      </trkpt>
      <trkpt lat="47.01236" lon="-0.73183">
        <ele>139</ele>
        <time>2021-03-25T01:52:14Z</time>
      </trkpt>
      <trkpt lat="47.01242" lon="-0.73148">
        <ele>137</ele>
        <time>2021-03-25T01:52:19Z</time>
      </trkpt>
      <trkpt lat="47.01248" lon="-0.73122">
        <ele>136</ele>
        <time>2021-03-25T01:52:22Z</time>
      </trkpt>
      <trkpt lat="47.01502" lon="-0.72254">
        <ele>161</ele>
        <time>2021-03-25T01:54:17Z</time>
      </trkpt>
      <trkpt lat="47.01586" lon="-0.71958">
        <ele>163</ele>
        <time>2021-03-25T01:54:56Z</time>
      </trkpt>
      <trkpt lat="47.01812" lon="-0.71178">
        <ele>152</ele>
        <time>2021-03-25T01:56:38Z</time>
      </trkpt>
      <trkpt lat="47.01826" lon="-0.71138">
        <ele>152</ele>
        <time>2021-03-25T01:56:44Z</time>
      </trkpt>
      <trkpt lat="47.01837" lon="-0.71116">
        <ele>152</ele>
        <time>2021-03-25T01:56:47Z</time>
      </trkpt>
      <trkpt lat="47.01853" lon="-0.7109">
        <ele>153</ele>
        <time>2021-03-25T01:56:52Z</time>
      </trkpt>
      <trkpt lat="47.01849" lon="-0.71084">
        <ele>153</ele>
        <time>2021-03-25T01:56:53Z</time>
      </trkpt>
      <trkpt lat="47.01846" lon="-0.71076">
        <ele>152</ele>
        <time>2021-03-25T01:56:54Z</time>
      </trkpt>
      <trkpt lat="47.01846" lon="-0.71067">
        <ele>152</ele>
        <time>2021-03-25T01:56:55Z</time>
      </trkpt>
      <trkpt lat="47.01847" lon="-0.71058">
        <ele>152</ele>
        <time>2021-03-25T01:56:56Z</time>
      </trkpt>
      <trkpt lat="47.01851" lon="-0.71051">
        <ele>153</ele>
        <time>2021-03-25T01:56:57Z</time>
      </trkpt>
      <trkpt lat="47.01855" lon="-0.71046">
        <ele>153</ele>
        <time>2021-03-25T01:56:58Z</time>
      </trkpt>
      <trkpt lat="47.01861" lon="-0.71043">
        <ele>153</ele>
        <time>2021-03-25T01:56:59Z</time>
      </trkpt>
      <trkpt lat="47.01867" lon="-0.71043">
        <ele>153</ele>
        <time>2021-03-25T01:57:00Z</time>
      </trkpt>
      <trkpt lat="47.0187" lon="-0.71005">
        <ele>153</ele>
        <time>2021-03-25T01:57:05Z</time>
      </trkpt>
      <trkpt lat="47.01875" lon="-0.70966">
        <ele>153</ele>
        <time>2021-03-25T01:57:10Z</time>
      </trkpt>
      <trkpt lat="47.02053" lon="-0.70349">
        <ele>167</ele>
        <time>2021-03-25T01:58:31Z</time>
      </trkpt>
      <trkpt lat="47.02058" lon="-0.7034">
        <ele>167</ele>
        <time>2021-03-25T01:58:32Z</time>
      </trkpt>
      <trkpt lat="47.02081" lon="-0.7031">
        <ele>168</ele>
        <time>2021-03-25T01:58:38Z</time>
      </trkpt>
      <trkpt lat="47.02103" lon="-0.70274">
        <ele>169</ele>
        <time>2021-03-25T01:58:44Z</time>
      </trkpt>
      <trkpt lat="47.0211" lon="-0.70255">
        <ele>170</ele>
        <time>2021-03-25T01:58:46Z</time>
      </trkpt>
      <trkpt lat="47.02149" lon="-0.70128">
        <ele>173</ele>
        <time>2021-03-25T01:59:03Z</time>
      </trkpt>
      <trkpt lat="47.02165" lon="-0.7009">
        <ele>175</ele>
        <time>2021-03-25T01:59:08Z</time>
      </trkpt>
      <trkpt lat="47.02184" lon="-0.70057">
        <ele>176</ele>
        <time>2021-03-25T01:59:14Z</time>
      </trkpt>
      <trkpt lat="47.02244" lon="-0.6997">
        <ele>177</ele>
        <time>2021-03-25T01:59:29Z</time>
      </trkpt>
      <trkpt lat="47.02368" lon="-0.69797">
        <ele>181</ele>
        <time>2021-03-25T01:59:59Z</time>
      </trkpt>
      <trkpt lat="47.02365" lon="-0.69792">
        <ele>181</ele>
        <time>2021-03-25T02:00:00Z</time>
      </trkpt>
      <trkpt lat="47.02361" lon="-0.69782">
        <ele>181</ele>
        <time>2021-03-25T02:00:01Z</time>
      </trkpt>
      <trkpt lat="47.02349" lon="-0.6962">
        <ele>183</ele>
        <time>2021-03-25T02:00:21Z</time>
      </trkpt>
      <trkpt lat="47.02349" lon="-0.69562">
        <ele>183</ele>
        <time>2021-03-25T02:00:28Z</time>
      </trkpt>
      <trkpt lat="47.02363" lon="-0.69432">
        <ele>182</ele>
        <time>2021-03-25T02:00:44Z</time>
      </trkpt>
      <trkpt lat="47.02425" lon="-0.68981">
        <ele>180</ele>
        <time>2021-03-25T02:01:40Z</time>
      </trkpt>
      <trkpt lat="47.02431" lon="-0.68925">
        <ele>180</ele>
        <time>2021-03-25T02:01:47Z</time>
      </trkpt>
      <trkpt lat="47.02464" lon="-0.68564">
        <ele>179</ele>
        <time>2021-03-25T02:02:31Z</time>
      </trkpt>
      <trkpt lat="47.0247" lon="-0.68535">
        <ele>179</ele>
        <time>2021-03-25T02:02:35Z</time>
      </trkpt>
      <trkpt lat="47.02527" lon="-0.68293">
        <ele>178</ele>
        <time>2021-03-25T02:03:06Z</time>
      </trkpt>
      <trkpt lat="47.02633" lon="-0.67888">
        <ele>174</ele>
        <time>2021-03-25T02:03:58Z</time>
      </trkpt>
      <trkpt lat="47.02641" lon="-0.6785">
        <ele>173</ele>
        <time>2021-03-25T02:04:03Z</time>
      </trkpt>
      <trkpt lat="47.02646" lon="-0.67821">
        <ele>172</ele>
        <time>2021-03-25T02:04:07Z</time>
      </trkpt>
      <trkpt lat="47.02649" lon="-0.6779">
        <ele>172</ele>
        <time>2021-03-25T02:04:11Z</time>
      </trkpt>
      <trkpt lat="47.02653" lon="-0.67735">
        <ele>170</ele>
        <time>2021-03-25T02:04:17Z</time>
      </trkpt>
      <trkpt lat="47.0265" lon="-0.67661">
        <ele>170</ele>
        <time>2021-03-25T02:04:26Z</time>
      </trkpt>
      <trkpt lat="47.02642" lon="-0.67594">
        <ele>168</ele>
        <time>2021-03-25T02:04:35Z</time>
      </trkpt>
      <trkpt lat="47.02642" lon="-0.67554">
        <ele>168</ele>
        <time>2021-03-25T02:04:39Z</time>
      </trkpt>
      <trkpt lat="47.02649" lon="-0.67493">
        <ele>167</ele>
        <time>2021-03-25T02:04:47Z</time>
      </trkpt>
      <trkpt lat="47.0266" lon="-0.67438">
        <ele>166</ele>
        <time>2021-03-25T02:04:54Z</time>
      </trkpt>
      <trkpt lat="47.02693" lon="-0.67314">
        <ele>164</ele>
        <time>2021-03-25T02:05:10Z</time>
      </trkpt>
      <trkpt lat="47.02709" lon="-0.67283">
        <ele>164</ele>
        <time>2021-03-25T02:05:15Z</time>
      </trkpt>
      <trkpt lat="47.0276" lon="-0.67209">
        <ele>162</ele>
        <time>2021-03-25T02:05:27Z</time>
      </trkpt>
      <trkpt lat="47.02811" lon="-0.6713">
        <ele>158</ele>
        <time>2021-03-25T02:05:41Z</time>
      </trkpt>
      <trkpt lat="47.02906" lon="-0.66971">
        <ele>153</ele>
        <time>2021-03-25T02:06:06Z</time>
      </trkpt>
      <trkpt lat="47.02922" lon="-0.66939">
        <ele>152</ele>
        <time>2021-03-25T02:06:11Z</time>
      </trkpt>
      <trkpt lat="47.03055" lon="-0.66649">
        <ele>148</ele>
        <time>2021-03-25T02:06:54Z</time>
      </trkpt>
      <trkpt lat="47.03066" lon="-0.66627">
        <ele>148</ele>
        <time>2021-03-25T02:06:57Z</time>
      </trkpt>
      <trkpt lat="47.03081" lon="-0.66605">
        <ele>148</ele>
        <time>2021-03-25T02:07:01Z</time>
      </trkpt>
      <trkpt lat="47.03142" lon="-0.66535">
        <ele>145</ele>
        <time>2021-03-25T02:07:14Z</time>
      </trkpt>
      <trkpt lat="47.03178" lon="-0.66481">
        <ele>144</ele>
        <time>2021-03-25T02:07:24Z</time>
      </trkpt>
      <trkpt lat="47.03188" lon="-0.66462">
        <ele>144</ele>
        <time>2021-03-25T02:07:26Z</time>
      </trkpt>
      <trkpt lat="47.03196" lon="-0.66444">
        <ele>144</ele>
        <time>2021-03-25T02:07:29Z</time>
      </trkpt>
      <trkpt lat="47.03203" lon="-0.66418">
        <ele>144</ele>
        <time>2021-03-25T02:07:32Z</time>
      </trkpt>
      <trkpt lat="47.03229" lon="-0.66258">
        <ele>141</ele>
        <time>2021-03-25T02:07:52Z</time>
      </trkpt>
      <trkpt lat="47.03238" lon="-0.66227">
        <ele>141</ele>
        <time>2021-03-25T02:07:56Z</time>
      </trkpt>
      <trkpt lat="47.03247" lon="-0.66207">
        <ele>141</ele>
        <time>2021-03-25T02:07:59Z</time>
      </trkpt>
      <trkpt lat="47.03268" lon="-0.66165">
        <ele>142</ele>
        <time>2021-03-25T02:08:06Z</time>
      </trkpt>
      <trkpt lat="47.034" lon="-0.65926">
        <ele>144</ele>
        <time>2021-03-25T02:08:43Z</time>
      </trkpt>
      <trkpt lat="47.03428" lon="-0.65887">
        <ele>144</ele>
        <time>2021-03-25T02:08:50Z</time>
      </trkpt>
      <trkpt lat="47.03463" lon="-0.65847">
        <ele>144</ele>
        <time>2021-03-25T02:08:58Z</time>
      </trkpt>
      <trkpt lat="47.03486" lon="-0.65809">
        <ele>144</ele>
        <time>2021-03-25T02:09:04Z</time>
      </trkpt>
      <trkpt lat="47.03504" lon="-0.65773">
        <ele>144</ele>
        <time>2021-03-25T02:09:09Z</time>
      </trkpt>
      <trkpt lat="47.03583" lon="-0.65584">
        <ele>140</ele>
        <time>2021-03-25T02:09:36Z</time>
      </trkpt>
      <trkpt lat="47.03603" lon="-0.65512">
        <ele>138</ele>
        <time>2021-03-25T02:09:46Z</time>
      </trkpt>
      <trkpt lat="47.03607" lon="-0.65464">
        <ele>138</ele>
        <time>2021-03-25T02:09:52Z</time>
      </trkpt>
      <trkpt lat="47.03608" lon="-0.65349">
        <ele>136</ele>
        <time>2021-03-25T02:10:05Z</time>
      </trkpt>
      <trkpt lat="47.03607" lon="-0.65305">
        <ele>136</ele>
        <time>2021-03-25T02:10:11Z</time>
      </trkpt>
      <trkpt lat="47.03605" lon="-0.65263">
        <ele>135</ele>
        <time>2021-03-25T02:10:16Z</time>
      </trkpt>
      <trkpt lat="47.03573" lon="-0.65082">
        <ele>132</ele>
        <time>2021-03-25T02:10:39Z</time>
      </trkpt>
      <trkpt lat="47.0357" lon="-0.65055">
        <ele>132</ele>
        <time>2021-03-25T02:10:42Z</time>
      </trkpt>
      <trkpt lat="47.03571" lon="-0.65026">
        <ele>132</ele>
        <time>2021-03-25T02:10:45Z</time>
      </trkpt>
      <trkpt lat="47.03573" lon="-0.64996">
        <ele>132</ele>
        <time>2021-03-25T02:10:49Z</time>
      </trkpt>
      <trkpt lat="47.03585" lon="-0.64919">
        <ele>133</ele>
        <time>2021-03-25T02:10:59Z</time>
      </trkpt>
      <trkpt lat="47.036" lon="-0.64856">
        <ele>132</ele>
        <time>2021-03-25T02:11:07Z</time>
      </trkpt>
      <trkpt lat="47.0362" lon="-0.64781">
        <ele>130</ele>
        <time>2021-03-25T02:11:17Z</time>
      </trkpt>
      <trkpt lat="47.03624" lon="-0.64756">
        <ele>130</ele>
        <time>2021-03-25T02:11:20Z</time>
      </trkpt>
      <trkpt lat="47.03625" lon="-0.64738">
        <ele>130</ele>
        <time>2021-03-25T02:11:22Z</time>
      </trkpt>
      <trkpt lat="47.03621" lon="-0.647">
        <ele>130</ele>
        <time>2021-03-25T02:11:27Z</time>
      </trkpt>
      <trkpt lat="47.03571" lon="-0.64455">
        <ele>128</ele>
        <time>2021-03-25T02:11:58Z</time>
      </trkpt>
      <trkpt lat="47.03547" lon="-0.64319">
        <ele>129</ele>
        <time>2021-03-25T02:12:15Z</time>
      </trkpt>
      <trkpt lat="47.03538" lon="-0.64198">
        <ele>130</ele>
        <time>2021-03-25T02:12:29Z</time>
      </trkpt>
      <trkpt lat="47.03526" lon="-0.64119">
        <ele>130</ele>
        <time>2021-03-25T02:12:39Z</time>
      </trkpt>
      <trkpt lat="47.03505" lon="-0.64033">
        <ele>130</ele>
        <time>2021-03-25T02:12:50Z</time>
      </trkpt>
      <trkpt lat="47.03472" lon="-0.63919">
        <ele>131</ele>
        <time>2021-03-25T02:13:05Z</time>
      </trkpt>
      <trkpt lat="47.03429" lon="-0.63817">
        <ele>130</ele>
        <time>2021-03-25T02:13:20Z</time>
      </trkpt>
      <trkpt lat="47.03421" lon="-0.63792">
        <ele>130</ele>
        <time>2021-03-25T02:13:23Z</time>
      </trkpt>
      <trkpt lat="47.03417" lon="-0.63765">
        <ele>129</ele>
        <time>2021-03-25T02:13:26Z</time>
      </trkpt>
      <trkpt lat="47.03355" lon="-0.631">
        <ele>125</ele>
        <time>2021-03-25T02:14:48Z</time>
      </trkpt>
      <trkpt lat="47.03332" lon="-0.62908">
        <ele>128</ele>
        <time>2021-03-25T02:15:12Z</time>
      </trkpt>
      <trkpt lat="47.03315" lon="-0.62786">
        <ele>128</ele>
        <time>2021-03-25T02:15:27Z</time>
      </trkpt>
      <trkpt lat="47.03298" lon="-0.62683">
        <ele>127</ele>
        <time>2021-03-25T02:15:39Z</time>
      </trkpt>
      <trkpt lat="47.0317" lon="-0.62007">
        <ele>127</ele>
        <time>2021-03-25T02:17:05Z</time>
      </trkpt>
      <trkpt lat="47.0316" lon="-0.61962">
        <ele>127</ele>
        <time>2021-03-25T02:17:10Z</time>
      </trkpt>
      <trkpt lat="47.03148" lon="-0.6192">
        <ele>128</ele>
        <time>2021-03-25T02:17:16Z</time>
      </trkpt>
      <trkpt lat="47.03134" lon="-0.61882">
        <ele>129</ele>
        <time>2021-03-25T02:17:21Z</time>
      </trkpt>
      <trkpt lat="47.03091" lon="-0.6179">
        <ele>130</ele>
        <time>2021-03-25T02:17:35Z</time>
      </trkpt>
      <trkpt lat="47.03039" lon="-0.61695">
        <ele>129</ele>
        <time>2021-03-25T02:17:49Z</time>
      </trkpt>
      <trkpt lat="47.03035" lon="-0.61682">
        <ele>129</ele>
        <time>2021-03-25T02:17:51Z</time>
      </trkpt>
      <trkpt lat="47.03035" lon="-0.61672">
        <ele>128</ele>
        <time>2021-03-25T02:17:52Z</time>
      </trkpt>
      <trkpt lat="47.03038" lon="-0.6166">
        <ele>128</ele>
        <time>2021-03-25T02:17:54Z</time>
      </trkpt>
      <trkpt lat="47.03139" lon="-0.61413">
        <ele>122</ele>
        <time>2021-03-25T02:18:29Z</time>
      </trkpt>
      <trkpt lat="47.0316" lon="-0.61356">
        <ele>121</ele>
        <time>2021-03-25T02:18:37Z</time>
      </trkpt>
      <trkpt lat="47.0318" lon="-0.61292">
        <ele>120</ele>
        <time>2021-03-25T02:18:45Z</time>
      </trkpt>
      <trkpt lat="47.03183" lon="-0.61274">
        <ele>120</ele>
        <time>2021-03-25T02:18:47Z</time>
      </trkpt>
      <trkpt lat="47.03181" lon="-0.61274">
        <ele>120</ele>
        <time>2021-03-25T02:18:48Z</time>
      </trkpt>
      <trkpt lat="47.03178" lon="-0.61267">
        <ele>120</ele>
        <time>2021-03-25T02:18:49Z</time>
      </trkpt>
      <trkpt lat="47.03178" lon="-0.61263">
        <ele>120</ele>
        <time>2021-03-25T02:18:49Z</time>
      </trkpt>
      <trkpt lat="47.0318" lon="-0.6126">
        <ele>120</ele>
        <time>2021-03-25T02:18:50Z</time>
      </trkpt>
      <trkpt lat="47.03186" lon="-0.6126">
        <ele>120</ele>
        <time>2021-03-25T02:18:51Z</time>
      </trkpt>
      <trkpt lat="47.03191" lon="-0.61235">
        <ele>120</ele>
        <time>2021-03-25T02:18:54Z</time>
      </trkpt>
      <trkpt lat="47.03202" lon="-0.61168">
        <ele>121</ele>
        <time>2021-03-25T02:19:02Z</time>
      </trkpt>
      <trkpt lat="47.03229" lon="-0.61066">
        <ele>122</ele>
        <time>2021-03-25T02:19:16Z</time>
      </trkpt>
      <trkpt lat="47.03235" lon="-0.6104">
        <ele>121</ele>
        <time>2021-03-25T02:19:19Z</time>
      </trkpt>
      <trkpt lat="47.03238" lon="-0.61018">
        <ele>121</ele>
        <time>2021-03-25T02:19:22Z</time>
      </trkpt>
      <trkpt lat="47.03242" lon="-0.60949">
        <ele>120</ele>
        <time>2021-03-25T02:19:30Z</time>
      </trkpt>
      <trkpt lat="47.03241" lon="-0.60893">
        <ele>121</ele>
        <time>2021-03-25T02:19:37Z</time>
      </trkpt>
      <trkpt lat="47.03227" lon="-0.60779">
        <ele>120</ele>
        <time>2021-03-25T02:19:51Z</time>
      </trkpt>
      <trkpt lat="47.03231" lon="-0.60713">
        <ele>120</ele>
        <time>2021-03-25T02:19:59Z</time>
      </trkpt>
      <trkpt lat="47.0324" lon="-0.60654">
        <ele>120</ele>
        <time>2021-03-25T02:20:06Z</time>
      </trkpt>
      <trkpt lat="47.03252" lon="-0.60653">
        <ele>120</ele>
        <time>2021-03-25T02:20:08Z</time>
      </trkpt>
      <trkpt lat="47.03294" lon="-0.60635">
        <ele>121</ele>
        <time>2021-03-25T02:20:16Z</time>
      </trkpt>
      <trkpt lat="47.03345" lon="-0.60604">
        <ele>122</ele>
        <time>2021-03-25T02:20:26Z</time>
      </trkpt>
      <trkpt lat="47.03391" lon="-0.60556">
        <ele>124</ele>
        <time>2021-03-25T02:20:36Z</time>
      </trkpt>
      <trkpt lat="47.0344" lon="-0.60519">
        <ele>126</ele>
        <time>2021-03-25T02:20:46Z</time>
      </trkpt>
      <trkpt lat="47.03514" lon="-0.60471">
        <ele>129</ele>
        <time>2021-03-25T02:21:00Z</time>
      </trkpt>
      <trkpt lat="47.03533" lon="-0.60454">
        <ele>130</ele>
        <time>2021-03-25T02:21:04Z</time>
      </trkpt>
      <trkpt lat="47.03594" lon="-0.60392">
        <ele>133</ele>
        <time>2021-03-25T02:21:17Z</time>
      </trkpt>
      <trkpt lat="47.03732" lon="-0.60262">
        <ele>136</ele>
        <time>2021-03-25T02:21:47Z</time>
      </trkpt>
      <trkpt lat="47.03829" lon="-0.60166">
        <ele>138</ele>
        <time>2021-03-25T02:22:07Z</time>
      </trkpt>
      <trkpt lat="47.03898" lon="-0.60094">
        <ele>138</ele>
        <time>2021-03-25T02:22:23Z</time>
      </trkpt>
      <trkpt lat="47.03932" lon="-0.60048">
        <ele>139</ele>
        <time>2021-03-25T02:22:31Z</time>
      </trkpt>
      <trkpt lat="47.04069" lon="-0.59839">
        <ele>143</ele>
        <time>2021-03-25T02:23:06Z</time>
      </trkpt>
      <trkpt lat="47.041" lon="-0.59778">
        <ele>143</ele>
        <time>2021-03-25T02:23:15Z</time>
      </trkpt>
      <trkpt lat="47.04165" lon="-0.59631">
        <ele>142</ele>
        <time>2021-03-25T02:23:36Z</time>
      </trkpt>
      <trkpt lat="47.04189" lon="-0.59572">
        <ele>143</ele>
        <time>2021-03-25T02:23:45Z</time>
      </trkpt>
      <trkpt lat="47.04218" lon="-0.59472">
        <ele>144</ele>
        <time>2021-03-25T02:23:58Z</time>
      </trkpt>
      <trkpt lat="47.04298" lon="-0.59239">
        <ele>143</ele>
        <time>2021-03-25T02:24:30Z</time>
      </trkpt>
      <trkpt lat="47.04369" lon="-0.59052">
        <ele>140</ele>
        <time>2021-03-25T02:24:55Z</time>
      </trkpt>
      <trkpt lat="47.04385" lon="-0.59006">
        <ele>139</ele>
        <time>2021-03-25T02:25:02Z</time>
      </trkpt>
      <trkpt lat="47.04416" lon="-0.58893">
        <ele>138</ele>
        <time>2021-03-25T02:25:17Z</time>
      </trkpt>
      <trkpt lat="47.04478" lon="-0.58666">
        <ele>143</ele>
        <time>2021-03-25T02:25:46Z</time>
      </trkpt>
      <trkpt lat="47.045" lon="-0.5857">
        <ele>144</ele>
        <time>2021-03-25T02:25:58Z</time>
      </trkpt>
      <trkpt lat="47.04513" lon="-0.58528">
        <ele>146</ele>
        <time>2021-03-25T02:26:04Z</time>
      </trkpt>
      <trkpt lat="47.04532" lon="-0.58486">
        <ele>147</ele>
        <time>2021-03-25T02:26:10Z</time>
      </trkpt>
      <trkpt lat="47.04559" lon="-0.58434">
        <ele>147</ele>
        <time>2021-03-25T02:26:18Z</time>
      </trkpt>
      <trkpt lat="47.04602" lon="-0.58376">
        <ele>147</ele>
        <time>2021-03-25T02:26:28Z</time>
      </trkpt>
      <trkpt lat="47.04769" lon="-0.58087">
        <ele>149</ele>
        <time>2021-03-25T02:27:14Z</time>
      </trkpt>
      <trkpt lat="47.04782" lon="-0.58068">
        <ele>149</ele>
        <time>2021-03-25T02:27:18Z</time>
      </trkpt>
      <trkpt lat="47.04818" lon="-0.58016">
        <ele>149</ele>
        <time>2021-03-25T02:27:27Z</time>
      </trkpt>
      <trkpt lat="47.04856" lon="-0.57971">
        <ele>149</ele>
        <time>2021-03-25T02:27:35Z</time>
      </trkpt>
      <trkpt lat="47.04895" lon="-0.57936">
        <ele>150</ele>
        <time>2021-03-25T02:27:43Z</time>
      </trkpt>
      <trkpt lat="47.04915" lon="-0.57908">
        <ele>150</ele>
        <time>2021-03-25T02:27:48Z</time>
      </trkpt>
      <trkpt lat="47.04998" lon="-0.57772">
        <ele>152</ele>
        <time>2021-03-25T02:28:11Z</time>
      </trkpt>
      <trkpt lat="47.05117" lon="-0.5757">
        <ele>154</ele>
        <time>2021-03-25T02:28:43Z</time>
      </trkpt>
      <trkpt lat="47.05235" lon="-0.57374">
        <ele>155</ele>
        <time>2021-03-25T02:29:15Z</time>
      </trkpt>
      <trkpt lat="47.05292" lon="-0.57277">
        <ele>156</ele>
        <time>2021-03-25T02:29:30Z</time>
      </trkpt>
      <trkpt lat="47.05312" lon="-0.57247">
        <ele>156</ele>
        <time>2021-03-25T02:29:35Z</time>
      </trkpt>
      <trkpt lat="47.05443" lon="-0.57096">
        <ele>162</ele>
        <time>2021-03-25T02:30:05Z</time>
      </trkpt>
      <trkpt lat="47.05492" lon="-0.57033">
        <ele>163</ele>
        <time>2021-03-25T02:30:16Z</time>
      </trkpt>
      <trkpt lat="47.05565" lon="-0.56931">
        <ele>163</ele>
        <time>2021-03-25T02:30:34Z</time>
      </trkpt>
      <trkpt lat="47.056" lon="-0.56886">
        <ele>164</ele>
        <time>2021-03-25T02:30:43Z</time>
      </trkpt>
      <trkpt lat="47.05642" lon="-0.56844">
        <ele>165</ele>
        <time>2021-03-25T02:30:52Z</time>
      </trkpt>
      <trkpt lat="47.0567" lon="-0.56819">
        <ele>166</ele>
        <time>2021-03-25T02:30:58Z</time>
      </trkpt>
      <trkpt lat="47.05744" lon="-0.56775">
        <ele>168</ele>
        <time>2021-03-25T02:31:12Z</time>
      </trkpt>
      <trkpt lat="47.05898" lon="-0.56638">
        <ele>171</ele>
        <time>2021-03-25T02:31:44Z</time>
      </trkpt>
      <trkpt lat="47.05907" lon="-0.56627">
        <ele>171</ele>
        <time>2021-03-25T02:31:46Z</time>
      </trkpt>
      <trkpt lat="47.05963" lon="-0.56541">
        <ele>172</ele>
        <time>2021-03-25T02:32:00Z</time>
      </trkpt>
      <trkpt lat="47.0598" lon="-0.5651">
        <ele>174</ele>
        <time>2021-03-25T02:32:05Z</time>
      </trkpt>
      <trkpt lat="47.05994" lon="-0.56481">
        <ele>175</ele>
        <time>2021-03-25T02:32:09Z</time>
      </trkpt>
      <trkpt lat="47.06001" lon="-0.5646">
        <ele>175</ele>
        <time>2021-03-25T02:32:12Z</time>
      </trkpt>
      <trkpt lat="47.06006" lon="-0.5644">
        <ele>175</ele>
        <time>2021-03-25T02:32:15Z</time>
      </trkpt>
      <trkpt lat="47.06043" lon="-0.56208">
        <ele>172</ele>
        <time>2021-03-25T02:32:44Z</time>
      </trkpt>
      <trkpt lat="47.0607" lon="-0.5613">
        <ele>171</ele>
        <time>2021-03-25T02:32:54Z</time>
      </trkpt>
      <trkpt lat="47.06079" lon="-0.56105">
        <ele>169</ele>
        <time>2021-03-25T02:32:58Z</time>
      </trkpt>
      <trkpt lat="47.06109" lon="-0.56053">
        <ele>165</ele>
        <time>2021-03-25T02:33:06Z</time>
      </trkpt>
      <trkpt lat="47.06188" lon="-0.55938">
        <ele>163</ele>
        <time>2021-03-25T02:33:26Z</time>
      </trkpt>
      <trkpt lat="47.06314" lon="-0.55812">
        <ele>168</ele>
        <time>2021-03-25T02:33:53Z</time>
      </trkpt>
      <trkpt lat="47.06337" lon="-0.55793">
        <ele>170</ele>
        <time>2021-03-25T02:33:58Z</time>
      </trkpt>
      <trkpt lat="47.06376" lon="-0.55768">
        <ele>172</ele>
        <time>2021-03-25T02:34:05Z</time>
      </trkpt>
      <trkpt lat="47.06394" lon="-0.55761">
        <ele>173</ele>
        <time>2021-03-25T02:34:09Z</time>
      </trkpt>
      <trkpt lat="47.06427" lon="-0.55752">
        <ele>174</ele>
        <time>2021-03-25T02:34:14Z</time>
      </trkpt>
      <trkpt lat="47.06693" lon="-0.55725">
        <ele>173</ele>
        <time>2021-03-25T02:35:02Z</time>
      </trkpt>
      <trkpt lat="47.06726" lon="-0.5572">
        <ele>173</ele>
        <time>2021-03-25T02:35:08Z</time>
      </trkpt>
      <trkpt lat="47.06961" lon="-0.55641">
        <ele>172</ele>
        <time>2021-03-25T02:35:51Z</time>
      </trkpt>
      <trkpt lat="47.06979" lon="-0.55632">
        <ele>172</ele>
        <time>2021-03-25T02:35:54Z</time>
      </trkpt>
      <trkpt lat="47.07005" lon="-0.55614">
        <ele>172</ele>
        <time>2021-03-25T02:35:59Z</time>
      </trkpt>
      <trkpt lat="47.0703" lon="-0.55589">
        <ele>172</ele>
        <time>2021-03-25T02:36:05Z</time>
      </trkpt>
      <trkpt lat="47.07067" lon="-0.5554">
        <ele>170</ele>
        <time>2021-03-25T02:36:13Z</time>
      </trkpt>
      <trkpt lat="47.07096" lon="-0.55508">
        <ele>167</ele>
        <time>2021-03-25T02:36:20Z</time>
      </trkpt>
      <trkpt lat="47.07117" lon="-0.55478">
        <ele>165</ele>
        <time>2021-03-25T02:36:25Z</time>
      </trkpt>
      <trkpt lat="47.07126" lon="-0.55428">
        <ele>162</ele>
        <time>2021-03-25T02:36:31Z</time>
      </trkpt>
      <trkpt lat="47.07133" lon="-0.55395">
        <ele>160</ele>
        <time>2021-03-25T02:36:36Z</time>
      </trkpt>
      <trkpt lat="47.07146" lon="-0.55367">
        <ele>158</ele>
        <time>2021-03-25T02:36:40Z</time>
      </trkpt>
      <trkpt lat="47.07201" lon="-0.55276">
        <ele>152</ele>
        <time>2021-03-25T02:36:54Z</time>
      </trkpt>
      <trkpt lat="47.0722" lon="-0.55249">
        <ele>150</ele>
        <time>2021-03-25T02:36:59Z</time>
      </trkpt>
      <trkpt lat="47.07264" lon="-0.55198">
        <ele>148</ele>
        <time>2021-03-25T02:37:09Z</time>
      </trkpt>
      <trkpt lat="47.07279" lon="-0.55172">
        <ele>146</ele>
        <time>2021-03-25T02:37:13Z</time>
      </trkpt>
      <trkpt lat="47.07308" lon="-0.55099">
        <ele>143</ele>
        <time>2021-03-25T02:37:23Z</time>
      </trkpt>
      <trkpt lat="47.07316" lon="-0.55086">
        <ele>142</ele>
        <time>2021-03-25T02:37:26Z</time>
      </trkpt>
      <trkpt lat="47.07324" lon="-0.55077">
        <ele>141</ele>
        <time>2021-03-25T02:37:27Z</time>
      </trkpt>
      <trkpt lat="47.07342" lon="-0.5507">
        <ele>141</ele>
        <time>2021-03-25T02:37:31Z</time>
      </trkpt>
      <trkpt lat="47.07386" lon="-0.55072">
        <ele>141</ele>
        <time>2021-03-25T02:37:39Z</time>
      </trkpt>
      <trkpt lat="47.07398" lon="-0.5507">
        <ele>141</ele>
        <time>2021-03-25T02:37:41Z</time>
      </trkpt>
      <trkpt lat="47.07421" lon="-0.55062">
        <ele>140</ele>
        <time>2021-03-25T02:37:45Z</time>
      </trkpt>
      <trkpt lat="47.07443" lon="-0.55044">
        <ele>140</ele>
        <time>2021-03-25T02:37:49Z</time>
      </trkpt>
      <trkpt lat="47.07516" lon="-0.54961">
        <ele>138</ele>
        <time>2021-03-25T02:38:06Z</time>
      </trkpt>
      <trkpt lat="47.07544" lon="-0.54936">
        <ele>138</ele>
        <time>2021-03-25T02:38:12Z</time>
      </trkpt>
      <trkpt lat="47.07604" lon="-0.54897">
        <ele>137</ele>
        <time>2021-03-25T02:38:23Z</time>
      </trkpt>
      <trkpt lat="47.07715" lon="-0.54835">
        <ele>134</ele>
        <time>2021-03-25T02:38:44Z</time>
      </trkpt>
      <trkpt lat="47.07761" lon="-0.54815">
        <ele>134</ele>
        <time>2021-03-25T02:38:53Z</time>
      </trkpt>
      <trkpt lat="47.07771" lon="-0.54807">
        <ele>133</ele>
        <time>2021-03-25T02:38:55Z</time>
      </trkpt>
      <trkpt lat="47.07786" lon="-0.54788">
        <ele>133</ele>
        <time>2021-03-25T02:38:59Z</time>
      </trkpt>
      <trkpt lat="47.07793" lon="-0.54778">
        <ele>132</ele>
        <time>2021-03-25T02:39:00Z</time>
      </trkpt>
      <trkpt lat="47.07839" lon="-0.54693">
        <ele>131</ele>
        <time>2021-03-25T02:39:13Z</time>
      </trkpt>
      <trkpt lat="47.07863" lon="-0.54639">
        <ele>132</ele>
        <time>2021-03-25T02:39:21Z</time>
      </trkpt>
      <trkpt lat="47.07871" lon="-0.54624">
        <ele>132</ele>
        <time>2021-03-25T02:39:24Z</time>
      </trkpt>
      <trkpt lat="47.07868" lon="-0.5462">
        <ele>132</ele>
        <time>2021-03-25T02:39:24Z</time>
      </trkpt>
      <trkpt lat="47.07871" lon="-0.54624">
        <ele>132</ele>
        <time>2021-03-25T02:39:25Z</time>
      </trkpt>
      <trkpt lat="47.07985" lon="-0.54519">
        <ele>131</ele>
        <time>2021-03-25T02:39:49Z</time>
      </trkpt>
      <trkpt lat="47.08042" lon="-0.54446">
        <ele>130</ele>
        <time>2021-03-25T02:40:02Z</time>
      </trkpt>
      <trkpt lat="47.08057" lon="-0.54433">
        <ele>130</ele>
        <time>2021-03-25T02:40:05Z</time>
      </trkpt>
      <trkpt lat="47.08061" lon="-0.54431">
        <ele>130</ele>
        <time>2021-03-25T02:40:06Z</time>
      </trkpt>
      <trkpt lat="47.08064" lon="-0.54411">
        <ele>130</ele>
        <time>2021-03-25T02:40:09Z</time>
      </trkpt>
      <trkpt lat="47.08053" lon="-0.54344">
        <ele>130</ele>
        <time>2021-03-25T02:40:17Z</time>
      </trkpt>
      <trkpt lat="47.08047" lon="-0.54301">
        <ele>129</ele>
        <time>2021-03-25T02:40:22Z</time>
      </trkpt>
      <trkpt lat="47.08044" lon="-0.54257">
        <ele>128</ele>
        <time>2021-03-25T02:40:28Z</time>
      </trkpt>
      <trkpt lat="47.08041" lon="-0.54161">
        <ele>126</ele>
        <time>2021-03-25T02:40:39Z</time>
      </trkpt>
      <trkpt lat="47.08042" lon="-0.54121">
        <ele>126</ele>
        <time>2021-03-25T02:40:44Z</time>
      </trkpt>
      <trkpt lat="47.08046" lon="-0.54084">
        <ele>125</ele>
        <time>2021-03-25T02:40:49Z</time>
      </trkpt>
      <trkpt lat="47.08051" lon="-0.54059">
        <ele>125</ele>
        <time>2021-03-25T02:40:52Z</time>
      </trkpt>
      <trkpt lat="47.08061" lon="-0.54035">
        <ele>125</ele>
        <time>2021-03-25T02:40:55Z</time>
      </trkpt>
      <trkpt lat="47.0807" lon="-0.54021">
        <ele>124</ele>
        <time>2021-03-25T02:40:58Z</time>
      </trkpt>
      <trkpt lat="47.08124" lon="-0.5397">
        <ele>123</ele>
        <time>2021-03-25T02:41:09Z</time>
      </trkpt>
      <trkpt lat="47.08152" lon="-0.5394">
        <ele>122</ele>
        <time>2021-03-25T02:41:15Z</time>
      </trkpt>
      <trkpt lat="47.08297" lon="-0.5376">
        <ele>123</ele>
        <time>2021-03-25T02:41:49Z</time>
      </trkpt>
      <trkpt lat="47.08321" lon="-0.53734">
        <ele>122</ele>
        <time>2021-03-25T02:41:54Z</time>
      </trkpt>
      <trkpt lat="47.08345" lon="-0.53716">
        <ele>122</ele>
        <time>2021-03-25T02:41:59Z</time>
      </trkpt>
      <trkpt lat="47.08393" lon="-0.53686">
        <ele>123</ele>
        <time>2021-03-25T02:42:08Z</time>
      </trkpt>
      <trkpt lat="47.08413" lon="-0.53671">
        <ele>124</ele>
        <time>2021-03-25T02:42:12Z</time>
      </trkpt>
      <trkpt lat="47.08449" lon="-0.53634">
        <ele>125</ele>
        <time>2021-03-25T02:42:20Z</time>
      </trkpt>
      <trkpt lat="47.0846" lon="-0.53619">
        <ele>125</ele>
        <time>2021-03-25T02:42:23Z</time>
      </trkpt>
      <trkpt lat="47.08475" lon="-0.53592">
        <ele>125</ele>
        <time>2021-03-25T02:42:27Z</time>
      </trkpt>
      <trkpt lat="47.08489" lon="-0.53557">
        <ele>125</ele>
        <time>2021-03-25T02:42:32Z</time>
      </trkpt>
      <trkpt lat="47.08513" lon="-0.53493">
        <ele>125</ele>
        <time>2021-03-25T02:42:41Z</time>
      </trkpt>
      <trkpt lat="47.08529" lon="-0.53439">
        <ele>125</ele>
        <time>2021-03-25T02:42:48Z</time>
      </trkpt>
      <trkpt lat="47.08546" lon="-0.53352">
        <ele>126</ele>
        <time>2021-03-25T02:42:59Z</time>
      </trkpt>
      <trkpt lat="47.08581" lon="-0.53217">
        <ele>127</ele>
        <time>2021-03-25T02:43:17Z</time>
      </trkpt>
      <trkpt lat="47.08657" lon="-0.53034">
        <ele>126</ele>
        <time>2021-03-25T02:43:42Z</time>
      </trkpt>
      <trkpt lat="47.08681" lon="-0.52989">
        <ele>125</ele>
        <time>2021-03-25T02:43:49Z</time>
      </trkpt>
      <trkpt lat="47.08707" lon="-0.52948">
        <ele>124</ele>
        <time>2021-03-25T02:43:56Z</time>
      </trkpt>
      <trkpt lat="47.08739" lon="-0.52904">
        <ele>123</ele>
        <time>2021-03-25T02:44:04Z</time>
      </trkpt>
      <trkpt lat="47.08813" lon="-0.5281">
        <ele>124</ele>
        <time>2021-03-25T02:44:21Z</time>
      </trkpt>
      <trkpt lat="47.08865" lon="-0.52752">
        <ele>124</ele>
        <time>2021-03-25T02:44:33Z</time>
      </trkpt>
      <trkpt lat="47.08878" lon="-0.52743">
        <ele>124</ele>
        <time>2021-03-25T02:44:36Z</time>
      </trkpt>
      <trkpt lat="47.08893" lon="-0.52738">
        <ele>125</ele>
        <time>2021-03-25T02:44:38Z</time>
      </trkpt>
      <trkpt lat="47.08935" lon="-0.52731">
        <ele>124</ele>
        <time>2021-03-25T02:44:46Z</time>
      </trkpt>
      <trkpt lat="47.08954" lon="-0.52724">
        <ele>124</ele>
        <time>2021-03-25T02:44:49Z</time>
      </trkpt>
      <trkpt lat="47.08967" lon="-0.52716">
        <ele>124</ele>
        <time>2021-03-25T02:44:52Z</time>
      </trkpt>
      <trkpt lat="47.08983" lon="-0.52703">
        <ele>123</ele>
        <time>2021-03-25T02:44:55Z</time>
      </trkpt>
      <trkpt lat="47.08995" lon="-0.52687">
        <ele>123</ele>
        <time>2021-03-25T02:44:58Z</time>
      </trkpt>
      <trkpt lat="47.09049" lon="-0.52582">
        <ele>123</ele>
        <time>2021-03-25T02:45:14Z</time>
      </trkpt>
      <trkpt lat="47.09072" lon="-0.52544">
        <ele>123</ele>
        <time>2021-03-25T02:45:20Z</time>
      </trkpt>
      <trkpt lat="47.09126" lon="-0.52471">
        <ele>123</ele>
        <time>2021-03-25T02:45:33Z</time>
      </trkpt>
      <trkpt lat="47.09224" lon="-0.52363">
        <ele>125</ele>
        <time>2021-03-25T02:45:55Z</time>
      </trkpt>
      <trkpt lat="47.09235" lon="-0.52348">
        <ele>125</ele>
        <time>2021-03-25T02:45:58Z</time>
      </trkpt>
      <trkpt lat="47.09253" lon="-0.52305">
        <ele>126</ele>
        <time>2021-03-25T02:46:04Z</time>
      </trkpt>
      <trkpt lat="47.0927" lon="-0.52255">
        <ele>127</ele>
        <time>2021-03-25T02:46:10Z</time>
      </trkpt>
      <trkpt lat="47.09277" lon="-0.5223">
        <ele>127</ele>
        <time>2021-03-25T02:46:14Z</time>
      </trkpt>
      <trkpt lat="47.0929" lon="-0.5217">
        <ele>128</ele>
        <time>2021-03-25T02:46:21Z</time>
      </trkpt>
      <trkpt lat="47.09295" lon="-0.5213">
        <ele>128</ele>
        <time>2021-03-25T02:46:26Z</time>
      </trkpt>
      <trkpt lat="47.09301" lon="-0.52">
        <ele>127</ele>
        <time>2021-03-25T02:46:42Z</time>
      </trkpt>
      <trkpt lat="47.09304" lon="-0.51846">
        <ele>126</ele>
        <time>2021-03-25T02:47:01Z</time>
      </trkpt>
      <trkpt lat="47.09306" lon="-0.5182">
        <ele>126</ele>
        <time>2021-03-25T02:47:04Z</time>
      </trkpt>
      <trkpt lat="47.09311" lon="-0.51805">
        <ele>125</ele>
        <time>2021-03-25T02:47:06Z</time>
      </trkpt>
      <trkpt lat="47.09318" lon="-0.5179">
        <ele>125</ele>
        <time>2021-03-25T02:47:08Z</time>
      </trkpt>
      <trkpt lat="47.09384" lon="-0.51694">
        <ele>125</ele>
        <time>2021-03-25T02:47:25Z</time>
      </trkpt>
      <trkpt lat="47.09482" lon="-0.5157">
        <ele>121</ele>
        <time>2021-03-25T02:47:48Z</time>
      </trkpt>
      <trkpt lat="47.09524" lon="-0.51501">
        <ele>120</ele>
        <time>2021-03-25T02:47:59Z</time>
      </trkpt>
      <trkpt lat="47.0954" lon="-0.51464">
        <ele>119</ele>
        <time>2021-03-25T02:48:04Z</time>
      </trkpt>
      <trkpt lat="47.09544" lon="-0.51451">
        <ele>119</ele>
        <time>2021-03-25T02:48:06Z</time>
      </trkpt>
      <trkpt lat="47.09545" lon="-0.51428">
        <ele>118</ele>
        <time>2021-03-25T02:48:09Z</time>
      </trkpt>
      <trkpt lat="47.0952" lon="-0.51257">
        <ele>118</ele>
        <time>2021-03-25T02:48:30Z</time>
      </trkpt>
      <trkpt lat="47.09519" lon="-0.51224">
        <ele>118</ele>
        <time>2021-03-25T02:48:34Z</time>
      </trkpt>
      <trkpt lat="47.09526" lon="-0.51142">
        <ele>118</ele>
        <time>2021-03-25T02:48:44Z</time>
      </trkpt>
      <trkpt lat="47.09533" lon="-0.5109">
        <ele>118</ele>
        <time>2021-03-25T02:48:50Z</time>
      </trkpt>
      <trkpt lat="47.09542" lon="-0.51054">
        <ele>117</ele>
        <time>2021-03-25T02:48:55Z</time>
      </trkpt>
      <trkpt lat="47.09553" lon="-0.51022">
        <ele>116</ele>
        <time>2021-03-25T02:48:59Z</time>
      </trkpt>
      <trkpt lat="47.09564" lon="-0.51004">
        <ele>115</ele>
        <time>2021-03-25T02:49:02Z</time>
      </trkpt>
      <trkpt lat="47.0966" lon="-0.50879">
        <ele>115</ele>
        <time>2021-03-25T02:49:25Z</time>
      </trkpt>
      <trkpt lat="47.09682" lon="-0.50853">
        <ele>115</ele>
        <time>2021-03-25T02:49:30Z</time>
      </trkpt>
      <trkpt lat="47.09703" lon="-0.50832">
        <ele>115</ele>
        <time>2021-03-25T02:49:35Z</time>
      </trkpt>
      <trkpt lat="47.09727" lon="-0.50815">
        <ele>114</ele>
        <time>2021-03-25T02:49:39Z</time>
      </trkpt>
      <trkpt lat="47.09816" lon="-0.50754">
        <ele>116</ele>
        <time>2021-03-25T02:49:57Z</time>
      </trkpt>
      <trkpt lat="47.09828" lon="-0.50744">
        <ele>116</ele>
        <time>2021-03-25T02:49:59Z</time>
      </trkpt>
      <trkpt lat="47.09881" lon="-0.50685">
        <ele>116</ele>
        <time>2021-03-25T02:50:11Z</time>
      </trkpt>
      <trkpt lat="47.09951" lon="-0.50632">
        <ele>115</ele>
        <time>2021-03-25T02:50:25Z</time>
      </trkpt>
      <trkpt lat="47.09971" lon="-0.50615">
        <ele>114</ele>
        <time>2021-03-25T02:50:29Z</time>
      </trkpt>
      <trkpt lat="47.09983" lon="-0.50603">
        <ele>114</ele>
        <time>2021-03-25T02:50:32Z</time>
      </trkpt>
      <trkpt lat="47.09994" lon="-0.50589">
        <ele>114</ele>
        <time>2021-03-25T02:50:34Z</time>
      </trkpt>
      <trkpt lat="47.10015" lon="-0.5055">
        <ele>115</ele>
        <time>2021-03-25T02:50:40Z</time>
      </trkpt>
      <trkpt lat="47.10028" lon="-0.50517">
        <ele>116</ele>
        <time>2021-03-25T02:50:45Z</time>
      </trkpt>
      <trkpt lat="47.10039" lon="-0.5048">
        <ele>117</ele>
        <time>2021-03-25T02:50:50Z</time>
      </trkpt>
      <trkpt lat="47.10053" lon="-0.50442">
        <ele>117</ele>
        <time>2021-03-25T02:50:55Z</time>
      </trkpt>
      <trkpt lat="47.10077" lon="-0.50397">
        <ele>117</ele>
        <time>2021-03-25T02:51:02Z</time>
      </trkpt>
      <trkpt lat="47.10089" lon="-0.50383">
        <ele>117</ele>
        <time>2021-03-25T02:51:05Z</time>
      </trkpt>
      <trkpt lat="47.10175" lon="-0.50304">
        <ele>119</ele>
        <time>2021-03-25T02:51:23Z</time>
      </trkpt>
      <trkpt lat="47.10186" lon="-0.50291">
        <ele>119</ele>
        <time>2021-03-25T02:51:25Z</time>
      </trkpt>
      <trkpt lat="47.10194" lon="-0.50278">
        <ele>119</ele>
        <time>2021-03-25T02:51:28Z</time>
      </trkpt>
      <trkpt lat="47.10204" lon="-0.50248">
        <ele>119</ele>
        <time>2021-03-25T02:51:32Z</time>
      </trkpt>
      <trkpt lat="47.10209" lon="-0.50222">
        <ele>120</ele>
        <time>2021-03-25T02:51:35Z</time>
      </trkpt>
      <trkpt lat="47.10211" lon="-0.50192">
        <ele>119</ele>
        <time>2021-03-25T02:51:39Z</time>
      </trkpt>
      <trkpt lat="47.10213" lon="-0.50087">
        <ele>120</ele>
        <time>2021-03-25T02:51:51Z</time>
      </trkpt>
      <trkpt lat="47.10216" lon="-0.50063">
        <ele>120</ele>
        <time>2021-03-25T02:51:54Z</time>
      </trkpt>
      <trkpt lat="47.10241" lon="-0.49932">
        <ele>120</ele>
        <time>2021-03-25T02:52:11Z</time>
      </trkpt>
      <trkpt lat="47.1025" lon="-0.49869">
        <ele>119</ele>
        <time>2021-03-25T02:52:18Z</time>
      </trkpt>
      <trkpt lat="47.10254" lon="-0.49819">
        <ele>119</ele>
        <time>2021-03-25T02:52:25Z</time>
      </trkpt>
      <trkpt lat="47.10254" lon="-0.4973">
        <ele>119</ele>
        <time>2021-03-25T02:52:35Z</time>
      </trkpt>
      <trkpt lat="47.10272" lon="-0.49597">
        <ele>118</ele>
        <time>2021-03-25T02:52:52Z</time>
      </trkpt>
      <trkpt lat="47.10275" lon="-0.49557">
        <ele>117</ele>
        <time>2021-03-25T02:52:57Z</time>
      </trkpt>
      <trkpt lat="47.10273" lon="-0.49535">
        <ele>117</ele>
        <time>2021-03-25T02:52:59Z</time>
      </trkpt>
      <trkpt lat="47.10257" lon="-0.49395">
        <ele>116</ele>
        <time>2021-03-25T02:53:17Z</time>
      </trkpt>
      <trkpt lat="47.10226" lon="-0.48957">
        <ele>114</ele>
        <time>2021-03-25T02:54:10Z</time>
      </trkpt>
      <trkpt lat="47.10225" lon="-0.48917">
        <ele>113</ele>
        <time>2021-03-25T02:54:15Z</time>
      </trkpt>
      <trkpt lat="47.10226" lon="-0.48882">
        <ele>114</ele>
        <time>2021-03-25T02:54:19Z</time>
      </trkpt>
      <trkpt lat="47.10248" lon="-0.48733">
        <ele>112</ele>
        <time>2021-03-25T02:54:37Z</time>
      </trkpt>
      <trkpt lat="47.1027" lon="-0.48613">
        <ele>111</ele>
        <time>2021-03-25T02:54:52Z</time>
      </trkpt>
      <trkpt lat="47.10269" lon="-0.48591">
        <ele>111</ele>
        <time>2021-03-25T02:54:55Z</time>
      </trkpt>
      <trkpt lat="47.10264" lon="-0.48571">
        <ele>112</ele>
        <time>2021-03-25T02:54:58Z</time>
      </trkpt>
      <trkpt lat="47.10229" lon="-0.48484">
        <ele>112</ele>
        <time>2021-03-25T02:55:10Z</time>
      </trkpt>
      <trkpt lat="47.10223" lon="-0.48459">
        <ele>112</ele>
        <time>2021-03-25T02:55:13Z</time>
      </trkpt>
      <trkpt lat="47.10221" lon="-0.48434">
        <ele>112</ele>
        <time>2021-03-25T02:55:16Z</time>
      </trkpt>
      <trkpt lat="47.10198" lon="-0.48053">
        <ele>111</ele>
        <time>2021-03-25T02:56:03Z</time>
      </trkpt>
      <trkpt lat="47.10197" lon="-0.47753">
        <ele>108</ele>
        <time>2021-03-25T02:56:39Z</time>
      </trkpt>
      <trkpt lat="47.10199" lon="-0.47735">
        <ele>108</ele>
        <time>2021-03-25T02:56:41Z</time>
      </trkpt>
      <trkpt lat="47.10201" lon="-0.47722">
        <ele>108</ele>
        <time>2021-03-25T02:56:43Z</time>
      </trkpt>
      <trkpt lat="47.10205" lon="-0.47711">
        <ele>108</ele>
        <time>2021-03-25T02:56:44Z</time>
      </trkpt>
      <trkpt lat="47.10217" lon="-0.47691">
        <ele>107</ele>
        <time>2021-03-25T02:56:47Z</time>
      </trkpt>
      <trkpt lat="47.10288" lon="-0.47593">
        <ele>106</ele>
        <time>2021-03-25T02:57:05Z</time>
      </trkpt>
      <trkpt lat="47.1033" lon="-0.47522">
        <ele>106</ele>
        <time>2021-03-25T02:57:16Z</time>
      </trkpt>
      <trkpt lat="47.10375" lon="-0.47434">
        <ele>103</ele>
        <time>2021-03-25T02:57:29Z</time>
      </trkpt>
      <trkpt lat="47.10467" lon="-0.47185">
        <ele>103</ele>
        <time>2021-03-25T02:58:04Z</time>
      </trkpt>
      <trkpt lat="47.10486" lon="-0.47127">
        <ele>103</ele>
        <time>2021-03-25T02:58:12Z</time>
      </trkpt>
      <trkpt lat="47.10508" lon="-0.47048">
        <ele>103</ele>
        <time>2021-03-25T02:58:22Z</time>
      </trkpt>
      <trkpt lat="47.10518" lon="-0.47016">
        <ele>103</ele>
        <time>2021-03-25T02:58:26Z</time>
      </trkpt>
      <trkpt lat="47.10522" lon="-0.4701">
        <ele>103</ele>
        <time>2021-03-25T02:58:27Z</time>
      </trkpt>
      <trkpt lat="47.10534" lon="-0.46998">
        <ele>102</ele>
        <time>2021-03-25T02:58:30Z</time>
      </trkpt>
      <trkpt lat="47.10658" lon="-0.46925">
        <ele>102</ele>
        <time>2021-03-25T02:58:54Z</time>
      </trkpt>
      <trkpt lat="47.10695" lon="-0.46897">
        <ele>104</ele>
        <time>2021-03-25T02:59:01Z</time>
      </trkpt>
      <trkpt lat="47.10736" lon="-0.46858">
        <ele>107</ele>
        <time>2021-03-25T02:59:10Z</time>
      </trkpt>
      <trkpt lat="47.10747" lon="-0.46844">
        <ele>108</ele>
        <time>2021-03-25T02:59:12Z</time>
      </trkpt>
      <trkpt lat="47.1076" lon="-0.46819">
        <ele>109</ele>
        <time>2021-03-25T02:59:16Z</time>
      </trkpt>
      <trkpt lat="47.10789" lon="-0.46734">
        <ele>111</ele>
        <time>2021-03-25T02:59:28Z</time>
      </trkpt>
      <trkpt lat="47.10786" lon="-0.46726">
        <ele>111</ele>
        <time>2021-03-25T02:59:29Z</time>
      </trkpt>
      <trkpt lat="47.10738" lon="-0.46647">
        <ele>111</ele>
        <time>2021-03-25T02:59:42Z</time>
      </trkpt>
      <trkpt lat="47.10729" lon="-0.46617">
        <ele>112</ele>
        <time>2021-03-25T02:59:45Z</time>
      </trkpt>
      <trkpt lat="47.10715" lon="-0.46552">
        <ele>114</ele>
        <time>2021-03-25T02:59:54Z</time>
      </trkpt>
      <trkpt lat="47.10707" lon="-0.46528">
        <ele>114</ele>
        <time>2021-03-25T02:59:57Z</time>
      </trkpt>
      <trkpt lat="47.10691" lon="-0.46492">
        <ele>114</ele>
        <time>2021-03-25T03:00:02Z</time>
      </trkpt>
      <trkpt lat="47.10662" lon="-0.46437">
        <ele>115</ele>
        <time>2021-03-25T03:00:11Z</time>
      </trkpt>
      <trkpt lat="47.10646" lon="-0.464">
        <ele>116</ele>
        <time>2021-03-25T03:00:16Z</time>
      </trkpt>
      <trkpt lat="47.10601" lon="-0.46269">
        <ele>115</ele>
        <time>2021-03-25T03:00:34Z</time>
      </trkpt>
      <trkpt lat="47.1055" lon="-0.46129">
        <ele>112</ele>
        <time>2021-03-25T03:00:53Z</time>
      </trkpt>
      <trkpt lat="47.10528" lon="-0.46061">
        <ele>111</ele>
        <time>2021-03-25T03:01:02Z</time>
      </trkpt>
      <trkpt lat="47.10485" lon="-0.45943">
        <ele>109</ele>
        <time>2021-03-25T03:01:18Z</time>
      </trkpt>
      <trkpt lat="47.1047" lon="-0.4591">
        <ele>109</ele>
        <time>2021-03-25T03:01:23Z</time>
      </trkpt>
      <trkpt lat="47.10396" lon="-0.45771">
        <ele>110</ele>
        <time>2021-03-25T03:01:44Z</time>
      </trkpt>
      <trkpt lat="47.10332" lon="-0.45645">
        <ele>111</ele>
        <time>2021-03-25T03:02:03Z</time>
      </trkpt>
      <trkpt lat="47.10319" lon="-0.45601">
        <ele>112</ele>
        <time>2021-03-25T03:02:09Z</time>
      </trkpt>
      <trkpt lat="47.10269" lon="-0.45357">
        <ele>115</ele>
        <time>2021-03-25T03:02:40Z</time>
      </trkpt>
      <trkpt lat="47.10253" lon="-0.45321">
        <ele>115</ele>
        <time>2021-03-25T03:02:45Z</time>
      </trkpt>
      <trkpt lat="47.1014" lon="-0.45111">
        <ele>106</ele>
        <time>2021-03-25T03:03:18Z</time>
      </trkpt>
      <trkpt lat="47.10129" lon="-0.45081">
        <ele>106</ele>
        <time>2021-03-25T03:03:22Z</time>
      </trkpt>
      <trkpt lat="47.10051" lon="-0.44721">
        <ele>104</ele>
        <time>2021-03-25T03:04:08Z</time>
      </trkpt>
      <trkpt lat="47.09948" lon="-0.44358">
        <ele>104</ele>
        <time>2021-03-25T03:04:55Z</time>
      </trkpt>
      <trkpt lat="47.09907" lon="-0.44162">
        <ele>98</ele>
        <time>2021-03-25T03:05:20Z</time>
      </trkpt>
      <trkpt lat="47.09891" lon="-0.44115">
        <ele>99</ele>
        <time>2021-03-25T03:05:26Z</time>
      </trkpt>
      <trkpt lat="47.09839" lon="-0.43995">
        <ele>102</ele>
        <time>2021-03-25T03:05:44Z</time>
      </trkpt>
      <trkpt lat="47.09808" lon="-0.43902">
        <ele>101</ele>
        <time>2021-03-25T03:05:56Z</time>
      </trkpt>
      <trkpt lat="47.098" lon="-0.43861">
        <ele>102</ele>
        <time>2021-03-25T03:06:01Z</time>
      </trkpt>
      <trkpt lat="47.09795" lon="-0.4378">
        <ele>103</ele>
        <time>2021-03-25T03:06:11Z</time>
      </trkpt>
      <trkpt lat="47.09791" lon="-0.43744">
        <ele>103</ele>
        <time>2021-03-25T03:06:16Z</time>
      </trkpt>
      <trkpt lat="47.09783" lon="-0.43695">
        <ele>102</ele>
        <time>2021-03-25T03:06:22Z</time>
      </trkpt>
      <trkpt lat="47.09771" lon="-0.43642">
        <ele>102</ele>
        <time>2021-03-25T03:06:29Z</time>
      </trkpt>
      <trkpt lat="47.0971" lon="-0.4341">
        <ele>104</ele>
        <time>2021-03-25T03:06:59Z</time>
      </trkpt>
      <trkpt lat="47.09703" lon="-0.43361">
        <ele>103</ele>
        <time>2021-03-25T03:07:05Z</time>
      </trkpt>
      <trkpt lat="47.097" lon="-0.43323">
        <ele>103</ele>
        <time>2021-03-25T03:07:09Z</time>
      </trkpt>
      <trkpt lat="47.09696" lon="-0.43141">
        <ele>101</ele>
        <time>2021-03-25T03:07:31Z</time>
      </trkpt>
      <trkpt lat="47.09681" lon="-0.42905">
        <ele>92</ele>
        <time>2021-03-25T03:08:00Z</time>
      </trkpt>
      <trkpt lat="47.09676" lon="-0.42655">
        <ele>88</ele>
        <time>2021-03-25T03:08:30Z</time>
      </trkpt>
      <trkpt lat="47.09673" lon="-0.42602">
        <ele>88</ele>
        <time>2021-03-25T03:08:37Z</time>
      </trkpt>
      <trkpt lat="47.09667" lon="-0.42564">
        <ele>88</ele>
        <time>2021-03-25T03:08:42Z</time>
      </trkpt>
      <trkpt lat="47.09657" lon="-0.42527">
        <ele>88</ele>
        <time>2021-03-25T03:08:46Z</time>
      </trkpt>
      <trkpt lat="47.09561" lon="-0.42265">
        <ele>84</ele>
        <time>2021-03-25T03:09:22Z</time>
      </trkpt>
      <trkpt lat="47.09542" lon="-0.42207">
        <ele>81</ele>
        <time>2021-03-25T03:09:30Z</time>
      </trkpt>
      <trkpt lat="47.09537" lon="-0.42184">
        <ele>80</ele>
        <time>2021-03-25T03:09:33Z</time>
      </trkpt>
      <trkpt lat="47.09528" lon="-0.42084">
        <ele>76</ele>
        <time>2021-03-25T03:09:45Z</time>
      </trkpt>
      <trkpt lat="47.09525" lon="-0.42068">
        <ele>76</ele>
        <time>2021-03-25T03:09:47Z</time>
      </trkpt>
      <trkpt lat="47.09542" lon="-0.42059">
        <ele>76</ele>
        <time>2021-03-25T03:09:51Z</time>
      </trkpt>
      <trkpt lat="47.09559" lon="-0.42044">
        <ele>75</ele>
        <time>2021-03-25T03:09:54Z</time>
      </trkpt>
      <trkpt lat="47.09578" lon="-0.42015">
        <ele>75</ele>
        <time>2021-03-25T03:09:59Z</time>
      </trkpt>
      <trkpt lat="47.09591" lon="-0.42">
        <ele>76</ele>
        <time>2021-03-25T03:10:02Z</time>
      </trkpt>
      <trkpt lat="47.0959" lon="-0.41994">
        <ele>75</ele>
        <time>2021-03-25T03:10:03Z</time>
      </trkpt>
      <trkpt lat="47.09593" lon="-0.41982">
        <ele>75</ele>
        <time>2021-03-25T03:10:04Z</time>
      </trkpt>
      <trkpt lat="47.09644" lon="-0.41879">
        <ele>77</ele>
        <time>2021-03-25T03:10:20Z</time>
      </trkpt>
      <trkpt lat="47.09661" lon="-0.4185">
        <ele>76</ele>
        <time>2021-03-25T03:10:24Z</time>
      </trkpt>
      <trkpt lat="47.09669" lon="-0.4184">
        <ele>76</ele>
        <time>2021-03-25T03:10:26Z</time>
      </trkpt>
      <trkpt lat="47.09696" lon="-0.41824">
        <ele>78</ele>
        <time>2021-03-25T03:10:31Z</time>
      </trkpt>
      <trkpt lat="47.09728" lon="-0.4181">
        <ele>80</ele>
        <time>2021-03-25T03:10:37Z</time>
      </trkpt>
      <trkpt lat="47.09848" lon="-0.41771">
        <ele>86</ele>
        <time>2021-03-25T03:10:59Z</time>
      </trkpt>
      <trkpt lat="47.0987" lon="-0.41761">
        <ele>86</ele>
        <time>2021-03-25T03:11:03Z</time>
      </trkpt>
      <trkpt lat="47.09885" lon="-0.41747">
        <ele>86</ele>
        <time>2021-03-25T03:11:06Z</time>
      </trkpt>
      <trkpt lat="47.0995" lon="-0.41673">
        <ele>89</ele>
        <time>2021-03-25T03:11:21Z</time>
      </trkpt>
      <trkpt lat="47.09966" lon="-0.41649">
        <ele>90</ele>
        <time>2021-03-25T03:11:25Z</time>
      </trkpt>
      <trkpt lat="47.09977" lon="-0.41623">
        <ele>90</ele>
        <time>2021-03-25T03:11:29Z</time>
      </trkpt>
      <trkpt lat="47.09986" lon="-0.41591">
        <ele>91</ele>
        <time>2021-03-25T03:11:33Z</time>
      </trkpt>
      <trkpt lat="47.10029" lon="-0.41339">
        <ele>94</ele>
        <time>2021-03-25T03:12:05Z</time>
      </trkpt>
      <trkpt lat="47.10039" lon="-0.41299">
        <ele>94</ele>
        <time>2021-03-25T03:12:10Z</time>
      </trkpt>
      <trkpt lat="47.10049" lon="-0.41273">
        <ele>93</ele>
        <time>2021-03-25T03:12:13Z</time>
      </trkpt>
      <trkpt lat="47.10232" lon="-0.40896">
        <ele>94</ele>
        <time>2021-03-25T03:13:09Z</time>
      </trkpt>
      <trkpt lat="47.10246" lon="-0.40861">
        <ele>94</ele>
        <time>2021-03-25T03:13:14Z</time>
      </trkpt>
      <trkpt lat="47.10254" lon="-0.40835">
        <ele>94</ele>
        <time>2021-03-25T03:13:18Z</time>
      </trkpt>
      <trkpt lat="47.10256" lon="-0.40813">
        <ele>94</ele>
        <time>2021-03-25T03:13:20Z</time>
      </trkpt>
      <trkpt lat="47.10255" lon="-0.40784">
        <ele>94</ele>
        <time>2021-03-25T03:13:24Z</time>
      </trkpt>
      <trkpt lat="47.10219" lon="-0.40499">
        <ele>101</ele>
        <time>2021-03-25T03:13:59Z</time>
      </trkpt>
      <trkpt lat="47.10218" lon="-0.4048">
        <ele>101</ele>
        <time>2021-03-25T03:14:01Z</time>
      </trkpt>
      <trkpt lat="47.10219" lon="-0.40434">
        <ele>102</ele>
        <time>2021-03-25T03:14:07Z</time>
      </trkpt>
      <trkpt lat="47.10222" lon="-0.40414">
        <ele>102</ele>
        <time>2021-03-25T03:14:09Z</time>
      </trkpt>
      <trkpt lat="47.10225" lon="-0.40395">
        <ele>102</ele>
        <time>2021-03-25T03:14:12Z</time>
      </trkpt>
      <trkpt lat="47.10235" lon="-0.4036">
        <ele>103</ele>
        <time>2021-03-25T03:14:16Z</time>
      </trkpt>
      <trkpt lat="47.10241" lon="-0.40344">
        <ele>103</ele>
        <time>2021-03-25T03:14:19Z</time>
      </trkpt>
      <trkpt lat="47.10317" lon="-0.40174">
        <ele>104</ele>
        <time>2021-03-25T03:14:43Z</time>
      </trkpt>
      <trkpt lat="47.10409" lon="-0.39983">
        <ele>103</ele>
        <time>2021-03-25T03:15:12Z</time>
      </trkpt>
      <trkpt lat="47.1042" lon="-0.39953">
        <ele>102</ele>
        <time>2021-03-25T03:15:16Z</time>
      </trkpt>
      <trkpt lat="47.10429" lon="-0.39905">
        <ele>102</ele>
        <time>2021-03-25T03:15:22Z</time>
      </trkpt>
      <trkpt lat="47.10432" lon="-0.3988">
        <ele>101</ele>
        <time>2021-03-25T03:15:25Z</time>
      </trkpt>
      <trkpt lat="47.10433" lon="-0.39843">
        <ele>100</ele>
        <time>2021-03-25T03:15:29Z</time>
      </trkpt>
      <trkpt lat="47.10433" lon="-0.3979">
        <ele>99</ele>
        <time>2021-03-25T03:15:36Z</time>
      </trkpt>
      <trkpt lat="47.10434" lon="-0.39769">
        <ele>99</ele>
        <time>2021-03-25T03:15:38Z</time>
      </trkpt>
      <trkpt lat="47.10437" lon="-0.39745">
        <ele>98</ele>
        <time>2021-03-25T03:15:41Z</time>
      </trkpt>
      <trkpt lat="47.10467" lon="-0.39653">
        <ele>97</ele>
        <time>2021-03-25T03:15:54Z</time>
      </trkpt>
      <trkpt lat="47.10479" lon="-0.39589">
        <ele>97</ele>
        <time>2021-03-25T03:16:02Z</time>
      </trkpt>
      <trkpt lat="47.10483" lon="-0.3954">
        <ele>95</ele>
        <time>2021-03-25T03:16:08Z</time>
      </trkpt>
      <trkpt lat="47.10482" lon="-0.3948">
        <ele>93</ele>
        <time>2021-03-25T03:16:15Z</time>
      </trkpt>
      <trkpt lat="47.1047" lon="-0.39362">
        <ele>88</ele>
        <time>2021-03-25T03:16:29Z</time>
      </trkpt>
      <trkpt lat="47.10469" lon="-0.39343">
        <ele>88</ele>
        <time>2021-03-25T03:16:32Z</time>
      </trkpt>
      <trkpt lat="47.10473" lon="-0.39299">
        <ele>86</ele>
        <time>2021-03-25T03:16:37Z</time>
      </trkpt>
      <trkpt lat="47.10478" lon="-0.3928">
        <ele>85</ele>
        <time>2021-03-25T03:16:39Z</time>
      </trkpt>
      <trkpt lat="47.10489" lon="-0.39255">
        <ele>85</ele>
        <time>2021-03-25T03:16:43Z</time>
      </trkpt>
      <trkpt lat="47.10558" lon="-0.39117">
        <ele>82</ele>
        <time>2021-03-25T03:17:04Z</time>
      </trkpt>
      <trkpt lat="47.10596" lon="-0.39045">
        <ele>85</ele>
        <time>2021-03-25T03:17:15Z</time>
      </trkpt>
      <trkpt lat="47.10605" lon="-0.39031">
        <ele>86</ele>
        <time>2021-03-25T03:17:17Z</time>
      </trkpt>
      <trkpt lat="47.10656" lon="-0.38972">
        <ele>89</ele>
        <time>2021-03-25T03:17:29Z</time>
      </trkpt>
      <trkpt lat="47.10662" lon="-0.38967">
        <ele>90</ele>
        <time>2021-03-25T03:17:30Z</time>
      </trkpt>
      <trkpt lat="47.10666" lon="-0.38966">
        <ele>90</ele>
        <time>2021-03-25T03:17:31Z</time>
      </trkpt>
      <trkpt lat="47.10671" lon="-0.38967">
        <ele>90</ele>
        <time>2021-03-25T03:17:32Z</time>
      </trkpt>
      <trkpt lat="47.10733" lon="-0.39023">
        <ele>94</ele>
        <time>2021-03-25T03:17:45Z</time>
      </trkpt>
      <trkpt lat="47.1075" lon="-0.39031">
        <ele>95</ele>
        <time>2021-03-25T03:17:48Z</time>
      </trkpt>
      <trkpt lat="47.10762" lon="-0.39031">
        <ele>95</ele>
        <time>2021-03-25T03:17:50Z</time>
      </trkpt>
      <trkpt lat="47.1079" lon="-0.38941">
        <ele>97</ele>
        <time>2021-03-25T03:18:02Z</time>
      </trkpt>
      <trkpt lat="47.10799" lon="-0.38861">
        <ele>95</ele>
        <time>2021-03-25T03:18:12Z</time>
      </trkpt>
      <trkpt lat="47.10806" lon="-0.38832">
        <ele>94</ele>
        <time>2021-03-25T03:18:15Z</time>
      </trkpt>
      <trkpt lat="47.10819" lon="-0.38795">
        <ele>92</ele>
        <time>2021-03-25T03:18:20Z</time>
      </trkpt>
      <trkpt lat="47.10847" lon="-0.38723">
        <ele>89</ele>
        <time>2021-03-25T03:18:30Z</time>
      </trkpt>
      <trkpt lat="47.10863" lon="-0.3869">
        <ele>89</ele>
        <time>2021-03-25T03:18:35Z</time>
      </trkpt>
      <trkpt lat="47.10922" lon="-0.38584">
        <ele>89</ele>
        <time>2021-03-25T03:18:52Z</time>
      </trkpt>
      <trkpt lat="47.10983" lon="-0.3849">
        <ele>85</ele>
        <time>2021-03-25T03:19:08Z</time>
      </trkpt>
      <trkpt lat="47.11042" lon="-0.38418">
        <ele>83</ele>
        <time>2021-03-25T03:19:21Z</time>
      </trkpt>
      <trkpt lat="47.11086" lon="-0.38354">
        <ele>84</ele>
        <time>2021-03-25T03:19:32Z</time>
      </trkpt>
      <trkpt lat="47.11099" lon="-0.3833">
        <ele>84</ele>
        <time>2021-03-25T03:19:36Z</time>
      </trkpt>
      <trkpt lat="47.11104" lon="-0.38314">
        <ele>85</ele>
        <time>2021-03-25T03:19:38Z</time>
      </trkpt>
      <trkpt lat="47.11105" lon="-0.38231">
        <ele>85</ele>
        <time>2021-03-25T03:19:48Z</time>
      </trkpt>
      <trkpt lat="47.11124" lon="-0.38094">
        <ele>88</ele>
        <time>2021-03-25T03:20:05Z</time>
      </trkpt>
      <trkpt lat="47.11131" lon="-0.38067">
        <ele>89</ele>
        <time>2021-03-25T03:20:09Z</time>
      </trkpt>
      <trkpt lat="47.11139" lon="-0.38048">
        <ele>90</ele>
        <time>2021-03-25T03:20:11Z</time>
      </trkpt>
      <trkpt lat="47.11155" lon="-0.38024">
        <ele>92</ele>
        <time>2021-03-25T03:20:15Z</time>
      </trkpt>
      <trkpt lat="47.11187" lon="-0.37981">
        <ele>93</ele>
        <time>2021-03-25T03:20:23Z</time>
      </trkpt>
      <trkpt lat="47.1123" lon="-0.37911">
        <ele>93</ele>
        <time>2021-03-25T03:20:35Z</time>
      </trkpt>
      <trkpt lat="47.11276" lon="-0.3783">
        <ele>91</ele>
        <time>2021-03-25T03:20:47Z</time>
      </trkpt>
      <trkpt lat="47.11308" lon="-0.37746">
        <ele>89</ele>
        <time>2021-03-25T03:20:59Z</time>
      </trkpt>
      <trkpt lat="47.11319" lon="-0.37704">
        <ele>88</ele>
        <time>2021-03-25T03:21:04Z</time>
      </trkpt>
      <trkpt lat="47.11334" lon="-0.37609">
        <ele>89</ele>
        <time>2021-03-25T03:21:16Z</time>
      </trkpt>
      <trkpt lat="47.11341" lon="-0.37572">
        <ele>90</ele>
        <time>2021-03-25T03:21:21Z</time>
      </trkpt>
      <trkpt lat="47.11349" lon="-0.37539">
        <ele>90</ele>
        <time>2021-03-25T03:21:25Z</time>
      </trkpt>
      <trkpt lat="47.11385" lon="-0.37442">
        <ele>88</ele>
        <time>2021-03-25T03:21:39Z</time>
      </trkpt>
      <trkpt lat="47.11428" lon="-0.37299">
        <ele>88</ele>
        <time>2021-03-25T03:21:57Z</time>
      </trkpt>
      <trkpt lat="47.11436" lon="-0.37277">
        <ele>88</ele>
        <time>2021-03-25T03:22:00Z</time>
      </trkpt>
      <trkpt lat="47.11494" lon="-0.37176">
        <ele>87</ele>
        <time>2021-03-25T03:22:16Z</time>
      </trkpt>
      <trkpt lat="47.11514" lon="-0.37134">
        <ele>87</ele>
        <time>2021-03-25T03:22:23Z</time>
      </trkpt>
      <trkpt lat="47.11571" lon="-0.36994">
        <ele>86</ele>
        <time>2021-03-25T03:22:42Z</time>
      </trkpt>
      <trkpt lat="47.11641" lon="-0.36788">
        <ele>87</ele>
        <time>2021-03-25T03:23:10Z</time>
      </trkpt>
      <trkpt lat="47.11669" lon="-0.36718">
        <ele>89</ele>
        <time>2021-03-25T03:23:20Z</time>
      </trkpt>
      <trkpt lat="47.11699" lon="-0.36657">
        <ele>90</ele>
        <time>2021-03-25T03:23:29Z</time>
      </trkpt>
      <trkpt lat="47.11751" lon="-0.3656">
        <ele>87</ele>
        <time>2021-03-25T03:23:44Z</time>
      </trkpt>
      <trkpt lat="47.11772" lon="-0.36516">
        <ele>84</ele>
        <time>2021-03-25T03:23:51Z</time>
      </trkpt>
      <trkpt lat="47.11778" lon="-0.36508">
        <ele>84</ele>
        <time>2021-03-25T03:23:52Z</time>
      </trkpt>
      <trkpt lat="47.11779" lon="-0.36496">
        <ele>83</ele>
        <time>2021-03-25T03:23:54Z</time>
      </trkpt>
      <trkpt lat="47.11773" lon="-0.36434">
        <ele>81</ele>
        <time>2021-03-25T03:24:01Z</time>
      </trkpt>
      <trkpt lat="47.11775" lon="-0.36427">
        <ele>80</ele>
        <time>2021-03-25T03:24:02Z</time>
      </trkpt>
      <trkpt lat="47.11784" lon="-0.3641">
        <ele>80</ele>
        <time>2021-03-25T03:24:05Z</time>
      </trkpt>
      <trkpt lat="47.11787" lon="-0.36402">
        <ele>80</ele>
        <time>2021-03-25T03:24:06Z</time>
      </trkpt>
      <trkpt lat="47.11787" lon="-0.36394">
        <ele>79</ele>
        <time>2021-03-25T03:24:07Z</time>
      </trkpt>
      <trkpt lat="47.11778" lon="-0.36338">
        <ele>78</ele>
        <time>2021-03-25T03:24:14Z</time>
      </trkpt>
      <trkpt lat="47.11779" lon="-0.36247">
        <ele>73</ele>
        <time>2021-03-25T03:24:25Z</time>
      </trkpt>
      <trkpt lat="47.11784" lon="-0.36111">
        <ele>68</ele>
        <time>2021-03-25T03:24:41Z</time>
      </trkpt>
      <trkpt lat="47.11788" lon="-0.36066">
        <ele>69</ele>
        <time>2021-03-25T03:24:47Z</time>
      </trkpt>
      <trkpt lat="47.11795" lon="-0.35996">
        <ele>70</ele>
        <time>2021-03-25T03:24:55Z</time>
      </trkpt>
      <trkpt lat="47.11796" lon="-0.35974">
        <ele>70</ele>
        <time>2021-03-25T03:24:58Z</time>
      </trkpt>
      <trkpt lat="47.11791" lon="-0.35943">
        <ele>69</ele>
        <time>2021-03-25T03:25:02Z</time>
      </trkpt>
      <trkpt lat="47.11784" lon="-0.35918">
        <ele>68</ele>
        <time>2021-03-25T03:25:05Z</time>
      </trkpt>
      <trkpt lat="47.11714" lon="-0.35713">
        <ele>63</ele>
        <time>2021-03-25T03:25:33Z</time>
      </trkpt>
      <trkpt lat="47.11706" lon="-0.35676">
        <ele>63</ele>
        <time>2021-03-25T03:25:38Z</time>
      </trkpt>
      <trkpt lat="47.117" lon="-0.35622">
        <ele>63</ele>
        <time>2021-03-25T03:25:44Z</time>
      </trkpt>
      <trkpt lat="47.11697" lon="-0.35566">
        <ele>62</ele>
        <time>2021-03-25T03:25:51Z</time>
      </trkpt>
      <trkpt lat="47.117" lon="-0.35398">
        <ele>61</ele>
        <time>2021-03-25T03:26:11Z</time>
      </trkpt>
      <trkpt lat="47.11705" lon="-0.35338">
        <ele>62</ele>
        <time>2021-03-25T03:26:19Z</time>
      </trkpt>
      <trkpt lat="47.11723" lon="-0.35248">
        <ele>64</ele>
        <time>2021-03-25T03:26:30Z</time>
      </trkpt>
      <trkpt lat="47.1173" lon="-0.35224">
        <ele>65</ele>
        <time>2021-03-25T03:26:33Z</time>
      </trkpt>
      <trkpt lat="47.11757" lon="-0.35156">
        <ele>67</ele>
        <time>2021-03-25T03:26:43Z</time>
      </trkpt>
      <trkpt lat="47.11767" lon="-0.35119">
        <ele>70</ele>
        <time>2021-03-25T03:26:48Z</time>
      </trkpt>
      <trkpt lat="47.11768" lon="-0.35083">
        <ele>72</ele>
        <time>2021-03-25T03:26:52Z</time>
      </trkpt>
      <trkpt lat="47.11766" lon="-0.35065">
        <ele>73</ele>
        <time>2021-03-25T03:26:54Z</time>
      </trkpt>
      <trkpt lat="47.11757" lon="-0.35021">
        <ele>76</ele>
        <time>2021-03-25T03:27:00Z</time>
      </trkpt>
      <trkpt lat="47.11739" lon="-0.34954">
        <ele>79</ele>
        <time>2021-03-25T03:27:08Z</time>
      </trkpt>
      <trkpt lat="47.11686" lon="-0.3478">
        <ele>85</ele>
        <time>2021-03-25T03:27:32Z</time>
      </trkpt>
      <trkpt lat="47.11601" lon="-0.34532">
        <ele>83</ele>
        <time>2021-03-25T03:28:05Z</time>
      </trkpt>
      <trkpt lat="47.11598" lon="-0.34515">
        <ele>83</ele>
        <time>2021-03-25T03:28:07Z</time>
      </trkpt>
      <trkpt lat="47.11556" lon="-0.33694">
        <ele>78</ele>
        <time>2021-03-25T03:29:47Z</time>
      </trkpt>
      <trkpt lat="47.11501" lon="-0.32703">
        <ele>85</ele>
        <time>2021-03-25T03:31:47Z</time>
      </trkpt>
      <trkpt lat="47.11484" lon="-0.32377">
        <ele>84</ele>
        <time>2021-03-25T03:32:27Z</time>
      </trkpt>
      <trkpt lat="47.1141" lon="-0.31091">
        <ele>70</ele>
        <time>2021-03-25T03:35:03Z</time>
      </trkpt>
      <trkpt lat="47.11396" lon="-0.30831">
        <ele>69</ele>
        <time>2021-03-25T03:35:35Z</time>
      </trkpt>
      <trkpt lat="47.11395" lon="-0.30796">
        <ele>68</ele>
        <time>2021-03-25T03:35:39Z</time>
      </trkpt>
      <trkpt lat="47.11396" lon="-0.30782">
        <ele>67</ele>
        <time>2021-03-25T03:35:41Z</time>
      </trkpt>
      <trkpt lat="47.11397" lon="-0.30768">
        <ele>67</ele>
        <time>2021-03-25T03:35:42Z</time>
      </trkpt>
      <trkpt lat="47.11402" lon="-0.30752">
        <ele>67</ele>
        <time>2021-03-25T03:35:45Z</time>
      </trkpt>
      <trkpt lat="47.11459" lon="-0.30601">
        <ele>65</ele>
        <time>2021-03-25T03:36:05Z</time>
      </trkpt>
      <trkpt lat="47.11463" lon="-0.3059">
        <ele>65</ele>
        <time>2021-03-25T03:36:07Z</time>
      </trkpt>
      <trkpt lat="47.1149" lon="-0.30411">
        <ele>62</ele>
        <time>2021-03-25T03:36:29Z</time>
      </trkpt>
      <trkpt lat="47.115" lon="-0.30372">
        <ele>61</ele>
        <time>2021-03-25T03:36:34Z</time>
      </trkpt>
      <trkpt lat="47.11518" lon="-0.30311">
        <ele>61</ele>
        <time>2021-03-25T03:36:42Z</time>
      </trkpt>
      <trkpt lat="47.11529" lon="-0.30281">
        <ele>61</ele>
        <time>2021-03-25T03:36:46Z</time>
      </trkpt>
      <trkpt lat="47.11541" lon="-0.30257">
        <ele>61</ele>
        <time>2021-03-25T03:36:50Z</time>
      </trkpt>
      <trkpt lat="47.11644" lon="-0.30081">
        <ele>60</ele>
        <time>2021-03-25T03:37:18Z</time>
      </trkpt>
      <trkpt lat="47.11659" lon="-0.30047">
        <ele>60</ele>
        <time>2021-03-25T03:37:23Z</time>
      </trkpt>
      <trkpt lat="47.11674" lon="-0.29999">
        <ele>60</ele>
        <time>2021-03-25T03:37:29Z</time>
      </trkpt>
      <trkpt lat="47.11677" lon="-0.29984">
        <ele>60</ele>
        <time>2021-03-25T03:37:31Z</time>
      </trkpt>
      <trkpt lat="47.11678" lon="-0.29973">
        <ele>60</ele>
        <time>2021-03-25T03:37:33Z</time>
      </trkpt>
      <trkpt lat="47.11677" lon="-0.29942">
        <ele>60</ele>
        <time>2021-03-25T03:37:36Z</time>
      </trkpt>
      <trkpt lat="47.11675" lon="-0.29922">
        <ele>59</ele>
        <time>2021-03-25T03:37:39Z</time>
      </trkpt>
      <trkpt lat="47.11667" lon="-0.29885">
        <ele>59</ele>
        <time>2021-03-25T03:37:44Z</time>
      </trkpt>
      <trkpt lat="47.11638" lon="-0.2976">
        <ele>59</ele>
        <time>2021-03-25T03:38:00Z</time>
      </trkpt>
      <trkpt lat="47.11633" lon="-0.29713">
        <ele>59</ele>
        <time>2021-03-25T03:38:05Z</time>
      </trkpt>
      <trkpt lat="47.11636" lon="-0.29634">
        <ele>58</ele>
        <time>2021-03-25T03:38:15Z</time>
      </trkpt>
      <trkpt lat="47.11641" lon="-0.296">
        <ele>58</ele>
        <time>2021-03-25T03:38:19Z</time>
      </trkpt>
      <trkpt lat="47.11653" lon="-0.29537">
        <ele>59</ele>
        <time>2021-03-25T03:38:27Z</time>
      </trkpt>
      <trkpt lat="47.11667" lon="-0.29482">
        <ele>60</ele>
        <time>2021-03-25T03:38:34Z</time>
      </trkpt>
      <trkpt lat="47.11677" lon="-0.29422">
        <ele>58</ele>
        <time>2021-03-25T03:38:42Z</time>
      </trkpt>
      <trkpt lat="47.11728" lon="-0.28871">
        <ele>57</ele>
        <time>2021-03-25T03:39:49Z</time>
      </trkpt>
      <trkpt lat="47.1175" lon="-0.28761">
        <ele>57</ele>
        <time>2021-03-25T03:40:03Z</time>
      </trkpt>
      <trkpt lat="47.11753" lon="-0.28748">
        <ele>57</ele>
        <time>2021-03-25T03:40:05Z</time>
      </trkpt>
      <trkpt lat="47.11759" lon="-0.28734">
        <ele>57</ele>
        <time>2021-03-25T03:40:07Z</time>
      </trkpt>
      <trkpt lat="47.11779" lon="-0.28702">
        <ele>57</ele>
        <time>2021-03-25T03:40:12Z</time>
      </trkpt>
      <trkpt lat="47.11809" lon="-0.28662">
        <ele>56</ele>
        <time>2021-03-25T03:40:19Z</time>
      </trkpt>
      <trkpt lat="47.11822" lon="-0.28636">
        <ele>56</ele>
        <time>2021-03-25T03:40:23Z</time>
      </trkpt>
      <trkpt lat="47.11853" lon="-0.28565">
        <ele>55</ele>
        <time>2021-03-25T03:40:33Z</time>
      </trkpt>
      <trkpt lat="47.11868" lon="-0.28525">
        <ele>54</ele>
        <time>2021-03-25T03:40:39Z</time>
      </trkpt>
      <trkpt lat="47.119" lon="-0.28407">
        <ele>54</ele>
        <time>2021-03-25T03:40:54Z</time>
      </trkpt>
      <trkpt lat="47.11916" lon="-0.28343">
        <ele>54</ele>
        <time>2021-03-25T03:41:02Z</time>
      </trkpt>
      <trkpt lat="47.11924" lon="-0.28292">
        <ele>53</ele>
        <time>2021-03-25T03:41:09Z</time>
      </trkpt>
      <trkpt lat="47.11933" lon="-0.28208">
        <ele>52</ele>
        <time>2021-03-25T03:41:19Z</time>
      </trkpt>
      <trkpt lat="47.11937" lon="-0.28188">
        <ele>52</ele>
        <time>2021-03-25T03:41:21Z</time>
      </trkpt>
      <trkpt lat="47.11943" lon="-0.28168">
        <ele>51</ele>
        <time>2021-03-25T03:41:24Z</time>
      </trkpt>
      <trkpt lat="47.11978" lon="-0.28064">
        <ele>51</ele>
        <time>2021-03-25T03:41:38Z</time>
      </trkpt>
      <trkpt lat="47.12001" lon="-0.27991">
        <ele>51</ele>
        <time>2021-03-25T03:41:48Z</time>
      </trkpt>
      <trkpt lat="47.12011" lon="-0.27964">
        <ele>51</ele>
        <time>2021-03-25T03:41:52Z</time>
      </trkpt>
      <trkpt lat="47.1206" lon="-0.2789">
        <ele>52</ele>
        <time>2021-03-25T03:42:04Z</time>
      </trkpt>
      <trkpt lat="47.12071" lon="-0.2787">
        <ele>52</ele>
        <time>2021-03-25T03:42:07Z</time>
      </trkpt>
      <trkpt lat="47.12135" lon="-0.27732">
        <ele>54</ele>
        <time>2021-03-25T03:42:27Z</time>
      </trkpt>
      <trkpt lat="47.12143" lon="-0.27707">
        <ele>54</ele>
        <time>2021-03-25T03:42:31Z</time>
      </trkpt>
      <trkpt lat="47.1215" lon="-0.27674">
        <ele>54</ele>
        <time>2021-03-25T03:42:35Z</time>
      </trkpt>
      <trkpt lat="47.1216" lon="-0.27615">
        <ele>54</ele>
        <time>2021-03-25T03:42:42Z</time>
      </trkpt>
      <trkpt lat="47.12266" lon="-0.2716">
        <ele>55</ele>
        <time>2021-03-25T03:43:41Z</time>
      </trkpt>
      <trkpt lat="47.12273" lon="-0.27135">
        <ele>55</ele>
        <time>2021-03-25T03:43:44Z</time>
      </trkpt>
      <trkpt lat="47.12367" lon="-0.26882">
        <ele>57</ele>
        <time>2021-03-25T03:44:19Z</time>
      </trkpt>
      <trkpt lat="47.12374" lon="-0.26848">
        <ele>57</ele>
        <time>2021-03-25T03:44:23Z</time>
      </trkpt>
      <trkpt lat="47.12376" lon="-0.26828">
        <ele>56</ele>
        <time>2021-03-25T03:44:25Z</time>
      </trkpt>
      <trkpt lat="47.124" lon="-0.26131">
        <ele>64</ele>
        <time>2021-03-25T03:45:50Z</time>
      </trkpt>
      <trkpt lat="47.12412" lon="-0.26002">
        <ele>67</ele>
        <time>2021-03-25T03:46:06Z</time>
      </trkpt>
      <trkpt lat="47.12419" lon="-0.25798">
        <ele>63</ele>
        <time>2021-03-25T03:46:30Z</time>
      </trkpt>
      <trkpt lat="47.12452" lon="-0.25487">
        <ele>61</ele>
        <time>2021-03-25T03:47:09Z</time>
      </trkpt>
      <trkpt lat="47.12454" lon="-0.25439">
        <ele>61</ele>
        <time>2021-03-25T03:47:14Z</time>
      </trkpt>
      <trkpt lat="47.12453" lon="-0.25414">
        <ele>61</ele>
        <time>2021-03-25T03:47:17Z</time>
      </trkpt>
      <trkpt lat="47.12449" lon="-0.25352">
        <ele>61</ele>
        <time>2021-03-25T03:47:25Z</time>
      </trkpt>
      <trkpt lat="47.12443" lon="-0.25307">
        <ele>60</ele>
        <time>2021-03-25T03:47:30Z</time>
      </trkpt>
      <trkpt lat="47.12427" lon="-0.25227">
        <ele>60</ele>
        <time>2021-03-25T03:47:41Z</time>
      </trkpt>
      <trkpt lat="47.12416" lon="-0.25189">
        <ele>60</ele>
        <time>2021-03-25T03:47:46Z</time>
      </trkpt>
      <trkpt lat="47.12365" lon="-0.2503">
        <ele>61</ele>
        <time>2021-03-25T03:48:07Z</time>
      </trkpt>
      <trkpt lat="47.12342" lon="-0.24951">
        <ele>64</ele>
        <time>2021-03-25T03:48:17Z</time>
      </trkpt>
      <trkpt lat="47.12334" lon="-0.249">
        <ele>65</ele>
        <time>2021-03-25T03:48:24Z</time>
      </trkpt>
      <trkpt lat="47.12332" lon="-0.24851">
        <ele>67</ele>
        <time>2021-03-25T03:48:30Z</time>
      </trkpt>
      <trkpt lat="47.12333" lon="-0.24825">
        <ele>67</ele>
        <time>2021-03-25T03:48:33Z</time>
      </trkpt>
      <trkpt lat="47.12337" lon="-0.24797">
        <ele>67</ele>
        <time>2021-03-25T03:48:36Z</time>
      </trkpt>
      <trkpt lat="47.12348" lon="-0.24734">
        <ele>69</ele>
        <time>2021-03-25T03:48:44Z</time>
      </trkpt>
      <trkpt lat="47.1238" lon="-0.24623">
        <ele>71</ele>
        <time>2021-03-25T03:48:59Z</time>
      </trkpt>
      <trkpt lat="47.12389" lon="-0.24587">
        <ele>71</ele>
        <time>2021-03-25T03:49:03Z</time>
      </trkpt>
      <trkpt lat="47.12406" lon="-0.24504">
        <ele>73</ele>
        <time>2021-03-25T03:49:14Z</time>
      </trkpt>
      <trkpt lat="47.12432" lon="-0.24291">
        <ele>72</ele>
        <time>2021-03-25T03:49:40Z</time>
      </trkpt>
      <trkpt lat="47.12437" lon="-0.24267">
        <ele>72</ele>
        <time>2021-03-25T03:49:43Z</time>
      </trkpt>
      <trkpt lat="47.12443" lon="-0.24239">
        <ele>72</ele>
        <time>2021-03-25T03:49:47Z</time>
      </trkpt>
      <trkpt lat="47.12454" lon="-0.24202">
        <ele>72</ele>
        <time>2021-03-25T03:49:51Z</time>
      </trkpt>
      <trkpt lat="47.1252" lon="-0.24004">
        <ele>73</ele>
        <time>2021-03-25T03:50:18Z</time>
      </trkpt>
      <trkpt lat="47.12542" lon="-0.23924">
        <ele>76</ele>
        <time>2021-03-25T03:50:29Z</time>
      </trkpt>
      <trkpt lat="47.12561" lon="-0.23865">
        <ele>78</ele>
        <time>2021-03-25T03:50:36Z</time>
      </trkpt>
      <trkpt lat="47.12568" lon="-0.23829">
        <ele>79</ele>
        <time>2021-03-25T03:50:41Z</time>
      </trkpt>
      <trkpt lat="47.1257" lon="-0.23729">
        <ele>84</ele>
        <time>2021-03-25T03:50:53Z</time>
      </trkpt>
      <trkpt lat="47.12572" lon="-0.23713">
        <ele>85</ele>
        <time>2021-03-25T03:50:55Z</time>
      </trkpt>
      <trkpt lat="47.12564" lon="-0.23694">
        <ele>86</ele>
        <time>2021-03-25T03:50:58Z</time>
      </trkpt>
      <trkpt lat="47.12545" lon="-0.2363">
        <ele>88</ele>
        <time>2021-03-25T03:51:06Z</time>
      </trkpt>
      <trkpt lat="47.12535" lon="-0.23608">
        <ele>89</ele>
        <time>2021-03-25T03:51:09Z</time>
      </trkpt>
      <trkpt lat="47.12506" lon="-0.23559">
        <ele>90</ele>
        <time>2021-03-25T03:51:17Z</time>
      </trkpt>
      <trkpt lat="47.12523" lon="-0.23537">
        <ele>91</ele>
        <time>2021-03-25T03:51:21Z</time>
      </trkpt>
      <trkpt lat="47.12521" lon="-0.23525">
        <ele>92</ele>
        <time>2021-03-25T03:51:23Z</time>
      </trkpt>
      <trkpt lat="47.12519" lon="-0.23419">
        <ele>93</ele>
        <time>2021-03-25T03:51:36Z</time>
      </trkpt>
      <trkpt lat="47.1252" lon="-0.23407">
        <ele>93</ele>
        <time>2021-03-25T03:51:37Z</time>
      </trkpt>
      <trkpt lat="47.12525" lon="-0.23399">
        <ele>93</ele>
        <time>2021-03-25T03:51:38Z</time>
      </trkpt>
      <trkpt lat="47.12542" lon="-0.23384">
        <ele>93</ele>
        <time>2021-03-25T03:51:42Z</time>
      </trkpt>
      <trkpt lat="47.12528" lon="-0.23351">
        <ele>92</ele>
        <time>2021-03-25T03:51:47Z</time>
      </trkpt>
      <trkpt lat="47.1252" lon="-0.23322">
        <ele>91</ele>
        <time>2021-03-25T03:51:50Z</time>
      </trkpt>
      <trkpt lat="47.12517" lon="-0.23277">
        <ele>93</ele>
        <time>2021-03-25T03:51:56Z</time>
      </trkpt>
      <trkpt lat="47.12518" lon="-0.23121">
        <ele>95</ele>
        <time>2021-03-25T03:52:15Z</time>
      </trkpt>
      <trkpt lat="47.12521" lon="-0.22997">
        <ele>95</ele>
        <time>2021-03-25T03:52:30Z</time>
      </trkpt>
      <trkpt lat="47.12539" lon="-0.22791">
        <ele>96</ele>
        <time>2021-03-25T03:52:55Z</time>
      </trkpt>
      <trkpt lat="47.12547" lon="-0.22732">
        <ele>95</ele>
        <time>2021-03-25T03:53:02Z</time>
      </trkpt>
      <trkpt lat="47.12601" lon="-0.22533">
        <ele>91</ele>
        <time>2021-03-25T03:53:28Z</time>
      </trkpt>
      <trkpt lat="47.12636" lon="-0.22383">
        <ele>88</ele>
        <time>2021-03-25T03:53:47Z</time>
      </trkpt>
      <trkpt lat="47.12639" lon="-0.22346">
        <ele>87</ele>
        <time>2021-03-25T03:53:52Z</time>
      </trkpt>
      <trkpt lat="47.12635" lon="-0.22277">
        <ele>83</ele>
        <time>2021-03-25T03:54:00Z</time>
      </trkpt>
      <trkpt lat="47.12622" lon="-0.22146">
        <ele>76</ele>
        <time>2021-03-25T03:54:16Z</time>
      </trkpt>
      <trkpt lat="47.12622" lon="-0.2212">
        <ele>75</ele>
        <time>2021-03-25T03:54:19Z</time>
      </trkpt>
      <trkpt lat="47.12629" lon="-0.22031">
        <ele>71</ele>
        <time>2021-03-25T03:54:30Z</time>
      </trkpt>
      <trkpt lat="47.12628" lon="-0.21986">
        <ele>69</ele>
        <time>2021-03-25T03:54:36Z</time>
      </trkpt>
      <trkpt lat="47.12624" lon="-0.21939">
        <ele>67</ele>
        <time>2021-03-25T03:54:42Z</time>
      </trkpt>
      <trkpt lat="47.12605" lon="-0.21815">
        <ele>65</ele>
        <time>2021-03-25T03:54:57Z</time>
      </trkpt>
      <trkpt lat="47.12597" lon="-0.21754">
        <ele>63</ele>
        <time>2021-03-25T03:55:04Z</time>
      </trkpt>
      <trkpt lat="47.12597" lon="-0.21717">
        <ele>62</ele>
        <time>2021-03-25T03:55:09Z</time>
      </trkpt>
      <trkpt lat="47.12599" lon="-0.21707">
        <ele>62</ele>
        <time>2021-03-25T03:55:10Z</time>
      </trkpt>
      <trkpt lat="47.12604" lon="-0.21687">
        <ele>62</ele>
        <time>2021-03-25T03:55:13Z</time>
      </trkpt>
      <trkpt lat="47.12627" lon="-0.21628">
        <ele>61</ele>
        <time>2021-03-25T03:55:21Z</time>
      </trkpt>
      <trkpt lat="47.12707" lon="-0.21436">
        <ele>56</ele>
        <time>2021-03-25T03:55:48Z</time>
      </trkpt>
      <trkpt lat="47.12774" lon="-0.21267">
        <ele>53</ele>
        <time>2021-03-25T03:56:12Z</time>
      </trkpt>
      <trkpt lat="47.12804" lon="-0.21217">
        <ele>52</ele>
        <time>2021-03-25T03:56:20Z</time>
      </trkpt>
      <trkpt lat="47.12839" lon="-0.21165">
        <ele>51</ele>
        <time>2021-03-25T03:56:29Z</time>
      </trkpt>
      <trkpt lat="47.12856" lon="-0.21134">
        <ele>51</ele>
        <time>2021-03-25T03:56:34Z</time>
      </trkpt>
      <trkpt lat="47.12871" lon="-0.21101">
        <ele>50</ele>
        <time>2021-03-25T03:56:38Z</time>
      </trkpt>
      <trkpt lat="47.12894" lon="-0.2103">
        <ele>49</ele>
        <time>2021-03-25T03:56:48Z</time>
      </trkpt>
      <trkpt lat="47.12984" lon="-0.20736">
        <ele>48</ele>
        <time>2021-03-25T03:57:27Z</time>
      </trkpt>
      <trkpt lat="47.12998" lon="-0.20696">
        <ele>47</ele>
        <time>2021-03-25T03:57:32Z</time>
      </trkpt>
      <trkpt lat="47.13015" lon="-0.20654">
        <ele>48</ele>
        <time>2021-03-25T03:57:38Z</time>
      </trkpt>
      <trkpt lat="47.13035" lon="-0.20612">
        <ele>48</ele>
        <time>2021-03-25T03:57:45Z</time>
      </trkpt>
      <trkpt lat="47.13177" lon="-0.20342">
        <ele>47</ele>
        <time>2021-03-25T03:58:26Z</time>
      </trkpt>
      <trkpt lat="47.13185" lon="-0.20319">
        <ele>47</ele>
        <time>2021-03-25T03:58:29Z</time>
      </trkpt>
      <trkpt lat="47.13199" lon="-0.20236">
        <ele>47</ele>
        <time>2021-03-25T03:58:39Z</time>
      </trkpt>
      <trkpt lat="47.13208" lon="-0.20137">
        <ele>46</ele>
        <time>2021-03-25T03:58:51Z</time>
      </trkpt>
      <trkpt lat="47.1321" lon="-0.20125">
        <ele>46</ele>
        <time>2021-03-25T03:58:53Z</time>
      </trkpt>
      <trkpt lat="47.13217" lon="-0.20102">
        <ele>47</ele>
        <time>2021-03-25T03:58:56Z</time>
      </trkpt>
      <trkpt lat="47.13226" lon="-0.20079">
        <ele>47</ele>
        <time>2021-03-25T03:58:59Z</time>
      </trkpt>
      <trkpt lat="47.13239" lon="-0.20058">
        <ele>47</ele>
        <time>2021-03-25T03:59:03Z</time>
      </trkpt>
      <trkpt lat="47.13256" lon="-0.2004">
        <ele>48</ele>
        <time>2021-03-25T03:59:06Z</time>
      </trkpt>
      <trkpt lat="47.13393" lon="-0.19926">
        <ele>50</ele>
        <time>2021-03-25T03:59:34Z</time>
      </trkpt>
      <trkpt lat="47.13433" lon="-0.19889">
        <ele>51</ele>
        <time>2021-03-25T03:59:43Z</time>
      </trkpt>
      <trkpt lat="47.13441" lon="-0.19877">
        <ele>51</ele>
        <time>2021-03-25T03:59:45Z</time>
      </trkpt>
      <trkpt lat="47.13447" lon="-0.19859">
        <ele>52</ele>
        <time>2021-03-25T03:59:47Z</time>
      </trkpt>
      <trkpt lat="47.13449" lon="-0.19846">
        <ele>52</ele>
        <time>2021-03-25T03:59:49Z</time>
      </trkpt>
      <trkpt lat="47.13448" lon="-0.19828">
        <ele>52</ele>
        <time>2021-03-25T03:59:51Z</time>
      </trkpt>
      <trkpt lat="47.13444" lon="-0.19811">
        <ele>52</ele>
        <time>2021-03-25T03:59:53Z</time>
      </trkpt>
      <trkpt lat="47.13381" lon="-0.1964">
        <ele>51</ele>
        <time>2021-03-25T04:00:17Z</time>
      </trkpt>
      <trkpt lat="47.13371" lon="-0.19616">
        <ele>51</ele>
        <time>2021-03-25T04:00:20Z</time>
      </trkpt>
      <trkpt lat="47.13283" lon="-0.19449">
        <ele>49</ele>
        <time>2021-03-25T04:00:46Z</time>
      </trkpt>
      <trkpt lat="47.13257" lon="-0.19396">
        <ele>49</ele>
        <time>2021-03-25T04:00:54Z</time>
      </trkpt>
      <trkpt lat="47.13232" lon="-0.19341">
        <ele>48</ele>
        <time>2021-03-25T04:01:02Z</time>
      </trkpt>
      <trkpt lat="47.13209" lon="-0.19299">
        <ele>46</ele>
        <time>2021-03-25T04:01:08Z</time>
      </trkpt>
      <trkpt lat="47.13142" lon="-0.19202">
        <ele>43</ele>
        <time>2021-03-25T04:01:25Z</time>
      </trkpt>
      <trkpt lat="47.13102" lon="-0.19136">
        <ele>42</ele>
        <time>2021-03-25T04:01:36Z</time>
      </trkpt>
      <trkpt lat="47.13087" lon="-0.19101">
        <ele>42</ele>
        <time>2021-03-25T04:01:41Z</time>
      </trkpt>
      <trkpt lat="47.13081" lon="-0.19078">
        <ele>42</ele>
        <time>2021-03-25T04:01:44Z</time>
      </trkpt>
      <trkpt lat="47.13077" lon="-0.19052">
        <ele>42</ele>
        <time>2021-03-25T04:01:47Z</time>
      </trkpt>
      <trkpt lat="47.13065" lon="-0.18903">
        <ele>40</ele>
        <time>2021-03-25T04:02:05Z</time>
      </trkpt>
      <trkpt lat="47.13057" lon="-0.18832">
        <ele>39</ele>
        <time>2021-03-25T04:02:14Z</time>
      </trkpt>
      <trkpt lat="47.13034" lon="-0.18703">
        <ele>39</ele>
        <time>2021-03-25T04:02:30Z</time>
      </trkpt>
      <trkpt lat="47.13026" lon="-0.18652">
        <ele>40</ele>
        <time>2021-03-25T04:02:36Z</time>
      </trkpt>
      <trkpt lat="47.13015" lon="-0.18509">
        <ele>38</ele>
        <time>2021-03-25T04:02:54Z</time>
      </trkpt>
      <trkpt lat="47.12984" lon="-0.18189">
        <ele>35</ele>
        <time>2021-03-25T04:03:33Z</time>
      </trkpt>
      <trkpt lat="47.12984" lon="-0.18163">
        <ele>34</ele>
        <time>2021-03-25T04:03:36Z</time>
      </trkpt>
      <trkpt lat="47.12985" lon="-0.18109">
        <ele>35</ele>
        <time>2021-03-25T04:03:42Z</time>
      </trkpt>
      <trkpt lat="47.12997" lon="-0.17911">
        <ele>35</ele>
        <time>2021-03-25T04:04:06Z</time>
      </trkpt>
      <trkpt lat="47.12996" lon="-0.17875">
        <ele>35</ele>
        <time>2021-03-25T04:04:11Z</time>
      </trkpt>
      <trkpt lat="47.12991" lon="-0.17781">
        <ele>36</ele>
        <time>2021-03-25T04:04:22Z</time>
      </trkpt>
      <trkpt lat="47.1299" lon="-0.17735">
        <ele>36</ele>
        <time>2021-03-25T04:04:28Z</time>
      </trkpt>
      <trkpt lat="47.12993" lon="-0.17693">
        <ele>36</ele>
        <time>2021-03-25T04:04:33Z</time>
      </trkpt>
      <trkpt lat="47.12998" lon="-0.17658">
        <ele>36</ele>
        <time>2021-03-25T04:04:37Z</time>
      </trkpt>
      <trkpt lat="47.13001" lon="-0.17639">
        <ele>36</ele>
        <time>2021-03-25T04:04:40Z</time>
      </trkpt>
      <trkpt lat="47.1302" lon="-0.17564">
        <ele>36</ele>
        <time>2021-03-25T04:04:49Z</time>
      </trkpt>
      <trkpt lat="47.13026" lon="-0.17526">
        <ele>36</ele>
        <time>2021-03-25T04:04:54Z</time>
      </trkpt>
      <trkpt lat="47.13024" lon="-0.17472">
        <ele>36</ele>
        <time>2021-03-25T04:05:01Z</time>
      </trkpt>
      <trkpt lat="47.13014" lon="-0.17405">
        <ele>36</ele>
        <time>2021-03-25T04:05:09Z</time>
      </trkpt>
      <trkpt lat="47.13013" lon="-0.17384">
        <ele>36</ele>
        <time>2021-03-25T04:05:11Z</time>
      </trkpt>
      <trkpt lat="47.13013" lon="-0.1736">
        <ele>36</ele>
        <time>2021-03-25T04:05:14Z</time>
      </trkpt>
      <trkpt lat="47.13017" lon="-0.17322">
        <ele>35</ele>
        <time>2021-03-25T04:05:19Z</time>
      </trkpt>
      <trkpt lat="47.13025" lon="-0.17292">
        <ele>35</ele>
        <time>2021-03-25T04:05:23Z</time>
      </trkpt>
      <trkpt lat="47.13043" lon="-0.17256">
        <ele>35</ele>
        <time>2021-03-25T04:05:28Z</time>
      </trkpt>
      <trkpt lat="47.1312" lon="-0.17117">
        <ele>38</ele>
        <time>2021-03-25T04:05:50Z</time>
      </trkpt>
      <trkpt lat="47.1314" lon="-0.17069">
        <ele>39</ele>
        <time>2021-03-25T04:05:57Z</time>
      </trkpt>
      <trkpt lat="47.13147" lon="-0.17046">
        <ele>39</ele>
        <time>2021-03-25T04:06:00Z</time>
      </trkpt>
      <trkpt lat="47.13156" lon="-0.16995">
        <ele>39</ele>
        <time>2021-03-25T04:06:06Z</time>
      </trkpt>
      <trkpt lat="47.13172" lon="-0.16813">
        <ele>38</ele>
        <time>2021-03-25T04:06:28Z</time>
      </trkpt>
      <trkpt lat="47.13174" lon="-0.16789">
        <ele>37</ele>
        <time>2021-03-25T04:06:31Z</time>
      </trkpt>
      <trkpt lat="47.13185" lon="-0.16727">
        <ele>36</ele>
        <time>2021-03-25T04:06:39Z</time>
      </trkpt>
      <trkpt lat="47.1324" lon="-0.16569">
        <ele>39</ele>
        <time>2021-03-25T04:07:01Z</time>
      </trkpt>
      <trkpt lat="47.13258" lon="-0.16496">
        <ele>38</ele>
        <time>2021-03-25T04:07:10Z</time>
      </trkpt>
      <trkpt lat="47.13282" lon="-0.16417">
        <ele>38</ele>
        <time>2021-03-25T04:07:21Z</time>
      </trkpt>
      <trkpt lat="47.13313" lon="-0.16346">
        <ele>37</ele>
        <time>2021-03-25T04:07:31Z</time>
      </trkpt>
      <trkpt lat="47.13335" lon="-0.16274">
        <ele>34</ele>
        <time>2021-03-25T04:07:40Z</time>
      </trkpt>
      <trkpt lat="47.13373" lon="-0.162">
        <ele>36</ele>
        <time>2021-03-25T04:07:51Z</time>
      </trkpt>
      <trkpt lat="47.13405" lon="-0.16144">
        <ele>36</ele>
        <time>2021-03-25T04:08:00Z</time>
      </trkpt>
      <trkpt lat="47.13465" lon="-0.1605">
        <ele>36</ele>
        <time>2021-03-25T04:08:16Z</time>
      </trkpt>
      <trkpt lat="47.13545" lon="-0.15857">
        <ele>37</ele>
        <time>2021-03-25T04:08:43Z</time>
      </trkpt>
      <trkpt lat="47.13601" lon="-0.1577">
        <ele>37</ele>
        <time>2021-03-25T04:08:58Z</time>
      </trkpt>
      <trkpt lat="47.13614" lon="-0.15738">
        <ele>36</ele>
        <time>2021-03-25T04:09:02Z</time>
      </trkpt>
      <trkpt lat="47.13636" lon="-0.15646">
        <ele>34</ele>
        <time>2021-03-25T04:09:14Z</time>
      </trkpt>
      <trkpt lat="47.13644" lon="-0.1562">
        <ele>34</ele>
        <time>2021-03-25T04:09:18Z</time>
      </trkpt>
      <trkpt lat="47.13667" lon="-0.15568">
        <ele>34</ele>
        <time>2021-03-25T04:09:25Z</time>
      </trkpt>
      <trkpt lat="47.13526" lon="-0.15409">
        <ele>33</ele>
        <time>2021-03-25T04:09:57Z</time>
      </trkpt>
      <trkpt lat="47.13497" lon="-0.15372">
        <ele>35</ele>
        <time>2021-03-25T04:10:04Z</time>
      </trkpt>
      <trkpt lat="47.13435" lon="-0.15306">
        <ele>43</ele>
        <time>2021-03-25T04:10:17Z</time>
      </trkpt>
      <trkpt lat="47.13374" lon="-0.15233">
        <ele>51</ele>
        <time>2021-03-25T04:10:31Z</time>
      </trkpt>
      <trkpt lat="47.13342" lon="-0.15199">
        <ele>53</ele>
        <time>2021-03-25T04:10:38Z</time>
      </trkpt>
      <trkpt lat="47.13333" lon="-0.15192">
        <ele>53</ele>
        <time>2021-03-25T04:10:40Z</time>
      </trkpt>
      <trkpt lat="47.13323" lon="-0.15188">
        <ele>54</ele>
        <time>2021-03-25T04:10:42Z</time>
      </trkpt>
      <trkpt lat="47.13311" lon="-0.15189">
        <ele>54</ele>
        <time>2021-03-25T04:10:44Z</time>
      </trkpt>
      <trkpt lat="47.13312" lon="-0.15175">
        <ele>55</ele>
        <time>2021-03-25T04:10:46Z</time>
      </trkpt>
      <trkpt lat="47.13355" lon="-0.15115">
        <ele>53</ele>
        <time>2021-03-25T04:10:56Z</time>
      </trkpt>
      <trkpt lat="47.13437" lon="-0.14973">
        <ele>49</ele>
        <time>2021-03-25T04:11:19Z</time>
      </trkpt>
      <trkpt lat="47.13563" lon="-0.14762">
        <ele>48</ele>
        <time>2021-03-25T04:11:53Z</time>
      </trkpt>
      <trkpt lat="47.1357" lon="-0.14746">
        <ele>48</ele>
        <time>2021-03-25T04:11:55Z</time>
      </trkpt>
      <trkpt lat="47.13591" lon="-0.1471">
        <ele>49</ele>
        <time>2021-03-25T04:12:01Z</time>
      </trkpt>
      <trkpt lat="47.13879" lon="-0.14236">
        <ele>43</ele>
        <time>2021-03-25T04:13:18Z</time>
      </trkpt>
      <trkpt lat="47.139" lon="-0.14207">
        <ele>43</ele>
        <time>2021-03-25T04:13:23Z</time>
      </trkpt>
      <trkpt lat="47.14067" lon="-0.13942">
        <ele>43</ele>
        <time>2021-03-25T04:14:07Z</time>
      </trkpt>
      <trkpt lat="47.14231" lon="-0.13665">
        <ele>43</ele>
        <time>2021-03-25T04:14:51Z</time>
      </trkpt>
      <trkpt lat="47.14272" lon="-0.13603">
        <ele>43</ele>
        <time>2021-03-25T04:15:01Z</time>
      </trkpt>
      <trkpt lat="47.14315" lon="-0.13541">
        <ele>43</ele>
        <time>2021-03-25T04:15:12Z</time>
      </trkpt>
      <trkpt lat="47.14416" lon="-0.13409">
        <ele>43</ele>
        <time>2021-03-25T04:15:36Z</time>
      </trkpt>
      <trkpt lat="47.1445" lon="-0.13371">
        <ele>42</ele>
        <time>2021-03-25T04:15:44Z</time>
      </trkpt>
      <trkpt lat="47.14508" lon="-0.13317">
        <ele>39</ele>
        <time>2021-03-25T04:15:56Z</time>
      </trkpt>
      <trkpt lat="47.1456" lon="-0.13264">
        <ele>40</ele>
        <time>2021-03-25T04:16:07Z</time>
      </trkpt>
      <trkpt lat="47.14597" lon="-0.13218">
        <ele>39</ele>
        <time>2021-03-25T04:16:16Z</time>
      </trkpt>
      <trkpt lat="47.14618" lon="-0.13187">
        <ele>38</ele>
        <time>2021-03-25T04:16:21Z</time>
      </trkpt>
      <trkpt lat="47.1464" lon="-0.1315">
        <ele>37</ele>
        <time>2021-03-25T04:16:27Z</time>
      </trkpt>
      <trkpt lat="47.14691" lon="-0.13072">
        <ele>36</ele>
        <time>2021-03-25T04:16:40Z</time>
      </trkpt>
      <trkpt lat="47.14741" lon="-0.13003">
        <ele>37</ele>
        <time>2021-03-25T04:16:52Z</time>
      </trkpt>
      <trkpt lat="47.14779" lon="-0.12959">
        <ele>36</ele>
        <time>2021-03-25T04:17:01Z</time>
      </trkpt>
      <trkpt lat="47.14821" lon="-0.12915">
        <ele>35</ele>
        <time>2021-03-25T04:17:10Z</time>
      </trkpt>
      <trkpt lat="47.14852" lon="-0.12873">
        <ele>35</ele>
        <time>2021-03-25T04:17:18Z</time>
      </trkpt>
      <trkpt lat="47.14914" lon="-0.12781">
        <ele>36</ele>
        <time>2021-03-25T04:17:33Z</time>
      </trkpt>
      <trkpt lat="47.14946" lon="-0.12737">
        <ele>36</ele>
        <time>2021-03-25T04:17:41Z</time>
      </trkpt>
      <trkpt lat="47.1506" lon="-0.12606">
        <ele>35</ele>
        <time>2021-03-25T04:18:07Z</time>
      </trkpt>
      <trkpt lat="47.15085" lon="-0.12574">
        <ele>34</ele>
        <time>2021-03-25T04:18:13Z</time>
      </trkpt>
      <trkpt lat="47.15112" lon="-0.12537">
        <ele>34</ele>
        <time>2021-03-25T04:18:19Z</time>
      </trkpt>
      <trkpt lat="47.15197" lon="-0.12406">
        <ele>33</ele>
        <time>2021-03-25T04:18:41Z</time>
      </trkpt>
      <trkpt lat="47.15226" lon="-0.12357">
        <ele>34</ele>
        <time>2021-03-25T04:18:49Z</time>
      </trkpt>
      <trkpt lat="47.15242" lon="-0.12318">
        <ele>36</ele>
        <time>2021-03-25T04:18:55Z</time>
      </trkpt>
      <trkpt lat="47.15258" lon="-0.12276">
        <ele>38</ele>
        <time>2021-03-25T04:19:01Z</time>
      </trkpt>
      <trkpt lat="47.15291" lon="-0.12166">
        <ele>39</ele>
        <time>2021-03-25T04:19:15Z</time>
      </trkpt>
      <trkpt lat="47.15311" lon="-0.12113">
        <ele>40</ele>
        <time>2021-03-25T04:19:22Z</time>
      </trkpt>
      <trkpt lat="47.15365" lon="-0.11997">
        <ele>39</ele>
        <time>2021-03-25T04:19:39Z</time>
      </trkpt>
      <trkpt lat="47.15422" lon="-0.11857">
        <ele>36</ele>
        <time>2021-03-25T04:19:59Z</time>
      </trkpt>
      <trkpt lat="47.15561" lon="-0.11546">
        <ele>36</ele>
        <time>2021-03-25T04:20:44Z</time>
      </trkpt>
      <trkpt lat="47.15589" lon="-0.11501">
        <ele>36</ele>
        <time>2021-03-25T04:20:52Z</time>
      </trkpt>
      <trkpt lat="47.15618" lon="-0.11466">
        <ele>36</ele>
        <time>2021-03-25T04:20:58Z</time>
      </trkpt>
      <trkpt lat="47.15637" lon="-0.11448">
        <ele>35</ele>
        <time>2021-03-25T04:21:02Z</time>
      </trkpt>
      <trkpt lat="47.15665" lon="-0.11428">
        <ele>35</ele>
        <time>2021-03-25T04:21:08Z</time>
      </trkpt>
      <trkpt lat="47.15984" lon="-0.11267">
        <ele>34</ele>
        <time>2021-03-25T04:22:08Z</time>
      </trkpt>
      <trkpt lat="47.16049" lon="-0.11229">
        <ele>35</ele>
        <time>2021-03-25T04:22:20Z</time>
      </trkpt>
      <trkpt lat="47.16066" lon="-0.11216">
        <ele>35</ele>
        <time>2021-03-25T04:22:24Z</time>
      </trkpt>
      <trkpt lat="47.16095" lon="-0.1119">
        <ele>34</ele>
        <time>2021-03-25T04:22:30Z</time>
      </trkpt>
      <trkpt lat="47.16178" lon="-0.11103">
        <ele>33</ele>
        <time>2021-03-25T04:22:48Z</time>
      </trkpt>
      <trkpt lat="47.16209" lon="-0.11077">
        <ele>33</ele>
        <time>2021-03-25T04:22:54Z</time>
      </trkpt>
      <trkpt lat="47.16245" lon="-0.11053">
        <ele>32</ele>
        <time>2021-03-25T04:23:01Z</time>
      </trkpt>
      <trkpt lat="47.163" lon="-0.11021">
        <ele>31</ele>
        <time>2021-03-25T04:23:12Z</time>
      </trkpt>
      <trkpt lat="47.16379" lon="-0.10967">
        <ele>31</ele>
        <time>2021-03-25T04:23:27Z</time>
      </trkpt>
      <trkpt lat="47.16562" lon="-0.10808">
        <ele>31</ele>
        <time>2021-03-25T04:24:05Z</time>
      </trkpt>
      <trkpt lat="47.16596" lon="-0.10783">
        <ele>31</ele>
        <time>2021-03-25T04:24:12Z</time>
      </trkpt>
      <trkpt lat="47.16634" lon="-0.1076">
        <ele>31</ele>
        <time>2021-03-25T04:24:19Z</time>
      </trkpt>
      <trkpt lat="47.16712" lon="-0.10724">
        <ele>31</ele>
        <time>2021-03-25T04:24:34Z</time>
      </trkpt>
      <trkpt lat="47.1674" lon="-0.10707">
        <ele>31</ele>
        <time>2021-03-25T04:24:39Z</time>
      </trkpt>
      <trkpt lat="47.16765" lon="-0.10689">
        <ele>31</ele>
        <time>2021-03-25T04:24:44Z</time>
      </trkpt>
      <trkpt lat="47.16823" lon="-0.10635">
        <ele>30</ele>
        <time>2021-03-25T04:24:56Z</time>
      </trkpt>
      <trkpt lat="47.16921" lon="-0.10538">
        <ele>30</ele>
        <time>2021-03-25T04:25:17Z</time>
      </trkpt>
      <trkpt lat="47.17256" lon="-0.10154">
        <ele>33</ele>
        <time>2021-03-25T04:26:33Z</time>
      </trkpt>
      <trkpt lat="47.17255" lon="-0.10148">
        <ele>33</ele>
        <time>2021-03-25T04:26:34Z</time>
      </trkpt>
      <trkpt lat="47.17257" lon="-0.10144">
        <ele>33</ele>
        <time>2021-03-25T04:26:34Z</time>
      </trkpt>
      <trkpt lat="47.17261" lon="-0.10142">
        <ele>33</ele>
        <time>2021-03-25T04:26:35Z</time>
      </trkpt>
      <trkpt lat="47.17264" lon="-0.10145">
        <ele>33</ele>
        <time>2021-03-25T04:26:36Z</time>
      </trkpt>
      <trkpt lat="47.17274" lon="-0.10134">
        <ele>33</ele>
        <time>2021-03-25T04:26:38Z</time>
      </trkpt>
      <trkpt lat="47.17367" lon="-0.09991">
        <ele>31</ele>
        <time>2021-03-25T04:27:02Z</time>
      </trkpt>
      <trkpt lat="47.17406" lon="-0.09929">
        <ele>31</ele>
        <time>2021-03-25T04:27:12Z</time>
      </trkpt>
      <trkpt lat="47.1742" lon="-0.09903">
        <ele>31</ele>
        <time>2021-03-25T04:27:16Z</time>
      </trkpt>
      <trkpt lat="47.17435" lon="-0.09876">
        <ele>31</ele>
        <time>2021-03-25T04:27:20Z</time>
      </trkpt>
      <trkpt lat="47.17481" lon="-0.09771">
        <ele>31</ele>
        <time>2021-03-25T04:27:35Z</time>
      </trkpt>
      <trkpt lat="47.17528" lon="-0.09656">
        <ele>29</ele>
        <time>2021-03-25T04:27:52Z</time>
      </trkpt>
      <trkpt lat="47.17547" lon="-0.09616">
        <ele>30</ele>
        <time>2021-03-25T04:27:57Z</time>
      </trkpt>
      <trkpt lat="47.17571" lon="-0.09576">
        <ele>31</ele>
        <time>2021-03-25T04:28:04Z</time>
      </trkpt>
      <trkpt lat="47.17605" lon="-0.09523">
        <ele>30</ele>
        <time>2021-03-25T04:28:13Z</time>
      </trkpt>
      <trkpt lat="47.17727" lon="-0.09374">
        <ele>29</ele>
        <time>2021-03-25T04:28:41Z</time>
      </trkpt>
      <trkpt lat="47.17915" lon="-0.0912">
        <ele>29</ele>
        <time>2021-03-25T04:29:26Z</time>
      </trkpt>
      <trkpt lat="47.17941" lon="-0.09093">
        <ele>29</ele>
        <time>2021-03-25T04:29:32Z</time>
      </trkpt>
      <trkpt lat="47.17962" lon="-0.09082">
        <ele>30</ele>
        <time>2021-03-25T04:29:36Z</time>
      </trkpt>
      <trkpt lat="47.17981" lon="-0.09076">
        <ele>30</ele>
        <time>2021-03-25T04:29:39Z</time>
      </trkpt>
      <trkpt lat="47.18026" lon="-0.09068">
        <ele>30</ele>
        <time>2021-03-25T04:29:47Z</time>
      </trkpt>
      <trkpt lat="47.18085" lon="-0.09066">
        <ele>29</ele>
        <time>2021-03-25T04:29:58Z</time>
      </trkpt>
      <trkpt lat="47.18151" lon="-0.09055">
        <ele>28</ele>
        <time>2021-03-25T04:30:10Z</time>
      </trkpt>
      <trkpt lat="47.1835" lon="-0.09037">
        <ele>27</ele>
        <time>2021-03-25T04:30:45Z</time>
      </trkpt>
      <trkpt lat="47.18373" lon="-0.09031">
        <ele>27</ele>
        <time>2021-03-25T04:30:49Z</time>
      </trkpt>
      <trkpt lat="47.18354" lon="-0.08832">
        <ele>28</ele>
        <time>2021-03-25T04:31:14Z</time>
      </trkpt>
      <trkpt lat="47.18352" lon="-0.08711">
        <ele>28</ele>
        <time>2021-03-25T04:31:28Z</time>
      </trkpt>
      <trkpt lat="47.18342" lon="-0.08593">
        <ele>31</ele>
        <time>2021-03-25T04:31:43Z</time>
      </trkpt>
      <trkpt lat="47.18321" lon="-0.08402">
        <ele>29</ele>
        <time>2021-03-25T04:32:06Z</time>
      </trkpt>
      <trkpt lat="47.18312" lon="-0.08284">
        <ele>31</ele>
        <time>2021-03-25T04:32:20Z</time>
      </trkpt>
      <trkpt lat="47.1831" lon="-0.08202">
        <ele>34</ele>
        <time>2021-03-25T04:32:30Z</time>
      </trkpt>
      <trkpt lat="47.18315" lon="-0.08108">
        <ele>38</ele>
        <time>2021-03-25T04:32:42Z</time>
      </trkpt>
      <trkpt lat="47.1834" lon="-0.0791">
        <ele>41</ele>
        <time>2021-03-25T04:33:06Z</time>
      </trkpt>
      <trkpt lat="47.18356" lon="-0.07814">
        <ele>40</ele>
        <time>2021-03-25T04:33:18Z</time>
      </trkpt>
      <trkpt lat="47.18388" lon="-0.0765">
        <ele>39</ele>
        <time>2021-03-25T04:33:39Z</time>
      </trkpt>
      <trkpt lat="47.18436" lon="-0.0734">
        <ele>37</ele>
        <time>2021-03-25T04:34:17Z</time>
      </trkpt>
      <trkpt lat="47.18457" lon="-0.07215">
        <ele>35</ele>
        <time>2021-03-25T04:34:33Z</time>
      </trkpt>
      <trkpt lat="47.18516" lon="-0.0689">
        <ele>38</ele>
        <time>2021-03-25T04:35:13Z</time>
      </trkpt>
      <trkpt lat="47.18565" lon="-0.06627">
        <ele>41</ele>
        <time>2021-03-25T04:35:46Z</time>
      </trkpt>
      <trkpt lat="47.18599" lon="-0.06432">
        <ele>44</ele>
        <time>2021-03-25T04:36:11Z</time>
      </trkpt>
      <trkpt lat="47.18613" lon="-0.0633">
        <ele>44</ele>
        <time>2021-03-25T04:36:23Z</time>
      </trkpt>
      <trkpt lat="47.1864" lon="-0.06175">
        <ele>45</ele>
        <time>2021-03-25T04:36:43Z</time>
      </trkpt>
      <trkpt lat="47.1865" lon="-0.06109">
        <ele>46</ele>
        <time>2021-03-25T04:36:51Z</time>
      </trkpt>
      <trkpt lat="47.18667" lon="-0.05969">
        <ele>46</ele>
        <time>2021-03-25T04:37:08Z</time>
      </trkpt>
      <trkpt lat="47.18703" lon="-0.05766">
        <ele>45</ele>
        <time>2021-03-25T04:37:33Z</time>
      </trkpt>
      <trkpt lat="47.18704" lon="-0.05751">
        <ele>45</ele>
        <time>2021-03-25T04:37:35Z</time>
      </trkpt>
      <trkpt lat="47.18702" lon="-0.05734">
        <ele>46</ele>
        <time>2021-03-25T04:37:37Z</time>
      </trkpt>
      <trkpt lat="47.18695" lon="-0.05709">
        <ele>46</ele>
        <time>2021-03-25T04:37:41Z</time>
      </trkpt>
      <trkpt lat="47.18695" lon="-0.05694">
        <ele>46</ele>
        <time>2021-03-25T04:37:42Z</time>
      </trkpt>
      <trkpt lat="47.18701" lon="-0.05677">
        <ele>47</ele>
        <time>2021-03-25T04:37:45Z</time>
      </trkpt>
      <trkpt lat="47.1872" lon="-0.0565">
        <ele>47</ele>
        <time>2021-03-25T04:37:49Z</time>
      </trkpt>
      <trkpt lat="47.18727" lon="-0.0563">
        <ele>48</ele>
        <time>2021-03-25T04:37:52Z</time>
      </trkpt>
      <trkpt lat="47.18756" lon="-0.05453">
        <ele>48</ele>
        <time>2021-03-25T04:38:14Z</time>
      </trkpt>
      <trkpt lat="47.18774" lon="-0.05318">
        <ele>47</ele>
        <time>2021-03-25T04:38:31Z</time>
      </trkpt>
      <trkpt lat="47.18804" lon="-0.05136">
        <ele>46</ele>
        <time>2021-03-25T04:38:53Z</time>
      </trkpt>
      <trkpt lat="47.18808" lon="-0.05093">
        <ele>45</ele>
        <time>2021-03-25T04:38:59Z</time>
      </trkpt>
      <trkpt lat="47.18809" lon="-0.05033">
        <ele>45</ele>
        <time>2021-03-25T04:39:06Z</time>
      </trkpt>
      <trkpt lat="47.18809" lon="-0.04946">
        <ele>43</ele>
        <time>2021-03-25T04:39:17Z</time>
      </trkpt>
      <trkpt lat="47.18813" lon="-0.04846">
        <ele>43</ele>
        <time>2021-03-25T04:39:29Z</time>
      </trkpt>
      <trkpt lat="47.18826" lon="-0.04721">
        <ele>41</ele>
        <time>2021-03-25T04:39:44Z</time>
      </trkpt>
      <trkpt lat="47.18827" lon="-0.04685">
        <ele>40</ele>
        <time>2021-03-25T04:39:48Z</time>
      </trkpt>
      <trkpt lat="47.18823" lon="-0.04612">
        <ele>41</ele>
        <time>2021-03-25T04:39:57Z</time>
      </trkpt>
      <trkpt lat="47.1882" lon="-0.04603">
        <ele>41</ele>
        <time>2021-03-25T04:39:58Z</time>
      </trkpt>
      <trkpt lat="47.18817" lon="-0.04581">
        <ele>42</ele>
        <time>2021-03-25T04:40:01Z</time>
      </trkpt>
      <trkpt lat="47.18813" lon="-0.04508">
        <ele>41</ele>
        <time>2021-03-25T04:40:10Z</time>
      </trkpt>
      <trkpt lat="47.18807" lon="-0.04272">
        <ele>42</ele>
        <time>2021-03-25T04:40:38Z</time>
      </trkpt>
      <trkpt lat="47.188" lon="-0.04136">
        <ele>46</ele>
        <time>2021-03-25T04:40:55Z</time>
      </trkpt>
      <trkpt lat="47.18804" lon="-0.04016">
        <ele>48</ele>
        <time>2021-03-25T04:41:09Z</time>
      </trkpt>
      <trkpt lat="47.188" lon="-0.03952">
        <ele>51</ele>
        <time>2021-03-25T04:41:17Z</time>
      </trkpt>
      <trkpt lat="47.18796" lon="-0.03929">
        <ele>53</ele>
        <time>2021-03-25T04:41:20Z</time>
      </trkpt>
      <trkpt lat="47.18793" lon="-0.03889">
        <ele>54</ele>
        <time>2021-03-25T04:41:25Z</time>
      </trkpt>
      <trkpt lat="47.18796" lon="-0.03718">
        <ele>58</ele>
        <time>2021-03-25T04:41:46Z</time>
      </trkpt>
      <trkpt lat="47.18794" lon="-0.03635">
        <ele>60</ele>
        <time>2021-03-25T04:41:56Z</time>
      </trkpt>
      <trkpt lat="47.18795" lon="-0.03596">
        <ele>61</ele>
        <time>2021-03-25T04:42:00Z</time>
      </trkpt>
      <trkpt lat="47.18798" lon="-0.03572">
        <ele>61</ele>
        <time>2021-03-25T04:42:03Z</time>
      </trkpt>
      <trkpt lat="47.18809" lon="-0.03537">
        <ele>62</ele>
        <time>2021-03-25T04:42:08Z</time>
      </trkpt>
      <trkpt lat="47.18812" lon="-0.03511">
        <ele>63</ele>
        <time>2021-03-25T04:42:11Z</time>
      </trkpt>
      <trkpt lat="47.18828" lon="-0.03079">
        <ele>76</ele>
        <time>2021-03-25T04:43:04Z</time>
      </trkpt>
      <trkpt lat="47.18837" lon="-0.02987">
        <ele>79</ele>
        <time>2021-03-25T04:43:15Z</time>
      </trkpt>
      <trkpt lat="47.18869" lon="-0.02769">
        <ele>84</ele>
        <time>2021-03-25T04:43:42Z</time>
      </trkpt>
      <trkpt lat="47.18876" lon="-0.02734">
        <ele>85</ele>
        <time>2021-03-25T04:43:46Z</time>
      </trkpt>
      <trkpt lat="47.189" lon="-0.02664">
        <ele>84</ele>
        <time>2021-03-25T04:43:56Z</time>
      </trkpt>
      <trkpt lat="47.18904" lon="-0.02625">
        <ele>83</ele>
        <time>2021-03-25T04:44:00Z</time>
      </trkpt>
      <trkpt lat="47.18907" lon="-0.02452">
        <ele>76</ele>
        <time>2021-03-25T04:44:21Z</time>
      </trkpt>
      <trkpt lat="47.18904" lon="-0.02414">
        <ele>74</ele>
        <time>2021-03-25T04:44:26Z</time>
      </trkpt>
      <trkpt lat="47.18883" lon="-0.02307">
        <ele>74</ele>
        <time>2021-03-25T04:44:39Z</time>
      </trkpt>
      <trkpt lat="47.18855" lon="-0.02063">
        <ele>69</ele>
        <time>2021-03-25T04:45:09Z</time>
      </trkpt>
      <trkpt lat="47.18854" lon="-0.02026">
        <ele>69</ele>
        <time>2021-03-25T04:45:14Z</time>
      </trkpt>
      <trkpt lat="47.18857" lon="-0.01993">
        <ele>70</ele>
        <time>2021-03-25T04:45:18Z</time>
      </trkpt>
      <trkpt lat="47.18867" lon="-0.01947">
        <ele>69</ele>
        <time>2021-03-25T04:45:24Z</time>
      </trkpt>
      <trkpt lat="47.18933" lon="-0.01726">
        <ele>69</ele>
        <time>2021-03-25T04:45:53Z</time>
      </trkpt>
      <trkpt lat="47.18939" lon="-0.01683">
        <ele>69</ele>
        <time>2021-03-25T04:45:58Z</time>
      </trkpt>
      <trkpt lat="47.1894" lon="-0.0164">
        <ele>69</ele>
        <time>2021-03-25T04:46:03Z</time>
      </trkpt>
      <trkpt lat="47.18935" lon="-0.01598">
        <ele>69</ele>
        <time>2021-03-25T04:46:09Z</time>
      </trkpt>
      <trkpt lat="47.18892" lon="-0.01334">
        <ele>73</ele>
        <time>2021-03-25T04:46:41Z</time>
      </trkpt>
      <trkpt lat="47.18881" lon="-0.01291">
        <ele>74</ele>
        <time>2021-03-25T04:46:47Z</time>
      </trkpt>
      <trkpt lat="47.1882" lon="-0.0111">
        <ele>80</ele>
        <time>2021-03-25T04:47:11Z</time>
      </trkpt>
      <trkpt lat="47.18801" lon="-0.01062">
        <ele>81</ele>
        <time>2021-03-25T04:47:18Z</time>
      </trkpt>
      <trkpt lat="47.1864" lon="-0.00789">
        <ele>91</ele>
        <time>2021-03-25T04:48:02Z</time>
      </trkpt>
      <trkpt lat="47.18629" lon="-0.00763">
        <ele>92</ele>
        <time>2021-03-25T04:48:05Z</time>
      </trkpt>
      <trkpt lat="47.18622" lon="-0.00735">
        <ele>93</ele>
        <time>2021-03-25T04:48:09Z</time>
      </trkpt>
      <trkpt lat="47.1862" lon="-0.00697">
        <ele>93</ele>
        <time>2021-03-25T04:48:14Z</time>
      </trkpt>
      <trkpt lat="47.18622" lon="-0.00107">
        <ele>103</ele>
        <time>2021-03-25T04:49:25Z</time>
      </trkpt>
      <trkpt lat="47.18621" lon="-0.00069">
        <ele>103</ele>
        <time>2021-03-25T04:49:30Z</time>
      </trkpt>
      <trkpt lat="47.18615" lon="-0.00036">
        <ele>103</ele>
        <time>2021-03-25T04:49:34Z</time>
      </trkpt>
      <trkpt lat="47.186" lon="0.00021">
        <ele>103</ele>
        <time>2021-03-25T04:49:41Z</time>
      </trkpt>
      <trkpt lat="47.18404" lon="0.00531">
        <ele>101</ele>
        <time>2021-03-25T04:50:52Z</time>
      </trkpt>
      <trkpt lat="47.1839" lon="0.00576">
        <ele>101</ele>
        <time>2021-03-25T04:50:58Z</time>
      </trkpt>
      <trkpt lat="47.1838" lon="0.00627">
        <ele>101</ele>
        <time>2021-03-25T04:51:04Z</time>
      </trkpt>
      <trkpt lat="47.18377" lon="0.00682">
        <ele>101</ele>
        <time>2021-03-25T04:51:11Z</time>
      </trkpt>
      <trkpt lat="47.18365" lon="0.01028">
        <ele>105</ele>
        <time>2021-03-25T04:51:53Z</time>
      </trkpt>
      <trkpt lat="47.18342" lon="0.01588">
        <ele>106</ele>
        <time>2021-03-25T04:53:01Z</time>
      </trkpt>
      <trkpt lat="47.18338" lon="0.01636">
        <ele>107</ele>
        <time>2021-03-25T04:53:07Z</time>
      </trkpt>
      <trkpt lat="47.18331" lon="0.01677">
        <ele>107</ele>
        <time>2021-03-25T04:53:12Z</time>
      </trkpt>
      <trkpt lat="47.1829" lon="0.01817">
        <ele>106</ele>
        <time>2021-03-25T04:53:30Z</time>
      </trkpt>
      <trkpt lat="47.18283" lon="0.0185">
        <ele>106</ele>
        <time>2021-03-25T04:53:34Z</time>
      </trkpt>
      <trkpt lat="47.18278" lon="0.01884">
        <ele>105</ele>
        <time>2021-03-25T04:53:39Z</time>
      </trkpt>
      <trkpt lat="47.18234" lon="0.02422">
        <ele>106</ele>
        <time>2021-03-25T04:54:44Z</time>
      </trkpt>
      <trkpt lat="47.1823" lon="0.02449">
        <ele>107</ele>
        <time>2021-03-25T04:54:47Z</time>
      </trkpt>
      <trkpt lat="47.1822" lon="0.02494">
        <ele>108</ele>
        <time>2021-03-25T04:54:53Z</time>
      </trkpt>
      <trkpt lat="47.18207" lon="0.02537">
        <ele>107</ele>
        <time>2021-03-25T04:54:59Z</time>
      </trkpt>
      <trkpt lat="47.18178" lon="0.02619">
        <ele>107</ele>
        <time>2021-03-25T04:55:10Z</time>
      </trkpt>
      <trkpt lat="47.18115" lon="0.02787">
        <ele>107</ele>
        <time>2021-03-25T04:55:33Z</time>
      </trkpt>
      <trkpt lat="47.18099" lon="0.02834">
        <ele>108</ele>
        <time>2021-03-25T04:55:40Z</time>
      </trkpt>
      <trkpt lat="47.18096" lon="0.02853">
        <ele>108</ele>
        <time>2021-03-25T04:55:42Z</time>
      </trkpt>
      <trkpt lat="47.18082" lon="0.02963">
        <ele>108</ele>
        <time>2021-03-25T04:55:56Z</time>
      </trkpt>
      <trkpt lat="47.18066" lon="0.03052">
        <ele>107</ele>
        <time>2021-03-25T04:56:07Z</time>
      </trkpt>
      <trkpt lat="47.18037" lon="0.03178">
        <ele>108</ele>
        <time>2021-03-25T04:56:23Z</time>
      </trkpt>
      <trkpt lat="47.18035" lon="0.03207">
        <ele>108</ele>
        <time>2021-03-25T04:56:26Z</time>
      </trkpt>
      <trkpt lat="47.18034" lon="0.03239">
        <ele>108</ele>
        <time>2021-03-25T04:56:30Z</time>
      </trkpt>
      <trkpt lat="47.18043" lon="0.03383">
        <ele>107</ele>
        <time>2021-03-25T04:56:48Z</time>
      </trkpt>
      <trkpt lat="47.18059" lon="0.03482">
        <ele>108</ele>
        <time>2021-03-25T04:57:00Z</time>
      </trkpt>
      <trkpt lat="47.18078" lon="0.03579">
        <ele>104</ele>
        <time>2021-03-25T04:57:12Z</time>
      </trkpt>
      <trkpt lat="47.1808" lon="0.03594">
        <ele>103</ele>
        <time>2021-03-25T04:57:14Z</time>
      </trkpt>
      <trkpt lat="47.18079" lon="0.03608">
        <ele>102</ele>
        <time>2021-03-25T04:57:16Z</time>
      </trkpt>
      <trkpt lat="47.18072" lon="0.03635">
        <ele>101</ele>
        <time>2021-03-25T04:57:19Z</time>
      </trkpt>
      <trkpt lat="47.18051" lon="0.03672">
        <ele>99</ele>
        <time>2021-03-25T04:57:25Z</time>
      </trkpt>
      <trkpt lat="47.18041" lon="0.03695">
        <ele>98</ele>
        <time>2021-03-25T04:57:28Z</time>
      </trkpt>
      <trkpt lat="47.18031" lon="0.03733">
        <ele>97</ele>
        <time>2021-03-25T04:57:33Z</time>
      </trkpt>
      <trkpt lat="47.18025" lon="0.03769">
        <ele>97</ele>
        <time>2021-03-25T04:57:38Z</time>
      </trkpt>
      <trkpt lat="47.18022" lon="0.03808">
        <ele>97</ele>
        <time>2021-03-25T04:57:43Z</time>
      </trkpt>
      <trkpt lat="47.18026" lon="0.03842">
        <ele>98</ele>
        <time>2021-03-25T04:57:47Z</time>
      </trkpt>
      <trkpt lat="47.18048" lon="0.0396">
        <ele>101</ele>
        <time>2021-03-25T04:58:01Z</time>
      </trkpt>
      <trkpt lat="47.18073" lon="0.04075">
        <ele>101</ele>
        <time>2021-03-25T04:58:16Z</time>
      </trkpt>
      <trkpt lat="47.18078" lon="0.04107">
        <ele>101</ele>
        <time>2021-03-25T04:58:20Z</time>
      </trkpt>
      <trkpt lat="47.18082" lon="0.04162">
        <ele>101</ele>
        <time>2021-03-25T04:58:27Z</time>
      </trkpt>
      <trkpt lat="47.18087" lon="0.04292">
        <ele>96</ele>
        <time>2021-03-25T04:58:42Z</time>
      </trkpt>
      <trkpt lat="47.18096" lon="0.04372">
        <ele>91</ele>
        <time>2021-03-25T04:58:52Z</time>
      </trkpt>
      <trkpt lat="47.18104" lon="0.04422">
        <ele>88</ele>
        <time>2021-03-25T04:58:59Z</time>
      </trkpt>
      <trkpt lat="47.18063" lon="0.04433">
        <ele>89</ele>
        <time>2021-03-25T04:59:06Z</time>
      </trkpt>
      <trkpt lat="47.18056" lon="0.04437">
        <ele>89</ele>
        <time>2021-03-25T04:59:07Z</time>
      </trkpt>
      <trkpt lat="47.18049" lon="0.04444">
        <ele>89</ele>
        <time>2021-03-25T04:59:09Z</time>
      </trkpt>
      <trkpt lat="47.18044" lon="0.04454">
        <ele>89</ele>
        <time>2021-03-25T04:59:10Z</time>
      </trkpt>
      <trkpt lat="47.18041" lon="0.04467">
        <ele>89</ele>
        <time>2021-03-25T04:59:12Z</time>
      </trkpt>
      <trkpt lat="47.18035" lon="0.04463">
        <ele>89</ele>
        <time>2021-03-25T04:59:13Z</time>
      </trkpt>
      <trkpt lat="47.18028" lon="0.04464">
        <ele>89</ele>
        <time>2021-03-25T04:59:14Z</time>
      </trkpt>
      <trkpt lat="47.18021" lon="0.04468">
        <ele>89</ele>
        <time>2021-03-25T04:59:16Z</time>
      </trkpt>
      <trkpt lat="47.18017" lon="0.04473">
        <ele>89</ele>
        <time>2021-03-25T04:59:17Z</time>
      </trkpt>
      <trkpt lat="47.18012" lon="0.04488">
        <ele>88</ele>
        <time>2021-03-25T04:59:19Z</time>
      </trkpt>
      <trkpt lat="47.18012" lon="0.04498">
        <ele>88</ele>
        <time>2021-03-25T04:59:20Z</time>
      </trkpt>
      <trkpt lat="47.18015" lon="0.04507">
        <ele>88</ele>
        <time>2021-03-25T04:59:21Z</time>
      </trkpt>
      <trkpt lat="47.18019" lon="0.04513">
        <ele>88</ele>
        <time>2021-03-25T04:59:22Z</time>
      </trkpt>
      <trkpt lat="47.18024" lon="0.04518">
        <ele>88</ele>
        <time>2021-03-25T04:59:23Z</time>
      </trkpt>
      <trkpt lat="47.18035" lon="0.0452">
        <ele>88</ele>
        <time>2021-03-25T04:59:25Z</time>
      </trkpt>
      <trkpt lat="47.18042" lon="0.04517">
        <ele>88</ele>
        <time>2021-03-25T04:59:26Z</time>
      </trkpt>
      <trkpt lat="47.18047" lon="0.0451">
        <ele>88</ele>
        <time>2021-03-25T04:59:28Z</time>
      </trkpt>
      <trkpt lat="47.1805" lon="0.04501">
        <ele>88</ele>
        <time>2021-03-25T04:59:29Z</time>
      </trkpt>
      <trkpt lat="47.18051" lon="0.04491">
        <ele>88</ele>
        <time>2021-03-25T04:59:30Z</time>
      </trkpt>
      <trkpt lat="47.18066" lon="0.04485">
        <ele>88</ele>
        <time>2021-03-25T04:59:33Z</time>
      </trkpt>
      <trkpt lat="47.18137" lon="0.04435">
        <ele>88</ele>
        <time>2021-03-25T04:59:47Z</time>
      </trkpt>
      <trkpt lat="47.18177" lon="0.04413">
        <ele>86</ele>
        <time>2021-03-25T04:59:54Z</time>
      </trkpt>
      <trkpt lat="47.18203" lon="0.04402">
        <ele>84</ele>
        <time>2021-03-25T04:59:59Z</time>
      </trkpt>
      <trkpt lat="47.18254" lon="0.04391">
        <ele>80</ele>
        <time>2021-03-25T05:00:08Z</time>
      </trkpt>
      <trkpt lat="47.18299" lon="0.04388">
        <ele>76</ele>
        <time>2021-03-25T05:00:16Z</time>
      </trkpt>
      <trkpt lat="47.18355" lon="0.04394">
        <ele>73</ele>
        <time>2021-03-25T05:00:26Z</time>
      </trkpt>
      <trkpt lat="47.18478" lon="0.04424">
        <ele>69</ele>
        <time>2021-03-25T05:00:49Z</time>
      </trkpt>
      <trkpt lat="47.18538" lon="0.04444">
        <ele>68</ele>
        <time>2021-03-25T05:01:00Z</time>
      </trkpt>
      <trkpt lat="47.18584" lon="0.04469">
        <ele>67</ele>
        <time>2021-03-25T05:01:08Z</time>
      </trkpt>
      <trkpt lat="47.1862" lon="0.04495">
        <ele>67</ele>
        <time>2021-03-25T05:01:15Z</time>
      </trkpt>
      <trkpt lat="47.18651" lon="0.04524">
        <ele>66</ele>
        <time>2021-03-25T05:01:22Z</time>
      </trkpt>
      <trkpt lat="47.18682" lon="0.04557">
        <ele>64</ele>
        <time>2021-03-25T05:01:29Z</time>
      </trkpt>
      <trkpt lat="47.18836" lon="0.04713">
        <ele>54</ele>
        <time>2021-03-25T05:02:02Z</time>
      </trkpt>
      <trkpt lat="47.18859" lon="0.04737">
        <ele>53</ele>
        <time>2021-03-25T05:02:07Z</time>
      </trkpt>
      <trkpt lat="47.18861" lon="0.04745">
        <ele>53</ele>
        <time>2021-03-25T05:02:08Z</time>
      </trkpt>
      <trkpt lat="47.1888" lon="0.04771">
        <ele>53</ele>
        <time>2021-03-25T05:02:13Z</time>
      </trkpt>
      <trkpt lat="47.18884" lon="0.04781">
        <ele>53</ele>
        <time>2021-03-25T05:02:14Z</time>
      </trkpt>
      <trkpt lat="47.1889" lon="0.04805">
        <ele>54</ele>
        <time>2021-03-25T05:02:17Z</time>
      </trkpt>
      <trkpt lat="47.18899" lon="0.04814">
        <ele>54</ele>
        <time>2021-03-25T05:02:19Z</time>
      </trkpt>
      <trkpt lat="47.18909" lon="0.04813">
        <ele>55</ele>
        <time>2021-03-25T05:02:21Z</time>
      </trkpt>
      <trkpt lat="47.18919" lon="0.04818">
        <ele>55</ele>
        <time>2021-03-25T05:02:23Z</time>
      </trkpt>
      <trkpt lat="47.1893" lon="0.0482">
        <ele>55</ele>
        <time>2021-03-25T05:02:25Z</time>
      </trkpt>
      <trkpt lat="47.18936" lon="0.04818">
        <ele>55</ele>
        <time>2021-03-25T05:02:26Z</time>
      </trkpt>
      <trkpt lat="47.18987" lon="0.04826">
        <ele>54</ele>
        <time>2021-03-25T05:02:35Z</time>
      </trkpt>
      <trkpt lat="47.19045" lon="0.04841">
        <ele>53</ele>
        <time>2021-03-25T05:02:45Z</time>
      </trkpt>
      <trkpt lat="47.19072" lon="0.04853">
        <ele>52</ele>
        <time>2021-03-25T05:02:50Z</time>
      </trkpt>
      <trkpt lat="47.19112" lon="0.04876">
        <ele>51</ele>
        <time>2021-03-25T05:02:58Z</time>
      </trkpt>
      <trkpt lat="47.19136" lon="0.04896">
        <ele>50</ele>
        <time>2021-03-25T05:03:03Z</time>
      </trkpt>
      <trkpt lat="47.19287" lon="0.05009">
        <ele>47</ele>
        <time>2021-03-25T05:03:33Z</time>
      </trkpt>
      <trkpt lat="47.19385" lon="0.05076">
        <ele>49</ele>
        <time>2021-03-25T05:03:52Z</time>
      </trkpt>
      <trkpt lat="47.19431" lon="0.05103">
        <ele>49</ele>
        <time>2021-03-25T05:04:01Z</time>
      </trkpt>
      <trkpt lat="47.19496" lon="0.0515">
        <ele>47</ele>
        <time>2021-03-25T05:04:14Z</time>
      </trkpt>
      <trkpt lat="47.19553" lon="0.05195">
        <ele>46</ele>
        <time>2021-03-25T05:04:26Z</time>
      </trkpt>
      <trkpt lat="47.19605" lon="0.05229">
        <ele>46</ele>
        <time>2021-03-25T05:04:36Z</time>
      </trkpt>
      <trkpt lat="47.19714" lon="0.05309">
        <ele>48</ele>
        <time>2021-03-25T05:04:57Z</time>
      </trkpt>
      <trkpt lat="47.19746" lon="0.05328">
        <ele>47</ele>
        <time>2021-03-25T05:05:04Z</time>
      </trkpt>
      <trkpt lat="47.19784" lon="0.05358">
        <ele>47</ele>
        <time>2021-03-25T05:05:11Z</time>
      </trkpt>
      <trkpt lat="47.19817" lon="0.05377">
        <ele>47</ele>
        <time>2021-03-25T05:05:18Z</time>
      </trkpt>
      <trkpt lat="47.19838" lon="0.05385">
        <ele>47</ele>
        <time>2021-03-25T05:05:21Z</time>
      </trkpt>
      <trkpt lat="47.19884" lon="0.05383">
        <ele>46</ele>
        <time>2021-03-25T05:05:30Z</time>
      </trkpt>
      <trkpt lat="47.1991" lon="0.05378">
        <ele>45</ele>
        <time>2021-03-25T05:05:34Z</time>
      </trkpt>
      <trkpt lat="47.19925" lon="0.0537">
        <ele>46</ele>
        <time>2021-03-25T05:05:37Z</time>
      </trkpt>
      <trkpt lat="47.19963" lon="0.05344">
        <ele>47</ele>
        <time>2021-03-25T05:05:45Z</time>
      </trkpt>
      <trkpt lat="47.2001" lon="0.05302">
        <ele>46</ele>
        <time>2021-03-25T05:05:54Z</time>
      </trkpt>
      <trkpt lat="47.20039" lon="0.05267">
        <ele>45</ele>
        <time>2021-03-25T05:06:01Z</time>
      </trkpt>
      <trkpt lat="47.20117" lon="0.05194">
        <ele>46</ele>
        <time>2021-03-25T05:06:17Z</time>
      </trkpt>
      <trkpt lat="47.20183" lon="0.05139">
        <ele>45</ele>
        <time>2021-03-25T05:06:31Z</time>
      </trkpt>
      <trkpt lat="47.20206" lon="0.05122">
        <ele>45</ele>
        <time>2021-03-25T05:06:36Z</time>
      </trkpt>
      <trkpt lat="47.20262" lon="0.05105">
        <ele>44</ele>
        <time>2021-03-25T05:06:46Z</time>
      </trkpt>
      <trkpt lat="47.20299" lon="0.05099">
        <ele>44</ele>
        <time>2021-03-25T05:06:52Z</time>
      </trkpt>
      <trkpt lat="47.20363" lon="0.05102">
        <ele>45</ele>
        <time>2021-03-25T05:07:04Z</time>
      </trkpt>
      <trkpt lat="47.20525" lon="0.05125">
        <ele>41</ele>
        <time>2021-03-25T05:07:33Z</time>
      </trkpt>
      <trkpt lat="47.20975" lon="0.05195">
        <ele>39</ele>
        <time>2021-03-25T05:08:53Z</time>
      </trkpt>
      <trkpt lat="47.21122" lon="0.0522">
        <ele>42</ele>
        <time>2021-03-25T05:09:20Z</time>
      </trkpt>
      <trkpt lat="47.21139" lon="0.05225">
        <ele>42</ele>
        <time>2021-03-25T05:09:23Z</time>
      </trkpt>
      <trkpt lat="47.21162" lon="0.05239">
        <ele>41</ele>
        <time>2021-03-25T05:09:27Z</time>
      </trkpt>
      <trkpt lat="47.21347" lon="0.05384">
        <ele>38</ele>
        <time>2021-03-25T05:10:04Z</time>
      </trkpt>
      <trkpt lat="47.21361" lon="0.05391">
        <ele>38</ele>
        <time>2021-03-25T05:10:07Z</time>
      </trkpt>
      <trkpt lat="47.21361" lon="0.05397">
        <ele>38</ele>
        <time>2021-03-25T05:10:08Z</time>
      </trkpt>
      <trkpt lat="47.21363" lon="0.05402">
        <ele>39</ele>
        <time>2021-03-25T05:10:08Z</time>
      </trkpt>
      <trkpt lat="47.21366" lon="0.05404">
        <ele>38</ele>
        <time>2021-03-25T05:10:09Z</time>
      </trkpt>
      <trkpt lat="47.21372" lon="0.054">
        <ele>38</ele>
        <time>2021-03-25T05:10:10Z</time>
      </trkpt>
      <trkpt lat="47.21382" lon="0.05413">
        <ele>38</ele>
        <time>2021-03-25T05:10:13Z</time>
      </trkpt>
      <trkpt lat="47.21433" lon="0.05457">
        <ele>36</ele>
        <time>2021-03-25T05:10:23Z</time>
      </trkpt>
      <trkpt lat="47.21501" lon="0.05537">
        <ele>34</ele>
        <time>2021-03-25T05:10:39Z</time>
      </trkpt>
      <trkpt lat="47.21492" lon="0.05551">
        <ele>35</ele>
        <time>2021-03-25T05:10:41Z</time>
      </trkpt>
      <trkpt lat="47.21492" lon="0.05558">
        <ele>35</ele>
        <time>2021-03-25T05:10:42Z</time>
      </trkpt>
      <trkpt lat="47.21494" lon="0.05565">
        <ele>35</ele>
        <time>2021-03-25T05:10:43Z</time>
      </trkpt>
    </trkseg>
  </trk>
</gpx>